<?xml version="1.0" encoding="UTF-8" standalone="no" ?>
<gpx xmlns="http://www.topografix.com/GPX/1/1" xmlns:xsi="http://www.w3.org/2001/XMLSchema-instance" xsi:schemaLocation="http://www.topografix.com/GPX/1/1 http://www.topografix.com/GPX/1/1/gpx.xsd" version="1.1" creator="VisuGPX - https://www.visugpx.com">
  <metadata>
    <name>Pornichet 27/02/2022</name>
    <desc><![CDATA[Sortie dimanche 27 février 2022
]]></desc>
  </metadata>
  <trk>
    <name><![CDATA[Pornichet Cyclisme]]></name>
    <trkseg>
      <trkpt lat="47.26428" lon="-2.31558">
        <ele>10.8</ele>
        <time>2022-02-27T08:00:03.000Z</time>
      </trkpt>
      <trkpt lat="47.26425" lon="-2.31558">
        <ele>10.6</ele>
        <time>2022-02-27T08:00:06.000Z</time>
      </trkpt>
      <trkpt lat="47.26423" lon="-2.31557">
        <ele>0.40000000596046</ele>
        <time>2022-02-27T08:00:07.000Z</time>
      </trkpt>
      <trkpt lat="47.26422" lon="-2.31557">
        <ele>0.40000000596046</ele>
        <time>2022-02-27T08:00:08.000Z</time>
      </trkpt>
      <trkpt lat="47.26421" lon="-2.31557">
        <ele>0.40000000596046</ele>
        <time>2022-02-27T08:00:09.000Z</time>
      </trkpt>
      <trkpt lat="47.26415" lon="-2.31556">
        <ele>0.40000000596046</ele>
        <time>2022-02-27T08:00:28.000Z</time>
      </trkpt>
      <trkpt lat="47.26412" lon="-2.31556">
        <ele>0.40000000596046</ele>
        <time>2022-02-27T08:00:29.000Z</time>
      </trkpt>
      <trkpt lat="47.26409" lon="-2.31557">
        <ele>0.40000000596046</ele>
        <time>2022-02-27T08:00:30.000Z</time>
      </trkpt>
      <trkpt lat="47.26404" lon="-2.31571">
        <ele>0.40000000596046</ele>
        <time>2022-02-27T08:00:34.000Z</time>
      </trkpt>
      <trkpt lat="47.26405" lon="-2.31576">
        <ele>0.40000000596046</ele>
        <time>2022-02-27T08:00:35.000Z</time>
      </trkpt>
      <trkpt lat="47.26406" lon="-2.31614">
        <ele>0.40000000596046</ele>
        <time>2022-02-27T08:00:43.000Z</time>
      </trkpt>
      <trkpt lat="47.26406" lon="-2.3164">
        <ele>-0.20000000298023</ele>
        <time>2022-02-27T08:00:48.000Z</time>
      </trkpt>
      <trkpt lat="47.26406" lon="-2.31645">
        <ele>-0.60000002384186</ele>
        <time>2022-02-27T08:00:49.000Z</time>
      </trkpt>
      <trkpt lat="47.26407" lon="-2.31651">
        <ele>-1</ele>
        <time>2022-02-27T08:00:50.000Z</time>
      </trkpt>
      <trkpt lat="47.26408" lon="-2.31656">
        <ele>-1.3999999761581</ele>
        <time>2022-02-27T08:00:51.000Z</time>
      </trkpt>
      <trkpt lat="47.26408" lon="-2.31662">
        <ele>-1.7999999523163</ele>
        <time>2022-02-27T08:00:52.000Z</time>
      </trkpt>
      <trkpt lat="47.26406" lon="-2.31666">
        <ele>-1.7999999523163</ele>
        <time>2022-02-27T08:00:53.000Z</time>
      </trkpt>
      <trkpt lat="47.26392" lon="-2.31674">
        <ele>-1.7999999523163</ele>
        <time>2022-02-27T08:00:57.000Z</time>
      </trkpt>
      <trkpt lat="47.26388" lon="-2.31676">
        <ele>-1.7999999523163</ele>
        <time>2022-02-27T08:00:58.000Z</time>
      </trkpt>
      <trkpt lat="47.26364" lon="-2.31691">
        <ele>-1.7999999523163</ele>
        <time>2022-02-27T08:01:03.000Z</time>
      </trkpt>
      <trkpt lat="47.26349" lon="-2.31698">
        <ele>-2.5999999046326</ele>
        <time>2022-02-27T08:01:06.000Z</time>
      </trkpt>
      <trkpt lat="47.26344" lon="-2.31701">
        <ele>-3</ele>
        <time>2022-02-27T08:01:07.000Z</time>
      </trkpt>
      <trkpt lat="47.26339" lon="-2.31704">
        <ele>-3.4000000953674</ele>
        <time>2022-02-27T08:01:08.000Z</time>
      </trkpt>
      <trkpt lat="47.26333" lon="-2.31706">
        <ele>-3.7999999523163</ele>
        <time>2022-02-27T08:01:09.000Z</time>
      </trkpt>
      <trkpt lat="47.26323" lon="-2.31711">
        <ele>-3.7999999523163</ele>
        <time>2022-02-27T08:01:11.000Z</time>
      </trkpt>
      <trkpt lat="47.26308" lon="-2.3172">
        <ele>-3.7999999523163</ele>
        <time>2022-02-27T08:01:14.000Z</time>
      </trkpt>
      <trkpt lat="47.26305" lon="-2.31725">
        <ele>-4.1999998092651</ele>
        <time>2022-02-27T08:01:15.000Z</time>
      </trkpt>
      <trkpt lat="47.26301" lon="-2.3173">
        <ele>-4.8000001907349</ele>
        <time>2022-02-27T08:01:16.000Z</time>
      </trkpt>
      <trkpt lat="47.26299" lon="-2.31736">
        <ele>-5.1999998092651</ele>
        <time>2022-02-27T08:01:17.000Z</time>
      </trkpt>
      <trkpt lat="47.26298" lon="-2.31742">
        <ele>-5.5999999046326</ele>
        <time>2022-02-27T08:01:18.000Z</time>
      </trkpt>
      <trkpt lat="47.26298" lon="-2.31748">
        <ele>-6</ele>
        <time>2022-02-27T08:01:19.000Z</time>
      </trkpt>
      <trkpt lat="47.26299" lon="-2.31754">
        <ele>-6</ele>
        <time>2022-02-27T08:01:20.000Z</time>
      </trkpt>
      <trkpt lat="47.26299" lon="-2.31761">
        <ele>-6</ele>
        <time>2022-02-27T08:01:21.000Z</time>
      </trkpt>
      <trkpt lat="47.26301" lon="-2.31786">
        <ele>-6</ele>
        <time>2022-02-27T08:01:25.000Z</time>
      </trkpt>
      <trkpt lat="47.26301" lon="-2.31793">
        <ele>-6</ele>
        <time>2022-02-27T08:01:26.000Z</time>
      </trkpt>
      <trkpt lat="47.26298" lon="-2.3184">
        <ele>-6</ele>
        <time>2022-02-27T08:01:33.000Z</time>
      </trkpt>
      <trkpt lat="47.26296" lon="-2.31879">
        <ele>-6</ele>
        <time>2022-02-27T08:01:39.000Z</time>
      </trkpt>
      <trkpt lat="47.26292" lon="-2.31888">
        <ele>-6</ele>
        <time>2022-02-27T08:01:41.000Z</time>
      </trkpt>
      <trkpt lat="47.26289" lon="-2.31891">
        <ele>-6</ele>
        <time>2022-02-27T08:01:42.000Z</time>
      </trkpt>
      <trkpt lat="47.26274" lon="-2.31908">
        <ele>-6</ele>
        <time>2022-02-27T08:01:46.000Z</time>
      </trkpt>
      <trkpt lat="47.26268" lon="-2.31917">
        <ele>-6</ele>
        <time>2022-02-27T08:01:48.000Z</time>
      </trkpt>
      <trkpt lat="47.26253" lon="-2.31943">
        <ele>-6</ele>
        <time>2022-02-27T08:01:54.000Z</time>
      </trkpt>
      <trkpt lat="47.26248" lon="-2.31953">
        <ele>-6</ele>
        <time>2022-02-27T08:01:56.000Z</time>
      </trkpt>
      <trkpt lat="47.26241" lon="-2.31961">
        <ele>-6.4000000953674</ele>
        <time>2022-02-27T08:01:58.000Z</time>
      </trkpt>
      <trkpt lat="47.26238" lon="-2.31965">
        <ele>-7</ele>
        <time>2022-02-27T08:01:59.000Z</time>
      </trkpt>
      <trkpt lat="47.26235" lon="-2.31969">
        <ele>-7.4000000953674</ele>
        <time>2022-02-27T08:02:00.000Z</time>
      </trkpt>
      <trkpt lat="47.26232" lon="-2.31971">
        <ele>-7.8000001907349</ele>
        <time>2022-02-27T08:02:01.000Z</time>
      </trkpt>
      <trkpt lat="47.2623" lon="-2.31973">
        <ele>-8.1999998092651</ele>
        <time>2022-02-27T08:02:02.000Z</time>
      </trkpt>
      <trkpt lat="47.26229" lon="-2.31974">
        <ele>-8.1999998092651</ele>
        <time>2022-02-27T08:02:03.000Z</time>
      </trkpt>
      <trkpt lat="47.26223" lon="-2.31982">
        <ele>-8.1999998092651</ele>
        <time>2022-02-27T08:02:06.000Z</time>
      </trkpt>
      <trkpt lat="47.26217" lon="-2.31988">
        <ele>-8.1999998092651</ele>
        <time>2022-02-27T08:02:08.000Z</time>
      </trkpt>
      <trkpt lat="47.26203" lon="-2.31999">
        <ele>-8.1999998092651</ele>
        <time>2022-02-27T08:02:13.000Z</time>
      </trkpt>
      <trkpt lat="47.26198" lon="-2.32016">
        <ele>-8.1999998092651</ele>
        <time>2022-02-27T08:02:18.000Z</time>
      </trkpt>
      <trkpt lat="47.26196" lon="-2.32017">
        <ele>-8.1999998092651</ele>
        <time>2022-02-27T08:02:19.000Z</time>
      </trkpt>
      <trkpt lat="47.26191" lon="-2.32019">
        <ele>-8.1999998092651</ele>
        <time>2022-02-27T08:02:22.000Z</time>
      </trkpt>
      <trkpt lat="47.26189" lon="-2.32019">
        <ele>-8.1999998092651</ele>
        <time>2022-02-27T08:02:23.000Z</time>
      </trkpt>
      <trkpt lat="47.26175" lon="-2.32028">
        <ele>-8.1999998092651</ele>
        <time>2022-02-27T08:02:28.000Z</time>
      </trkpt>
      <trkpt lat="47.26164" lon="-2.3204">
        <ele>-8.1999998092651</ele>
        <time>2022-02-27T08:02:31.000Z</time>
      </trkpt>
      <trkpt lat="47.26158" lon="-2.32051">
        <ele>-8.1999998092651</ele>
        <time>2022-02-27T08:02:33.000Z</time>
      </trkpt>
      <trkpt lat="47.26142" lon="-2.32096">
        <ele>-8.1999998092651</ele>
        <time>2022-02-27T08:02:40.000Z</time>
      </trkpt>
      <trkpt lat="47.26124" lon="-2.32149">
        <ele>-8.1999998092651</ele>
        <time>2022-02-27T08:02:48.000Z</time>
      </trkpt>
      <trkpt lat="47.26107" lon="-2.32193">
        <ele>-8.1999998092651</ele>
        <time>2022-02-27T08:02:55.000Z</time>
      </trkpt>
      <trkpt lat="47.26104" lon="-2.32199">
        <ele>-8.1999998092651</ele>
        <time>2022-02-27T08:02:56.000Z</time>
      </trkpt>
      <trkpt lat="47.26101" lon="-2.32205">
        <ele>-8.1999998092651</ele>
        <time>2022-02-27T08:02:57.000Z</time>
      </trkpt>
      <trkpt lat="47.26096" lon="-2.32217">
        <ele>-8.1999998092651</ele>
        <time>2022-02-27T08:02:59.000Z</time>
      </trkpt>
      <trkpt lat="47.26094" lon="-2.32222">
        <ele>-8.1999998092651</ele>
        <time>2022-02-27T08:03:00.000Z</time>
      </trkpt>
      <trkpt lat="47.26074" lon="-2.32246">
        <ele>-8.1999998092651</ele>
        <time>2022-02-27T08:03:05.000Z</time>
      </trkpt>
      <trkpt lat="47.26048" lon="-2.32275">
        <ele>-8.1999998092651</ele>
        <time>2022-02-27T08:03:11.000Z</time>
      </trkpt>
      <trkpt lat="47.26011" lon="-2.32313">
        <ele>-8.1999998092651</ele>
        <time>2022-02-27T08:03:19.000Z</time>
      </trkpt>
      <trkpt lat="47.25978" lon="-2.32356">
        <ele>-8.1999998092651</ele>
        <time>2022-02-27T08:03:27.000Z</time>
      </trkpt>
      <trkpt lat="47.2595" lon="-2.3239">
        <ele>-8.1999998092651</ele>
        <time>2022-02-27T08:03:34.000Z</time>
      </trkpt>
      <trkpt lat="47.25915" lon="-2.32435">
        <ele>-8.1999998092651</ele>
        <time>2022-02-27T08:03:43.000Z</time>
      </trkpt>
      <trkpt lat="47.25892" lon="-2.32463">
        <ele>-8.1999998092651</ele>
        <time>2022-02-27T08:03:49.000Z</time>
      </trkpt>
      <trkpt lat="47.25888" lon="-2.32466">
        <ele>-8.1999998092651</ele>
        <time>2022-02-27T08:03:50.000Z</time>
      </trkpt>
      <trkpt lat="47.25873" lon="-2.32473">
        <ele>-8.1999998092651</ele>
        <time>2022-02-27T08:03:53.000Z</time>
      </trkpt>
      <trkpt lat="47.25868" lon="-2.32475">
        <ele>-8.1999998092651</ele>
        <time>2022-02-27T08:03:54.000Z</time>
      </trkpt>
      <trkpt lat="47.25858" lon="-2.32477">
        <ele>-8.1999998092651</ele>
        <time>2022-02-27T08:03:56.000Z</time>
      </trkpt>
      <trkpt lat="47.25843" lon="-2.32478">
        <ele>-8.1999998092651</ele>
        <time>2022-02-27T08:03:59.000Z</time>
      </trkpt>
      <trkpt lat="47.25828" lon="-2.32474">
        <ele>-8.1999998092651</ele>
        <time>2022-02-27T08:04:02.000Z</time>
      </trkpt>
      <trkpt lat="47.258" lon="-2.3246">
        <ele>-8.1999998092651</ele>
        <time>2022-02-27T08:04:08.000Z</time>
      </trkpt>
      <trkpt lat="47.25783" lon="-2.32461">
        <ele>-8.1999998092651</ele>
        <time>2022-02-27T08:04:12.000Z</time>
      </trkpt>
      <trkpt lat="47.25778" lon="-2.32459">
        <ele>-8.1999998092651</ele>
        <time>2022-02-27T08:04:13.000Z</time>
      </trkpt>
      <trkpt lat="47.25768" lon="-2.32444">
        <ele>-8.1999998092651</ele>
        <time>2022-02-27T08:04:16.000Z</time>
      </trkpt>
      <trkpt lat="47.25766" lon="-2.32439">
        <ele>-8.1999998092651</ele>
        <time>2022-02-27T08:04:17.000Z</time>
      </trkpt>
      <trkpt lat="47.25762" lon="-2.32434">
        <ele>-8.1999998092651</ele>
        <time>2022-02-27T08:04:18.000Z</time>
      </trkpt>
      <trkpt lat="47.25759" lon="-2.32431">
        <ele>-7.8000001907349</ele>
        <time>2022-02-27T08:04:19.000Z</time>
      </trkpt>
      <trkpt lat="47.25754" lon="-2.32429">
        <ele>-7.4000000953674</ele>
        <time>2022-02-27T08:04:20.000Z</time>
      </trkpt>
      <trkpt lat="47.25749" lon="-2.32429">
        <ele>-7</ele>
        <time>2022-02-27T08:04:21.000Z</time>
      </trkpt>
      <trkpt lat="47.25745" lon="-2.32429">
        <ele>-6.5999999046326</ele>
        <time>2022-02-27T08:04:22.000Z</time>
      </trkpt>
      <trkpt lat="47.25739" lon="-2.32429">
        <ele>-6.1999998092651</ele>
        <time>2022-02-27T08:04:23.000Z</time>
      </trkpt>
      <trkpt lat="47.25713" lon="-2.32428">
        <ele>-6.1999998092651</ele>
        <time>2022-02-27T08:04:28.000Z</time>
      </trkpt>
      <trkpt lat="47.25684" lon="-2.32425">
        <ele>-6.1999998092651</ele>
        <time>2022-02-27T08:04:34.000Z</time>
      </trkpt>
      <trkpt lat="47.25663" lon="-2.32425">
        <ele>-6.1999998092651</ele>
        <time>2022-02-27T08:04:39.000Z</time>
      </trkpt>
      <trkpt lat="47.2566" lon="-2.32429">
        <ele>-6.1999998092651</ele>
        <time>2022-02-27T08:04:40.000Z</time>
      </trkpt>
      <trkpt lat="47.2566" lon="-2.32447">
        <ele>-6.1999998092651</ele>
        <time>2022-02-27T08:04:43.000Z</time>
      </trkpt>
      <trkpt lat="47.25663" lon="-2.3246">
        <ele>-6.1999998092651</ele>
        <time>2022-02-27T08:04:45.000Z</time>
      </trkpt>
      <trkpt lat="47.25666" lon="-2.32466">
        <ele>-6.1999998092651</ele>
        <time>2022-02-27T08:04:46.000Z</time>
      </trkpt>
      <trkpt lat="47.2567" lon="-2.32478">
        <ele>-6.1999998092651</ele>
        <time>2022-02-27T08:04:48.000Z</time>
      </trkpt>
      <trkpt lat="47.25687" lon="-2.32531">
        <ele>-6.1999998092651</ele>
        <time>2022-02-27T08:04:57.000Z</time>
      </trkpt>
      <trkpt lat="47.25691" lon="-2.32542">
        <ele>-5.8000001907349</ele>
        <time>2022-02-27T08:04:59.000Z</time>
      </trkpt>
      <trkpt lat="47.25693" lon="-2.32547">
        <ele>-5.4000000953674</ele>
        <time>2022-02-27T08:05:00.000Z</time>
      </trkpt>
      <trkpt lat="47.25695" lon="-2.32553">
        <ele>-5</ele>
        <time>2022-02-27T08:05:01.000Z</time>
      </trkpt>
      <trkpt lat="47.25697" lon="-2.32558">
        <ele>-4.5999999046326</ele>
        <time>2022-02-27T08:05:02.000Z</time>
      </trkpt>
      <trkpt lat="47.25698" lon="-2.32564">
        <ele>-4.1999998092651</ele>
        <time>2022-02-27T08:05:03.000Z</time>
      </trkpt>
      <trkpt lat="47.25711" lon="-2.32611">
        <ele>-4.1999998092651</ele>
        <time>2022-02-27T08:05:12.000Z</time>
      </trkpt>
      <trkpt lat="47.2571" lon="-2.3262">
        <ele>-4.1999998092651</ele>
        <time>2022-02-27T08:05:14.000Z</time>
      </trkpt>
      <trkpt lat="47.25707" lon="-2.32624">
        <ele>-4.1999998092651</ele>
        <time>2022-02-27T08:05:15.000Z</time>
      </trkpt>
      <trkpt lat="47.25703" lon="-2.32627">
        <ele>-3.7999999523163</ele>
        <time>2022-02-27T08:05:16.000Z</time>
      </trkpt>
      <trkpt lat="47.25699" lon="-2.32628">
        <ele>-3.4000000953674</ele>
        <time>2022-02-27T08:05:17.000Z</time>
      </trkpt>
      <trkpt lat="47.25695" lon="-2.32629">
        <ele>-3</ele>
        <time>2022-02-27T08:05:18.000Z</time>
      </trkpt>
      <trkpt lat="47.25691" lon="-2.32631">
        <ele>-2.5999999046326</ele>
        <time>2022-02-27T08:05:19.000Z</time>
      </trkpt>
      <trkpt lat="47.25688" lon="-2.32633">
        <ele>-2</ele>
        <time>2022-02-27T08:05:20.000Z</time>
      </trkpt>
      <trkpt lat="47.25659" lon="-2.32646">
        <ele>-2</ele>
        <time>2022-02-27T08:05:27.000Z</time>
      </trkpt>
      <trkpt lat="47.25637" lon="-2.32654">
        <ele>-1.6000000238419</ele>
        <time>2022-02-27T08:05:32.000Z</time>
      </trkpt>
      <trkpt lat="47.25633" lon="-2.32656">
        <ele>-1.2000000476837</ele>
        <time>2022-02-27T08:05:33.000Z</time>
      </trkpt>
      <trkpt lat="47.25629" lon="-2.32659">
        <ele>-0.80000001192093</ele>
        <time>2022-02-27T08:05:34.000Z</time>
      </trkpt>
      <trkpt lat="47.25626" lon="-2.32661">
        <ele>-0.40000000596046</ele>
        <time>2022-02-27T08:05:35.000Z</time>
      </trkpt>
      <trkpt lat="47.25622" lon="-2.32663">
        <ele>12.3</ele>
        <time>2022-02-27T08:05:36.000Z</time>
      </trkpt>
      <trkpt lat="47.25597" lon="-2.32674">
        <ele>12.3</ele>
        <time>2022-02-27T08:05:42.000Z</time>
      </trkpt>
      <trkpt lat="47.25567" lon="-2.32687">
        <ele>12.3</ele>
        <time>2022-02-27T08:05:49.000Z</time>
      </trkpt>
      <trkpt lat="47.25525" lon="-2.32702">
        <ele>12.3</ele>
        <time>2022-02-27T08:05:58.000Z</time>
      </trkpt>
      <trkpt lat="47.25487" lon="-2.32707">
        <ele>12.5</ele>
        <time>2022-02-27T08:06:06.000Z</time>
      </trkpt>
      <trkpt lat="47.25482" lon="-2.3271">
        <ele>12.5</ele>
        <time>2022-02-27T08:06:07.000Z</time>
      </trkpt>
      <trkpt lat="47.25469" lon="-2.32722">
        <ele>12.1</ele>
        <time>2022-02-27T08:06:10.000Z</time>
      </trkpt>
      <trkpt lat="47.25458" lon="-2.32737">
        <ele>12</ele>
        <time>2022-02-27T08:06:13.000Z</time>
      </trkpt>
      <trkpt lat="47.25447" lon="-2.32752">
        <ele>11.1</ele>
        <time>2022-02-27T08:06:16.000Z</time>
      </trkpt>
      <trkpt lat="47.25435" lon="-2.32774">
        <ele>11.3</ele>
        <time>2022-02-27T08:06:20.000Z</time>
      </trkpt>
      <trkpt lat="47.2543" lon="-2.32786">
        <ele>11.1</ele>
        <time>2022-02-27T08:06:22.000Z</time>
      </trkpt>
      <trkpt lat="47.25423" lon="-2.32797">
        <ele>10.6</ele>
        <time>2022-02-27T08:06:24.000Z</time>
      </trkpt>
      <trkpt lat="47.2541" lon="-2.32814">
        <ele>10</ele>
        <time>2022-02-27T08:06:27.000Z</time>
      </trkpt>
      <trkpt lat="47.25373" lon="-2.3286">
        <ele>9.6</ele>
        <time>2022-02-27T08:06:35.000Z</time>
      </trkpt>
      <trkpt lat="47.25337" lon="-2.32896">
        <ele>9</ele>
        <time>2022-02-27T08:06:43.000Z</time>
      </trkpt>
      <trkpt lat="47.25307" lon="-2.3293">
        <ele>9</ele>
        <time>2022-02-27T08:06:50.000Z</time>
      </trkpt>
      <trkpt lat="47.25308" lon="-2.32953">
        <ele>9</ele>
        <time>2022-02-27T08:06:53.000Z</time>
      </trkpt>
      <trkpt lat="47.25315" lon="-2.32974">
        <ele>9</ele>
        <time>2022-02-27T08:06:56.000Z</time>
      </trkpt>
      <trkpt lat="47.25317" lon="-2.32981">
        <ele>8.8</ele>
        <time>2022-02-27T08:06:57.000Z</time>
      </trkpt>
      <trkpt lat="47.2534" lon="-2.33036">
        <ele>8.3</ele>
        <time>2022-02-27T08:07:05.000Z</time>
      </trkpt>
      <trkpt lat="47.25349" lon="-2.33057">
        <ele>-0.40000000596046</ele>
        <time>2022-02-27T08:07:08.000Z</time>
      </trkpt>
      <trkpt lat="47.25351" lon="-2.33063">
        <ele>-0.80000001192093</ele>
        <time>2022-02-27T08:07:09.000Z</time>
      </trkpt>
      <trkpt lat="47.25354" lon="-2.3307">
        <ele>-1.2000000476837</ele>
        <time>2022-02-27T08:07:10.000Z</time>
      </trkpt>
      <trkpt lat="47.25357" lon="-2.33076">
        <ele>-1.6000000238419</ele>
        <time>2022-02-27T08:07:11.000Z</time>
      </trkpt>
      <trkpt lat="47.2536" lon="-2.33082">
        <ele>-2</ele>
        <time>2022-02-27T08:07:12.000Z</time>
      </trkpt>
      <trkpt lat="47.25363" lon="-2.33087">
        <ele>-2</ele>
        <time>2022-02-27T08:07:13.000Z</time>
      </trkpt>
      <trkpt lat="47.25366" lon="-2.33098">
        <ele>-2</ele>
        <time>2022-02-27T08:07:16.000Z</time>
      </trkpt>
      <trkpt lat="47.25366" lon="-2.33099">
        <ele>-2</ele>
        <time>2022-02-27T08:07:17.000Z</time>
      </trkpt>
      <trkpt lat="47.25364" lon="-2.33099">
        <ele>-2</ele>
        <time>2022-02-27T08:07:18.000Z</time>
      </trkpt>
      <trkpt lat="47.25363" lon="-2.33098">
        <ele>-2</ele>
        <time>2022-02-27T08:07:19.000Z</time>
      </trkpt>
      <trkpt lat="47.25363" lon="-2.33098">
        <ele>-2</ele>
        <time>2022-02-27T08:07:20.000Z</time>
      </trkpt>
      <trkpt lat="47.25369" lon="-2.33102">
        <ele>-2</ele>
        <time>2022-02-27T08:13:16.000Z</time>
      </trkpt>
      <trkpt lat="47.2537" lon="-2.33104">
        <ele>-2</ele>
        <time>2022-02-27T08:13:17.000Z</time>
      </trkpt>
      <trkpt lat="47.25375" lon="-2.3312">
        <ele>-2</ele>
        <time>2022-02-27T08:13:22.000Z</time>
      </trkpt>
      <trkpt lat="47.25386" lon="-2.33138">
        <ele>-2</ele>
        <time>2022-02-27T08:13:27.000Z</time>
      </trkpt>
      <trkpt lat="47.25389" lon="-2.33138">
        <ele>-2</ele>
        <time>2022-02-27T08:13:28.000Z</time>
      </trkpt>
      <trkpt lat="47.25404" lon="-2.3313">
        <ele>-2</ele>
        <time>2022-02-27T08:13:32.000Z</time>
      </trkpt>
      <trkpt lat="47.25408" lon="-2.33128">
        <ele>-2</ele>
        <time>2022-02-27T08:13:33.000Z</time>
      </trkpt>
      <trkpt lat="47.25437" lon="-2.33116">
        <ele>-2</ele>
        <time>2022-02-27T08:13:40.000Z</time>
      </trkpt>
      <trkpt lat="47.25471" lon="-2.331">
        <ele>-2</ele>
        <time>2022-02-27T08:13:48.000Z</time>
      </trkpt>
      <trkpt lat="47.25492" lon="-2.33083">
        <ele>-2</ele>
        <time>2022-02-27T08:13:54.000Z</time>
      </trkpt>
      <trkpt lat="47.25499" lon="-2.33076">
        <ele>-2</ele>
        <time>2022-02-27T08:13:56.000Z</time>
      </trkpt>
      <trkpt lat="47.25512" lon="-2.3306">
        <ele>-2</ele>
        <time>2022-02-27T08:14:00.000Z</time>
      </trkpt>
      <trkpt lat="47.25522" lon="-2.33049">
        <ele>-2</ele>
        <time>2022-02-27T08:14:03.000Z</time>
      </trkpt>
      <trkpt lat="47.25536" lon="-2.33041">
        <ele>-2</ele>
        <time>2022-02-27T08:14:06.000Z</time>
      </trkpt>
      <trkpt lat="47.25541" lon="-2.33041">
        <ele>-2</ele>
        <time>2022-02-27T08:14:07.000Z</time>
      </trkpt>
      <trkpt lat="47.25568" lon="-2.33034">
        <ele>-2</ele>
        <time>2022-02-27T08:14:13.000Z</time>
      </trkpt>
      <trkpt lat="47.25606" lon="-2.33027">
        <ele>-2</ele>
        <time>2022-02-27T08:14:21.000Z</time>
      </trkpt>
      <trkpt lat="47.25617" lon="-2.33016">
        <ele>-2</ele>
        <time>2022-02-27T08:14:24.000Z</time>
      </trkpt>
      <trkpt lat="47.25619" lon="-2.33002">
        <ele>-1.6000000238419</ele>
        <time>2022-02-27T08:14:26.000Z</time>
      </trkpt>
      <trkpt lat="47.25618" lon="-2.32995">
        <ele>-1.2000000476837</ele>
        <time>2022-02-27T08:14:27.000Z</time>
      </trkpt>
      <trkpt lat="47.25617" lon="-2.32988">
        <ele>-0.60000002384186</ele>
        <time>2022-02-27T08:14:28.000Z</time>
      </trkpt>
      <trkpt lat="47.25615" lon="-2.32981">
        <ele>-0.20000000298023</ele>
        <time>2022-02-27T08:14:29.000Z</time>
      </trkpt>
      <trkpt lat="47.25614" lon="-2.32975">
        <ele>0.20000000298023</ele>
        <time>2022-02-27T08:14:30.000Z</time>
      </trkpt>
      <trkpt lat="47.25608" lon="-2.32947">
        <ele>0.20000000298023</ele>
        <time>2022-02-27T08:14:34.000Z</time>
      </trkpt>
      <trkpt lat="47.256" lon="-2.32898">
        <ele>0.20000000298023</ele>
        <time>2022-02-27T08:14:41.000Z</time>
      </trkpt>
      <trkpt lat="47.25594" lon="-2.32853">
        <ele>0.20000000298023</ele>
        <time>2022-02-27T08:14:48.000Z</time>
      </trkpt>
      <trkpt lat="47.25593" lon="-2.32834">
        <ele>0.20000000298023</ele>
        <time>2022-02-27T08:14:51.000Z</time>
      </trkpt>
      <trkpt lat="47.25594" lon="-2.32816">
        <ele>0.20000000298023</ele>
        <time>2022-02-27T08:14:54.000Z</time>
      </trkpt>
      <trkpt lat="47.25601" lon="-2.32771">
        <ele>0.20000000298023</ele>
        <time>2022-02-27T08:15:01.000Z</time>
      </trkpt>
      <trkpt lat="47.25602" lon="-2.32758">
        <ele>0.60000002384186</ele>
        <time>2022-02-27T08:15:03.000Z</time>
      </trkpt>
      <trkpt lat="47.25602" lon="-2.32751">
        <ele>1</ele>
        <time>2022-02-27T08:15:04.000Z</time>
      </trkpt>
      <trkpt lat="47.25602" lon="-2.32744">
        <ele>1.3999999761581</ele>
        <time>2022-02-27T08:15:05.000Z</time>
      </trkpt>
      <trkpt lat="47.25603" lon="-2.32738">
        <ele>1.7999999523163</ele>
        <time>2022-02-27T08:15:06.000Z</time>
      </trkpt>
      <trkpt lat="47.25603" lon="-2.32731">
        <ele>2.2000000476837</ele>
        <time>2022-02-27T08:15:07.000Z</time>
      </trkpt>
      <trkpt lat="47.25603" lon="-2.3271">
        <ele>2.2000000476837</ele>
        <time>2022-02-27T08:15:10.000Z</time>
      </trkpt>
      <trkpt lat="47.25608" lon="-2.3267">
        <ele>2.2000000476837</ele>
        <time>2022-02-27T08:15:17.000Z</time>
      </trkpt>
      <trkpt lat="47.2562" lon="-2.32658">
        <ele>2.2000000476837</ele>
        <time>2022-02-27T08:15:21.000Z</time>
      </trkpt>
      <trkpt lat="47.25646" lon="-2.32646">
        <ele>2.2000000476837</ele>
        <time>2022-02-27T08:15:27.000Z</time>
      </trkpt>
      <trkpt lat="47.25651" lon="-2.32644">
        <ele>1.7999999523163</ele>
        <time>2022-02-27T08:15:28.000Z</time>
      </trkpt>
      <trkpt lat="47.25656" lon="-2.32643">
        <ele>1.3999999761581</ele>
        <time>2022-02-27T08:15:29.000Z</time>
      </trkpt>
      <trkpt lat="47.25661" lon="-2.32641">
        <ele>1</ele>
        <time>2022-02-27T08:15:30.000Z</time>
      </trkpt>
      <trkpt lat="47.25665" lon="-2.32638">
        <ele>0.60000002384186</ele>
        <time>2022-02-27T08:15:31.000Z</time>
      </trkpt>
      <trkpt lat="47.25671" lon="-2.32636">
        <ele>0.20000000298023</ele>
        <time>2022-02-27T08:15:32.000Z</time>
      </trkpt>
      <trkpt lat="47.25681" lon="-2.32631">
        <ele>0.20000000298023</ele>
        <time>2022-02-27T08:15:34.000Z</time>
      </trkpt>
      <trkpt lat="47.25706" lon="-2.32619">
        <ele>0.20000000298023</ele>
        <time>2022-02-27T08:15:39.000Z</time>
      </trkpt>
      <trkpt lat="47.25709" lon="-2.32614">
        <ele>0.20000000298023</ele>
        <time>2022-02-27T08:15:40.000Z</time>
      </trkpt>
      <trkpt lat="47.25709" lon="-2.32596">
        <ele>0.20000000298023</ele>
        <time>2022-02-27T08:15:43.000Z</time>
      </trkpt>
      <trkpt lat="47.25702" lon="-2.32571">
        <ele>0.20000000298023</ele>
        <time>2022-02-27T08:15:47.000Z</time>
      </trkpt>
      <trkpt lat="47.25698" lon="-2.32558">
        <ele>0.20000000298023</ele>
        <time>2022-02-27T08:15:49.000Z</time>
      </trkpt>
      <trkpt lat="47.25696" lon="-2.32551">
        <ele>-0.40000000596046</ele>
        <time>2022-02-27T08:15:50.000Z</time>
      </trkpt>
      <trkpt lat="47.25694" lon="-2.32544">
        <ele>-0.80000001192093</ele>
        <time>2022-02-27T08:15:51.000Z</time>
      </trkpt>
      <trkpt lat="47.25692" lon="-2.32537">
        <ele>-1.2000000476837</ele>
        <time>2022-02-27T08:15:52.000Z</time>
      </trkpt>
      <trkpt lat="47.25689" lon="-2.32531">
        <ele>-1.6000000238419</ele>
        <time>2022-02-27T08:15:53.000Z</time>
      </trkpt>
      <trkpt lat="47.25687" lon="-2.32524">
        <ele>-2.2000000476837</ele>
        <time>2022-02-27T08:15:54.000Z</time>
      </trkpt>
      <trkpt lat="47.2568" lon="-2.32502">
        <ele>-2.2000000476837</ele>
        <time>2022-02-27T08:15:57.000Z</time>
      </trkpt>
      <trkpt lat="47.25668" lon="-2.32465">
        <ele>-2.5999999046326</ele>
        <time>2022-02-27T08:16:02.000Z</time>
      </trkpt>
      <trkpt lat="47.25666" lon="-2.32458">
        <ele>-3</ele>
        <time>2022-02-27T08:16:03.000Z</time>
      </trkpt>
      <trkpt lat="47.25664" lon="-2.3245">
        <ele>-3.4000000953674</ele>
        <time>2022-02-27T08:16:04.000Z</time>
      </trkpt>
      <trkpt lat="47.25663" lon="-2.32442">
        <ele>-3.7999999523163</ele>
        <time>2022-02-27T08:16:05.000Z</time>
      </trkpt>
      <trkpt lat="47.25662" lon="-2.32436">
        <ele>-4.1999998092651</ele>
        <time>2022-02-27T08:16:06.000Z</time>
      </trkpt>
      <trkpt lat="47.25661" lon="-2.32429">
        <ele>-4.1999998092651</ele>
        <time>2022-02-27T08:16:07.000Z</time>
      </trkpt>
      <trkpt lat="47.25662" lon="-2.32423">
        <ele>-4.1999998092651</ele>
        <time>2022-02-27T08:16:08.000Z</time>
      </trkpt>
      <trkpt lat="47.25672" lon="-2.32416">
        <ele>-4.1999998092651</ele>
        <time>2022-02-27T08:16:11.000Z</time>
      </trkpt>
      <trkpt lat="47.25681" lon="-2.32419">
        <ele>-4.1999998092651</ele>
        <time>2022-02-27T08:16:13.000Z</time>
      </trkpt>
      <trkpt lat="47.25686" lon="-2.3242">
        <ele>-4.5999999046326</ele>
        <time>2022-02-27T08:16:14.000Z</time>
      </trkpt>
      <trkpt lat="47.25692" lon="-2.32421">
        <ele>-5</ele>
        <time>2022-02-27T08:16:15.000Z</time>
      </trkpt>
      <trkpt lat="47.25698" lon="-2.32421">
        <ele>-5.4000000953674</ele>
        <time>2022-02-27T08:16:16.000Z</time>
      </trkpt>
      <trkpt lat="47.25704" lon="-2.32421">
        <ele>-5.8000001907349</ele>
        <time>2022-02-27T08:16:17.000Z</time>
      </trkpt>
      <trkpt lat="47.25709" lon="-2.32422">
        <ele>-6.1999998092651</ele>
        <time>2022-02-27T08:16:18.000Z</time>
      </trkpt>
      <trkpt lat="47.25738" lon="-2.32423">
        <ele>-6.1999998092651</ele>
        <time>2022-02-27T08:16:23.000Z</time>
      </trkpt>
      <trkpt lat="47.25759" lon="-2.32422">
        <ele>-6.1999998092651</ele>
        <time>2022-02-27T08:16:27.000Z</time>
      </trkpt>
      <trkpt lat="47.25768" lon="-2.32416">
        <ele>-6.1999998092651</ele>
        <time>2022-02-27T08:16:29.000Z</time>
      </trkpt>
      <trkpt lat="47.2578" lon="-2.32416">
        <ele>-6.1999998092651</ele>
        <time>2022-02-27T08:16:32.000Z</time>
      </trkpt>
      <trkpt lat="47.25791" lon="-2.32435">
        <ele>-6.1999998092651</ele>
        <time>2022-02-27T08:16:35.000Z</time>
      </trkpt>
      <trkpt lat="47.25798" lon="-2.32449">
        <ele>-6.1999998092651</ele>
        <time>2022-02-27T08:16:37.000Z</time>
      </trkpt>
      <trkpt lat="47.25808" lon="-2.32458">
        <ele>-6.1999998092651</ele>
        <time>2022-02-27T08:16:39.000Z</time>
      </trkpt>
      <trkpt lat="47.25845" lon="-2.32476">
        <ele>-6.1999998092651</ele>
        <time>2022-02-27T08:16:45.000Z</time>
      </trkpt>
      <trkpt lat="47.25857" lon="-2.32477">
        <ele>-6.1999998092651</ele>
        <time>2022-02-27T08:16:47.000Z</time>
      </trkpt>
      <trkpt lat="47.25869" lon="-2.32476">
        <ele>-6.1999998092651</ele>
        <time>2022-02-27T08:16:49.000Z</time>
      </trkpt>
      <trkpt lat="47.25891" lon="-2.32469">
        <ele>-6.1999998092651</ele>
        <time>2022-02-27T08:16:53.000Z</time>
      </trkpt>
      <trkpt lat="47.25902" lon="-2.3246">
        <ele>-6.1999998092651</ele>
        <time>2022-02-27T08:16:55.000Z</time>
      </trkpt>
      <trkpt lat="47.25911" lon="-2.32449">
        <ele>-6.1999998092651</ele>
        <time>2022-02-27T08:16:57.000Z</time>
      </trkpt>
      <trkpt lat="47.25934" lon="-2.32418">
        <ele>-6.1999998092651</ele>
        <time>2022-02-27T08:17:02.000Z</time>
      </trkpt>
      <trkpt lat="47.25972" lon="-2.32367">
        <ele>-6.1999998092651</ele>
        <time>2022-02-27T08:17:11.000Z</time>
      </trkpt>
      <trkpt lat="47.26012" lon="-2.32315">
        <ele>-6.1999998092651</ele>
        <time>2022-02-27T08:17:20.000Z</time>
      </trkpt>
      <trkpt lat="47.26044" lon="-2.3228">
        <ele>-6.1999998092651</ele>
        <time>2022-02-27T08:17:27.000Z</time>
      </trkpt>
      <trkpt lat="47.26077" lon="-2.3224">
        <ele>-6.1999998092651</ele>
        <time>2022-02-27T08:17:34.000Z</time>
      </trkpt>
      <trkpt lat="47.26101" lon="-2.32204">
        <ele>-6.1999998092651</ele>
        <time>2022-02-27T08:17:40.000Z</time>
      </trkpt>
      <trkpt lat="47.2612" lon="-2.3216">
        <ele>-6.1999998092651</ele>
        <time>2022-02-27T08:17:46.000Z</time>
      </trkpt>
      <trkpt lat="47.26123" lon="-2.32152">
        <ele>-6.1999998092651</ele>
        <time>2022-02-27T08:17:47.000Z</time>
      </trkpt>
      <trkpt lat="47.26134" lon="-2.32109">
        <ele>-6.1999998092651</ele>
        <time>2022-02-27T08:17:52.000Z</time>
      </trkpt>
      <trkpt lat="47.26156" lon="-2.32038">
        <ele>-6.1999998092651</ele>
        <time>2022-02-27T08:18:01.000Z</time>
      </trkpt>
      <trkpt lat="47.2616" lon="-2.32025">
        <ele>-6.1999998092651</ele>
        <time>2022-02-27T08:18:03.000Z</time>
      </trkpt>
      <trkpt lat="47.26167" lon="-2.32016">
        <ele>-6.1999998092651</ele>
        <time>2022-02-27T08:18:05.000Z</time>
      </trkpt>
      <trkpt lat="47.26174" lon="-2.32017">
        <ele>-6.1999998092651</ele>
        <time>2022-02-27T08:18:08.000Z</time>
      </trkpt>
      <trkpt lat="47.26176" lon="-2.32018">
        <ele>-6.1999998092651</ele>
        <time>2022-02-27T08:18:09.000Z</time>
      </trkpt>
      <trkpt lat="47.26182" lon="-2.32022">
        <ele>-6.1999998092651</ele>
        <time>2022-02-27T08:18:13.000Z</time>
      </trkpt>
      <trkpt lat="47.26193" lon="-2.32021">
        <ele>-6.1999998092651</ele>
        <time>2022-02-27T08:18:18.000Z</time>
      </trkpt>
      <trkpt lat="47.26199" lon="-2.32006">
        <ele>-6.5999999046326</ele>
        <time>2022-02-27T08:18:23.000Z</time>
      </trkpt>
      <trkpt lat="47.26201" lon="-2.32005">
        <ele>-7</ele>
        <time>2022-02-27T08:18:24.000Z</time>
      </trkpt>
      <trkpt lat="47.26202" lon="-2.32003">
        <ele>-7.4000000953674</ele>
        <time>2022-02-27T08:18:25.000Z</time>
      </trkpt>
      <trkpt lat="47.26204" lon="-2.32001">
        <ele>-7.8000001907349</ele>
        <time>2022-02-27T08:18:26.000Z</time>
      </trkpt>
      <trkpt lat="47.26207" lon="-2.31998">
        <ele>-8.3999996185303</ele>
        <time>2022-02-27T08:18:27.000Z</time>
      </trkpt>
      <trkpt lat="47.2621" lon="-2.31995">
        <ele>-8.3999996185303</ele>
        <time>2022-02-27T08:18:28.000Z</time>
      </trkpt>
      <trkpt lat="47.26227" lon="-2.3198">
        <ele>-8.3999996185303</ele>
        <time>2022-02-27T08:18:33.000Z</time>
      </trkpt>
      <trkpt lat="47.26243" lon="-2.31962">
        <ele>-8.3999996185303</ele>
        <time>2022-02-27T08:18:38.000Z</time>
      </trkpt>
      <trkpt lat="47.26256" lon="-2.31941">
        <ele>-8.3999996185303</ele>
        <time>2022-02-27T08:18:44.000Z</time>
      </trkpt>
      <trkpt lat="47.26269" lon="-2.31917">
        <ele>-8.3999996185303</ele>
        <time>2022-02-27T08:18:51.000Z</time>
      </trkpt>
      <trkpt lat="47.26285" lon="-2.31901">
        <ele>-8.3999996185303</ele>
        <time>2022-02-27T08:18:57.000Z</time>
      </trkpt>
      <trkpt lat="47.26289" lon="-2.31898">
        <ele>-8.3999996185303</ele>
        <time>2022-02-27T08:18:59.000Z</time>
      </trkpt>
      <trkpt lat="47.26293" lon="-2.31898">
        <ele>-8.3999996185303</ele>
        <time>2022-02-27T08:19:01.000Z</time>
      </trkpt>
      <trkpt lat="47.26297" lon="-2.3191">
        <ele>-8.3999996185303</ele>
        <time>2022-02-27T08:19:05.000Z</time>
      </trkpt>
      <trkpt lat="47.263" lon="-2.31926">
        <ele>-8.3999996185303</ele>
        <time>2022-02-27T08:19:09.000Z</time>
      </trkpt>
      <trkpt lat="47.26302" lon="-2.31928">
        <ele>-8.3999996185303</ele>
        <time>2022-02-27T08:19:10.000Z</time>
      </trkpt>
      <trkpt lat="47.26313" lon="-2.31931">
        <ele>-8.3999996185303</ele>
        <time>2022-02-27T08:19:15.000Z</time>
      </trkpt>
      <trkpt lat="47.26331" lon="-2.31932">
        <ele>-8.3999996185303</ele>
        <time>2022-02-27T08:19:20.000Z</time>
      </trkpt>
      <trkpt lat="47.26335" lon="-2.31934">
        <ele>-8.3999996185303</ele>
        <time>2022-02-27T08:19:21.000Z</time>
      </trkpt>
      <trkpt lat="47.26345" lon="-2.31943">
        <ele>-8.3999996185303</ele>
        <time>2022-02-27T08:19:24.000Z</time>
      </trkpt>
      <trkpt lat="47.26347" lon="-2.31948">
        <ele>-8</ele>
        <time>2022-02-27T08:19:25.000Z</time>
      </trkpt>
      <trkpt lat="47.26349" lon="-2.31952">
        <ele>-7.5999999046326</ele>
        <time>2022-02-27T08:19:26.000Z</time>
      </trkpt>
      <trkpt lat="47.26351" lon="-2.31956">
        <ele>-7.1999998092651</ele>
        <time>2022-02-27T08:19:27.000Z</time>
      </trkpt>
      <trkpt lat="47.26353" lon="-2.31961">
        <ele>-6.8000001907349</ele>
        <time>2022-02-27T08:19:28.000Z</time>
      </trkpt>
      <trkpt lat="47.26355" lon="-2.31965">
        <ele>-6.4000000953674</ele>
        <time>2022-02-27T08:19:29.000Z</time>
      </trkpt>
      <trkpt lat="47.26359" lon="-2.31977">
        <ele>-6.4000000953674</ele>
        <time>2022-02-27T08:19:32.000Z</time>
      </trkpt>
      <trkpt lat="47.26367" lon="-2.3199">
        <ele>-6.4000000953674</ele>
        <time>2022-02-27T08:19:37.000Z</time>
      </trkpt>
      <trkpt lat="47.2637" lon="-2.3199">
        <ele>-5.8000001907349</ele>
        <time>2022-02-27T08:19:38.000Z</time>
      </trkpt>
      <trkpt lat="47.26372" lon="-2.31989">
        <ele>-5.4000000953674</ele>
        <time>2022-02-27T08:19:39.000Z</time>
      </trkpt>
      <trkpt lat="47.26374" lon="-2.3199">
        <ele>-5</ele>
        <time>2022-02-27T08:19:40.000Z</time>
      </trkpt>
      <trkpt lat="47.26377" lon="-2.3199">
        <ele>-4.5999999046326</ele>
        <time>2022-02-27T08:19:41.000Z</time>
      </trkpt>
      <trkpt lat="47.26379" lon="-2.3199">
        <ele>-4.1999998092651</ele>
        <time>2022-02-27T08:19:42.000Z</time>
      </trkpt>
      <trkpt lat="47.26388" lon="-2.3199">
        <ele>-4.1999998092651</ele>
        <time>2022-02-27T08:19:46.000Z</time>
      </trkpt>
      <trkpt lat="47.264" lon="-2.31994">
        <ele>-3.7999999523163</ele>
        <time>2022-02-27T08:19:51.000Z</time>
      </trkpt>
      <trkpt lat="47.26403" lon="-2.31996">
        <ele>-3.4000000953674</ele>
        <time>2022-02-27T08:19:52.000Z</time>
      </trkpt>
      <trkpt lat="47.26405" lon="-2.31996">
        <ele>-2.7999999523163</ele>
        <time>2022-02-27T08:19:53.000Z</time>
      </trkpt>
      <trkpt lat="47.26408" lon="-2.31997">
        <ele>-2.4000000953674</ele>
        <time>2022-02-27T08:19:54.000Z</time>
      </trkpt>
      <trkpt lat="47.2641" lon="-2.31998">
        <ele>-2</ele>
        <time>2022-02-27T08:19:55.000Z</time>
      </trkpt>
      <trkpt lat="47.26416" lon="-2.31999">
        <ele>-2</ele>
        <time>2022-02-27T08:19:57.000Z</time>
      </trkpt>
      <trkpt lat="47.2643" lon="-2.32002">
        <ele>-1.6000000238419</ele>
        <time>2022-02-27T08:20:02.000Z</time>
      </trkpt>
      <trkpt lat="47.26433" lon="-2.32003">
        <ele>-1.2000000476837</ele>
        <time>2022-02-27T08:20:03.000Z</time>
      </trkpt>
      <trkpt lat="47.26435" lon="-2.32004">
        <ele>-0.80000001192093</ele>
        <time>2022-02-27T08:20:04.000Z</time>
      </trkpt>
      <trkpt lat="47.26437" lon="-2.32004">
        <ele>-0.40000000596046</ele>
        <time>2022-02-27T08:20:05.000Z</time>
      </trkpt>
      <trkpt lat="47.2644" lon="-2.32004">
        <ele>0.20000000298023</ele>
        <time>2022-02-27T08:20:06.000Z</time>
      </trkpt>
      <trkpt lat="47.26448" lon="-2.32004">
        <ele>0.20000000298023</ele>
        <time>2022-02-27T08:20:09.000Z</time>
      </trkpt>
      <trkpt lat="47.26464" lon="-2.32002">
        <ele>0.60000002384186</ele>
        <time>2022-02-27T08:20:15.000Z</time>
      </trkpt>
      <trkpt lat="47.26466" lon="-2.32002">
        <ele>1</ele>
        <time>2022-02-27T08:20:16.000Z</time>
      </trkpt>
      <trkpt lat="47.26467" lon="-2.32002">
        <ele>1.3999999761581</ele>
        <time>2022-02-27T08:20:17.000Z</time>
      </trkpt>
      <trkpt lat="47.26468" lon="-2.32002">
        <ele>1.7999999523163</ele>
        <time>2022-02-27T08:20:18.000Z</time>
      </trkpt>
      <trkpt lat="47.2647" lon="-2.32001">
        <ele>2.2000000476837</ele>
        <time>2022-02-27T08:20:19.000Z</time>
      </trkpt>
      <trkpt lat="47.26473" lon="-2.32001">
        <ele>2.2000000476837</ele>
        <time>2022-02-27T08:20:21.000Z</time>
      </trkpt>
      <trkpt lat="47.26485" lon="-2.32003">
        <ele>2.2000000476837</ele>
        <time>2022-02-27T08:20:26.000Z</time>
      </trkpt>
      <trkpt lat="47.26493" lon="-2.32002">
        <ele>2.5999999046326</ele>
        <time>2022-02-27T08:20:29.000Z</time>
      </trkpt>
      <trkpt lat="47.26494" lon="-2.32001">
        <ele>3</ele>
        <time>2022-02-27T08:20:30.000Z</time>
      </trkpt>
      <trkpt lat="47.26496" lon="-2.32001">
        <ele>3.4000000953674</ele>
        <time>2022-02-27T08:20:31.000Z</time>
      </trkpt>
      <trkpt lat="47.26499" lon="-2.32">
        <ele>4</ele>
        <time>2022-02-27T08:20:32.000Z</time>
      </trkpt>
      <trkpt lat="47.26503" lon="-2.31998">
        <ele>4.4000000953674</ele>
        <time>2022-02-27T08:20:33.000Z</time>
      </trkpt>
      <trkpt lat="47.26514" lon="-2.31995">
        <ele>4.8000001907349</ele>
        <time>2022-02-27T08:20:37.000Z</time>
      </trkpt>
      <trkpt lat="47.26516" lon="-2.31996">
        <ele>5.1999998092651</ele>
        <time>2022-02-27T08:20:38.000Z</time>
      </trkpt>
      <trkpt lat="47.26518" lon="-2.31996">
        <ele>5.5999999046326</ele>
        <time>2022-02-27T08:20:39.000Z</time>
      </trkpt>
      <trkpt lat="47.2652" lon="-2.31997">
        <ele>6</ele>
        <time>2022-02-27T08:20:40.000Z</time>
      </trkpt>
      <trkpt lat="47.26522" lon="-2.31999">
        <ele>6.4000000953674</ele>
        <time>2022-02-27T08:20:41.000Z</time>
      </trkpt>
      <trkpt lat="47.26535" lon="-2.3201">
        <ele>6.4000000953674</ele>
        <time>2022-02-27T08:20:48.000Z</time>
      </trkpt>
      <trkpt lat="47.26539" lon="-2.32016">
        <ele>6.4000000953674</ele>
        <time>2022-02-27T08:20:51.000Z</time>
      </trkpt>
      <trkpt lat="47.26542" lon="-2.32026">
        <ele>6.4000000953674</ele>
        <time>2022-02-27T08:20:54.000Z</time>
      </trkpt>
      <trkpt lat="47.26545" lon="-2.32033">
        <ele>6.8000001907349</ele>
        <time>2022-02-27T08:20:57.000Z</time>
      </trkpt>
      <trkpt lat="47.26547" lon="-2.32035">
        <ele>7.1999998092651</ele>
        <time>2022-02-27T08:20:58.000Z</time>
      </trkpt>
      <trkpt lat="47.2655" lon="-2.32037">
        <ele>7.8000001907349</ele>
        <time>2022-02-27T08:20:59.000Z</time>
      </trkpt>
      <trkpt lat="47.26552" lon="-2.32037">
        <ele>8.1999998092651</ele>
        <time>2022-02-27T08:21:00.000Z</time>
      </trkpt>
      <trkpt lat="47.26554" lon="-2.32036">
        <ele>8.6000003814697</ele>
        <time>2022-02-27T08:21:01.000Z</time>
      </trkpt>
      <trkpt lat="47.26559" lon="-2.32035">
        <ele>8.6000003814697</ele>
        <time>2022-02-27T08:21:03.000Z</time>
      </trkpt>
      <trkpt lat="47.26568" lon="-2.3203">
        <ele>8.6000003814697</ele>
        <time>2022-02-27T08:21:07.000Z</time>
      </trkpt>
      <trkpt lat="47.2657" lon="-2.32027">
        <ele>8.6000003814697</ele>
        <time>2022-02-27T08:21:08.000Z</time>
      </trkpt>
      <trkpt lat="47.2658" lon="-2.32023">
        <ele>9</ele>
        <time>2022-02-27T08:21:12.000Z</time>
      </trkpt>
      <trkpt lat="47.26582" lon="-2.32022">
        <ele>9.3999996185303</ele>
        <time>2022-02-27T08:21:13.000Z</time>
      </trkpt>
      <trkpt lat="47.26585" lon="-2.32021">
        <ele>9.8000001907349</ele>
        <time>2022-02-27T08:21:14.000Z</time>
      </trkpt>
      <trkpt lat="47.26588" lon="-2.32021">
        <ele>10.199999809265</ele>
        <time>2022-02-27T08:21:15.000Z</time>
      </trkpt>
      <trkpt lat="47.26591" lon="-2.32019">
        <ele>10.800000190735</ele>
        <time>2022-02-27T08:21:16.000Z</time>
      </trkpt>
      <trkpt lat="47.26605" lon="-2.32015">
        <ele>10.800000190735</ele>
        <time>2022-02-27T08:21:21.000Z</time>
      </trkpt>
      <trkpt lat="47.26621" lon="-2.3201">
        <ele>10.800000190735</ele>
        <time>2022-02-27T08:21:28.000Z</time>
      </trkpt>
      <trkpt lat="47.26634" lon="-2.32004">
        <ele>10.800000190735</ele>
        <time>2022-02-27T08:21:34.000Z</time>
      </trkpt>
      <trkpt lat="47.26643" lon="-2.32001">
        <ele>10.800000190735</ele>
        <time>2022-02-27T08:21:40.000Z</time>
      </trkpt>
      <trkpt lat="47.26646" lon="-2.32003">
        <ele>10.800000190735</ele>
        <time>2022-02-27T08:21:42.000Z</time>
      </trkpt>
      <trkpt lat="47.26649" lon="-2.32011">
        <ele>10.800000190735</ele>
        <time>2022-02-27T08:21:44.000Z</time>
      </trkpt>
      <trkpt lat="47.26652" lon="-2.32025">
        <ele>10.800000190735</ele>
        <time>2022-02-27T08:21:47.000Z</time>
      </trkpt>
      <trkpt lat="47.26656" lon="-2.32041">
        <ele>10.800000190735</ele>
        <time>2022-02-27T08:21:50.000Z</time>
      </trkpt>
      <trkpt lat="47.26669" lon="-2.32092">
        <ele>10.800000190735</ele>
        <time>2022-02-27T08:21:59.000Z</time>
      </trkpt>
      <trkpt lat="47.26677" lon="-2.32124">
        <ele>10.800000190735</ele>
        <time>2022-02-27T08:22:05.000Z</time>
      </trkpt>
      <trkpt lat="47.26683" lon="-2.32115">
        <ele>10.800000190735</ele>
        <time>2022-02-27T08:22:08.000Z</time>
      </trkpt>
      <trkpt lat="47.26686" lon="-2.3209">
        <ele>10.800000190735</ele>
        <time>2022-02-27T08:22:12.000Z</time>
      </trkpt>
      <trkpt lat="47.26686" lon="-2.32071">
        <ele>11.199999809265</ele>
        <time>2022-02-27T08:22:15.000Z</time>
      </trkpt>
      <trkpt lat="47.26686" lon="-2.32065">
        <ele>11.60000038147</ele>
        <time>2022-02-27T08:22:16.000Z</time>
      </trkpt>
      <trkpt lat="47.26686" lon="-2.32059">
        <ele>12</ele>
        <time>2022-02-27T08:22:17.000Z</time>
      </trkpt>
      <trkpt lat="47.26686" lon="-2.32054">
        <ele>12.39999961853</ele>
        <time>2022-02-27T08:22:18.000Z</time>
      </trkpt>
      <trkpt lat="47.26686" lon="-2.32049">
        <ele>12.800000190735</ele>
        <time>2022-02-27T08:22:19.000Z</time>
      </trkpt>
      <trkpt lat="47.26691" lon="-2.32024">
        <ele>12.800000190735</ele>
        <time>2022-02-27T08:22:24.000Z</time>
      </trkpt>
      <trkpt lat="47.26704" lon="-2.32003">
        <ele>12.800000190735</ele>
        <time>2022-02-27T08:22:29.000Z</time>
      </trkpt>
      <trkpt lat="47.26708" lon="-2.32">
        <ele>12.800000190735</ele>
        <time>2022-02-27T08:22:30.000Z</time>
      </trkpt>
      <trkpt lat="47.26719" lon="-2.31992">
        <ele>12.199999809265</ele>
        <time>2022-02-27T08:22:33.000Z</time>
      </trkpt>
      <trkpt lat="47.26723" lon="-2.31989">
        <ele>11.800000190735</ele>
        <time>2022-02-27T08:22:34.000Z</time>
      </trkpt>
      <trkpt lat="47.26727" lon="-2.31985">
        <ele>11.39999961853</ele>
        <time>2022-02-27T08:22:35.000Z</time>
      </trkpt>
      <trkpt lat="47.26731" lon="-2.31982">
        <ele>11</ele>
        <time>2022-02-27T08:22:36.000Z</time>
      </trkpt>
      <trkpt lat="47.26735" lon="-2.31978">
        <ele>10.60000038147</ele>
        <time>2022-02-27T08:22:37.000Z</time>
      </trkpt>
      <trkpt lat="47.26753" lon="-2.31955">
        <ele>10.60000038147</ele>
        <time>2022-02-27T08:22:42.000Z</time>
      </trkpt>
      <trkpt lat="47.26756" lon="-2.31951">
        <ele>10.60000038147</ele>
        <time>2022-02-27T08:22:43.000Z</time>
      </trkpt>
      <trkpt lat="47.26765" lon="-2.31952">
        <ele>10.60000038147</ele>
        <time>2022-02-27T08:22:45.000Z</time>
      </trkpt>
      <trkpt lat="47.26775" lon="-2.31968">
        <ele>9.8000001907349</ele>
        <time>2022-02-27T08:22:48.000Z</time>
      </trkpt>
      <trkpt lat="47.26779" lon="-2.31974">
        <ele>9.1999998092651</ele>
        <time>2022-02-27T08:22:49.000Z</time>
      </trkpt>
      <trkpt lat="47.26783" lon="-2.31982">
        <ele>8.8000001907349</ele>
        <time>2022-02-27T08:22:50.000Z</time>
      </trkpt>
      <trkpt lat="47.26787" lon="-2.31989">
        <ele>8.3999996185303</ele>
        <time>2022-02-27T08:22:51.000Z</time>
      </trkpt>
      <trkpt lat="47.268" lon="-2.32013">
        <ele>8</ele>
        <time>2022-02-27T08:22:54.000Z</time>
      </trkpt>
      <trkpt lat="47.26804" lon="-2.32021">
        <ele>7.5999999046326</ele>
        <time>2022-02-27T08:22:55.000Z</time>
      </trkpt>
      <trkpt lat="47.26808" lon="-2.3203">
        <ele>7.1999998092651</ele>
        <time>2022-02-27T08:22:56.000Z</time>
      </trkpt>
      <trkpt lat="47.26811" lon="-2.32039">
        <ele>6.8000001907349</ele>
        <time>2022-02-27T08:22:57.000Z</time>
      </trkpt>
      <trkpt lat="47.26814" lon="-2.32048">
        <ele>6.4000000953674</ele>
        <time>2022-02-27T08:22:58.000Z</time>
      </trkpt>
      <trkpt lat="47.26816" lon="-2.32058">
        <ele>6.4000000953674</ele>
        <time>2022-02-27T08:22:59.000Z</time>
      </trkpt>
      <trkpt lat="47.26832" lon="-2.32121">
        <ele>6</ele>
        <time>2022-02-27T08:23:06.000Z</time>
      </trkpt>
      <trkpt lat="47.26835" lon="-2.3213">
        <ele>5.5999999046326</ele>
        <time>2022-02-27T08:23:07.000Z</time>
      </trkpt>
      <trkpt lat="47.26837" lon="-2.32138">
        <ele>5.1999998092651</ele>
        <time>2022-02-27T08:23:08.000Z</time>
      </trkpt>
      <trkpt lat="47.26839" lon="-2.32146">
        <ele>4.8000001907349</ele>
        <time>2022-02-27T08:23:09.000Z</time>
      </trkpt>
      <trkpt lat="47.26842" lon="-2.32154">
        <ele>4.4000000953674</ele>
        <time>2022-02-27T08:23:10.000Z</time>
      </trkpt>
      <trkpt lat="47.26854" lon="-2.32187">
        <ele>4.4000000953674</ele>
        <time>2022-02-27T08:23:14.000Z</time>
      </trkpt>
      <trkpt lat="47.26863" lon="-2.32209">
        <ele>4</ele>
        <time>2022-02-27T08:23:17.000Z</time>
      </trkpt>
      <trkpt lat="47.26868" lon="-2.32216">
        <ele>3.4000000953674</ele>
        <time>2022-02-27T08:23:18.000Z</time>
      </trkpt>
      <trkpt lat="47.26872" lon="-2.32224">
        <ele>3</ele>
        <time>2022-02-27T08:23:19.000Z</time>
      </trkpt>
      <trkpt lat="47.26876" lon="-2.32231">
        <ele>2.5999999046326</ele>
        <time>2022-02-27T08:23:20.000Z</time>
      </trkpt>
      <trkpt lat="47.26881" lon="-2.32238">
        <ele>2.2000000476837</ele>
        <time>2022-02-27T08:23:21.000Z</time>
      </trkpt>
      <trkpt lat="47.26899" lon="-2.32267">
        <ele>2.2000000476837</ele>
        <time>2022-02-27T08:23:25.000Z</time>
      </trkpt>
      <trkpt lat="47.26903" lon="-2.32276">
        <ele>1.7999999523163</ele>
        <time>2022-02-27T08:23:26.000Z</time>
      </trkpt>
      <trkpt lat="47.26907" lon="-2.32285">
        <ele>1.3999999761581</ele>
        <time>2022-02-27T08:23:27.000Z</time>
      </trkpt>
      <trkpt lat="47.26911" lon="-2.32294">
        <ele>1</ele>
        <time>2022-02-27T08:23:28.000Z</time>
      </trkpt>
      <trkpt lat="47.26914" lon="-2.32304">
        <ele>0.60000002384186</ele>
        <time>2022-02-27T08:23:29.000Z</time>
      </trkpt>
      <trkpt lat="47.26917" lon="-2.32312">
        <ele>8</ele>
        <time>2022-02-27T08:23:30.000Z</time>
      </trkpt>
      <trkpt lat="47.2692" lon="-2.32321">
        <ele>7.9</ele>
        <time>2022-02-27T08:23:31.000Z</time>
      </trkpt>
      <trkpt lat="47.26924" lon="-2.32336">
        <ele>7.8</ele>
        <time>2022-02-27T08:23:33.000Z</time>
      </trkpt>
      <trkpt lat="47.26927" lon="-2.32343">
        <ele>7.9</ele>
        <time>2022-02-27T08:23:34.000Z</time>
      </trkpt>
      <trkpt lat="47.26938" lon="-2.32362">
        <ele>-0.40000000596046</ele>
        <time>2022-02-27T08:23:37.000Z</time>
      </trkpt>
      <trkpt lat="47.2694" lon="-2.32368">
        <ele>-1.2000000476837</ele>
        <time>2022-02-27T08:23:38.000Z</time>
      </trkpt>
      <trkpt lat="47.26942" lon="-2.32375">
        <ele>-1.6000000238419</ele>
        <time>2022-02-27T08:23:39.000Z</time>
      </trkpt>
      <trkpt lat="47.26944" lon="-2.32382">
        <ele>-2</ele>
        <time>2022-02-27T08:23:40.000Z</time>
      </trkpt>
      <trkpt lat="47.26946" lon="-2.3239">
        <ele>-2</ele>
        <time>2022-02-27T08:23:41.000Z</time>
      </trkpt>
      <trkpt lat="47.26954" lon="-2.32415">
        <ele>-2</ele>
        <time>2022-02-27T08:23:44.000Z</time>
      </trkpt>
      <trkpt lat="47.26966" lon="-2.32437">
        <ele>-2</ele>
        <time>2022-02-27T08:23:47.000Z</time>
      </trkpt>
      <trkpt lat="47.26974" lon="-2.3245">
        <ele>-2</ele>
        <time>2022-02-27T08:23:49.000Z</time>
      </trkpt>
      <trkpt lat="47.26983" lon="-2.32462">
        <ele>-2</ele>
        <time>2022-02-27T08:23:51.000Z</time>
      </trkpt>
      <trkpt lat="47.26993" lon="-2.32482">
        <ele>-2</ele>
        <time>2022-02-27T08:23:54.000Z</time>
      </trkpt>
      <trkpt lat="47.27002" lon="-2.32503">
        <ele>-2.4000000953674</ele>
        <time>2022-02-27T08:23:57.000Z</time>
      </trkpt>
      <trkpt lat="47.27007" lon="-2.32507">
        <ele>-2.7999999523163</ele>
        <time>2022-02-27T08:23:58.000Z</time>
      </trkpt>
      <trkpt lat="47.27012" lon="-2.32508">
        <ele>-3.2000000476837</ele>
        <time>2022-02-27T08:23:59.000Z</time>
      </trkpt>
      <trkpt lat="47.27018" lon="-2.32507">
        <ele>-3.5999999046326</ele>
        <time>2022-02-27T08:24:00.000Z</time>
      </trkpt>
      <trkpt lat="47.27024" lon="-2.32504">
        <ele>-4</ele>
        <time>2022-02-27T08:24:01.000Z</time>
      </trkpt>
      <trkpt lat="47.27028" lon="-2.325">
        <ele>-4</ele>
        <time>2022-02-27T08:24:02.000Z</time>
      </trkpt>
      <trkpt lat="47.27034" lon="-2.32478">
        <ele>-4</ele>
        <time>2022-02-27T08:24:05.000Z</time>
      </trkpt>
      <trkpt lat="47.27035" lon="-2.32461">
        <ele>-4</ele>
        <time>2022-02-27T08:24:07.000Z</time>
      </trkpt>
      <trkpt lat="47.27035" lon="-2.32452">
        <ele>-4</ele>
        <time>2022-02-27T08:24:08.000Z</time>
      </trkpt>
      <trkpt lat="47.27034" lon="-2.32434">
        <ele>-4</ele>
        <time>2022-02-27T08:24:10.000Z</time>
      </trkpt>
      <trkpt lat="47.27028" lon="-2.32382">
        <ele>-4</ele>
        <time>2022-02-27T08:24:16.000Z</time>
      </trkpt>
      <trkpt lat="47.27021" lon="-2.32348">
        <ele>-4</ele>
        <time>2022-02-27T08:24:20.000Z</time>
      </trkpt>
      <trkpt lat="47.27018" lon="-2.3233">
        <ele>-4</ele>
        <time>2022-02-27T08:24:22.000Z</time>
      </trkpt>
      <trkpt lat="47.27018" lon="-2.32321">
        <ele>-4</ele>
        <time>2022-02-27T08:24:23.000Z</time>
      </trkpt>
      <trkpt lat="47.27017" lon="-2.32288">
        <ele>-4</ele>
        <time>2022-02-27T08:24:27.000Z</time>
      </trkpt>
      <trkpt lat="47.27016" lon="-2.32239">
        <ele>-4</ele>
        <time>2022-02-27T08:24:33.000Z</time>
      </trkpt>
      <trkpt lat="47.27015" lon="-2.32209">
        <ele>-4</ele>
        <time>2022-02-27T08:24:37.000Z</time>
      </trkpt>
      <trkpt lat="47.27013" lon="-2.32202">
        <ele>-4</ele>
        <time>2022-02-27T08:24:38.000Z</time>
      </trkpt>
      <trkpt lat="47.27008" lon="-2.32189">
        <ele>-4</ele>
        <time>2022-02-27T08:24:40.000Z</time>
      </trkpt>
      <trkpt lat="47.26999" lon="-2.32172">
        <ele>-4</ele>
        <time>2022-02-27T08:24:43.000Z</time>
      </trkpt>
      <trkpt lat="47.2699" lon="-2.32147">
        <ele>-4</ele>
        <time>2022-02-27T08:24:47.000Z</time>
      </trkpt>
      <trkpt lat="47.2699" lon="-2.32141">
        <ele>-4</ele>
        <time>2022-02-27T08:24:48.000Z</time>
      </trkpt>
      <trkpt lat="47.26997" lon="-2.32128">
        <ele>-4</ele>
        <time>2022-02-27T08:24:51.000Z</time>
      </trkpt>
      <trkpt lat="47.27011" lon="-2.3211">
        <ele>-4</ele>
        <time>2022-02-27T08:24:56.000Z</time>
      </trkpt>
      <trkpt lat="47.27012" lon="-2.32106">
        <ele>-4</ele>
        <time>2022-02-27T08:24:57.000Z</time>
      </trkpt>
      <trkpt lat="47.27015" lon="-2.32083">
        <ele>-4</ele>
        <time>2022-02-27T08:25:02.000Z</time>
      </trkpt>
      <trkpt lat="47.27016" lon="-2.3205">
        <ele>-4</ele>
        <time>2022-02-27T08:25:10.000Z</time>
      </trkpt>
      <trkpt lat="47.27013" lon="-2.32021">
        <ele>-4</ele>
        <time>2022-02-27T08:25:17.000Z</time>
      </trkpt>
      <trkpt lat="47.27011" lon="-2.32013">
        <ele>-3.5999999046326</ele>
        <time>2022-02-27T08:25:19.000Z</time>
      </trkpt>
      <trkpt lat="47.2701" lon="-2.32009">
        <ele>-3.2000000476837</ele>
        <time>2022-02-27T08:25:20.000Z</time>
      </trkpt>
      <trkpt lat="47.27009" lon="-2.32005">
        <ele>-2.7999999523163</ele>
        <time>2022-02-27T08:25:21.000Z</time>
      </trkpt>
      <trkpt lat="47.27008" lon="-2.32001">
        <ele>-2.4000000953674</ele>
        <time>2022-02-27T08:25:22.000Z</time>
      </trkpt>
      <trkpt lat="47.27007" lon="-2.31996">
        <ele>-1.7999999523163</ele>
        <time>2022-02-27T08:25:23.000Z</time>
      </trkpt>
      <trkpt lat="47.27009" lon="-2.31987">
        <ele>-1.7999999523163</ele>
        <time>2022-02-27T08:25:25.000Z</time>
      </trkpt>
      <trkpt lat="47.2701" lon="-2.31984">
        <ele>-1.7999999523163</ele>
        <time>2022-02-27T08:25:26.000Z</time>
      </trkpt>
      <trkpt lat="47.27021" lon="-2.31975">
        <ele>-1.7999999523163</ele>
        <time>2022-02-27T08:25:30.000Z</time>
      </trkpt>
      <trkpt lat="47.2703" lon="-2.31969">
        <ele>-1.7999999523163</ele>
        <time>2022-02-27T08:25:33.000Z</time>
      </trkpt>
      <trkpt lat="47.27039" lon="-2.31961">
        <ele>-1.7999999523163</ele>
        <time>2022-02-27T08:25:36.000Z</time>
      </trkpt>
      <trkpt lat="47.27055" lon="-2.3196">
        <ele>-1.7999999523163</ele>
        <time>2022-02-27T08:25:41.000Z</time>
      </trkpt>
      <trkpt lat="47.27066" lon="-2.3196">
        <ele>-1.7999999523163</ele>
        <time>2022-02-27T08:25:46.000Z</time>
      </trkpt>
      <trkpt lat="47.2707" lon="-2.31957">
        <ele>-1.7999999523163</ele>
        <time>2022-02-27T08:25:48.000Z</time>
      </trkpt>
      <trkpt lat="47.27071" lon="-2.31951">
        <ele>-1.7999999523163</ele>
        <time>2022-02-27T08:25:50.000Z</time>
      </trkpt>
      <trkpt lat="47.27073" lon="-2.31936">
        <ele>-1.7999999523163</ele>
        <time>2022-02-27T08:25:55.000Z</time>
      </trkpt>
      <trkpt lat="47.27072" lon="-2.31914">
        <ele>-1.7999999523163</ele>
        <time>2022-02-27T08:26:00.000Z</time>
      </trkpt>
      <trkpt lat="47.27071" lon="-2.31894">
        <ele>-1.7999999523163</ele>
        <time>2022-02-27T08:26:06.000Z</time>
      </trkpt>
      <trkpt lat="47.27074" lon="-2.31878">
        <ele>-1.7999999523163</ele>
        <time>2022-02-27T08:26:12.000Z</time>
      </trkpt>
      <trkpt lat="47.2707" lon="-2.3186">
        <ele>-1.7999999523163</ele>
        <time>2022-02-27T08:26:18.000Z</time>
      </trkpt>
      <trkpt lat="47.27064" lon="-2.31856">
        <ele>-1.3999999761581</ele>
        <time>2022-02-27T08:26:21.000Z</time>
      </trkpt>
      <trkpt lat="47.27062" lon="-2.31853">
        <ele>-1</ele>
        <time>2022-02-27T08:26:22.000Z</time>
      </trkpt>
      <trkpt lat="47.2706" lon="-2.3185">
        <ele>-0.60000002384186</ele>
        <time>2022-02-27T08:26:23.000Z</time>
      </trkpt>
      <trkpt lat="47.27058" lon="-2.31846">
        <ele>-0.20000000298023</ele>
        <time>2022-02-27T08:26:24.000Z</time>
      </trkpt>
      <trkpt lat="47.27057" lon="-2.31842">
        <ele>0.20000000298023</ele>
        <time>2022-02-27T08:26:25.000Z</time>
      </trkpt>
      <trkpt lat="47.27057" lon="-2.31832">
        <ele>0.20000000298023</ele>
        <time>2022-02-27T08:26:27.000Z</time>
      </trkpt>
      <trkpt lat="47.27055" lon="-2.31809">
        <ele>0.20000000298023</ele>
        <time>2022-02-27T08:26:32.000Z</time>
      </trkpt>
      <trkpt lat="47.27055" lon="-2.31805">
        <ele>0.20000000298023</ele>
        <time>2022-02-27T08:26:33.000Z</time>
      </trkpt>
      <trkpt lat="47.27054" lon="-2.31785">
        <ele>0.20000000298023</ele>
        <time>2022-02-27T08:26:38.000Z</time>
      </trkpt>
      <trkpt lat="47.27054" lon="-2.31782">
        <ele>0.60000002384186</ele>
        <time>2022-02-27T08:26:39.000Z</time>
      </trkpt>
      <trkpt lat="47.27053" lon="-2.31779">
        <ele>1</ele>
        <time>2022-02-27T08:26:40.000Z</time>
      </trkpt>
      <trkpt lat="47.27053" lon="-2.31776">
        <ele>1.3999999761581</ele>
        <time>2022-02-27T08:26:41.000Z</time>
      </trkpt>
      <trkpt lat="47.27053" lon="-2.31773">
        <ele>1.7999999523163</ele>
        <time>2022-02-27T08:26:42.000Z</time>
      </trkpt>
      <trkpt lat="47.27052" lon="-2.3177">
        <ele>2.2000000476837</ele>
        <time>2022-02-27T08:26:43.000Z</time>
      </trkpt>
      <trkpt lat="47.27052" lon="-2.31767">
        <ele>2.2000000476837</ele>
        <time>2022-02-27T08:26:44.000Z</time>
      </trkpt>
      <trkpt lat="47.27051" lon="-2.31748">
        <ele>2.2000000476837</ele>
        <time>2022-02-27T08:26:50.000Z</time>
      </trkpt>
      <trkpt lat="47.27047" lon="-2.31732">
        <ele>2.2000000476837</ele>
        <time>2022-02-27T08:26:55.000Z</time>
      </trkpt>
      <trkpt lat="47.27033" lon="-2.31719">
        <ele>2.2000000476837</ele>
        <time>2022-02-27T08:27:01.000Z</time>
      </trkpt>
      <trkpt lat="47.27024" lon="-2.31702">
        <ele>2.2000000476837</ele>
        <time>2022-02-27T08:27:06.000Z</time>
      </trkpt>
      <trkpt lat="47.27025" lon="-2.31699">
        <ele>2.5999999046326</ele>
        <time>2022-02-27T08:27:07.000Z</time>
      </trkpt>
      <trkpt lat="47.27026" lon="-2.31695">
        <ele>3</ele>
        <time>2022-02-27T08:27:08.000Z</time>
      </trkpt>
      <trkpt lat="47.27026" lon="-2.31692">
        <ele>3.4000000953674</ele>
        <time>2022-02-27T08:27:09.000Z</time>
      </trkpt>
      <trkpt lat="47.27027" lon="-2.31688">
        <ele>3.7999999523163</ele>
        <time>2022-02-27T08:27:10.000Z</time>
      </trkpt>
      <trkpt lat="47.27027" lon="-2.31684">
        <ele>4.1999998092651</ele>
        <time>2022-02-27T08:27:11.000Z</time>
      </trkpt>
      <trkpt lat="47.27028" lon="-2.3168">
        <ele>4.1999998092651</ele>
        <time>2022-02-27T08:27:12.000Z</time>
      </trkpt>
      <trkpt lat="47.2703" lon="-2.31661">
        <ele>4.1999998092651</ele>
        <time>2022-02-27T08:27:17.000Z</time>
      </trkpt>
      <trkpt lat="47.2703" lon="-2.31648">
        <ele>4.5999999046326</ele>
        <time>2022-02-27T08:27:20.000Z</time>
      </trkpt>
      <trkpt lat="47.27029" lon="-2.31644">
        <ele>5.1999998092651</ele>
        <time>2022-02-27T08:27:21.000Z</time>
      </trkpt>
      <trkpt lat="47.27029" lon="-2.3164">
        <ele>5.5999999046326</ele>
        <time>2022-02-27T08:27:22.000Z</time>
      </trkpt>
      <trkpt lat="47.27029" lon="-2.31636">
        <ele>6</ele>
        <time>2022-02-27T08:27:23.000Z</time>
      </trkpt>
      <trkpt lat="47.27028" lon="-2.31632">
        <ele>6.4000000953674</ele>
        <time>2022-02-27T08:27:24.000Z</time>
      </trkpt>
      <trkpt lat="47.27028" lon="-2.31619">
        <ele>6.4000000953674</ele>
        <time>2022-02-27T08:27:28.000Z</time>
      </trkpt>
      <trkpt lat="47.27028" lon="-2.31616">
        <ele>6.4000000953674</ele>
        <time>2022-02-27T08:27:29.000Z</time>
      </trkpt>
      <trkpt lat="47.27028" lon="-2.31604">
        <ele>6.8000001907349</ele>
        <time>2022-02-27T08:27:33.000Z</time>
      </trkpt>
      <trkpt lat="47.27027" lon="-2.316">
        <ele>7.1999998092651</ele>
        <time>2022-02-27T08:27:34.000Z</time>
      </trkpt>
      <trkpt lat="47.27026" lon="-2.31597">
        <ele>7.5999999046326</ele>
        <time>2022-02-27T08:27:35.000Z</time>
      </trkpt>
      <trkpt lat="47.27025" lon="-2.31593">
        <ele>8</ele>
        <time>2022-02-27T08:27:36.000Z</time>
      </trkpt>
      <trkpt lat="47.27024" lon="-2.31591">
        <ele>8.3999996185303</ele>
        <time>2022-02-27T08:27:37.000Z</time>
      </trkpt>
      <trkpt lat="47.27018" lon="-2.31576">
        <ele>8.3999996185303</ele>
        <time>2022-02-27T08:27:42.000Z</time>
      </trkpt>
      <trkpt lat="47.27014" lon="-2.31567">
        <ele>8.8000001907349</ele>
        <time>2022-02-27T08:27:45.000Z</time>
      </trkpt>
      <trkpt lat="47.27013" lon="-2.31563">
        <ele>9.1999998092651</ele>
        <time>2022-02-27T08:27:46.000Z</time>
      </trkpt>
      <trkpt lat="47.27012" lon="-2.31558">
        <ele>9.8000001907349</ele>
        <time>2022-02-27T08:27:47.000Z</time>
      </trkpt>
      <trkpt lat="47.27012" lon="-2.31554">
        <ele>10.199999809265</ele>
        <time>2022-02-27T08:27:48.000Z</time>
      </trkpt>
      <trkpt lat="47.27011" lon="-2.3155">
        <ele>10.60000038147</ele>
        <time>2022-02-27T08:27:49.000Z</time>
      </trkpt>
      <trkpt lat="47.27008" lon="-2.31538">
        <ele>10.60000038147</ele>
        <time>2022-02-27T08:27:53.000Z</time>
      </trkpt>
      <trkpt lat="47.27003" lon="-2.31516">
        <ele>10.60000038147</ele>
        <time>2022-02-27T08:27:59.000Z</time>
      </trkpt>
      <trkpt lat="47.27002" lon="-2.31513">
        <ele>11</ele>
        <time>2022-02-27T08:28:00.000Z</time>
      </trkpt>
      <trkpt lat="47.27001" lon="-2.31509">
        <ele>11.39999961853</ele>
        <time>2022-02-27T08:28:01.000Z</time>
      </trkpt>
      <trkpt lat="47.26999" lon="-2.31506">
        <ele>11.800000190735</ele>
        <time>2022-02-27T08:28:02.000Z</time>
      </trkpt>
      <trkpt lat="47.26999" lon="-2.31503">
        <ele>12.39999961853</ele>
        <time>2022-02-27T08:28:03.000Z</time>
      </trkpt>
      <trkpt lat="47.26998" lon="-2.315">
        <ele>12.800000190735</ele>
        <time>2022-02-27T08:28:04.000Z</time>
      </trkpt>
      <trkpt lat="47.26993" lon="-2.31475">
        <ele>12.800000190735</ele>
        <time>2022-02-27T08:28:10.000Z</time>
      </trkpt>
      <trkpt lat="47.26992" lon="-2.31469">
        <ele>13.199999809265</ele>
        <time>2022-02-27T08:28:12.000Z</time>
      </trkpt>
      <trkpt lat="47.26992" lon="-2.31464">
        <ele>13.60000038147</ele>
        <time>2022-02-27T08:28:13.000Z</time>
      </trkpt>
      <trkpt lat="47.26992" lon="-2.3146">
        <ele>14</ele>
        <time>2022-02-27T08:28:14.000Z</time>
      </trkpt>
      <trkpt lat="47.26992" lon="-2.31456">
        <ele>14.39999961853</ele>
        <time>2022-02-27T08:28:15.000Z</time>
      </trkpt>
      <trkpt lat="47.26991" lon="-2.3145">
        <ele>14.800000190735</ele>
        <time>2022-02-27T08:28:16.000Z</time>
      </trkpt>
      <trkpt lat="47.26989" lon="-2.31413">
        <ele>14.800000190735</ele>
        <time>2022-02-27T08:28:24.000Z</time>
      </trkpt>
      <trkpt lat="47.26987" lon="-2.31383">
        <ele>15.199999809265</ele>
        <time>2022-02-27T08:28:31.000Z</time>
      </trkpt>
      <trkpt lat="47.26987" lon="-2.31379">
        <ele>15.60000038147</ele>
        <time>2022-02-27T08:28:32.000Z</time>
      </trkpt>
      <trkpt lat="47.26987" lon="-2.31375">
        <ele>16</ele>
        <time>2022-02-27T08:28:33.000Z</time>
      </trkpt>
      <trkpt lat="47.26987" lon="-2.31371">
        <ele>16.799999237061</ele>
        <time>2022-02-27T08:28:34.000Z</time>
      </trkpt>
      <trkpt lat="47.26985" lon="-2.3135">
        <ele>16.799999237061</ele>
        <time>2022-02-27T08:28:39.000Z</time>
      </trkpt>
      <trkpt lat="47.26983" lon="-2.31326">
        <ele>16.799999237061</ele>
        <time>2022-02-27T08:28:44.000Z</time>
      </trkpt>
      <trkpt lat="47.26982" lon="-2.31321">
        <ele>17.200000762939</ele>
        <time>2022-02-27T08:28:45.000Z</time>
      </trkpt>
      <trkpt lat="47.26981" lon="-2.31315">
        <ele>17.60000038147</ele>
        <time>2022-02-27T08:28:46.000Z</time>
      </trkpt>
      <trkpt lat="47.2698" lon="-2.3131">
        <ele>18</ele>
        <time>2022-02-27T08:28:47.000Z</time>
      </trkpt>
      <trkpt lat="47.26979" lon="-2.31304">
        <ele>18.39999961853</ele>
        <time>2022-02-27T08:28:48.000Z</time>
      </trkpt>
      <trkpt lat="47.26978" lon="-2.31298">
        <ele>18.799999237061</ele>
        <time>2022-02-27T08:28:49.000Z</time>
      </trkpt>
      <trkpt lat="47.26977" lon="-2.31286">
        <ele>18.799999237061</ele>
        <time>2022-02-27T08:28:51.000Z</time>
      </trkpt>
      <trkpt lat="47.26976" lon="-2.31272">
        <ele>18.799999237061</ele>
        <time>2022-02-27T08:28:53.000Z</time>
      </trkpt>
      <trkpt lat="47.26974" lon="-2.31257">
        <ele>18.799999237061</ele>
        <time>2022-02-27T08:28:55.000Z</time>
      </trkpt>
      <trkpt lat="47.26977" lon="-2.31232">
        <ele>18.799999237061</ele>
        <time>2022-02-27T08:28:59.000Z</time>
      </trkpt>
      <trkpt lat="47.26977" lon="-2.31226">
        <ele>18.799999237061</ele>
        <time>2022-02-27T08:29:00.000Z</time>
      </trkpt>
      <trkpt lat="47.26983" lon="-2.31187">
        <ele>18.799999237061</ele>
        <time>2022-02-27T08:29:05.000Z</time>
      </trkpt>
      <trkpt lat="47.26984" lon="-2.31179">
        <ele>18.39999961853</ele>
        <time>2022-02-27T08:29:06.000Z</time>
      </trkpt>
      <trkpt lat="47.26986" lon="-2.3117">
        <ele>18</ele>
        <time>2022-02-27T08:29:07.000Z</time>
      </trkpt>
      <trkpt lat="47.26987" lon="-2.31161">
        <ele>17.60000038147</ele>
        <time>2022-02-27T08:29:08.000Z</time>
      </trkpt>
      <trkpt lat="47.26988" lon="-2.31152">
        <ele>17.200000762939</ele>
        <time>2022-02-27T08:29:09.000Z</time>
      </trkpt>
      <trkpt lat="47.26989" lon="-2.31144">
        <ele>16.799999237061</ele>
        <time>2022-02-27T08:29:10.000Z</time>
      </trkpt>
      <trkpt lat="47.2699" lon="-2.31126">
        <ele>16.799999237061</ele>
        <time>2022-02-27T08:29:12.000Z</time>
      </trkpt>
      <trkpt lat="47.2699" lon="-2.31108">
        <ele>16.799999237061</ele>
        <time>2022-02-27T08:29:14.000Z</time>
      </trkpt>
      <trkpt lat="47.26989" lon="-2.31099">
        <ele>16.200000762939</ele>
        <time>2022-02-27T08:29:15.000Z</time>
      </trkpt>
      <trkpt lat="47.26988" lon="-2.31092">
        <ele>15.800000190735</ele>
        <time>2022-02-27T08:29:16.000Z</time>
      </trkpt>
      <trkpt lat="47.26987" lon="-2.31086">
        <ele>15.39999961853</ele>
        <time>2022-02-27T08:29:17.000Z</time>
      </trkpt>
      <trkpt lat="47.26987" lon="-2.31081">
        <ele>15</ele>
        <time>2022-02-27T08:29:18.000Z</time>
      </trkpt>
      <trkpt lat="47.26988" lon="-2.31077">
        <ele>14.39999961853</ele>
        <time>2022-02-27T08:29:19.000Z</time>
      </trkpt>
      <trkpt lat="47.26991" lon="-2.31073">
        <ele>14.39999961853</ele>
        <time>2022-02-27T08:29:20.000Z</time>
      </trkpt>
      <trkpt lat="47.27002" lon="-2.31063">
        <ele>14.39999961853</ele>
        <time>2022-02-27T08:29:23.000Z</time>
      </trkpt>
      <trkpt lat="47.27007" lon="-2.31059">
        <ele>14</ele>
        <time>2022-02-27T08:29:24.000Z</time>
      </trkpt>
      <trkpt lat="47.27011" lon="-2.31055">
        <ele>13.60000038147</ele>
        <time>2022-02-27T08:29:25.000Z</time>
      </trkpt>
      <trkpt lat="47.27015" lon="-2.31051">
        <ele>13.199999809265</ele>
        <time>2022-02-27T08:29:26.000Z</time>
      </trkpt>
      <trkpt lat="47.27019" lon="-2.31047">
        <ele>12.800000190735</ele>
        <time>2022-02-27T08:29:27.000Z</time>
      </trkpt>
      <trkpt lat="47.27024" lon="-2.31043">
        <ele>12.39999961853</ele>
        <time>2022-02-27T08:29:28.000Z</time>
      </trkpt>
      <trkpt lat="47.27028" lon="-2.31038">
        <ele>12.39999961853</ele>
        <time>2022-02-27T08:29:29.000Z</time>
      </trkpt>
      <trkpt lat="47.27059" lon="-2.31006">
        <ele>12.39999961853</ele>
        <time>2022-02-27T08:29:36.000Z</time>
      </trkpt>
      <trkpt lat="47.27061" lon="-2.30987">
        <ele>12</ele>
        <time>2022-02-27T08:29:39.000Z</time>
      </trkpt>
      <trkpt lat="47.27061" lon="-2.30981">
        <ele>11.60000038147</ele>
        <time>2022-02-27T08:29:40.000Z</time>
      </trkpt>
      <trkpt lat="47.27061" lon="-2.30975">
        <ele>11.199999809265</ele>
        <time>2022-02-27T08:29:41.000Z</time>
      </trkpt>
      <trkpt lat="47.2706" lon="-2.3097">
        <ele>10.60000038147</ele>
        <time>2022-02-27T08:29:42.000Z</time>
      </trkpt>
      <trkpt lat="47.2706" lon="-2.30964">
        <ele>10.199999809265</ele>
        <time>2022-02-27T08:29:43.000Z</time>
      </trkpt>
      <trkpt lat="47.2706" lon="-2.30957">
        <ele>10.199999809265</ele>
        <time>2022-02-27T08:29:44.000Z</time>
      </trkpt>
      <trkpt lat="47.27057" lon="-2.30934">
        <ele>10.199999809265</ele>
        <time>2022-02-27T08:29:49.000Z</time>
      </trkpt>
      <trkpt lat="47.27052" lon="-2.30924">
        <ele>10.199999809265</ele>
        <time>2022-02-27T08:29:53.000Z</time>
      </trkpt>
      <trkpt lat="47.27051" lon="-2.30922">
        <ele>10.199999809265</ele>
        <time>2022-02-27T08:29:55.000Z</time>
      </trkpt>
      <trkpt lat="47.2705" lon="-2.30917">
        <ele>10.199999809265</ele>
        <time>2022-02-27T08:30:01.000Z</time>
      </trkpt>
      <trkpt lat="47.2705" lon="-2.30913">
        <ele>10.199999809265</ele>
        <time>2022-02-27T08:30:02.000Z</time>
      </trkpt>
      <trkpt lat="47.27038" lon="-2.30886">
        <ele>10.199999809265</ele>
        <time>2022-02-27T08:30:08.000Z</time>
      </trkpt>
      <trkpt lat="47.27021" lon="-2.30854">
        <ele>10.199999809265</ele>
        <time>2022-02-27T08:30:15.000Z</time>
      </trkpt>
      <trkpt lat="47.27009" lon="-2.30832">
        <ele>10.199999809265</ele>
        <time>2022-02-27T08:30:20.000Z</time>
      </trkpt>
      <trkpt lat="47.27004" lon="-2.30823">
        <ele>10.60000038147</ele>
        <time>2022-02-27T08:30:22.000Z</time>
      </trkpt>
      <trkpt lat="47.26999" lon="-2.30818">
        <ele>11.199999809265</ele>
        <time>2022-02-27T08:30:23.000Z</time>
      </trkpt>
      <trkpt lat="47.26996" lon="-2.30814">
        <ele>11.60000038147</ele>
        <time>2022-02-27T08:30:24.000Z</time>
      </trkpt>
      <trkpt lat="47.26993" lon="-2.3081">
        <ele>12</ele>
        <time>2022-02-27T08:30:25.000Z</time>
      </trkpt>
      <trkpt lat="47.26991" lon="-2.30806">
        <ele>12.39999961853</ele>
        <time>2022-02-27T08:30:26.000Z</time>
      </trkpt>
      <trkpt lat="47.26977" lon="-2.30783">
        <ele>12.39999961853</ele>
        <time>2022-02-27T08:30:32.000Z</time>
      </trkpt>
      <trkpt lat="47.26971" lon="-2.30773">
        <ele>12.800000190735</ele>
        <time>2022-02-27T08:30:35.000Z</time>
      </trkpt>
      <trkpt lat="47.26968" lon="-2.30768">
        <ele>13.199999809265</ele>
        <time>2022-02-27T08:30:36.000Z</time>
      </trkpt>
      <trkpt lat="47.26965" lon="-2.30764">
        <ele>14</ele>
        <time>2022-02-27T08:30:37.000Z</time>
      </trkpt>
      <trkpt lat="47.26962" lon="-2.3076">
        <ele>14.39999961853</ele>
        <time>2022-02-27T08:30:38.000Z</time>
      </trkpt>
      <trkpt lat="47.26947" lon="-2.3074">
        <ele>14.39999961853</ele>
        <time>2022-02-27T08:30:43.000Z</time>
      </trkpt>
      <trkpt lat="47.26937" lon="-2.30723">
        <ele>15</ele>
        <time>2022-02-27T08:30:47.000Z</time>
      </trkpt>
      <trkpt lat="47.26934" lon="-2.3072">
        <ele>15.39999961853</ele>
        <time>2022-02-27T08:30:48.000Z</time>
      </trkpt>
      <trkpt lat="47.26931" lon="-2.30716">
        <ele>15.800000190735</ele>
        <time>2022-02-27T08:30:49.000Z</time>
      </trkpt>
      <trkpt lat="47.26928" lon="-2.30712">
        <ele>16.200000762939</ele>
        <time>2022-02-27T08:30:50.000Z</time>
      </trkpt>
      <trkpt lat="47.26926" lon="-2.30708">
        <ele>16.60000038147</ele>
        <time>2022-02-27T08:30:51.000Z</time>
      </trkpt>
      <trkpt lat="47.26905" lon="-2.30681">
        <ele>16.60000038147</ele>
        <time>2022-02-27T08:30:59.000Z</time>
      </trkpt>
      <trkpt lat="47.26899" lon="-2.30668">
        <ele>16.60000038147</ele>
        <time>2022-02-27T08:31:05.000Z</time>
      </trkpt>
      <trkpt lat="47.26899" lon="-2.30666">
        <ele>16.60000038147</ele>
        <time>2022-02-27T08:31:07.000Z</time>
      </trkpt>
      <trkpt lat="47.26896" lon="-2.30665">
        <ele>16.60000038147</ele>
        <time>2022-02-27T08:31:13.000Z</time>
      </trkpt>
      <trkpt lat="47.26895" lon="-2.30664">
        <ele>16.60000038147</ele>
        <time>2022-02-27T08:31:14.000Z</time>
      </trkpt>
      <trkpt lat="47.26893" lon="-2.30665">
        <ele>16.60000038147</ele>
        <time>2022-02-27T08:31:15.000Z</time>
      </trkpt>
      <trkpt lat="47.26885" lon="-2.30672">
        <ele>16.60000038147</ele>
        <time>2022-02-27T08:31:18.000Z</time>
      </trkpt>
      <trkpt lat="47.26867" lon="-2.30701">
        <ele>16.60000038147</ele>
        <time>2022-02-27T08:31:25.000Z</time>
      </trkpt>
      <trkpt lat="47.26847" lon="-2.30746">
        <ele>16.60000038147</ele>
        <time>2022-02-27T08:31:33.000Z</time>
      </trkpt>
      <trkpt lat="47.26838" lon="-2.30769">
        <ele>16.60000038147</ele>
        <time>2022-02-27T08:31:37.000Z</time>
      </trkpt>
      <trkpt lat="47.2683" lon="-2.30785">
        <ele>16.60000038147</ele>
        <time>2022-02-27T08:31:40.000Z</time>
      </trkpt>
      <trkpt lat="47.26827" lon="-2.30789">
        <ele>16.60000038147</ele>
        <time>2022-02-27T08:31:41.000Z</time>
      </trkpt>
      <trkpt lat="47.26816" lon="-2.30799">
        <ele>16.60000038147</ele>
        <time>2022-02-27T08:31:44.000Z</time>
      </trkpt>
      <trkpt lat="47.26808" lon="-2.30806">
        <ele>16.60000038147</ele>
        <time>2022-02-27T08:31:46.000Z</time>
      </trkpt>
      <trkpt lat="47.26799" lon="-2.30814">
        <ele>17</ele>
        <time>2022-02-27T08:31:48.000Z</time>
      </trkpt>
      <trkpt lat="47.26794" lon="-2.30819">
        <ele>17.60000038147</ele>
        <time>2022-02-27T08:31:49.000Z</time>
      </trkpt>
      <trkpt lat="47.26791" lon="-2.30823">
        <ele>18</ele>
        <time>2022-02-27T08:31:50.000Z</time>
      </trkpt>
      <trkpt lat="47.26787" lon="-2.30828">
        <ele>18.39999961853</ele>
        <time>2022-02-27T08:31:51.000Z</time>
      </trkpt>
      <trkpt lat="47.26782" lon="-2.30832">
        <ele>18.799999237061</ele>
        <time>2022-02-27T08:31:52.000Z</time>
      </trkpt>
      <trkpt lat="47.26769" lon="-2.30845">
        <ele>18.799999237061</ele>
        <time>2022-02-27T08:31:55.000Z</time>
      </trkpt>
      <trkpt lat="47.26752" lon="-2.30863">
        <ele>18.799999237061</ele>
        <time>2022-02-27T08:31:59.000Z</time>
      </trkpt>
      <trkpt lat="47.26747" lon="-2.30867">
        <ele>18.799999237061</ele>
        <time>2022-02-27T08:32:00.000Z</time>
      </trkpt>
      <trkpt lat="47.26736" lon="-2.30865">
        <ele>18.799999237061</ele>
        <time>2022-02-27T08:32:02.000Z</time>
      </trkpt>
      <trkpt lat="47.26725" lon="-2.30849">
        <ele>18.799999237061</ele>
        <time>2022-02-27T08:32:05.000Z</time>
      </trkpt>
      <trkpt lat="47.26722" lon="-2.30842">
        <ele>18.799999237061</ele>
        <time>2022-02-27T08:32:06.000Z</time>
      </trkpt>
      <trkpt lat="47.26702" lon="-2.30795">
        <ele>18.799999237061</ele>
        <time>2022-02-27T08:32:13.000Z</time>
      </trkpt>
      <trkpt lat="47.26692" lon="-2.30766">
        <ele>18.39999961853</ele>
        <time>2022-02-27T08:32:17.000Z</time>
      </trkpt>
      <trkpt lat="47.26688" lon="-2.30758">
        <ele>17.799999237061</ele>
        <time>2022-02-27T08:32:18.000Z</time>
      </trkpt>
      <trkpt lat="47.26685" lon="-2.3075">
        <ele>17.39999961853</ele>
        <time>2022-02-27T08:32:19.000Z</time>
      </trkpt>
      <trkpt lat="47.26681" lon="-2.30743">
        <ele>17</ele>
        <time>2022-02-27T08:32:20.000Z</time>
      </trkpt>
      <trkpt lat="47.26678" lon="-2.30736">
        <ele>16.60000038147</ele>
        <time>2022-02-27T08:32:21.000Z</time>
      </trkpt>
      <trkpt lat="47.26672" lon="-2.30723">
        <ele>16.200000762939</ele>
        <time>2022-02-27T08:32:23.000Z</time>
      </trkpt>
      <trkpt lat="47.26669" lon="-2.30718">
        <ele>15.800000190735</ele>
        <time>2022-02-27T08:32:24.000Z</time>
      </trkpt>
      <trkpt lat="47.26667" lon="-2.30712">
        <ele>15.199999809265</ele>
        <time>2022-02-27T08:32:25.000Z</time>
      </trkpt>
      <trkpt lat="47.26664" lon="-2.30707">
        <ele>14.800000190735</ele>
        <time>2022-02-27T08:32:26.000Z</time>
      </trkpt>
      <trkpt lat="47.26663" lon="-2.30701">
        <ele>14.39999961853</ele>
        <time>2022-02-27T08:32:27.000Z</time>
      </trkpt>
      <trkpt lat="47.26655" lon="-2.30692">
        <ele>14.39999961853</ele>
        <time>2022-02-27T08:32:30.000Z</time>
      </trkpt>
      <trkpt lat="47.26648" lon="-2.30703">
        <ele>14.39999961853</ele>
        <time>2022-02-27T08:32:33.000Z</time>
      </trkpt>
      <trkpt lat="47.26645" lon="-2.30715">
        <ele>14.39999961853</ele>
        <time>2022-02-27T08:32:35.000Z</time>
      </trkpt>
      <trkpt lat="47.26641" lon="-2.30722">
        <ele>14.39999961853</ele>
        <time>2022-02-27T08:32:37.000Z</time>
      </trkpt>
      <trkpt lat="47.2664" lon="-2.30723">
        <ele>14</ele>
        <time>2022-02-27T08:32:38.000Z</time>
      </trkpt>
      <trkpt lat="47.26639" lon="-2.30725">
        <ele>13.39999961853</ele>
        <time>2022-02-27T08:32:39.000Z</time>
      </trkpt>
      <trkpt lat="47.26637" lon="-2.30727">
        <ele>13</ele>
        <time>2022-02-27T08:32:40.000Z</time>
      </trkpt>
      <trkpt lat="47.26635" lon="-2.30728">
        <ele>12.199999809265</ele>
        <time>2022-02-27T08:32:41.000Z</time>
      </trkpt>
      <trkpt lat="47.2663" lon="-2.30735">
        <ele>12.199999809265</ele>
        <time>2022-02-27T08:32:44.000Z</time>
      </trkpt>
      <trkpt lat="47.26625" lon="-2.30741">
        <ele>12.199999809265</ele>
        <time>2022-02-27T08:32:46.000Z</time>
      </trkpt>
      <trkpt lat="47.26615" lon="-2.30762">
        <ele>12.199999809265</ele>
        <time>2022-02-27T08:32:52.000Z</time>
      </trkpt>
      <trkpt lat="47.26603" lon="-2.30777">
        <ele>12.199999809265</ele>
        <time>2022-02-27T08:32:57.000Z</time>
      </trkpt>
      <trkpt lat="47.26588" lon="-2.30798">
        <ele>11.60000038147</ele>
        <time>2022-02-27T08:33:02.000Z</time>
      </trkpt>
      <trkpt lat="47.26584" lon="-2.30802">
        <ele>11.199999809265</ele>
        <time>2022-02-27T08:33:03.000Z</time>
      </trkpt>
      <trkpt lat="47.26581" lon="-2.30807">
        <ele>10.800000190735</ele>
        <time>2022-02-27T08:33:04.000Z</time>
      </trkpt>
      <trkpt lat="47.26577" lon="-2.30813">
        <ele>10.39999961853</ele>
        <time>2022-02-27T08:33:05.000Z</time>
      </trkpt>
      <trkpt lat="47.26574" lon="-2.3082">
        <ele>10</ele>
        <time>2022-02-27T08:33:06.000Z</time>
      </trkpt>
      <trkpt lat="47.26568" lon="-2.30833">
        <ele>10</ele>
        <time>2022-02-27T08:33:09.000Z</time>
      </trkpt>
      <trkpt lat="47.26565" lon="-2.30835">
        <ele>10</ele>
        <time>2022-02-27T08:33:10.000Z</time>
      </trkpt>
      <trkpt lat="47.26559" lon="-2.3084">
        <ele>9.6000003814697</ele>
        <time>2022-02-27T08:33:12.000Z</time>
      </trkpt>
      <trkpt lat="47.26556" lon="-2.30842">
        <ele>9.1999998092651</ele>
        <time>2022-02-27T08:33:13.000Z</time>
      </trkpt>
      <trkpt lat="47.26553" lon="-2.30846">
        <ele>8.8000001907349</ele>
        <time>2022-02-27T08:33:14.000Z</time>
      </trkpt>
      <trkpt lat="47.2655" lon="-2.30849">
        <ele>8.3999996185303</ele>
        <time>2022-02-27T08:33:15.000Z</time>
      </trkpt>
      <trkpt lat="47.26547" lon="-2.30853">
        <ele>8</ele>
        <time>2022-02-27T08:33:16.000Z</time>
      </trkpt>
      <trkpt lat="47.2654" lon="-2.30861">
        <ele>8</ele>
        <time>2022-02-27T08:33:18.000Z</time>
      </trkpt>
      <trkpt lat="47.26537" lon="-2.30864">
        <ele>8</ele>
        <time>2022-02-27T08:33:19.000Z</time>
      </trkpt>
      <trkpt lat="47.26532" lon="-2.30869">
        <ele>8</ele>
        <time>2022-02-27T08:33:20.000Z</time>
      </trkpt>
      <trkpt lat="47.26521" lon="-2.30884">
        <ele>8</ele>
        <time>2022-02-27T08:33:23.000Z</time>
      </trkpt>
      <trkpt lat="47.26514" lon="-2.3089">
        <ele>8</ele>
        <time>2022-02-27T08:33:26.000Z</time>
      </trkpt>
      <trkpt lat="47.26513" lon="-2.30892">
        <ele>8</ele>
        <time>2022-02-27T08:33:27.000Z</time>
      </trkpt>
      <trkpt lat="47.26511" lon="-2.30896">
        <ele>8</ele>
        <time>2022-02-27T08:33:31.000Z</time>
      </trkpt>
      <trkpt lat="47.26511" lon="-2.30896">
        <ele>8</ele>
        <time>2022-02-27T08:33:32.000Z</time>
      </trkpt>
      <trkpt lat="47.2651" lon="-2.30895">
        <ele>8</ele>
        <time>2022-02-27T08:33:33.000Z</time>
      </trkpt>
      <trkpt lat="47.26505" lon="-2.30885">
        <ele>8</ele>
        <time>2022-02-27T08:33:35.000Z</time>
      </trkpt>
      <trkpt lat="47.265" lon="-2.30873">
        <ele>8.3999996185303</ele>
        <time>2022-02-27T08:33:37.000Z</time>
      </trkpt>
      <trkpt lat="47.26498" lon="-2.30869">
        <ele>8.8000001907349</ele>
        <time>2022-02-27T08:33:38.000Z</time>
      </trkpt>
      <trkpt lat="47.26495" lon="-2.30865">
        <ele>9.1999998092651</ele>
        <time>2022-02-27T08:33:39.000Z</time>
      </trkpt>
      <trkpt lat="47.26492" lon="-2.30861">
        <ele>9.6000003814697</ele>
        <time>2022-02-27T08:33:40.000Z</time>
      </trkpt>
      <trkpt lat="47.2649" lon="-2.30856">
        <ele>10</ele>
        <time>2022-02-27T08:33:41.000Z</time>
      </trkpt>
      <trkpt lat="47.26484" lon="-2.30841">
        <ele>10</ele>
        <time>2022-02-27T08:33:44.000Z</time>
      </trkpt>
      <trkpt lat="47.2648" lon="-2.30832">
        <ele>10</ele>
        <time>2022-02-27T08:33:47.000Z</time>
      </trkpt>
      <trkpt lat="47.26475" lon="-2.30816">
        <ele>10.39999961853</ele>
        <time>2022-02-27T08:33:50.000Z</time>
      </trkpt>
      <trkpt lat="47.26472" lon="-2.3081">
        <ele>10.800000190735</ele>
        <time>2022-02-27T08:33:51.000Z</time>
      </trkpt>
      <trkpt lat="47.2647" lon="-2.30804">
        <ele>11.39999961853</ele>
        <time>2022-02-27T08:33:52.000Z</time>
      </trkpt>
      <trkpt lat="47.26468" lon="-2.30799">
        <ele>11.800000190735</ele>
        <time>2022-02-27T08:33:53.000Z</time>
      </trkpt>
      <trkpt lat="47.26466" lon="-2.30796">
        <ele>12.199999809265</ele>
        <time>2022-02-27T08:33:54.000Z</time>
      </trkpt>
      <trkpt lat="47.2646" lon="-2.30782">
        <ele>12.199999809265</ele>
        <time>2022-02-27T08:33:57.000Z</time>
      </trkpt>
      <trkpt lat="47.26452" lon="-2.30757">
        <ele>12.199999809265</ele>
        <time>2022-02-27T08:34:03.000Z</time>
      </trkpt>
      <trkpt lat="47.26448" lon="-2.30745">
        <ele>12.60000038147</ele>
        <time>2022-02-27T08:34:06.000Z</time>
      </trkpt>
      <trkpt lat="47.26445" lon="-2.30742">
        <ele>13</ele>
        <time>2022-02-27T08:34:07.000Z</time>
      </trkpt>
      <trkpt lat="47.26443" lon="-2.30738">
        <ele>13.39999961853</ele>
        <time>2022-02-27T08:34:08.000Z</time>
      </trkpt>
      <trkpt lat="47.26442" lon="-2.30734">
        <ele>13.800000190735</ele>
        <time>2022-02-27T08:34:09.000Z</time>
      </trkpt>
      <trkpt lat="47.2644" lon="-2.3073">
        <ele>14.199999809265</ele>
        <time>2022-02-27T08:34:10.000Z</time>
      </trkpt>
      <trkpt lat="47.26435" lon="-2.30719">
        <ele>14.199999809265</ele>
        <time>2022-02-27T08:34:13.000Z</time>
      </trkpt>
      <trkpt lat="47.26423" lon="-2.30699">
        <ele>14.199999809265</ele>
        <time>2022-02-27T08:34:19.000Z</time>
      </trkpt>
      <trkpt lat="47.26414" lon="-2.30685">
        <ele>14.199999809265</ele>
        <time>2022-02-27T08:34:24.000Z</time>
      </trkpt>
      <trkpt lat="47.26391" lon="-2.30668">
        <ele>14.199999809265</ele>
        <time>2022-02-27T08:34:30.000Z</time>
      </trkpt>
      <trkpt lat="47.26373" lon="-2.30648">
        <ele>14.199999809265</ele>
        <time>2022-02-27T08:34:36.000Z</time>
      </trkpt>
      <trkpt lat="47.2637" lon="-2.30644">
        <ele>14.60000038147</ele>
        <time>2022-02-27T08:34:37.000Z</time>
      </trkpt>
      <trkpt lat="47.26368" lon="-2.30639">
        <ele>15</ele>
        <time>2022-02-27T08:34:38.000Z</time>
      </trkpt>
      <trkpt lat="47.26365" lon="-2.30634">
        <ele>15.60000038147</ele>
        <time>2022-02-27T08:34:39.000Z</time>
      </trkpt>
      <trkpt lat="47.26363" lon="-2.30629">
        <ele>16</ele>
        <time>2022-02-27T08:34:40.000Z</time>
      </trkpt>
      <trkpt lat="47.26361" lon="-2.30625">
        <ele>16.39999961853</ele>
        <time>2022-02-27T08:34:41.000Z</time>
      </trkpt>
      <trkpt lat="47.26359" lon="-2.3062">
        <ele>16.39999961853</ele>
        <time>2022-02-27T08:34:42.000Z</time>
      </trkpt>
      <trkpt lat="47.26354" lon="-2.30609">
        <ele>16.39999961853</ele>
        <time>2022-02-27T08:34:45.000Z</time>
      </trkpt>
      <trkpt lat="47.2635" lon="-2.30602">
        <ele>16.39999961853</ele>
        <time>2022-02-27T08:34:47.000Z</time>
      </trkpt>
      <trkpt lat="47.26345" lon="-2.30588">
        <ele>16.39999961853</ele>
        <time>2022-02-27T08:34:53.000Z</time>
      </trkpt>
      <trkpt lat="47.26344" lon="-2.30588">
        <ele>16.39999961853</ele>
        <time>2022-02-27T08:34:55.000Z</time>
      </trkpt>
      <trkpt lat="47.26344" lon="-2.30586">
        <ele>16.39999961853</ele>
        <time>2022-02-27T08:35:03.000Z</time>
      </trkpt>
      <trkpt lat="47.26345" lon="-2.30582">
        <ele>16.39999961853</ele>
        <time>2022-02-27T08:35:04.000Z</time>
      </trkpt>
      <trkpt lat="47.26346" lon="-2.30568">
        <ele>16.39999961853</ele>
        <time>2022-02-27T08:35:08.000Z</time>
      </trkpt>
      <trkpt lat="47.26346" lon="-2.3056">
        <ele>16.39999961853</ele>
        <time>2022-02-27T08:35:10.000Z</time>
      </trkpt>
      <trkpt lat="47.26346" lon="-2.30552">
        <ele>16.39999961853</ele>
        <time>2022-02-27T08:35:12.000Z</time>
      </trkpt>
      <trkpt lat="47.26343" lon="-2.30528">
        <ele>16.39999961853</ele>
        <time>2022-02-27T08:35:17.000Z</time>
      </trkpt>
      <trkpt lat="47.26337" lon="-2.30501">
        <ele>16.39999961853</ele>
        <time>2022-02-27T08:35:22.000Z</time>
      </trkpt>
      <trkpt lat="47.2633" lon="-2.30465">
        <ele>16.799999237061</ele>
        <time>2022-02-27T08:35:28.000Z</time>
      </trkpt>
      <trkpt lat="47.26328" lon="-2.3046">
        <ele>17.200000762939</ele>
        <time>2022-02-27T08:35:29.000Z</time>
      </trkpt>
      <trkpt lat="47.26327" lon="-2.30453">
        <ele>17.60000038147</ele>
        <time>2022-02-27T08:35:30.000Z</time>
      </trkpt>
      <trkpt lat="47.26326" lon="-2.30447">
        <ele>18</ele>
        <time>2022-02-27T08:35:31.000Z</time>
      </trkpt>
      <trkpt lat="47.26324" lon="-2.30441">
        <ele>18.39999961853</ele>
        <time>2022-02-27T08:35:32.000Z</time>
      </trkpt>
      <trkpt lat="47.26321" lon="-2.30427">
        <ele>18.39999961853</ele>
        <time>2022-02-27T08:35:34.000Z</time>
      </trkpt>
      <trkpt lat="47.26309" lon="-2.30379">
        <ele>18.39999961853</ele>
        <time>2022-02-27T08:35:41.000Z</time>
      </trkpt>
      <trkpt lat="47.26303" lon="-2.30335">
        <ele>18.39999961853</ele>
        <time>2022-02-27T08:35:47.000Z</time>
      </trkpt>
      <trkpt lat="47.26301" lon="-2.30329">
        <ele>18.39999961853</ele>
        <time>2022-02-27T08:35:48.000Z</time>
      </trkpt>
      <trkpt lat="47.26288" lon="-2.30287">
        <ele>18.39999961853</ele>
        <time>2022-02-27T08:35:54.000Z</time>
      </trkpt>
      <trkpt lat="47.2628" lon="-2.30245">
        <ele>18.39999961853</ele>
        <time>2022-02-27T08:36:00.000Z</time>
      </trkpt>
      <trkpt lat="47.26278" lon="-2.30239">
        <ele>18.39999961853</ele>
        <time>2022-02-27T08:36:01.000Z</time>
      </trkpt>
      <trkpt lat="47.26273" lon="-2.30214">
        <ele>18.39999961853</ele>
        <time>2022-02-27T08:36:05.000Z</time>
      </trkpt>
      <trkpt lat="47.26267" lon="-2.30187">
        <ele>18.39999961853</ele>
        <time>2022-02-27T08:36:10.000Z</time>
      </trkpt>
      <trkpt lat="47.2626" lon="-2.30164">
        <ele>18.799999237061</ele>
        <time>2022-02-27T08:36:14.000Z</time>
      </trkpt>
      <trkpt lat="47.26258" lon="-2.30158">
        <ele>19.200000762939</ele>
        <time>2022-02-27T08:36:15.000Z</time>
      </trkpt>
      <trkpt lat="47.26256" lon="-2.30153">
        <ele>19.60000038147</ele>
        <time>2022-02-27T08:36:16.000Z</time>
      </trkpt>
      <trkpt lat="47.26254" lon="-2.30147">
        <ele>20.200000762939</ele>
        <time>2022-02-27T08:36:17.000Z</time>
      </trkpt>
      <trkpt lat="47.26252" lon="-2.30143">
        <ele>20.60000038147</ele>
        <time>2022-02-27T08:36:18.000Z</time>
      </trkpt>
      <trkpt lat="47.26243" lon="-2.30133">
        <ele>20.60000038147</ele>
        <time>2022-02-27T08:36:21.000Z</time>
      </trkpt>
      <trkpt lat="47.26231" lon="-2.30137">
        <ele>20.60000038147</ele>
        <time>2022-02-27T08:36:24.000Z</time>
      </trkpt>
      <trkpt lat="47.26202" lon="-2.30147">
        <ele>20.60000038147</ele>
        <time>2022-02-27T08:36:30.000Z</time>
      </trkpt>
      <trkpt lat="47.26192" lon="-2.30151">
        <ele>20.60000038147</ele>
        <time>2022-02-27T08:36:32.000Z</time>
      </trkpt>
      <trkpt lat="47.26176" lon="-2.30158">
        <ele>20.60000038147</ele>
        <time>2022-02-27T08:36:36.000Z</time>
      </trkpt>
      <trkpt lat="47.26173" lon="-2.30155">
        <ele>20</ele>
        <time>2022-02-27T08:36:37.000Z</time>
      </trkpt>
      <trkpt lat="47.26173" lon="-2.30152">
        <ele>19.60000038147</ele>
        <time>2022-02-27T08:36:38.000Z</time>
      </trkpt>
      <trkpt lat="47.26172" lon="-2.30149">
        <ele>19.200000762939</ele>
        <time>2022-02-27T08:36:39.000Z</time>
      </trkpt>
      <trkpt lat="47.26171" lon="-2.30145">
        <ele>18.799999237061</ele>
        <time>2022-02-27T08:36:40.000Z</time>
      </trkpt>
      <trkpt lat="47.2617" lon="-2.30144">
        <ele>18.39999961853</ele>
        <time>2022-02-27T08:36:41.000Z</time>
      </trkpt>
      <trkpt lat="47.26169" lon="-2.30144">
        <ele>18.39999961853</ele>
        <time>2022-02-27T08:36:43.000Z</time>
      </trkpt>
      <trkpt lat="47.26165" lon="-2.30146">
        <ele>18.39999961853</ele>
        <time>2022-02-27T08:36:44.000Z</time>
      </trkpt>
      <trkpt lat="47.26157" lon="-2.30149">
        <ele>18.39999961853</ele>
        <time>2022-02-27T08:36:46.000Z</time>
      </trkpt>
      <trkpt lat="47.26143" lon="-2.30153">
        <ele>18</ele>
        <time>2022-02-27T08:36:49.000Z</time>
      </trkpt>
      <trkpt lat="47.26137" lon="-2.30154">
        <ele>17.60000038147</ele>
        <time>2022-02-27T08:36:50.000Z</time>
      </trkpt>
      <trkpt lat="47.26132" lon="-2.30156">
        <ele>17.200000762939</ele>
        <time>2022-02-27T08:36:51.000Z</time>
      </trkpt>
      <trkpt lat="47.26127" lon="-2.30157">
        <ele>16.799999237061</ele>
        <time>2022-02-27T08:36:52.000Z</time>
      </trkpt>
      <trkpt lat="47.26122" lon="-2.30159">
        <ele>16.39999961853</ele>
        <time>2022-02-27T08:36:53.000Z</time>
      </trkpt>
      <trkpt lat="47.26117" lon="-2.30161">
        <ele>16.39999961853</ele>
        <time>2022-02-27T08:36:54.000Z</time>
      </trkpt>
      <trkpt lat="47.26109" lon="-2.30163">
        <ele>15.800000190735</ele>
        <time>2022-02-27T08:36:56.000Z</time>
      </trkpt>
      <trkpt lat="47.26107" lon="-2.30161">
        <ele>15.39999961853</ele>
        <time>2022-02-27T08:36:57.000Z</time>
      </trkpt>
      <trkpt lat="47.26104" lon="-2.30159">
        <ele>15</ele>
        <time>2022-02-27T08:36:58.000Z</time>
      </trkpt>
      <trkpt lat="47.26103" lon="-2.30155">
        <ele>14.60000038147</ele>
        <time>2022-02-27T08:36:59.000Z</time>
      </trkpt>
      <trkpt lat="47.26102" lon="-2.30152">
        <ele>14.199999809265</ele>
        <time>2022-02-27T08:37:00.000Z</time>
      </trkpt>
      <trkpt lat="47.26099" lon="-2.3015">
        <ele>14.199999809265</ele>
        <time>2022-02-27T08:37:01.000Z</time>
      </trkpt>
      <trkpt lat="47.26095" lon="-2.30149">
        <ele>14.199999809265</ele>
        <time>2022-02-27T08:37:03.000Z</time>
      </trkpt>
      <trkpt lat="47.26082" lon="-2.30147">
        <ele>14.199999809265</ele>
        <time>2022-02-27T08:37:07.000Z</time>
      </trkpt>
      <trkpt lat="47.26078" lon="-2.30145">
        <ele>13.800000190735</ele>
        <time>2022-02-27T08:37:08.000Z</time>
      </trkpt>
      <trkpt lat="47.26074" lon="-2.30142">
        <ele>13.199999809265</ele>
        <time>2022-02-27T08:37:09.000Z</time>
      </trkpt>
      <trkpt lat="47.2607" lon="-2.30139">
        <ele>12.800000190735</ele>
        <time>2022-02-27T08:37:10.000Z</time>
      </trkpt>
      <trkpt lat="47.26066" lon="-2.30137">
        <ele>12.39999961853</ele>
        <time>2022-02-27T08:37:11.000Z</time>
      </trkpt>
      <trkpt lat="47.26062" lon="-2.30135">
        <ele>12</ele>
        <time>2022-02-27T08:37:12.000Z</time>
      </trkpt>
      <trkpt lat="47.26058" lon="-2.30136">
        <ele>12</ele>
        <time>2022-02-27T08:37:13.000Z</time>
      </trkpt>
      <trkpt lat="47.26045" lon="-2.30136">
        <ele>12</ele>
        <time>2022-02-27T08:37:16.000Z</time>
      </trkpt>
      <trkpt lat="47.26035" lon="-2.30135">
        <ele>11.60000038147</ele>
        <time>2022-02-27T08:37:18.000Z</time>
      </trkpt>
      <trkpt lat="47.26031" lon="-2.30133">
        <ele>11.199999809265</ele>
        <time>2022-02-27T08:37:19.000Z</time>
      </trkpt>
      <trkpt lat="47.26026" lon="-2.30131">
        <ele>10.60000038147</ele>
        <time>2022-02-27T08:37:20.000Z</time>
      </trkpt>
      <trkpt lat="47.26022" lon="-2.30129">
        <ele>10.199999809265</ele>
        <time>2022-02-27T08:37:21.000Z</time>
      </trkpt>
      <trkpt lat="47.26017" lon="-2.30127">
        <ele>9.8000001907349</ele>
        <time>2022-02-27T08:37:22.000Z</time>
      </trkpt>
      <trkpt lat="47.26013" lon="-2.3013">
        <ele>9.8000001907349</ele>
        <time>2022-02-27T08:37:23.000Z</time>
      </trkpt>
      <trkpt lat="47.26008" lon="-2.30131">
        <ele>9.8000001907349</ele>
        <time>2022-02-27T08:37:24.000Z</time>
      </trkpt>
      <trkpt lat="47.25995" lon="-2.30131">
        <ele>9.8000001907349</ele>
        <time>2022-02-27T08:37:27.000Z</time>
      </trkpt>
      <trkpt lat="47.2599" lon="-2.30131">
        <ele>9.8000001907349</ele>
        <time>2022-02-27T08:37:28.000Z</time>
      </trkpt>
      <trkpt lat="47.25982" lon="-2.30135">
        <ele>9.3999996185303</ele>
        <time>2022-02-27T08:37:30.000Z</time>
      </trkpt>
      <trkpt lat="47.25977" lon="-2.30141">
        <ele>9</ele>
        <time>2022-02-27T08:37:31.000Z</time>
      </trkpt>
      <trkpt lat="47.25973" lon="-2.30146">
        <ele>8.6000003814697</ele>
        <time>2022-02-27T08:37:32.000Z</time>
      </trkpt>
      <trkpt lat="47.25969" lon="-2.30152">
        <ele>8.1999998092651</ele>
        <time>2022-02-27T08:37:33.000Z</time>
      </trkpt>
      <trkpt lat="47.25964" lon="-2.30158">
        <ele>7.8000001907349</ele>
        <time>2022-02-27T08:37:34.000Z</time>
      </trkpt>
      <trkpt lat="47.25952" lon="-2.30168">
        <ele>7.8000001907349</ele>
        <time>2022-02-27T08:37:36.000Z</time>
      </trkpt>
      <trkpt lat="47.25929" lon="-2.30172">
        <ele>7.8000001907349</ele>
        <time>2022-02-27T08:37:40.000Z</time>
      </trkpt>
      <trkpt lat="47.25913" lon="-2.30178">
        <ele>7.8000001907349</ele>
        <time>2022-02-27T08:37:43.000Z</time>
      </trkpt>
      <trkpt lat="47.25905" lon="-2.30181">
        <ele>7.8000001907349</ele>
        <time>2022-02-27T08:37:45.000Z</time>
      </trkpt>
      <trkpt lat="47.25894" lon="-2.30191">
        <ele>7.8000001907349</ele>
        <time>2022-02-27T08:37:48.000Z</time>
      </trkpt>
      <trkpt lat="47.25892" lon="-2.30196">
        <ele>7.8000001907349</ele>
        <time>2022-02-27T08:37:49.000Z</time>
      </trkpt>
      <trkpt lat="47.25893" lon="-2.30215">
        <ele>7.8000001907349</ele>
        <time>2022-02-27T08:37:52.000Z</time>
      </trkpt>
      <trkpt lat="47.25893" lon="-2.30222">
        <ele>7.8000001907349</ele>
        <time>2022-02-27T08:37:53.000Z</time>
      </trkpt>
      <trkpt lat="47.25895" lon="-2.30241">
        <ele>7.8000001907349</ele>
        <time>2022-02-27T08:37:56.000Z</time>
      </trkpt>
      <trkpt lat="47.25896" lon="-2.30255">
        <ele>7.8000001907349</ele>
        <time>2022-02-27T08:37:58.000Z</time>
      </trkpt>
      <trkpt lat="47.25899" lon="-2.303">
        <ele>8.1999998092651</ele>
        <time>2022-02-27T08:38:05.000Z</time>
      </trkpt>
      <trkpt lat="47.259" lon="-2.30307">
        <ele>8.6000003814697</ele>
        <time>2022-02-27T08:38:06.000Z</time>
      </trkpt>
      <trkpt lat="47.25901" lon="-2.30313">
        <ele>9</ele>
        <time>2022-02-27T08:38:07.000Z</time>
      </trkpt>
      <trkpt lat="47.25903" lon="-2.30319">
        <ele>9.3999996185303</ele>
        <time>2022-02-27T08:38:08.000Z</time>
      </trkpt>
      <trkpt lat="47.25906" lon="-2.30324">
        <ele>9.8000001907349</ele>
        <time>2022-02-27T08:38:09.000Z</time>
      </trkpt>
      <trkpt lat="47.25909" lon="-2.30328">
        <ele>9.8000001907349</ele>
        <time>2022-02-27T08:38:10.000Z</time>
      </trkpt>
      <trkpt lat="47.25913" lon="-2.30333">
        <ele>9.8000001907349</ele>
        <time>2022-02-27T08:38:11.000Z</time>
      </trkpt>
      <trkpt lat="47.25915" lon="-2.30339">
        <ele>9.8000001907349</ele>
        <time>2022-02-27T08:38:12.000Z</time>
      </trkpt>
      <trkpt lat="47.2592" lon="-2.30358">
        <ele>9.8000001907349</ele>
        <time>2022-02-27T08:38:15.000Z</time>
      </trkpt>
      <trkpt lat="47.2592" lon="-2.30372">
        <ele>9.8000001907349</ele>
        <time>2022-02-27T08:38:17.000Z</time>
      </trkpt>
      <trkpt lat="47.25918" lon="-2.30391">
        <ele>9.8000001907349</ele>
        <time>2022-02-27T08:38:20.000Z</time>
      </trkpt>
      <trkpt lat="47.25908" lon="-2.30439">
        <ele>9.8000001907349</ele>
        <time>2022-02-27T08:38:28.000Z</time>
      </trkpt>
      <trkpt lat="47.25899" lon="-2.30466">
        <ele>10.199999809265</ele>
        <time>2022-02-27T08:38:33.000Z</time>
      </trkpt>
      <trkpt lat="47.25897" lon="-2.30471">
        <ele>10.60000038147</ele>
        <time>2022-02-27T08:38:34.000Z</time>
      </trkpt>
      <trkpt lat="47.25895" lon="-2.30477">
        <ele>11</ele>
        <time>2022-02-27T08:38:35.000Z</time>
      </trkpt>
      <trkpt lat="47.25893" lon="-2.30482">
        <ele>11.39999961853</ele>
        <time>2022-02-27T08:38:36.000Z</time>
      </trkpt>
      <trkpt lat="47.2589" lon="-2.30488">
        <ele>11.800000190735</ele>
        <time>2022-02-27T08:38:37.000Z</time>
      </trkpt>
      <trkpt lat="47.25876" lon="-2.30532">
        <ele>11.800000190735</ele>
        <time>2022-02-27T08:38:44.000Z</time>
      </trkpt>
      <trkpt lat="47.25863" lon="-2.30578">
        <ele>11.800000190735</ele>
        <time>2022-02-27T08:38:51.000Z</time>
      </trkpt>
      <trkpt lat="47.25847" lon="-2.30641">
        <ele>11.800000190735</ele>
        <time>2022-02-27T08:39:00.000Z</time>
      </trkpt>
      <trkpt lat="47.25837" lon="-2.30685">
        <ele>11.800000190735</ele>
        <time>2022-02-27T08:39:06.000Z</time>
      </trkpt>
      <trkpt lat="47.25827" lon="-2.30747">
        <ele>11.800000190735</ele>
        <time>2022-02-27T08:39:14.000Z</time>
      </trkpt>
      <trkpt lat="47.25817" lon="-2.30815">
        <ele>11.800000190735</ele>
        <time>2022-02-27T08:39:23.000Z</time>
      </trkpt>
      <trkpt lat="47.2581" lon="-2.30859">
        <ele>11.800000190735</ele>
        <time>2022-02-27T08:39:29.000Z</time>
      </trkpt>
      <trkpt lat="47.25809" lon="-2.30867">
        <ele>11.800000190735</ele>
        <time>2022-02-27T08:39:30.000Z</time>
      </trkpt>
      <trkpt lat="47.25801" lon="-2.30914">
        <ele>11.800000190735</ele>
        <time>2022-02-27T08:39:36.000Z</time>
      </trkpt>
      <trkpt lat="47.25799" lon="-2.30921">
        <ele>11.39999961853</ele>
        <time>2022-02-27T08:39:37.000Z</time>
      </trkpt>
      <trkpt lat="47.25796" lon="-2.30927">
        <ele>11</ele>
        <time>2022-02-27T08:39:38.000Z</time>
      </trkpt>
      <trkpt lat="47.25791" lon="-2.30931">
        <ele>10.60000038147</ele>
        <time>2022-02-27T08:39:39.000Z</time>
      </trkpt>
      <trkpt lat="47.25787" lon="-2.30933">
        <ele>9.8000001907349</ele>
        <time>2022-02-27T08:39:40.000Z</time>
      </trkpt>
      <trkpt lat="47.2577" lon="-2.30932">
        <ele>9.8000001907349</ele>
        <time>2022-02-27T08:39:43.000Z</time>
      </trkpt>
      <trkpt lat="47.25726" lon="-2.30922">
        <ele>9.8000001907349</ele>
        <time>2022-02-27T08:39:51.000Z</time>
      </trkpt>
      <trkpt lat="47.25685" lon="-2.30908">
        <ele>9.8000001907349</ele>
        <time>2022-02-27T08:39:59.000Z</time>
      </trkpt>
      <trkpt lat="47.2568" lon="-2.30908">
        <ele>9.8000001907349</ele>
        <time>2022-02-27T08:40:00.000Z</time>
      </trkpt>
      <trkpt lat="47.25667" lon="-2.30918">
        <ele>9.8000001907349</ele>
        <time>2022-02-27T08:40:03.000Z</time>
      </trkpt>
      <trkpt lat="47.25663" lon="-2.30928">
        <ele>9.8000001907349</ele>
        <time>2022-02-27T08:40:05.000Z</time>
      </trkpt>
      <trkpt lat="47.2566" lon="-2.30929">
        <ele>9.8000001907349</ele>
        <time>2022-02-27T08:40:06.000Z</time>
      </trkpt>
      <trkpt lat="47.25651" lon="-2.30924">
        <ele>9.8000001907349</ele>
        <time>2022-02-27T08:40:09.000Z</time>
      </trkpt>
      <trkpt lat="47.25648" lon="-2.30927">
        <ele>9.8000001907349</ele>
        <time>2022-02-27T08:40:10.000Z</time>
      </trkpt>
      <trkpt lat="47.25645" lon="-2.30939">
        <ele>9.8000001907349</ele>
        <time>2022-02-27T08:40:12.000Z</time>
      </trkpt>
      <trkpt lat="47.25644" lon="-2.30952">
        <ele>9.8000001907349</ele>
        <time>2022-02-27T08:40:14.000Z</time>
      </trkpt>
      <trkpt lat="47.25642" lon="-2.30959">
        <ele>9.8000001907349</ele>
        <time>2022-02-27T08:40:15.000Z</time>
      </trkpt>
      <trkpt lat="47.25639" lon="-2.30973">
        <ele>9.8000001907349</ele>
        <time>2022-02-27T08:40:17.000Z</time>
      </trkpt>
      <trkpt lat="47.25627" lon="-2.31027">
        <ele>9.8000001907349</ele>
        <time>2022-02-27T08:40:25.000Z</time>
      </trkpt>
      <trkpt lat="47.25622" lon="-2.31047">
        <ele>9.8000001907349</ele>
        <time>2022-02-27T08:40:28.000Z</time>
      </trkpt>
      <trkpt lat="47.25612" lon="-2.31079">
        <ele>9.8000001907349</ele>
        <time>2022-02-27T08:40:33.000Z</time>
      </trkpt>
      <trkpt lat="47.256" lon="-2.31079">
        <ele>9.8000001907349</ele>
        <time>2022-02-27T08:40:36.000Z</time>
      </trkpt>
      <trkpt lat="47.2559" lon="-2.31066">
        <ele>9.8000001907349</ele>
        <time>2022-02-27T08:40:39.000Z</time>
      </trkpt>
      <trkpt lat="47.25587" lon="-2.31061">
        <ele>9.8000001907349</ele>
        <time>2022-02-27T08:40:40.000Z</time>
      </trkpt>
      <trkpt lat="47.25578" lon="-2.31052">
        <ele>9.8000001907349</ele>
        <time>2022-02-27T08:40:42.000Z</time>
      </trkpt>
      <trkpt lat="47.25568" lon="-2.31044">
        <ele>9.8000001907349</ele>
        <time>2022-02-27T08:40:44.000Z</time>
      </trkpt>
      <trkpt lat="47.25556" lon="-2.31036">
        <ele>9.3999996185303</ele>
        <time>2022-02-27T08:40:46.000Z</time>
      </trkpt>
      <trkpt lat="47.2555" lon="-2.31033">
        <ele>8.8000001907349</ele>
        <time>2022-02-27T08:40:47.000Z</time>
      </trkpt>
      <trkpt lat="47.25544" lon="-2.3103">
        <ele>8.3999996185303</ele>
        <time>2022-02-27T08:40:48.000Z</time>
      </trkpt>
      <trkpt lat="47.25537" lon="-2.31028">
        <ele>8</ele>
        <time>2022-02-27T08:40:49.000Z</time>
      </trkpt>
      <trkpt lat="47.25531" lon="-2.31028">
        <ele>7.4000000953674</ele>
        <time>2022-02-27T08:40:50.000Z</time>
      </trkpt>
      <trkpt lat="47.25518" lon="-2.31021">
        <ele>7.4000000953674</ele>
        <time>2022-02-27T08:40:53.000Z</time>
      </trkpt>
      <trkpt lat="47.25513" lon="-2.31003">
        <ele>7.4000000953674</ele>
        <time>2022-02-27T08:40:56.000Z</time>
      </trkpt>
      <trkpt lat="47.25513" lon="-2.30999">
        <ele>7.4000000953674</ele>
        <time>2022-02-27T08:40:57.000Z</time>
      </trkpt>
      <trkpt lat="47.25514" lon="-2.30989">
        <ele>7.4000000953674</ele>
        <time>2022-02-27T08:40:59.000Z</time>
      </trkpt>
      <trkpt lat="47.25522" lon="-2.30956">
        <ele>7.4000000953674</ele>
        <time>2022-02-27T08:41:05.000Z</time>
      </trkpt>
      <trkpt lat="47.25529" lon="-2.30926">
        <ele>7.4000000953674</ele>
        <time>2022-02-27T08:41:10.000Z</time>
      </trkpt>
      <trkpt lat="47.25536" lon="-2.30917">
        <ele>7.4000000953674</ele>
        <time>2022-02-27T08:41:12.000Z</time>
      </trkpt>
      <trkpt lat="47.25556" lon="-2.30912">
        <ele>7.4000000953674</ele>
        <time>2022-02-27T08:41:16.000Z</time>
      </trkpt>
      <trkpt lat="47.25561" lon="-2.30912">
        <ele>7.4000000953674</ele>
        <time>2022-02-27T08:41:17.000Z</time>
      </trkpt>
      <trkpt lat="47.25575" lon="-2.30911">
        <ele>7.4000000953674</ele>
        <time>2022-02-27T08:41:20.000Z</time>
      </trkpt>
      <trkpt lat="47.25585" lon="-2.30904">
        <ele>7.4000000953674</ele>
        <time>2022-02-27T08:41:23.000Z</time>
      </trkpt>
      <trkpt lat="47.25594" lon="-2.30884">
        <ele>7.4000000953674</ele>
        <time>2022-02-27T08:41:27.000Z</time>
      </trkpt>
      <trkpt lat="47.25596" lon="-2.30877">
        <ele>7.4000000953674</ele>
        <time>2022-02-27T08:41:28.000Z</time>
      </trkpt>
      <trkpt lat="47.25599" lon="-2.30863">
        <ele>7.8000001907349</ele>
        <time>2022-02-27T08:41:30.000Z</time>
      </trkpt>
      <trkpt lat="47.256" lon="-2.30856">
        <ele>8.1999998092651</ele>
        <time>2022-02-27T08:41:31.000Z</time>
      </trkpt>
      <trkpt lat="47.25601" lon="-2.30849">
        <ele>8.6000003814697</ele>
        <time>2022-02-27T08:41:32.000Z</time>
      </trkpt>
      <trkpt lat="47.25602" lon="-2.30842">
        <ele>9</ele>
        <time>2022-02-27T08:41:33.000Z</time>
      </trkpt>
      <trkpt lat="47.25602" lon="-2.30834">
        <ele>9.3999996185303</ele>
        <time>2022-02-27T08:41:34.000Z</time>
      </trkpt>
      <trkpt lat="47.25605" lon="-2.30796">
        <ele>9.3999996185303</ele>
        <time>2022-02-27T08:41:39.000Z</time>
      </trkpt>
      <trkpt lat="47.25608" lon="-2.30752">
        <ele>9.3999996185303</ele>
        <time>2022-02-27T08:41:45.000Z</time>
      </trkpt>
      <trkpt lat="47.2561" lon="-2.30737">
        <ele>9.3999996185303</ele>
        <time>2022-02-27T08:41:47.000Z</time>
      </trkpt>
      <trkpt lat="47.25614" lon="-2.30716">
        <ele>9.3999996185303</ele>
        <time>2022-02-27T08:41:50.000Z</time>
      </trkpt>
      <trkpt lat="47.25621" lon="-2.30697">
        <ele>9.3999996185303</ele>
        <time>2022-02-27T08:41:53.000Z</time>
      </trkpt>
      <trkpt lat="47.25624" lon="-2.30685">
        <ele>9.3999996185303</ele>
        <time>2022-02-27T08:41:55.000Z</time>
      </trkpt>
      <trkpt lat="47.25622" lon="-2.30672">
        <ele>9.3999996185303</ele>
        <time>2022-02-27T08:41:57.000Z</time>
      </trkpt>
      <trkpt lat="47.2561" lon="-2.30668">
        <ele>9.3999996185303</ele>
        <time>2022-02-27T08:42:00.000Z</time>
      </trkpt>
      <trkpt lat="47.25596" lon="-2.30662">
        <ele>9.3999996185303</ele>
        <time>2022-02-27T08:42:03.000Z</time>
      </trkpt>
      <trkpt lat="47.2559" lon="-2.30653">
        <ele>9.3999996185303</ele>
        <time>2022-02-27T08:42:05.000Z</time>
      </trkpt>
      <trkpt lat="47.25579" lon="-2.30642">
        <ele>9.3999996185303</ele>
        <time>2022-02-27T08:42:08.000Z</time>
      </trkpt>
      <trkpt lat="47.25576" lon="-2.3064">
        <ele>9.3999996185303</ele>
        <time>2022-02-27T08:42:09.000Z</time>
      </trkpt>
      <trkpt lat="47.25571" lon="-2.3064">
        <ele>9.3999996185303</ele>
        <time>2022-02-27T08:42:10.000Z</time>
      </trkpt>
      <trkpt lat="47.25562" lon="-2.30641">
        <ele>9.3999996185303</ele>
        <time>2022-02-27T08:42:12.000Z</time>
      </trkpt>
      <trkpt lat="47.25533" lon="-2.30644">
        <ele>9.3999996185303</ele>
        <time>2022-02-27T08:42:18.000Z</time>
      </trkpt>
      <trkpt lat="47.25515" lon="-2.30643">
        <ele>9.3999996185303</ele>
        <time>2022-02-27T08:42:22.000Z</time>
      </trkpt>
      <trkpt lat="47.25507" lon="-2.30644">
        <ele>9.3999996185303</ele>
        <time>2022-02-27T08:42:24.000Z</time>
      </trkpt>
      <trkpt lat="47.25489" lon="-2.30654">
        <ele>9.3999996185303</ele>
        <time>2022-02-27T08:42:29.000Z</time>
      </trkpt>
      <trkpt lat="47.25481" lon="-2.30668">
        <ele>9.3999996185303</ele>
        <time>2022-02-27T08:42:32.000Z</time>
      </trkpt>
      <trkpt lat="47.25473" lon="-2.30674">
        <ele>9.3999996185303</ele>
        <time>2022-02-27T08:42:34.000Z</time>
      </trkpt>
      <trkpt lat="47.25469" lon="-2.3068">
        <ele>9.3999996185303</ele>
        <time>2022-02-27T08:42:35.000Z</time>
      </trkpt>
      <trkpt lat="47.25459" lon="-2.30696">
        <ele>9.3999996185303</ele>
        <time>2022-02-27T08:42:38.000Z</time>
      </trkpt>
      <trkpt lat="47.25456" lon="-2.30702">
        <ele>9.3999996185303</ele>
        <time>2022-02-27T08:42:39.000Z</time>
      </trkpt>
      <trkpt lat="47.25447" lon="-2.30718">
        <ele>9.3999996185303</ele>
        <time>2022-02-27T08:42:42.000Z</time>
      </trkpt>
      <trkpt lat="47.25442" lon="-2.30721">
        <ele>10</ele>
        <time>2022-02-27T08:42:43.000Z</time>
      </trkpt>
      <trkpt lat="47.25438" lon="-2.30721">
        <ele>10.39999961853</ele>
        <time>2022-02-27T08:42:44.000Z</time>
      </trkpt>
      <trkpt lat="47.25433" lon="-2.3072">
        <ele>10.800000190735</ele>
        <time>2022-02-27T08:42:45.000Z</time>
      </trkpt>
      <trkpt lat="47.25429" lon="-2.30718">
        <ele>11.199999809265</ele>
        <time>2022-02-27T08:42:46.000Z</time>
      </trkpt>
      <trkpt lat="47.25424" lon="-2.30717">
        <ele>11.60000038147</ele>
        <time>2022-02-27T08:42:47.000Z</time>
      </trkpt>
      <trkpt lat="47.2542" lon="-2.30716">
        <ele>11.60000038147</ele>
        <time>2022-02-27T08:42:48.000Z</time>
      </trkpt>
      <trkpt lat="47.25416" lon="-2.30714">
        <ele>11.60000038147</ele>
        <time>2022-02-27T08:42:49.000Z</time>
      </trkpt>
      <trkpt lat="47.25394" lon="-2.30705">
        <ele>11.60000038147</ele>
        <time>2022-02-27T08:42:55.000Z</time>
      </trkpt>
      <trkpt lat="47.25384" lon="-2.30701">
        <ele>11.60000038147</ele>
        <time>2022-02-27T08:42:57.000Z</time>
      </trkpt>
      <trkpt lat="47.25372" lon="-2.30696">
        <ele>11.60000038147</ele>
        <time>2022-02-27T08:43:00.000Z</time>
      </trkpt>
      <trkpt lat="47.25368" lon="-2.30694">
        <ele>12</ele>
        <time>2022-02-27T08:43:01.000Z</time>
      </trkpt>
      <trkpt lat="47.25364" lon="-2.30692">
        <ele>12.60000038147</ele>
        <time>2022-02-27T08:43:02.000Z</time>
      </trkpt>
      <trkpt lat="47.2536" lon="-2.3069">
        <ele>13</ele>
        <time>2022-02-27T08:43:03.000Z</time>
      </trkpt>
      <trkpt lat="47.25355" lon="-2.30689">
        <ele>13.39999961853</ele>
        <time>2022-02-27T08:43:04.000Z</time>
      </trkpt>
      <trkpt lat="47.25351" lon="-2.30687">
        <ele>13.800000190735</ele>
        <time>2022-02-27T08:43:05.000Z</time>
      </trkpt>
      <trkpt lat="47.25334" lon="-2.3068">
        <ele>13.800000190735</ele>
        <time>2022-02-27T08:43:09.000Z</time>
      </trkpt>
      <trkpt lat="47.25302" lon="-2.30669">
        <ele>13.800000190735</ele>
        <time>2022-02-27T08:43:17.000Z</time>
      </trkpt>
      <trkpt lat="47.25299" lon="-2.30667">
        <ele>14.199999809265</ele>
        <time>2022-02-27T08:43:18.000Z</time>
      </trkpt>
      <trkpt lat="47.25295" lon="-2.30666">
        <ele>14.60000038147</ele>
        <time>2022-02-27T08:43:19.000Z</time>
      </trkpt>
      <trkpt lat="47.25292" lon="-2.30665">
        <ele>15</ele>
        <time>2022-02-27T08:43:20.000Z</time>
      </trkpt>
      <trkpt lat="47.25288" lon="-2.30663">
        <ele>15.39999961853</ele>
        <time>2022-02-27T08:43:21.000Z</time>
      </trkpt>
      <trkpt lat="47.25284" lon="-2.30661">
        <ele>15.800000190735</ele>
        <time>2022-02-27T08:43:22.000Z</time>
      </trkpt>
      <trkpt lat="47.25262" lon="-2.30656">
        <ele>15.800000190735</ele>
        <time>2022-02-27T08:43:28.000Z</time>
      </trkpt>
      <trkpt lat="47.25258" lon="-2.30658">
        <ele>15.800000190735</ele>
        <time>2022-02-27T08:43:29.000Z</time>
      </trkpt>
      <trkpt lat="47.25238" lon="-2.30675">
        <ele>15.800000190735</ele>
        <time>2022-02-27T08:43:34.000Z</time>
      </trkpt>
      <trkpt lat="47.25233" lon="-2.30679">
        <ele>15.800000190735</ele>
        <time>2022-02-27T08:43:35.000Z</time>
      </trkpt>
      <trkpt lat="47.2522" lon="-2.30691">
        <ele>15.800000190735</ele>
        <time>2022-02-27T08:43:38.000Z</time>
      </trkpt>
      <trkpt lat="47.25211" lon="-2.30699">
        <ele>15.800000190735</ele>
        <time>2022-02-27T08:43:40.000Z</time>
      </trkpt>
      <trkpt lat="47.25177" lon="-2.30732">
        <ele>15.800000190735</ele>
        <time>2022-02-27T08:43:48.000Z</time>
      </trkpt>
      <trkpt lat="47.25155" lon="-2.30753">
        <ele>16.200000762939</ele>
        <time>2022-02-27T08:43:53.000Z</time>
      </trkpt>
      <trkpt lat="47.25151" lon="-2.30757">
        <ele>16.799999237061</ele>
        <time>2022-02-27T08:43:54.000Z</time>
      </trkpt>
      <trkpt lat="47.25146" lon="-2.30762">
        <ele>17.200000762939</ele>
        <time>2022-02-27T08:43:55.000Z</time>
      </trkpt>
      <trkpt lat="47.25142" lon="-2.30766">
        <ele>17.60000038147</ele>
        <time>2022-02-27T08:43:56.000Z</time>
      </trkpt>
      <trkpt lat="47.25137" lon="-2.3077">
        <ele>18</ele>
        <time>2022-02-27T08:43:57.000Z</time>
      </trkpt>
      <trkpt lat="47.25115" lon="-2.30789">
        <ele>18</ele>
        <time>2022-02-27T08:44:02.000Z</time>
      </trkpt>
      <trkpt lat="47.25098" lon="-2.30804">
        <ele>18</ele>
        <time>2022-02-27T08:44:06.000Z</time>
      </trkpt>
      <trkpt lat="47.2509" lon="-2.30811">
        <ele>18</ele>
        <time>2022-02-27T08:44:08.000Z</time>
      </trkpt>
      <trkpt lat="47.25063" lon="-2.3083">
        <ele>18</ele>
        <time>2022-02-27T08:44:14.000Z</time>
      </trkpt>
      <trkpt lat="47.25054" lon="-2.30836">
        <ele>18.39999961853</ele>
        <time>2022-02-27T08:44:16.000Z</time>
      </trkpt>
      <trkpt lat="47.2505" lon="-2.30838">
        <ele>18.799999237061</ele>
        <time>2022-02-27T08:44:17.000Z</time>
      </trkpt>
      <trkpt lat="47.25045" lon="-2.30841">
        <ele>19.200000762939</ele>
        <time>2022-02-27T08:44:18.000Z</time>
      </trkpt>
      <trkpt lat="47.2504" lon="-2.30844">
        <ele>19.60000038147</ele>
        <time>2022-02-27T08:44:19.000Z</time>
      </trkpt>
      <trkpt lat="47.25036" lon="-2.30847">
        <ele>20</ele>
        <time>2022-02-27T08:44:20.000Z</time>
      </trkpt>
      <trkpt lat="47.25021" lon="-2.30855">
        <ele>20</ele>
        <time>2022-02-27T08:44:23.000Z</time>
      </trkpt>
      <trkpt lat="47.24987" lon="-2.30875">
        <ele>20</ele>
        <time>2022-02-27T08:44:31.000Z</time>
      </trkpt>
      <trkpt lat="47.24979" lon="-2.3088">
        <ele>20</ele>
        <time>2022-02-27T08:44:33.000Z</time>
      </trkpt>
      <trkpt lat="47.24963" lon="-2.30885">
        <ele>20</ele>
        <time>2022-02-27T08:44:37.000Z</time>
      </trkpt>
      <trkpt lat="47.24948" lon="-2.30878">
        <ele>20</ele>
        <time>2022-02-27T08:44:41.000Z</time>
      </trkpt>
      <trkpt lat="47.24929" lon="-2.30879">
        <ele>20</ele>
        <time>2022-02-27T08:44:46.000Z</time>
      </trkpt>
      <trkpt lat="47.24906" lon="-2.30889">
        <ele>20</ele>
        <time>2022-02-27T08:44:52.000Z</time>
      </trkpt>
      <trkpt lat="47.2488" lon="-2.30906">
        <ele>20</ele>
        <time>2022-02-27T08:44:58.000Z</time>
      </trkpt>
      <trkpt lat="47.24869" lon="-2.30915">
        <ele>20</ele>
        <time>2022-02-27T08:45:01.000Z</time>
      </trkpt>
      <trkpt lat="47.24859" lon="-2.30928">
        <ele>20</ele>
        <time>2022-02-27T08:45:04.000Z</time>
      </trkpt>
      <trkpt lat="47.24838" lon="-2.30949">
        <ele>20</ele>
        <time>2022-02-27T08:45:10.000Z</time>
      </trkpt>
      <trkpt lat="47.24828" lon="-2.3096">
        <ele>20</ele>
        <time>2022-02-27T08:45:13.000Z</time>
      </trkpt>
      <trkpt lat="47.24818" lon="-2.30965">
        <ele>20</ele>
        <time>2022-02-27T08:45:15.000Z</time>
      </trkpt>
      <trkpt lat="47.24782" lon="-2.30985">
        <ele>20</ele>
        <time>2022-02-27T08:45:21.000Z</time>
      </trkpt>
      <trkpt lat="47.24775" lon="-2.30988">
        <ele>19.60000038147</ele>
        <time>2022-02-27T08:45:22.000Z</time>
      </trkpt>
      <trkpt lat="47.24768" lon="-2.3099">
        <ele>19.200000762939</ele>
        <time>2022-02-27T08:45:23.000Z</time>
      </trkpt>
      <trkpt lat="47.24761" lon="-2.30993">
        <ele>18.799999237061</ele>
        <time>2022-02-27T08:45:24.000Z</time>
      </trkpt>
      <trkpt lat="47.24754" lon="-2.30996">
        <ele>18.39999961853</ele>
        <time>2022-02-27T08:45:25.000Z</time>
      </trkpt>
      <trkpt lat="47.24747" lon="-2.30999">
        <ele>18</ele>
        <time>2022-02-27T08:45:26.000Z</time>
      </trkpt>
      <trkpt lat="47.2474" lon="-2.31003">
        <ele>17.60000038147</ele>
        <time>2022-02-27T08:45:27.000Z</time>
      </trkpt>
      <trkpt lat="47.24734" lon="-2.31008">
        <ele>17.200000762939</ele>
        <time>2022-02-27T08:45:28.000Z</time>
      </trkpt>
      <trkpt lat="47.24728" lon="-2.31014">
        <ele>16.799999237061</ele>
        <time>2022-02-27T08:45:29.000Z</time>
      </trkpt>
      <trkpt lat="47.24723" lon="-2.3102">
        <ele>16.200000762939</ele>
        <time>2022-02-27T08:45:30.000Z</time>
      </trkpt>
      <trkpt lat="47.24718" lon="-2.31028">
        <ele>15.800000190735</ele>
        <time>2022-02-27T08:45:31.000Z</time>
      </trkpt>
      <trkpt lat="47.24714" lon="-2.31036">
        <ele>15.800000190735</ele>
        <time>2022-02-27T08:45:32.000Z</time>
      </trkpt>
      <trkpt lat="47.24705" lon="-2.31051">
        <ele>15.39999961853</ele>
        <time>2022-02-27T08:45:34.000Z</time>
      </trkpt>
      <trkpt lat="47.24701" lon="-2.31059">
        <ele>15</ele>
        <time>2022-02-27T08:45:35.000Z</time>
      </trkpt>
      <trkpt lat="47.24697" lon="-2.31067">
        <ele>14.60000038147</ele>
        <time>2022-02-27T08:45:36.000Z</time>
      </trkpt>
      <trkpt lat="47.24693" lon="-2.31074">
        <ele>14</ele>
        <time>2022-02-27T08:45:37.000Z</time>
      </trkpt>
      <trkpt lat="47.24689" lon="-2.31081">
        <ele>13.60000038147</ele>
        <time>2022-02-27T08:45:38.000Z</time>
      </trkpt>
      <trkpt lat="47.24664" lon="-2.31129">
        <ele>13.60000038147</ele>
        <time>2022-02-27T08:45:45.000Z</time>
      </trkpt>
      <trkpt lat="47.24657" lon="-2.31143">
        <ele>13.60000038147</ele>
        <time>2022-02-27T08:45:47.000Z</time>
      </trkpt>
      <trkpt lat="47.24645" lon="-2.3116">
        <ele>13.60000038147</ele>
        <time>2022-02-27T08:45:50.000Z</time>
      </trkpt>
      <trkpt lat="47.24608" lon="-2.312">
        <ele>13.60000038147</ele>
        <time>2022-02-27T08:45:58.000Z</time>
      </trkpt>
      <trkpt lat="47.24583" lon="-2.31225">
        <ele>13.60000038147</ele>
        <time>2022-02-27T08:46:04.000Z</time>
      </trkpt>
      <trkpt lat="47.24571" lon="-2.31238">
        <ele>13.60000038147</ele>
        <time>2022-02-27T08:46:07.000Z</time>
      </trkpt>
      <trkpt lat="47.24568" lon="-2.31242">
        <ele>13.60000038147</ele>
        <time>2022-02-27T08:46:08.000Z</time>
      </trkpt>
      <trkpt lat="47.24564" lon="-2.31247">
        <ele>13.60000038147</ele>
        <time>2022-02-27T08:46:09.000Z</time>
      </trkpt>
      <trkpt lat="47.24549" lon="-2.31264">
        <ele>13.60000038147</ele>
        <time>2022-02-27T08:46:13.000Z</time>
      </trkpt>
      <trkpt lat="47.24539" lon="-2.31272">
        <ele>13.60000038147</ele>
        <time>2022-02-27T08:46:15.000Z</time>
      </trkpt>
      <trkpt lat="47.24525" lon="-2.31284">
        <ele>13.60000038147</ele>
        <time>2022-02-27T08:46:18.000Z</time>
      </trkpt>
      <trkpt lat="47.24509" lon="-2.31296">
        <ele>13.199999809265</ele>
        <time>2022-02-27T08:46:21.000Z</time>
      </trkpt>
      <trkpt lat="47.24503" lon="-2.31301">
        <ele>12.800000190735</ele>
        <time>2022-02-27T08:46:22.000Z</time>
      </trkpt>
      <trkpt lat="47.24496" lon="-2.31306">
        <ele>12.39999961853</ele>
        <time>2022-02-27T08:46:23.000Z</time>
      </trkpt>
      <trkpt lat="47.24491" lon="-2.3131">
        <ele>11.800000190735</ele>
        <time>2022-02-27T08:46:24.000Z</time>
      </trkpt>
      <trkpt lat="47.24486" lon="-2.31313">
        <ele>11.39999961853</ele>
        <time>2022-02-27T08:46:25.000Z</time>
      </trkpt>
      <trkpt lat="47.24482" lon="-2.31313">
        <ele>11</ele>
        <time>2022-02-27T08:46:26.000Z</time>
      </trkpt>
      <trkpt lat="47.24479" lon="-2.3131">
        <ele>10.60000038147</ele>
        <time>2022-02-27T08:46:27.000Z</time>
      </trkpt>
      <trkpt lat="47.24476" lon="-2.31305">
        <ele>10</ele>
        <time>2022-02-27T08:46:28.000Z</time>
      </trkpt>
      <trkpt lat="47.24474" lon="-2.31298">
        <ele>9.6000003814697</ele>
        <time>2022-02-27T08:46:29.000Z</time>
      </trkpt>
      <trkpt lat="47.24471" lon="-2.31292">
        <ele>9.1999998092651</ele>
        <time>2022-02-27T08:46:30.000Z</time>
      </trkpt>
      <trkpt lat="47.24468" lon="-2.31285">
        <ele>9.1999998092651</ele>
        <time>2022-02-27T08:46:31.000Z</time>
      </trkpt>
      <trkpt lat="47.24454" lon="-2.3125">
        <ele>8.8000001907349</ele>
        <time>2022-02-27T08:46:36.000Z</time>
      </trkpt>
      <trkpt lat="47.24452" lon="-2.31244">
        <ele>8.3999996185303</ele>
        <time>2022-02-27T08:46:37.000Z</time>
      </trkpt>
      <trkpt lat="47.2445" lon="-2.31238">
        <ele>8</ele>
        <time>2022-02-27T08:46:38.000Z</time>
      </trkpt>
      <trkpt lat="47.24447" lon="-2.31232">
        <ele>7.5999999046326</ele>
        <time>2022-02-27T08:46:39.000Z</time>
      </trkpt>
      <trkpt lat="47.24445" lon="-2.31227">
        <ele>7.1999998092651</ele>
        <time>2022-02-27T08:46:40.000Z</time>
      </trkpt>
      <trkpt lat="47.24441" lon="-2.31219">
        <ele>7.1999998092651</ele>
        <time>2022-02-27T08:46:42.000Z</time>
      </trkpt>
      <trkpt lat="47.24438" lon="-2.31219">
        <ele>6.5999999046326</ele>
        <time>2022-02-27T08:46:43.000Z</time>
      </trkpt>
      <trkpt lat="47.24434" lon="-2.3122">
        <ele>6.1999998092651</ele>
        <time>2022-02-27T08:46:44.000Z</time>
      </trkpt>
      <trkpt lat="47.2443" lon="-2.31222">
        <ele>5.5999999046326</ele>
        <time>2022-02-27T08:46:45.000Z</time>
      </trkpt>
      <trkpt lat="47.24427" lon="-2.31223">
        <ele>5.1999998092651</ele>
        <time>2022-02-27T08:46:46.000Z</time>
      </trkpt>
      <trkpt lat="47.24423" lon="-2.31221">
        <ele>4.8000001907349</ele>
        <time>2022-02-27T08:46:47.000Z</time>
      </trkpt>
      <trkpt lat="47.24421" lon="-2.31218">
        <ele>4.8000001907349</ele>
        <time>2022-02-27T08:46:48.000Z</time>
      </trkpt>
      <trkpt lat="47.24414" lon="-2.31206">
        <ele>4.8000001907349</ele>
        <time>2022-02-27T08:46:52.000Z</time>
      </trkpt>
      <trkpt lat="47.24413" lon="-2.31204">
        <ele>4.8000001907349</ele>
        <time>2022-02-27T08:46:53.000Z</time>
      </trkpt>
      <trkpt lat="47.24412" lon="-2.31201">
        <ele>4.8000001907349</ele>
        <time>2022-02-27T08:46:54.000Z</time>
      </trkpt>
      <trkpt lat="47.24411" lon="-2.31193">
        <ele>4.8000001907349</ele>
        <time>2022-02-27T08:46:57.000Z</time>
      </trkpt>
      <trkpt lat="47.24411" lon="-2.31188">
        <ele>4.8000001907349</ele>
        <time>2022-02-27T08:47:00.000Z</time>
      </trkpt>
      <trkpt lat="47.24411" lon="-2.31185">
        <ele>4.8000001907349</ele>
        <time>2022-02-27T08:47:01.000Z</time>
      </trkpt>
      <trkpt lat="47.24403" lon="-2.31178">
        <ele>5.1999998092651</ele>
        <time>2022-02-27T08:47:06.000Z</time>
      </trkpt>
      <trkpt lat="47.244" lon="-2.31175">
        <ele>5.5999999046326</ele>
        <time>2022-02-27T08:47:07.000Z</time>
      </trkpt>
      <trkpt lat="47.24396" lon="-2.31171">
        <ele>6</ele>
        <time>2022-02-27T08:47:08.000Z</time>
      </trkpt>
      <trkpt lat="47.24392" lon="-2.31167">
        <ele>6.4000000953674</ele>
        <time>2022-02-27T08:47:09.000Z</time>
      </trkpt>
      <trkpt lat="47.24388" lon="-2.31163">
        <ele>6.8000001907349</ele>
        <time>2022-02-27T08:47:10.000Z</time>
      </trkpt>
      <trkpt lat="47.24384" lon="-2.31158">
        <ele>6.8000001907349</ele>
        <time>2022-02-27T08:47:11.000Z</time>
      </trkpt>
      <trkpt lat="47.24369" lon="-2.31133">
        <ele>6.8000001907349</ele>
        <time>2022-02-27T08:47:17.000Z</time>
      </trkpt>
      <trkpt lat="47.24356" lon="-2.31101">
        <ele>6.8000001907349</ele>
        <time>2022-02-27T08:47:24.000Z</time>
      </trkpt>
      <trkpt lat="47.24344" lon="-2.31069">
        <ele>6.8000001907349</ele>
        <time>2022-02-27T08:47:31.000Z</time>
      </trkpt>
      <trkpt lat="47.24326" lon="-2.31034">
        <ele>6.8000001907349</ele>
        <time>2022-02-27T08:47:39.000Z</time>
      </trkpt>
      <trkpt lat="47.24305" lon="-2.31031">
        <ele>6.8000001907349</ele>
        <time>2022-02-27T08:47:43.000Z</time>
      </trkpt>
      <trkpt lat="47.24284" lon="-2.31029">
        <ele>6.8000001907349</ele>
        <time>2022-02-27T08:47:47.000Z</time>
      </trkpt>
      <trkpt lat="47.24281" lon="-2.31027">
        <ele>6.4000000953674</ele>
        <time>2022-02-27T08:47:48.000Z</time>
      </trkpt>
      <trkpt lat="47.24279" lon="-2.31023">
        <ele>5.8000001907349</ele>
        <time>2022-02-27T08:47:49.000Z</time>
      </trkpt>
      <trkpt lat="47.24279" lon="-2.31019">
        <ele>5.4000000953674</ele>
        <time>2022-02-27T08:47:50.000Z</time>
      </trkpt>
      <trkpt lat="47.24279" lon="-2.31014">
        <ele>4.8000001907349</ele>
        <time>2022-02-27T08:47:51.000Z</time>
      </trkpt>
      <trkpt lat="47.2428" lon="-2.31009">
        <ele>4.4000000953674</ele>
        <time>2022-02-27T08:47:52.000Z</time>
      </trkpt>
      <trkpt lat="47.24282" lon="-2.30994">
        <ele>4.4000000953674</ele>
        <time>2022-02-27T08:47:55.000Z</time>
      </trkpt>
      <trkpt lat="47.24283" lon="-2.30974">
        <ele>4.8000001907349</ele>
        <time>2022-02-27T08:47:59.000Z</time>
      </trkpt>
      <trkpt lat="47.24284" lon="-2.3097">
        <ele>5.1999998092651</ele>
        <time>2022-02-27T08:48:00.000Z</time>
      </trkpt>
      <trkpt lat="47.24284" lon="-2.30965">
        <ele>5.8000001907349</ele>
        <time>2022-02-27T08:48:01.000Z</time>
      </trkpt>
      <trkpt lat="47.24284" lon="-2.30961">
        <ele>6.1999998092651</ele>
        <time>2022-02-27T08:48:02.000Z</time>
      </trkpt>
      <trkpt lat="47.24284" lon="-2.30956">
        <ele>6.5999999046326</ele>
        <time>2022-02-27T08:48:03.000Z</time>
      </trkpt>
      <trkpt lat="47.24285" lon="-2.30938">
        <ele>7</ele>
        <time>2022-02-27T08:48:07.000Z</time>
      </trkpt>
      <trkpt lat="47.24286" lon="-2.30934">
        <ele>7.5999999046326</ele>
        <time>2022-02-27T08:48:08.000Z</time>
      </trkpt>
      <trkpt lat="47.24286" lon="-2.30929">
        <ele>8</ele>
        <time>2022-02-27T08:48:09.000Z</time>
      </trkpt>
      <trkpt lat="47.24287" lon="-2.30924">
        <ele>8.3999996185303</ele>
        <time>2022-02-27T08:48:10.000Z</time>
      </trkpt>
      <trkpt lat="47.24287" lon="-2.30919">
        <ele>9</ele>
        <time>2022-02-27T08:48:11.000Z</time>
      </trkpt>
      <trkpt lat="47.24287" lon="-2.30908">
        <ele>9</ele>
        <time>2022-02-27T08:48:14.000Z</time>
      </trkpt>
      <trkpt lat="47.24285" lon="-2.30885">
        <ele>9.3999996185303</ele>
        <time>2022-02-27T08:48:19.000Z</time>
      </trkpt>
      <trkpt lat="47.24285" lon="-2.3088">
        <ele>9.8000001907349</ele>
        <time>2022-02-27T08:48:20.000Z</time>
      </trkpt>
      <trkpt lat="47.24285" lon="-2.30874">
        <ele>10.199999809265</ele>
        <time>2022-02-27T08:48:21.000Z</time>
      </trkpt>
      <trkpt lat="47.24285" lon="-2.30869">
        <ele>10.60000038147</ele>
        <time>2022-02-27T08:48:22.000Z</time>
      </trkpt>
      <trkpt lat="47.24284" lon="-2.30864">
        <ele>11</ele>
        <time>2022-02-27T08:48:23.000Z</time>
      </trkpt>
      <trkpt lat="47.24287" lon="-2.30844">
        <ele>11</ele>
        <time>2022-02-27T08:48:27.000Z</time>
      </trkpt>
      <trkpt lat="47.24298" lon="-2.3082">
        <ele>11</ele>
        <time>2022-02-27T08:48:33.000Z</time>
      </trkpt>
      <trkpt lat="47.24301" lon="-2.30817">
        <ele>11.39999961853</ele>
        <time>2022-02-27T08:48:34.000Z</time>
      </trkpt>
      <trkpt lat="47.24304" lon="-2.30814">
        <ele>11.800000190735</ele>
        <time>2022-02-27T08:48:35.000Z</time>
      </trkpt>
      <trkpt lat="47.24307" lon="-2.30812">
        <ele>12.199999809265</ele>
        <time>2022-02-27T08:48:36.000Z</time>
      </trkpt>
      <trkpt lat="47.2431" lon="-2.30809">
        <ele>12.60000038147</ele>
        <time>2022-02-27T08:48:37.000Z</time>
      </trkpt>
      <trkpt lat="47.24313" lon="-2.30807">
        <ele>13</ele>
        <time>2022-02-27T08:48:38.000Z</time>
      </trkpt>
      <trkpt lat="47.24316" lon="-2.30806">
        <ele>13</ele>
        <time>2022-02-27T08:48:39.000Z</time>
      </trkpt>
      <trkpt lat="47.24338" lon="-2.30796">
        <ele>13</ele>
        <time>2022-02-27T08:48:45.000Z</time>
      </trkpt>
      <trkpt lat="47.24363" lon="-2.30786">
        <ele>13.39999961853</ele>
        <time>2022-02-27T08:48:51.000Z</time>
      </trkpt>
      <trkpt lat="47.24366" lon="-2.30784">
        <ele>13.800000190735</ele>
        <time>2022-02-27T08:48:52.000Z</time>
      </trkpt>
      <trkpt lat="47.24369" lon="-2.30781">
        <ele>14.39999961853</ele>
        <time>2022-02-27T08:48:53.000Z</time>
      </trkpt>
      <trkpt lat="47.24371" lon="-2.30778">
        <ele>14.800000190735</ele>
        <time>2022-02-27T08:48:54.000Z</time>
      </trkpt>
      <trkpt lat="47.24374" lon="-2.30774">
        <ele>15.199999809265</ele>
        <time>2022-02-27T08:48:55.000Z</time>
      </trkpt>
      <trkpt lat="47.24376" lon="-2.30771">
        <ele>15.199999809265</ele>
        <time>2022-02-27T08:48:56.000Z</time>
      </trkpt>
      <trkpt lat="47.24384" lon="-2.3076">
        <ele>15.60000038147</ele>
        <time>2022-02-27T08:49:00.000Z</time>
      </trkpt>
      <trkpt lat="47.24386" lon="-2.30758">
        <ele>16</ele>
        <time>2022-02-27T08:49:01.000Z</time>
      </trkpt>
      <trkpt lat="47.24388" lon="-2.30756">
        <ele>16.60000038147</ele>
        <time>2022-02-27T08:49:02.000Z</time>
      </trkpt>
      <trkpt lat="47.2439" lon="-2.30754">
        <ele>17</ele>
        <time>2022-02-27T08:49:03.000Z</time>
      </trkpt>
      <trkpt lat="47.24392" lon="-2.30753">
        <ele>17.39999961853</ele>
        <time>2022-02-27T08:49:04.000Z</time>
      </trkpt>
      <trkpt lat="47.24394" lon="-2.30751">
        <ele>17.39999961853</ele>
        <time>2022-02-27T08:49:05.000Z</time>
      </trkpt>
      <trkpt lat="47.24398" lon="-2.30744">
        <ele>17.39999961853</ele>
        <time>2022-02-27T08:49:07.000Z</time>
      </trkpt>
      <trkpt lat="47.24401" lon="-2.30719">
        <ele>17.39999961853</ele>
        <time>2022-02-27T08:49:12.000Z</time>
      </trkpt>
      <trkpt lat="47.24402" lon="-2.30714">
        <ele>17.39999961853</ele>
        <time>2022-02-27T08:49:13.000Z</time>
      </trkpt>
      <trkpt lat="47.24409" lon="-2.30678">
        <ele>17.39999961853</ele>
        <time>2022-02-27T08:49:19.000Z</time>
      </trkpt>
      <trkpt lat="47.24413" lon="-2.30658">
        <ele>17.39999961853</ele>
        <time>2022-02-27T08:49:22.000Z</time>
      </trkpt>
      <trkpt lat="47.24417" lon="-2.3064">
        <ele>17.39999961853</ele>
        <time>2022-02-27T08:49:25.000Z</time>
      </trkpt>
      <trkpt lat="47.24427" lon="-2.30621">
        <ele>17.39999961853</ele>
        <time>2022-02-27T08:49:30.000Z</time>
      </trkpt>
      <trkpt lat="47.24442" lon="-2.30603">
        <ele>17.39999961853</ele>
        <time>2022-02-27T08:49:37.000Z</time>
      </trkpt>
      <trkpt lat="47.24456" lon="-2.30581">
        <ele>17.39999961853</ele>
        <time>2022-02-27T08:49:41.000Z</time>
      </trkpt>
      <trkpt lat="47.24463" lon="-2.30567">
        <ele>17.39999961853</ele>
        <time>2022-02-27T08:49:43.000Z</time>
      </trkpt>
      <trkpt lat="47.24466" lon="-2.3055">
        <ele>17</ele>
        <time>2022-02-27T08:49:46.000Z</time>
      </trkpt>
      <trkpt lat="47.24466" lon="-2.30547">
        <ele>16.60000038147</ele>
        <time>2022-02-27T08:49:47.000Z</time>
      </trkpt>
      <trkpt lat="47.24466" lon="-2.30545">
        <ele>16.200000762939</ele>
        <time>2022-02-27T08:49:48.000Z</time>
      </trkpt>
      <trkpt lat="47.24465" lon="-2.30545">
        <ele>15.60000038147</ele>
        <time>2022-02-27T08:49:49.000Z</time>
      </trkpt>
      <trkpt lat="47.24463" lon="-2.30547">
        <ele>15.199999809265</ele>
        <time>2022-02-27T08:49:50.000Z</time>
      </trkpt>
      <trkpt lat="47.24451" lon="-2.30561">
        <ele>15.199999809265</ele>
        <time>2022-02-27T08:49:54.000Z</time>
      </trkpt>
      <trkpt lat="47.24447" lon="-2.30564">
        <ele>14.800000190735</ele>
        <time>2022-02-27T08:49:55.000Z</time>
      </trkpt>
      <trkpt lat="47.24442" lon="-2.30568">
        <ele>14.39999961853</ele>
        <time>2022-02-27T08:49:56.000Z</time>
      </trkpt>
      <trkpt lat="47.24437" lon="-2.30572">
        <ele>13.39999961853</ele>
        <time>2022-02-27T08:49:57.000Z</time>
      </trkpt>
      <trkpt lat="47.24432" lon="-2.30574">
        <ele>13</ele>
        <time>2022-02-27T08:49:58.000Z</time>
      </trkpt>
      <trkpt lat="47.24426" lon="-2.30577">
        <ele>13</ele>
        <time>2022-02-27T08:49:59.000Z</time>
      </trkpt>
      <trkpt lat="47.2442" lon="-2.30579">
        <ele>13</ele>
        <time>2022-02-27T08:50:00.000Z</time>
      </trkpt>
      <trkpt lat="47.24403" lon="-2.30578">
        <ele>13</ele>
        <time>2022-02-27T08:50:03.000Z</time>
      </trkpt>
      <trkpt lat="47.24398" lon="-2.30577">
        <ele>12.60000038147</ele>
        <time>2022-02-27T08:50:04.000Z</time>
      </trkpt>
      <trkpt lat="47.24392" lon="-2.30575">
        <ele>12.199999809265</ele>
        <time>2022-02-27T08:50:05.000Z</time>
      </trkpt>
      <trkpt lat="47.24387" lon="-2.30572">
        <ele>11.800000190735</ele>
        <time>2022-02-27T08:50:06.000Z</time>
      </trkpt>
      <trkpt lat="47.24382" lon="-2.30569">
        <ele>11.39999961853</ele>
        <time>2022-02-27T08:50:07.000Z</time>
      </trkpt>
      <trkpt lat="47.24378" lon="-2.30564">
        <ele>11</ele>
        <time>2022-02-27T08:50:08.000Z</time>
      </trkpt>
      <trkpt lat="47.24373" lon="-2.30559">
        <ele>11</ele>
        <time>2022-02-27T08:50:09.000Z</time>
      </trkpt>
      <trkpt lat="47.24367" lon="-2.30545">
        <ele>11</ele>
        <time>2022-02-27T08:50:11.000Z</time>
      </trkpt>
      <trkpt lat="47.24365" lon="-2.30531">
        <ele>11</ele>
        <time>2022-02-27T08:50:13.000Z</time>
      </trkpt>
      <trkpt lat="47.24364" lon="-2.30521">
        <ele>11</ele>
        <time>2022-02-27T08:50:15.000Z</time>
      </trkpt>
      <trkpt lat="47.24364" lon="-2.30501">
        <ele>11</ele>
        <time>2022-02-27T08:50:20.000Z</time>
      </trkpt>
      <trkpt lat="47.24366" lon="-2.30497">
        <ele>11.800000190735</ele>
        <time>2022-02-27T08:50:21.000Z</time>
      </trkpt>
      <trkpt lat="47.24368" lon="-2.30494">
        <ele>12.199999809265</ele>
        <time>2022-02-27T08:50:22.000Z</time>
      </trkpt>
      <trkpt lat="47.24369" lon="-2.3049">
        <ele>12.60000038147</ele>
        <time>2022-02-27T08:50:23.000Z</time>
      </trkpt>
      <trkpt lat="47.2437" lon="-2.30486">
        <ele>13</ele>
        <time>2022-02-27T08:50:24.000Z</time>
      </trkpt>
      <trkpt lat="47.24371" lon="-2.30482">
        <ele>13</ele>
        <time>2022-02-27T08:50:25.000Z</time>
      </trkpt>
      <trkpt lat="47.24374" lon="-2.30467">
        <ele>13.39999961853</ele>
        <time>2022-02-27T08:50:28.000Z</time>
      </trkpt>
      <trkpt lat="47.24375" lon="-2.30462">
        <ele>13.800000190735</ele>
        <time>2022-02-27T08:50:29.000Z</time>
      </trkpt>
      <trkpt lat="47.24376" lon="-2.30458">
        <ele>14.39999961853</ele>
        <time>2022-02-27T08:50:30.000Z</time>
      </trkpt>
      <trkpt lat="47.24375" lon="-2.30454">
        <ele>14.800000190735</ele>
        <time>2022-02-27T08:50:31.000Z</time>
      </trkpt>
      <trkpt lat="47.24374" lon="-2.3045">
        <ele>15.199999809265</ele>
        <time>2022-02-27T08:50:32.000Z</time>
      </trkpt>
      <trkpt lat="47.24373" lon="-2.30449">
        <ele>15.199999809265</ele>
        <time>2022-02-27T08:50:33.000Z</time>
      </trkpt>
      <trkpt lat="47.24371" lon="-2.30449">
        <ele>15.199999809265</ele>
        <time>2022-02-27T08:50:34.000Z</time>
      </trkpt>
      <trkpt lat="47.24359" lon="-2.30451">
        <ele>15.199999809265</ele>
        <time>2022-02-27T08:50:38.000Z</time>
      </trkpt>
      <trkpt lat="47.24346" lon="-2.30445">
        <ele>15.199999809265</ele>
        <time>2022-02-27T08:50:42.000Z</time>
      </trkpt>
      <trkpt lat="47.24343" lon="-2.30443">
        <ele>15.60000038147</ele>
        <time>2022-02-27T08:50:43.000Z</time>
      </trkpt>
      <trkpt lat="47.24339" lon="-2.30441">
        <ele>16</ele>
        <time>2022-02-27T08:50:44.000Z</time>
      </trkpt>
      <trkpt lat="47.24335" lon="-2.30439">
        <ele>16.39999961853</ele>
        <time>2022-02-27T08:50:45.000Z</time>
      </trkpt>
      <trkpt lat="47.2433" lon="-2.30437">
        <ele>17.39999961853</ele>
        <time>2022-02-27T08:50:46.000Z</time>
      </trkpt>
      <trkpt lat="47.24326" lon="-2.30434">
        <ele>17.39999961853</ele>
        <time>2022-02-27T08:50:47.000Z</time>
      </trkpt>
      <trkpt lat="47.24322" lon="-2.30431">
        <ele>17.39999961853</ele>
        <time>2022-02-27T08:50:48.000Z</time>
      </trkpt>
      <trkpt lat="47.24309" lon="-2.30423">
        <ele>17.39999961853</ele>
        <time>2022-02-27T08:50:52.000Z</time>
      </trkpt>
      <trkpt lat="47.24293" lon="-2.30409">
        <ele>17.39999961853</ele>
        <time>2022-02-27T08:50:57.000Z</time>
      </trkpt>
      <trkpt lat="47.24276" lon="-2.3039">
        <ele>17.39999961853</ele>
        <time>2022-02-27T08:51:02.000Z</time>
      </trkpt>
      <trkpt lat="47.2426" lon="-2.30361">
        <ele>17.799999237061</ele>
        <time>2022-02-27T08:51:08.000Z</time>
      </trkpt>
      <trkpt lat="47.24258" lon="-2.30356">
        <ele>18.200000762939</ele>
        <time>2022-02-27T08:51:09.000Z</time>
      </trkpt>
      <trkpt lat="47.24256" lon="-2.3035">
        <ele>18.60000038147</ele>
        <time>2022-02-27T08:51:10.000Z</time>
      </trkpt>
      <trkpt lat="47.24253" lon="-2.30343">
        <ele>19.39999961853</ele>
        <time>2022-02-27T08:51:11.000Z</time>
      </trkpt>
      <trkpt lat="47.24241" lon="-2.30323">
        <ele>19.39999961853</ele>
        <time>2022-02-27T08:51:15.000Z</time>
      </trkpt>
      <trkpt lat="47.24239" lon="-2.30323">
        <ele>19.39999961853</ele>
        <time>2022-02-27T08:51:16.000Z</time>
      </trkpt>
      <trkpt lat="47.24234" lon="-2.30325">
        <ele>19.39999961853</ele>
        <time>2022-02-27T08:51:18.000Z</time>
      </trkpt>
      <trkpt lat="47.24229" lon="-2.30326">
        <ele>19</ele>
        <time>2022-02-27T08:51:19.000Z</time>
      </trkpt>
      <trkpt lat="47.24224" lon="-2.30327">
        <ele>18.39999961853</ele>
        <time>2022-02-27T08:51:20.000Z</time>
      </trkpt>
      <trkpt lat="47.2422" lon="-2.30328">
        <ele>18</ele>
        <time>2022-02-27T08:51:21.000Z</time>
      </trkpt>
      <trkpt lat="47.24214" lon="-2.30326">
        <ele>17.39999961853</ele>
        <time>2022-02-27T08:51:22.000Z</time>
      </trkpt>
      <trkpt lat="47.2421" lon="-2.30323">
        <ele>16.799999237061</ele>
        <time>2022-02-27T08:51:23.000Z</time>
      </trkpt>
      <trkpt lat="47.24206" lon="-2.30317">
        <ele>16.200000762939</ele>
        <time>2022-02-27T08:51:24.000Z</time>
      </trkpt>
      <trkpt lat="47.24204" lon="-2.30308">
        <ele>15.39999961853</ele>
        <time>2022-02-27T08:51:25.000Z</time>
      </trkpt>
      <trkpt lat="47.24202" lon="-2.30298">
        <ele>14.800000190735</ele>
        <time>2022-02-27T08:51:26.000Z</time>
      </trkpt>
      <trkpt lat="47.24201" lon="-2.30289">
        <ele>14.800000190735</ele>
        <time>2022-02-27T08:51:27.000Z</time>
      </trkpt>
      <trkpt lat="47.24198" lon="-2.30264">
        <ele>14.800000190735</ele>
        <time>2022-02-27T08:51:30.000Z</time>
      </trkpt>
      <trkpt lat="47.24196" lon="-2.30241">
        <ele>14.39999961853</ele>
        <time>2022-02-27T08:51:33.000Z</time>
      </trkpt>
      <trkpt lat="47.24194" lon="-2.30238">
        <ele>14</ele>
        <time>2022-02-27T08:51:34.000Z</time>
      </trkpt>
      <trkpt lat="47.24193" lon="-2.30236">
        <ele>13</ele>
        <time>2022-02-27T08:51:35.000Z</time>
      </trkpt>
      <trkpt lat="47.24191" lon="-2.30237">
        <ele>12.60000038147</ele>
        <time>2022-02-27T08:51:36.000Z</time>
      </trkpt>
      <trkpt lat="47.2419" lon="-2.30237">
        <ele>12.60000038147</ele>
        <time>2022-02-27T08:51:37.000Z</time>
      </trkpt>
      <trkpt lat="47.24177" lon="-2.30235">
        <ele>12.60000038147</ele>
        <time>2022-02-27T08:51:41.000Z</time>
      </trkpt>
      <trkpt lat="47.24169" lon="-2.30223">
        <ele>12.60000038147</ele>
        <time>2022-02-27T08:51:44.000Z</time>
      </trkpt>
      <trkpt lat="47.24166" lon="-2.30219">
        <ele>12.60000038147</ele>
        <time>2022-02-27T08:51:45.000Z</time>
      </trkpt>
      <trkpt lat="47.24159" lon="-2.30202">
        <ele>13</ele>
        <time>2022-02-27T08:51:49.000Z</time>
      </trkpt>
      <trkpt lat="47.24157" lon="-2.30198">
        <ele>13.39999961853</ele>
        <time>2022-02-27T08:51:50.000Z</time>
      </trkpt>
      <trkpt lat="47.24154" lon="-2.30193">
        <ele>13.800000190735</ele>
        <time>2022-02-27T08:51:51.000Z</time>
      </trkpt>
      <trkpt lat="47.24152" lon="-2.30189">
        <ele>14.199999809265</ele>
        <time>2022-02-27T08:51:52.000Z</time>
      </trkpt>
      <trkpt lat="47.2415" lon="-2.30185">
        <ele>14.60000038147</ele>
        <time>2022-02-27T08:51:53.000Z</time>
      </trkpt>
      <trkpt lat="47.24145" lon="-2.30167">
        <ele>14.60000038147</ele>
        <time>2022-02-27T08:51:57.000Z</time>
      </trkpt>
      <trkpt lat="47.24142" lon="-2.30158">
        <ele>15</ele>
        <time>2022-02-27T08:51:59.000Z</time>
      </trkpt>
      <trkpt lat="47.24141" lon="-2.30156">
        <ele>16</ele>
        <time>2022-02-27T08:52:00.000Z</time>
      </trkpt>
      <trkpt lat="47.24141" lon="-2.30155">
        <ele>16.39999961853</ele>
        <time>2022-02-27T08:52:01.000Z</time>
      </trkpt>
      <trkpt lat="47.2414" lon="-2.30155">
        <ele>17</ele>
        <time>2022-02-27T08:52:02.000Z</time>
      </trkpt>
      <trkpt lat="47.24139" lon="-2.30155">
        <ele>17.60000038147</ele>
        <time>2022-02-27T08:52:03.000Z</time>
      </trkpt>
      <trkpt lat="47.24138" lon="-2.30155">
        <ele>18.200000762939</ele>
        <time>2022-02-27T08:52:04.000Z</time>
      </trkpt>
      <trkpt lat="47.24137" lon="-2.30155">
        <ele>18.60000038147</ele>
        <time>2022-02-27T08:52:05.000Z</time>
      </trkpt>
      <trkpt lat="47.24136" lon="-2.30155">
        <ele>19.200000762939</ele>
        <time>2022-02-27T08:52:06.000Z</time>
      </trkpt>
      <trkpt lat="47.24136" lon="-2.30156">
        <ele>19.200000762939</ele>
        <time>2022-02-27T08:52:07.000Z</time>
      </trkpt>
      <trkpt lat="47.24125" lon="-2.30162">
        <ele>19.200000762939</ele>
        <time>2022-02-27T08:53:16.000Z</time>
      </trkpt>
      <trkpt lat="47.2412" lon="-2.30161">
        <ele>19.60000038147</ele>
        <time>2022-02-27T08:53:18.000Z</time>
      </trkpt>
      <trkpt lat="47.24118" lon="-2.30161">
        <ele>20</ele>
        <time>2022-02-27T08:53:19.000Z</time>
      </trkpt>
      <trkpt lat="47.24115" lon="-2.3016">
        <ele>20.39999961853</ele>
        <time>2022-02-27T08:53:20.000Z</time>
      </trkpt>
      <trkpt lat="47.24111" lon="-2.3016">
        <ele>20.799999237061</ele>
        <time>2022-02-27T08:53:21.000Z</time>
      </trkpt>
      <trkpt lat="47.24107" lon="-2.3016">
        <ele>21.200000762939</ele>
        <time>2022-02-27T08:53:22.000Z</time>
      </trkpt>
      <trkpt lat="47.241" lon="-2.3016">
        <ele>21.200000762939</ele>
        <time>2022-02-27T08:53:24.000Z</time>
      </trkpt>
      <trkpt lat="47.24095" lon="-2.30164">
        <ele>21.200000762939</ele>
        <time>2022-02-27T08:53:26.000Z</time>
      </trkpt>
      <trkpt lat="47.2409" lon="-2.3017">
        <ele>21.200000762939</ele>
        <time>2022-02-27T08:53:28.000Z</time>
      </trkpt>
      <trkpt lat="47.24074" lon="-2.30178">
        <ele>21.200000762939</ele>
        <time>2022-02-27T08:53:34.000Z</time>
      </trkpt>
      <trkpt lat="47.24061" lon="-2.30186">
        <ele>21.200000762939</ele>
        <time>2022-02-27T08:53:39.000Z</time>
      </trkpt>
      <trkpt lat="47.24056" lon="-2.30187">
        <ele>21.200000762939</ele>
        <time>2022-02-27T08:53:41.000Z</time>
      </trkpt>
      <trkpt lat="47.24049" lon="-2.30183">
        <ele>21.200000762939</ele>
        <time>2022-02-27T08:53:44.000Z</time>
      </trkpt>
      <trkpt lat="47.24045" lon="-2.3018">
        <ele>21.200000762939</ele>
        <time>2022-02-27T08:53:46.000Z</time>
      </trkpt>
      <trkpt lat="47.24037" lon="-2.30172">
        <ele>21.60000038147</ele>
        <time>2022-02-27T08:53:50.000Z</time>
      </trkpt>
      <trkpt lat="47.24035" lon="-2.30169">
        <ele>22.200000762939</ele>
        <time>2022-02-27T08:53:51.000Z</time>
      </trkpt>
      <trkpt lat="47.24033" lon="-2.30167">
        <ele>22.60000038147</ele>
        <time>2022-02-27T08:53:52.000Z</time>
      </trkpt>
      <trkpt lat="47.24029" lon="-2.30165">
        <ele>23</ele>
        <time>2022-02-27T08:53:53.000Z</time>
      </trkpt>
      <trkpt lat="47.24025" lon="-2.30164">
        <ele>23.39999961853</ele>
        <time>2022-02-27T08:53:54.000Z</time>
      </trkpt>
      <trkpt lat="47.24016" lon="-2.3016">
        <ele>23.39999961853</ele>
        <time>2022-02-27T08:53:56.000Z</time>
      </trkpt>
      <trkpt lat="47.23991" lon="-2.30151">
        <ele>23.39999961853</ele>
        <time>2022-02-27T08:54:03.000Z</time>
      </trkpt>
      <trkpt lat="47.23974" lon="-2.30139">
        <ele>23.39999961853</ele>
        <time>2022-02-27T08:54:08.000Z</time>
      </trkpt>
      <trkpt lat="47.23965" lon="-2.30136">
        <ele>23</ele>
        <time>2022-02-27T08:54:11.000Z</time>
      </trkpt>
      <trkpt lat="47.23961" lon="-2.30136">
        <ele>22.60000038147</ele>
        <time>2022-02-27T08:54:12.000Z</time>
      </trkpt>
      <trkpt lat="47.23956" lon="-2.30137">
        <ele>22.200000762939</ele>
        <time>2022-02-27T08:54:13.000Z</time>
      </trkpt>
      <trkpt lat="47.23953" lon="-2.30138">
        <ele>21.799999237061</ele>
        <time>2022-02-27T08:54:14.000Z</time>
      </trkpt>
      <trkpt lat="47.2395" lon="-2.30138">
        <ele>21.200000762939</ele>
        <time>2022-02-27T08:54:15.000Z</time>
      </trkpt>
      <trkpt lat="47.2394" lon="-2.30138">
        <ele>21.200000762939</ele>
        <time>2022-02-27T08:54:18.000Z</time>
      </trkpt>
      <trkpt lat="47.23937" lon="-2.30137">
        <ele>21.200000762939</ele>
        <time>2022-02-27T08:54:19.000Z</time>
      </trkpt>
      <trkpt lat="47.23934" lon="-2.30134">
        <ele>20.799999237061</ele>
        <time>2022-02-27T08:54:20.000Z</time>
      </trkpt>
      <trkpt lat="47.2393" lon="-2.30131">
        <ele>20.39999961853</ele>
        <time>2022-02-27T08:54:21.000Z</time>
      </trkpt>
      <trkpt lat="47.23927" lon="-2.30127">
        <ele>20</ele>
        <time>2022-02-27T08:54:22.000Z</time>
      </trkpt>
      <trkpt lat="47.23925" lon="-2.30124">
        <ele>19.60000038147</ele>
        <time>2022-02-27T08:54:23.000Z</time>
      </trkpt>
      <trkpt lat="47.23922" lon="-2.30121">
        <ele>19.200000762939</ele>
        <time>2022-02-27T08:54:24.000Z</time>
      </trkpt>
      <trkpt lat="47.23918" lon="-2.30108">
        <ele>19.200000762939</ele>
        <time>2022-02-27T08:54:28.000Z</time>
      </trkpt>
      <trkpt lat="47.23918" lon="-2.30102">
        <ele>19.200000762939</ele>
        <time>2022-02-27T08:54:31.000Z</time>
      </trkpt>
      <trkpt lat="47.2392" lon="-2.301">
        <ele>19.200000762939</ele>
        <time>2022-02-27T08:54:33.000Z</time>
      </trkpt>
      <trkpt lat="47.23924" lon="-2.301">
        <ele>19.200000762939</ele>
        <time>2022-02-27T08:54:35.000Z</time>
      </trkpt>
      <trkpt lat="47.23934" lon="-2.30101">
        <ele>19.200000762939</ele>
        <time>2022-02-27T08:54:38.000Z</time>
      </trkpt>
      <trkpt lat="47.23952" lon="-2.30096">
        <ele>19.200000762939</ele>
        <time>2022-02-27T08:54:44.000Z</time>
      </trkpt>
      <trkpt lat="47.23956" lon="-2.30092">
        <ele>19.60000038147</ele>
        <time>2022-02-27T08:54:46.000Z</time>
      </trkpt>
      <trkpt lat="47.23957" lon="-2.30087">
        <ele>20</ele>
        <time>2022-02-27T08:54:47.000Z</time>
      </trkpt>
      <trkpt lat="47.23959" lon="-2.30082">
        <ele>20.60000038147</ele>
        <time>2022-02-27T08:54:48.000Z</time>
      </trkpt>
      <trkpt lat="47.2396" lon="-2.30077">
        <ele>21</ele>
        <time>2022-02-27T08:54:49.000Z</time>
      </trkpt>
      <trkpt lat="47.23961" lon="-2.30073">
        <ele>21.39999961853</ele>
        <time>2022-02-27T08:54:50.000Z</time>
      </trkpt>
      <trkpt lat="47.23968" lon="-2.30054">
        <ele>21.39999961853</ele>
        <time>2022-02-27T08:54:55.000Z</time>
      </trkpt>
      <trkpt lat="47.23978" lon="-2.30047">
        <ele>21.39999961853</ele>
        <time>2022-02-27T08:55:00.000Z</time>
      </trkpt>
      <trkpt lat="47.23985" lon="-2.30038">
        <ele>21.799999237061</ele>
        <time>2022-02-27T08:55:04.000Z</time>
      </trkpt>
      <trkpt lat="47.23987" lon="-2.30036">
        <ele>22.200000762939</ele>
        <time>2022-02-27T08:55:05.000Z</time>
      </trkpt>
      <trkpt lat="47.23988" lon="-2.30034">
        <ele>22.60000038147</ele>
        <time>2022-02-27T08:55:06.000Z</time>
      </trkpt>
      <trkpt lat="47.2399" lon="-2.30031">
        <ele>23</ele>
        <time>2022-02-27T08:55:07.000Z</time>
      </trkpt>
      <trkpt lat="47.23992" lon="-2.3003">
        <ele>23.39999961853</ele>
        <time>2022-02-27T08:55:08.000Z</time>
      </trkpt>
      <trkpt lat="47.23997" lon="-2.30021">
        <ele>23.39999961853</ele>
        <time>2022-02-27T08:55:11.000Z</time>
      </trkpt>
      <trkpt lat="47.23999" lon="-2.29999">
        <ele>23.39999961853</ele>
        <time>2022-02-27T08:55:16.000Z</time>
      </trkpt>
      <trkpt lat="47.24003" lon="-2.29989">
        <ele>23.39999961853</ele>
        <time>2022-02-27T08:55:18.000Z</time>
      </trkpt>
      <trkpt lat="47.24005" lon="-2.2998">
        <ele>23.39999961853</ele>
        <time>2022-02-27T08:55:20.000Z</time>
      </trkpt>
      <trkpt lat="47.2401" lon="-2.29961">
        <ele>23.39999961853</ele>
        <time>2022-02-27T08:55:25.000Z</time>
      </trkpt>
      <trkpt lat="47.24014" lon="-2.29954">
        <ele>23.39999961853</ele>
        <time>2022-02-27T08:55:27.000Z</time>
      </trkpt>
      <trkpt lat="47.24018" lon="-2.2994">
        <ele>23.799999237061</ele>
        <time>2022-02-27T08:55:30.000Z</time>
      </trkpt>
      <trkpt lat="47.24019" lon="-2.29936">
        <ele>24.200000762939</ele>
        <time>2022-02-27T08:55:31.000Z</time>
      </trkpt>
      <trkpt lat="47.24021" lon="-2.29932">
        <ele>24.60000038147</ele>
        <time>2022-02-27T08:55:32.000Z</time>
      </trkpt>
      <trkpt lat="47.24023" lon="-2.29929">
        <ele>25</ele>
        <time>2022-02-27T08:55:33.000Z</time>
      </trkpt>
      <trkpt lat="47.24024" lon="-2.29926">
        <ele>25.39999961853</ele>
        <time>2022-02-27T08:55:34.000Z</time>
      </trkpt>
      <trkpt lat="47.24024" lon="-2.29922">
        <ele>25.39999961853</ele>
        <time>2022-02-27T08:55:35.000Z</time>
      </trkpt>
      <trkpt lat="47.24025" lon="-2.29919">
        <ele>25.39999961853</ele>
        <time>2022-02-27T08:55:36.000Z</time>
      </trkpt>
      <trkpt lat="47.24027" lon="-2.29912">
        <ele>25.39999961853</ele>
        <time>2022-02-27T08:55:41.000Z</time>
      </trkpt>
      <trkpt lat="47.24027" lon="-2.29912">
        <ele>25.39999961853</ele>
        <time>2022-02-27T08:55:42.000Z</time>
      </trkpt>
      <trkpt lat="47.24028" lon="-2.2991">
        <ele>25.39999961853</ele>
        <time>2022-02-27T08:55:54.000Z</time>
      </trkpt>
      <trkpt lat="47.24031" lon="-2.29904">
        <ele>25.39999961853</ele>
        <time>2022-02-27T08:55:56.000Z</time>
      </trkpt>
      <trkpt lat="47.24039" lon="-2.2988">
        <ele>25.39999961853</ele>
        <time>2022-02-27T08:56:01.000Z</time>
      </trkpt>
      <trkpt lat="47.24045" lon="-2.29853">
        <ele>25.39999961853</ele>
        <time>2022-02-27T08:56:07.000Z</time>
      </trkpt>
      <trkpt lat="47.24051" lon="-2.29827">
        <ele>25.39999961853</ele>
        <time>2022-02-27T08:56:12.000Z</time>
      </trkpt>
      <trkpt lat="47.24059" lon="-2.29808">
        <ele>25.39999961853</ele>
        <time>2022-02-27T08:56:17.000Z</time>
      </trkpt>
      <trkpt lat="47.24067" lon="-2.29816">
        <ele>25.39999961853</ele>
        <time>2022-02-27T08:56:21.000Z</time>
      </trkpt>
      <trkpt lat="47.24069" lon="-2.29823">
        <ele>25.39999961853</ele>
        <time>2022-02-27T08:56:23.000Z</time>
      </trkpt>
      <trkpt lat="47.24068" lon="-2.29831">
        <ele>25.39999961853</ele>
        <time>2022-02-27T08:56:25.000Z</time>
      </trkpt>
      <trkpt lat="47.24068" lon="-2.29841">
        <ele>25.39999961853</ele>
        <time>2022-02-27T08:56:28.000Z</time>
      </trkpt>
      <trkpt lat="47.24069" lon="-2.29844">
        <ele>25.39999961853</ele>
        <time>2022-02-27T08:56:29.000Z</time>
      </trkpt>
      <trkpt lat="47.24078" lon="-2.29852">
        <ele>25.39999961853</ele>
        <time>2022-02-27T08:56:34.000Z</time>
      </trkpt>
      <trkpt lat="47.24088" lon="-2.29853">
        <ele>25.39999961853</ele>
        <time>2022-02-27T08:56:38.000Z</time>
      </trkpt>
      <trkpt lat="47.24101" lon="-2.29849">
        <ele>25.39999961853</ele>
        <time>2022-02-27T08:56:41.000Z</time>
      </trkpt>
      <trkpt lat="47.24107" lon="-2.2985">
        <ele>25.39999961853</ele>
        <time>2022-02-27T08:56:42.000Z</time>
      </trkpt>
      <trkpt lat="47.2412" lon="-2.29854">
        <ele>25.39999961853</ele>
        <time>2022-02-27T08:56:45.000Z</time>
      </trkpt>
      <trkpt lat="47.2413" lon="-2.29858">
        <ele>25.39999961853</ele>
        <time>2022-02-27T08:56:49.000Z</time>
      </trkpt>
      <trkpt lat="47.24135" lon="-2.29866">
        <ele>25.39999961853</ele>
        <time>2022-02-27T08:56:53.000Z</time>
      </trkpt>
      <trkpt lat="47.24136" lon="-2.29869">
        <ele>25.39999961853</ele>
        <time>2022-02-27T08:56:54.000Z</time>
      </trkpt>
      <trkpt lat="47.24142" lon="-2.29888">
        <ele>25.39999961853</ele>
        <time>2022-02-27T08:57:01.000Z</time>
      </trkpt>
      <trkpt lat="47.24142" lon="-2.2989">
        <ele>25.39999961853</ele>
        <time>2022-02-27T08:57:02.000Z</time>
      </trkpt>
      <trkpt lat="47.24141" lon="-2.29899">
        <ele>25.39999961853</ele>
        <time>2022-02-27T08:57:05.000Z</time>
      </trkpt>
      <trkpt lat="47.24133" lon="-2.29923">
        <ele>25.39999961853</ele>
        <time>2022-02-27T08:57:10.000Z</time>
      </trkpt>
      <trkpt lat="47.24129" lon="-2.29945">
        <ele>25.39999961853</ele>
        <time>2022-02-27T08:57:14.000Z</time>
      </trkpt>
      <trkpt lat="47.24123" lon="-2.29979">
        <ele>25.39999961853</ele>
        <time>2022-02-27T08:57:20.000Z</time>
      </trkpt>
      <trkpt lat="47.24115" lon="-2.30004">
        <ele>25.39999961853</ele>
        <time>2022-02-27T08:57:25.000Z</time>
      </trkpt>
      <trkpt lat="47.24109" lon="-2.30018">
        <ele>25</ele>
        <time>2022-02-27T08:57:29.000Z</time>
      </trkpt>
      <trkpt lat="47.24109" lon="-2.30021">
        <ele>24.60000038147</ele>
        <time>2022-02-27T08:57:30.000Z</time>
      </trkpt>
      <trkpt lat="47.24108" lon="-2.30024">
        <ele>24.200000762939</ele>
        <time>2022-02-27T08:57:31.000Z</time>
      </trkpt>
      <trkpt lat="47.24108" lon="-2.30026">
        <ele>23.799999237061</ele>
        <time>2022-02-27T08:57:32.000Z</time>
      </trkpt>
      <trkpt lat="47.24112" lon="-2.30027">
        <ele>23.39999961853</ele>
        <time>2022-02-27T08:57:33.000Z</time>
      </trkpt>
      <trkpt lat="47.24113" lon="-2.30036">
        <ele>23.39999961853</ele>
        <time>2022-02-27T08:57:35.000Z</time>
      </trkpt>
      <trkpt lat="47.24116" lon="-2.30055">
        <ele>23</ele>
        <time>2022-02-27T08:57:38.000Z</time>
      </trkpt>
      <trkpt lat="47.24117" lon="-2.30061">
        <ele>22.60000038147</ele>
        <time>2022-02-27T08:57:39.000Z</time>
      </trkpt>
      <trkpt lat="47.24117" lon="-2.30064">
        <ele>22.200000762939</ele>
        <time>2022-02-27T08:57:40.000Z</time>
      </trkpt>
      <trkpt lat="47.24117" lon="-2.30066">
        <ele>21.60000038147</ele>
        <time>2022-02-27T08:57:41.000Z</time>
      </trkpt>
      <trkpt lat="47.24119" lon="-2.30064">
        <ele>21.200000762939</ele>
        <time>2022-02-27T08:57:44.000Z</time>
      </trkpt>
      <trkpt lat="47.24119" lon="-2.30062">
        <ele>21.200000762939</ele>
        <time>2022-02-27T08:57:45.000Z</time>
      </trkpt>
      <trkpt lat="47.24125" lon="-2.30054">
        <ele>21.200000762939</ele>
        <time>2022-02-27T08:57:51.000Z</time>
      </trkpt>
      <trkpt lat="47.24133" lon="-2.30048">
        <ele>21.200000762939</ele>
        <time>2022-02-27T08:57:58.000Z</time>
      </trkpt>
      <trkpt lat="47.24137" lon="-2.30045">
        <ele>21.200000762939</ele>
        <time>2022-02-27T08:58:02.000Z</time>
      </trkpt>
      <trkpt lat="47.24139" lon="-2.3004">
        <ele>21.200000762939</ele>
        <time>2022-02-27T08:58:03.000Z</time>
      </trkpt>
      <trkpt lat="47.24138" lon="-2.30027">
        <ele>21.200000762939</ele>
        <time>2022-02-27T08:58:07.000Z</time>
      </trkpt>
      <trkpt lat="47.24135" lon="-2.30017">
        <ele>21.200000762939</ele>
        <time>2022-02-27T08:58:11.000Z</time>
      </trkpt>
      <trkpt lat="47.24131" lon="-2.30009">
        <ele>21.60000038147</ele>
        <time>2022-02-27T08:58:14.000Z</time>
      </trkpt>
      <trkpt lat="47.24131" lon="-2.30006">
        <ele>22.200000762939</ele>
        <time>2022-02-27T08:58:15.000Z</time>
      </trkpt>
      <trkpt lat="47.24131" lon="-2.30003">
        <ele>22.60000038147</ele>
        <time>2022-02-27T08:58:16.000Z</time>
      </trkpt>
      <trkpt lat="47.24133" lon="-2.30002">
        <ele>23</ele>
        <time>2022-02-27T08:58:17.000Z</time>
      </trkpt>
      <trkpt lat="47.24135" lon="-2.3">
        <ele>23.39999961853</ele>
        <time>2022-02-27T08:58:18.000Z</time>
      </trkpt>
      <trkpt lat="47.24137" lon="-2.29997">
        <ele>23.39999961853</ele>
        <time>2022-02-27T08:58:19.000Z</time>
      </trkpt>
      <trkpt lat="47.24141" lon="-2.29995">
        <ele>23.39999961853</ele>
        <time>2022-02-27T08:58:36.000Z</time>
      </trkpt>
      <trkpt lat="47.24149" lon="-2.29991">
        <ele>23.39999961853</ele>
        <time>2022-02-27T08:58:38.000Z</time>
      </trkpt>
      <trkpt lat="47.24164" lon="-2.29982">
        <ele>23.39999961853</ele>
        <time>2022-02-27T08:58:43.000Z</time>
      </trkpt>
      <trkpt lat="47.24184" lon="-2.29971">
        <ele>23</ele>
        <time>2022-02-27T08:58:48.000Z</time>
      </trkpt>
      <trkpt lat="47.24187" lon="-2.29969">
        <ele>22.60000038147</ele>
        <time>2022-02-27T08:58:49.000Z</time>
      </trkpt>
      <trkpt lat="47.2419" lon="-2.29967">
        <ele>22.200000762939</ele>
        <time>2022-02-27T08:58:50.000Z</time>
      </trkpt>
      <trkpt lat="47.24194" lon="-2.29965">
        <ele>21.799999237061</ele>
        <time>2022-02-27T08:58:51.000Z</time>
      </trkpt>
      <trkpt lat="47.24197" lon="-2.29963">
        <ele>21.39999961853</ele>
        <time>2022-02-27T08:58:52.000Z</time>
      </trkpt>
      <trkpt lat="47.24208" lon="-2.29954">
        <ele>21.39999961853</ele>
        <time>2022-02-27T08:58:55.000Z</time>
      </trkpt>
      <trkpt lat="47.24212" lon="-2.29949">
        <ele>21.39999961853</ele>
        <time>2022-02-27T08:58:56.000Z</time>
      </trkpt>
      <trkpt lat="47.24228" lon="-2.29932">
        <ele>21.39999961853</ele>
        <time>2022-02-27T08:58:59.000Z</time>
      </trkpt>
      <trkpt lat="47.24255" lon="-2.29911">
        <ele>21.39999961853</ele>
        <time>2022-02-27T08:59:03.000Z</time>
      </trkpt>
      <trkpt lat="47.24266" lon="-2.29904">
        <ele>21.39999961853</ele>
        <time>2022-02-27T08:59:05.000Z</time>
      </trkpt>
      <trkpt lat="47.24279" lon="-2.29896">
        <ele>21.39999961853</ele>
        <time>2022-02-27T08:59:07.000Z</time>
      </trkpt>
      <trkpt lat="47.24289" lon="-2.29884">
        <ele>21.39999961853</ele>
        <time>2022-02-27T08:59:09.000Z</time>
      </trkpt>
      <trkpt lat="47.24295" lon="-2.29854">
        <ele>21.39999961853</ele>
        <time>2022-02-27T08:59:13.000Z</time>
      </trkpt>
      <trkpt lat="47.24299" lon="-2.29846">
        <ele>21.39999961853</ele>
        <time>2022-02-27T08:59:14.000Z</time>
      </trkpt>
      <trkpt lat="47.24309" lon="-2.29831">
        <ele>21.39999961853</ele>
        <time>2022-02-27T08:59:17.000Z</time>
      </trkpt>
      <trkpt lat="47.24321" lon="-2.2982">
        <ele>21.39999961853</ele>
        <time>2022-02-27T08:59:22.000Z</time>
      </trkpt>
      <trkpt lat="47.24324" lon="-2.29818">
        <ele>21.39999961853</ele>
        <time>2022-02-27T08:59:23.000Z</time>
      </trkpt>
      <trkpt lat="47.24331" lon="-2.29811">
        <ele>21.39999961853</ele>
        <time>2022-02-27T08:59:26.000Z</time>
      </trkpt>
      <trkpt lat="47.24353" lon="-2.29797">
        <ele>21.39999961853</ele>
        <time>2022-02-27T08:59:32.000Z</time>
      </trkpt>
      <trkpt lat="47.24362" lon="-2.29785">
        <ele>21.39999961853</ele>
        <time>2022-02-27T08:59:35.000Z</time>
      </trkpt>
      <trkpt lat="47.24367" lon="-2.29774">
        <ele>21.39999961853</ele>
        <time>2022-02-27T08:59:37.000Z</time>
      </trkpt>
      <trkpt lat="47.24384" lon="-2.29739">
        <ele>21.39999961853</ele>
        <time>2022-02-27T08:59:43.000Z</time>
      </trkpt>
      <trkpt lat="47.24396" lon="-2.29709">
        <ele>21.39999961853</ele>
        <time>2022-02-27T08:59:48.000Z</time>
      </trkpt>
      <trkpt lat="47.244" lon="-2.29704">
        <ele>21.39999961853</ele>
        <time>2022-02-27T08:59:49.000Z</time>
      </trkpt>
      <trkpt lat="47.24412" lon="-2.29696">
        <ele>21.39999961853</ele>
        <time>2022-02-27T08:59:52.000Z</time>
      </trkpt>
      <trkpt lat="47.24429" lon="-2.2969">
        <ele>21.39999961853</ele>
        <time>2022-02-27T08:59:58.000Z</time>
      </trkpt>
      <trkpt lat="47.24432" lon="-2.29691">
        <ele>21.39999961853</ele>
        <time>2022-02-27T08:59:59.000Z</time>
      </trkpt>
      <trkpt lat="47.24437" lon="-2.29698">
        <ele>21.39999961853</ele>
        <time>2022-02-27T09:00:01.000Z</time>
      </trkpt>
      <trkpt lat="47.24444" lon="-2.29719">
        <ele>21.39999961853</ele>
        <time>2022-02-27T09:00:05.000Z</time>
      </trkpt>
      <trkpt lat="47.2445" lon="-2.29735">
        <ele>21.39999961853</ele>
        <time>2022-02-27T09:00:08.000Z</time>
      </trkpt>
      <trkpt lat="47.24455" lon="-2.29747">
        <ele>21.39999961853</ele>
        <time>2022-02-27T09:00:10.000Z</time>
      </trkpt>
      <trkpt lat="47.24461" lon="-2.29765">
        <ele>21.39999961853</ele>
        <time>2022-02-27T09:00:13.000Z</time>
      </trkpt>
      <trkpt lat="47.24463" lon="-2.29779">
        <ele>21.39999961853</ele>
        <time>2022-02-27T09:00:15.000Z</time>
      </trkpt>
      <trkpt lat="47.24467" lon="-2.29794">
        <ele>21.39999961853</ele>
        <time>2022-02-27T09:00:17.000Z</time>
      </trkpt>
      <trkpt lat="47.24472" lon="-2.29808">
        <ele>21.39999961853</ele>
        <time>2022-02-27T09:00:19.000Z</time>
      </trkpt>
      <trkpt lat="47.24475" lon="-2.29814">
        <ele>21.39999961853</ele>
        <time>2022-02-27T09:00:20.000Z</time>
      </trkpt>
      <trkpt lat="47.24482" lon="-2.29827">
        <ele>21.39999961853</ele>
        <time>2022-02-27T09:00:22.000Z</time>
      </trkpt>
      <trkpt lat="47.2449" lon="-2.29838">
        <ele>21.799999237061</ele>
        <time>2022-02-27T09:00:24.000Z</time>
      </trkpt>
      <trkpt lat="47.24495" lon="-2.29843">
        <ele>22.200000762939</ele>
        <time>2022-02-27T09:00:25.000Z</time>
      </trkpt>
      <trkpt lat="47.245" lon="-2.29846">
        <ele>22.60000038147</ele>
        <time>2022-02-27T09:00:26.000Z</time>
      </trkpt>
      <trkpt lat="47.24505" lon="-2.29849">
        <ele>23</ele>
        <time>2022-02-27T09:00:27.000Z</time>
      </trkpt>
      <trkpt lat="47.24509" lon="-2.29853">
        <ele>23.39999961853</ele>
        <time>2022-02-27T09:00:28.000Z</time>
      </trkpt>
      <trkpt lat="47.2452" lon="-2.29858">
        <ele>23.39999961853</ele>
        <time>2022-02-27T09:00:30.000Z</time>
      </trkpt>
      <trkpt lat="47.24543" lon="-2.29868">
        <ele>23.39999961853</ele>
        <time>2022-02-27T09:00:35.000Z</time>
      </trkpt>
      <trkpt lat="47.24547" lon="-2.29869">
        <ele>23.39999961853</ele>
        <time>2022-02-27T09:00:36.000Z</time>
      </trkpt>
      <trkpt lat="47.24561" lon="-2.29879">
        <ele>23.39999961853</ele>
        <time>2022-02-27T09:00:40.000Z</time>
      </trkpt>
      <trkpt lat="47.24569" lon="-2.29897">
        <ele>23.39999961853</ele>
        <time>2022-02-27T09:00:44.000Z</time>
      </trkpt>
      <trkpt lat="47.24571" lon="-2.29903">
        <ele>23.39999961853</ele>
        <time>2022-02-27T09:00:45.000Z</time>
      </trkpt>
      <trkpt lat="47.2458" lon="-2.29914">
        <ele>23.39999961853</ele>
        <time>2022-02-27T09:00:48.000Z</time>
      </trkpt>
      <trkpt lat="47.24583" lon="-2.29918">
        <ele>23.39999961853</ele>
        <time>2022-02-27T09:00:49.000Z</time>
      </trkpt>
      <trkpt lat="47.24598" lon="-2.29941">
        <ele>23.39999961853</ele>
        <time>2022-02-27T09:00:54.000Z</time>
      </trkpt>
      <trkpt lat="47.24611" lon="-2.29944">
        <ele>23.39999961853</ele>
        <time>2022-02-27T09:00:57.000Z</time>
      </trkpt>
      <trkpt lat="47.24621" lon="-2.2994">
        <ele>23.39999961853</ele>
        <time>2022-02-27T09:00:59.000Z</time>
      </trkpt>
      <trkpt lat="47.24635" lon="-2.29935">
        <ele>23.39999961853</ele>
        <time>2022-02-27T09:01:02.000Z</time>
      </trkpt>
      <trkpt lat="47.24669" lon="-2.29923">
        <ele>23.39999961853</ele>
        <time>2022-02-27T09:01:09.000Z</time>
      </trkpt>
      <trkpt lat="47.24674" lon="-2.29921">
        <ele>23.799999237061</ele>
        <time>2022-02-27T09:01:10.000Z</time>
      </trkpt>
      <trkpt lat="47.24678" lon="-2.2992">
        <ele>24.200000762939</ele>
        <time>2022-02-27T09:01:11.000Z</time>
      </trkpt>
      <trkpt lat="47.24682" lon="-2.29918">
        <ele>24.60000038147</ele>
        <time>2022-02-27T09:01:12.000Z</time>
      </trkpt>
      <trkpt lat="47.24687" lon="-2.29916">
        <ele>25.200000762939</ele>
        <time>2022-02-27T09:01:13.000Z</time>
      </trkpt>
      <trkpt lat="47.24691" lon="-2.29915">
        <ele>25.60000038147</ele>
        <time>2022-02-27T09:01:14.000Z</time>
      </trkpt>
      <trkpt lat="47.24704" lon="-2.29912">
        <ele>25.60000038147</ele>
        <time>2022-02-27T09:01:17.000Z</time>
      </trkpt>
      <trkpt lat="47.24733" lon="-2.29899">
        <ele>25.60000038147</ele>
        <time>2022-02-27T09:01:24.000Z</time>
      </trkpt>
      <trkpt lat="47.24749" lon="-2.29891">
        <ele>25.60000038147</ele>
        <time>2022-02-27T09:01:28.000Z</time>
      </trkpt>
      <trkpt lat="47.24756" lon="-2.29885">
        <ele>25.60000038147</ele>
        <time>2022-02-27T09:01:30.000Z</time>
      </trkpt>
      <trkpt lat="47.24768" lon="-2.29875">
        <ele>25.60000038147</ele>
        <time>2022-02-27T09:01:33.000Z</time>
      </trkpt>
      <trkpt lat="47.24781" lon="-2.29867">
        <ele>25.60000038147</ele>
        <time>2022-02-27T09:01:36.000Z</time>
      </trkpt>
      <trkpt lat="47.24785" lon="-2.29864">
        <ele>26</ele>
        <time>2022-02-27T09:01:37.000Z</time>
      </trkpt>
      <trkpt lat="47.24789" lon="-2.29861">
        <ele>26.39999961853</ele>
        <time>2022-02-27T09:01:38.000Z</time>
      </trkpt>
      <trkpt lat="47.24794" lon="-2.29858">
        <ele>26.799999237061</ele>
        <time>2022-02-27T09:01:39.000Z</time>
      </trkpt>
      <trkpt lat="47.24798" lon="-2.29855">
        <ele>27.200000762939</ele>
        <time>2022-02-27T09:01:40.000Z</time>
      </trkpt>
      <trkpt lat="47.24803" lon="-2.29853">
        <ele>27.60000038147</ele>
        <time>2022-02-27T09:01:41.000Z</time>
      </trkpt>
      <trkpt lat="47.24821" lon="-2.29845">
        <ele>27.60000038147</ele>
        <time>2022-02-27T09:01:45.000Z</time>
      </trkpt>
      <trkpt lat="47.24839" lon="-2.29841">
        <ele>27.60000038147</ele>
        <time>2022-02-27T09:01:49.000Z</time>
      </trkpt>
      <trkpt lat="47.24844" lon="-2.29839">
        <ele>27.60000038147</ele>
        <time>2022-02-27T09:01:50.000Z</time>
      </trkpt>
      <trkpt lat="47.24852" lon="-2.29835">
        <ele>27.60000038147</ele>
        <time>2022-02-27T09:01:52.000Z</time>
      </trkpt>
      <trkpt lat="47.24864" lon="-2.29832">
        <ele>27.60000038147</ele>
        <time>2022-02-27T09:01:55.000Z</time>
      </trkpt>
      <trkpt lat="47.2487" lon="-2.29847">
        <ele>27.60000038147</ele>
        <time>2022-02-27T09:01:58.000Z</time>
      </trkpt>
      <trkpt lat="47.24871" lon="-2.29854">
        <ele>27.60000038147</ele>
        <time>2022-02-27T09:01:59.000Z</time>
      </trkpt>
      <trkpt lat="47.24877" lon="-2.2989">
        <ele>27.60000038147</ele>
        <time>2022-02-27T09:02:04.000Z</time>
      </trkpt>
      <trkpt lat="47.24881" lon="-2.29928">
        <ele>27.60000038147</ele>
        <time>2022-02-27T09:02:09.000Z</time>
      </trkpt>
      <trkpt lat="47.24883" lon="-2.29944">
        <ele>27.60000038147</ele>
        <time>2022-02-27T09:02:11.000Z</time>
      </trkpt>
      <trkpt lat="47.24885" lon="-2.29952">
        <ele>27.60000038147</ele>
        <time>2022-02-27T09:02:12.000Z</time>
      </trkpt>
      <trkpt lat="47.24894" lon="-2.29993">
        <ele>27.60000038147</ele>
        <time>2022-02-27T09:02:17.000Z</time>
      </trkpt>
      <trkpt lat="47.24903" lon="-2.30037">
        <ele>27.60000038147</ele>
        <time>2022-02-27T09:02:23.000Z</time>
      </trkpt>
      <trkpt lat="47.24902" lon="-2.30043">
        <ele>27.60000038147</ele>
        <time>2022-02-27T09:02:24.000Z</time>
      </trkpt>
      <trkpt lat="47.24911" lon="-2.30056">
        <ele>27.60000038147</ele>
        <time>2022-02-27T09:02:28.000Z</time>
      </trkpt>
      <trkpt lat="47.2492" lon="-2.30056">
        <ele>27.60000038147</ele>
        <time>2022-02-27T09:02:30.000Z</time>
      </trkpt>
      <trkpt lat="47.24934" lon="-2.30056">
        <ele>27.60000038147</ele>
        <time>2022-02-27T09:02:33.000Z</time>
      </trkpt>
      <trkpt lat="47.24945" lon="-2.30055">
        <ele>27.60000038147</ele>
        <time>2022-02-27T09:02:35.000Z</time>
      </trkpt>
      <trkpt lat="47.24959" lon="-2.30055">
        <ele>27.60000038147</ele>
        <time>2022-02-27T09:02:38.000Z</time>
      </trkpt>
      <trkpt lat="47.24998" lon="-2.30053">
        <ele>27.60000038147</ele>
        <time>2022-02-27T09:02:46.000Z</time>
      </trkpt>
      <trkpt lat="47.25003" lon="-2.30053">
        <ele>27.60000038147</ele>
        <time>2022-02-27T09:02:47.000Z</time>
      </trkpt>
      <trkpt lat="47.25023" lon="-2.30053">
        <ele>27.60000038147</ele>
        <time>2022-02-27T09:02:51.000Z</time>
      </trkpt>
      <trkpt lat="47.25058" lon="-2.30056">
        <ele>27.60000038147</ele>
        <time>2022-02-27T09:02:58.000Z</time>
      </trkpt>
      <trkpt lat="47.25063" lon="-2.30056">
        <ele>27</ele>
        <time>2022-02-27T09:02:59.000Z</time>
      </trkpt>
      <trkpt lat="47.25067" lon="-2.30057">
        <ele>26.60000038147</ele>
        <time>2022-02-27T09:03:00.000Z</time>
      </trkpt>
      <trkpt lat="47.25071" lon="-2.30059">
        <ele>26.200000762939</ele>
        <time>2022-02-27T09:03:01.000Z</time>
      </trkpt>
      <trkpt lat="47.25073" lon="-2.30063">
        <ele>25.799999237061</ele>
        <time>2022-02-27T09:03:02.000Z</time>
      </trkpt>
      <trkpt lat="47.25074" lon="-2.30068">
        <ele>25.39999961853</ele>
        <time>2022-02-27T09:03:03.000Z</time>
      </trkpt>
      <trkpt lat="47.25072" lon="-2.30088">
        <ele>25.39999961853</ele>
        <time>2022-02-27T09:03:06.000Z</time>
      </trkpt>
      <trkpt lat="47.25069" lon="-2.30129">
        <ele>25.39999961853</ele>
        <time>2022-02-27T09:03:12.000Z</time>
      </trkpt>
      <trkpt lat="47.25078" lon="-2.30137">
        <ele>25.39999961853</ele>
        <time>2022-02-27T09:03:15.000Z</time>
      </trkpt>
      <trkpt lat="47.25087" lon="-2.30136">
        <ele>25.39999961853</ele>
        <time>2022-02-27T09:03:17.000Z</time>
      </trkpt>
      <trkpt lat="47.25095" lon="-2.30134">
        <ele>25.39999961853</ele>
        <time>2022-02-27T09:03:19.000Z</time>
      </trkpt>
      <trkpt lat="47.25104" lon="-2.30132">
        <ele>25.39999961853</ele>
        <time>2022-02-27T09:03:21.000Z</time>
      </trkpt>
      <trkpt lat="47.25117" lon="-2.30129">
        <ele>25.39999961853</ele>
        <time>2022-02-27T09:03:24.000Z</time>
      </trkpt>
      <trkpt lat="47.25125" lon="-2.30127">
        <ele>25.39999961853</ele>
        <time>2022-02-27T09:03:26.000Z</time>
      </trkpt>
      <trkpt lat="47.2513" lon="-2.30127">
        <ele>25</ele>
        <time>2022-02-27T09:03:27.000Z</time>
      </trkpt>
      <trkpt lat="47.25135" lon="-2.30127">
        <ele>24.60000038147</ele>
        <time>2022-02-27T09:03:28.000Z</time>
      </trkpt>
      <trkpt lat="47.2514" lon="-2.30126">
        <ele>24.200000762939</ele>
        <time>2022-02-27T09:03:29.000Z</time>
      </trkpt>
      <trkpt lat="47.25145" lon="-2.30125">
        <ele>23.799999237061</ele>
        <time>2022-02-27T09:03:30.000Z</time>
      </trkpt>
      <trkpt lat="47.2515" lon="-2.30123">
        <ele>23.200000762939</ele>
        <time>2022-02-27T09:03:31.000Z</time>
      </trkpt>
      <trkpt lat="47.25178" lon="-2.30117">
        <ele>23.200000762939</ele>
        <time>2022-02-27T09:03:37.000Z</time>
      </trkpt>
      <trkpt lat="47.25189" lon="-2.30133">
        <ele>23.200000762939</ele>
        <time>2022-02-27T09:03:40.000Z</time>
      </trkpt>
      <trkpt lat="47.25192" lon="-2.3014">
        <ele>23.200000762939</ele>
        <time>2022-02-27T09:03:41.000Z</time>
      </trkpt>
      <trkpt lat="47.25195" lon="-2.30146">
        <ele>22.799999237061</ele>
        <time>2022-02-27T09:03:42.000Z</time>
      </trkpt>
      <trkpt lat="47.252" lon="-2.30151">
        <ele>22.39999961853</ele>
        <time>2022-02-27T09:03:43.000Z</time>
      </trkpt>
      <trkpt lat="47.25204" lon="-2.30156">
        <ele>22</ele>
        <time>2022-02-27T09:03:44.000Z</time>
      </trkpt>
      <trkpt lat="47.25208" lon="-2.30161">
        <ele>21.60000038147</ele>
        <time>2022-02-27T09:03:45.000Z</time>
      </trkpt>
      <trkpt lat="47.25213" lon="-2.30167">
        <ele>21.200000762939</ele>
        <time>2022-02-27T09:03:46.000Z</time>
      </trkpt>
      <trkpt lat="47.25218" lon="-2.30171">
        <ele>21.200000762939</ele>
        <time>2022-02-27T09:03:47.000Z</time>
      </trkpt>
      <trkpt lat="47.25235" lon="-2.3018">
        <ele>21.200000762939</ele>
        <time>2022-02-27T09:03:50.000Z</time>
      </trkpt>
      <trkpt lat="47.25251" lon="-2.30187">
        <ele>21.200000762939</ele>
        <time>2022-02-27T09:03:53.000Z</time>
      </trkpt>
      <trkpt lat="47.25262" lon="-2.30192">
        <ele>20.799999237061</ele>
        <time>2022-02-27T09:03:55.000Z</time>
      </trkpt>
      <trkpt lat="47.25267" lon="-2.30194">
        <ele>20.39999961853</ele>
        <time>2022-02-27T09:03:56.000Z</time>
      </trkpt>
      <trkpt lat="47.25272" lon="-2.30196">
        <ele>19.60000038147</ele>
        <time>2022-02-27T09:03:57.000Z</time>
      </trkpt>
      <trkpt lat="47.25278" lon="-2.30198">
        <ele>19.200000762939</ele>
        <time>2022-02-27T09:03:58.000Z</time>
      </trkpt>
      <trkpt lat="47.25288" lon="-2.30204">
        <ele>19.200000762939</ele>
        <time>2022-02-27T09:04:00.000Z</time>
      </trkpt>
      <trkpt lat="47.25304" lon="-2.3021">
        <ele>19.200000762939</ele>
        <time>2022-02-27T09:04:04.000Z</time>
      </trkpt>
      <trkpt lat="47.2531" lon="-2.30204">
        <ele>19.200000762939</ele>
        <time>2022-02-27T09:04:07.000Z</time>
      </trkpt>
      <trkpt lat="47.25318" lon="-2.30206">
        <ele>18.60000038147</ele>
        <time>2022-02-27T09:04:09.000Z</time>
      </trkpt>
      <trkpt lat="47.25323" lon="-2.30207">
        <ele>18.200000762939</ele>
        <time>2022-02-27T09:04:10.000Z</time>
      </trkpt>
      <trkpt lat="47.25327" lon="-2.30208">
        <ele>17.799999237061</ele>
        <time>2022-02-27T09:04:11.000Z</time>
      </trkpt>
      <trkpt lat="47.25332" lon="-2.30208">
        <ele>17.39999961853</ele>
        <time>2022-02-27T09:04:12.000Z</time>
      </trkpt>
      <trkpt lat="47.25337" lon="-2.30208">
        <ele>17</ele>
        <time>2022-02-27T09:04:13.000Z</time>
      </trkpt>
      <trkpt lat="47.2535" lon="-2.30209">
        <ele>17</ele>
        <time>2022-02-27T09:04:16.000Z</time>
      </trkpt>
      <trkpt lat="47.25377" lon="-2.30212">
        <ele>17</ele>
        <time>2022-02-27T09:04:22.000Z</time>
      </trkpt>
      <trkpt lat="47.25386" lon="-2.30214">
        <ele>17</ele>
        <time>2022-02-27T09:04:26.000Z</time>
      </trkpt>
      <trkpt lat="47.25391" lon="-2.30218">
        <ele>16.60000038147</ele>
        <time>2022-02-27T09:04:28.000Z</time>
      </trkpt>
      <trkpt lat="47.25394" lon="-2.3022">
        <ele>16.200000762939</ele>
        <time>2022-02-27T09:04:29.000Z</time>
      </trkpt>
      <trkpt lat="47.25396" lon="-2.30221">
        <ele>15.800000190735</ele>
        <time>2022-02-27T09:04:30.000Z</time>
      </trkpt>
      <trkpt lat="47.25399" lon="-2.30223">
        <ele>15.39999961853</ele>
        <time>2022-02-27T09:04:31.000Z</time>
      </trkpt>
      <trkpt lat="47.25402" lon="-2.30224">
        <ele>15</ele>
        <time>2022-02-27T09:04:32.000Z</time>
      </trkpt>
      <trkpt lat="47.25415" lon="-2.30228">
        <ele>15</ele>
        <time>2022-02-27T09:04:35.000Z</time>
      </trkpt>
      <trkpt lat="47.2542" lon="-2.30229">
        <ele>15</ele>
        <time>2022-02-27T09:04:36.000Z</time>
      </trkpt>
      <trkpt lat="47.25428" lon="-2.30232">
        <ele>15</ele>
        <time>2022-02-27T09:04:38.000Z</time>
      </trkpt>
      <trkpt lat="47.25437" lon="-2.30236">
        <ele>15</ele>
        <time>2022-02-27T09:04:40.000Z</time>
      </trkpt>
      <trkpt lat="47.2546" lon="-2.30243">
        <ele>15</ele>
        <time>2022-02-27T09:04:45.000Z</time>
      </trkpt>
      <trkpt lat="47.25464" lon="-2.30245">
        <ele>15</ele>
        <time>2022-02-27T09:04:46.000Z</time>
      </trkpt>
      <trkpt lat="47.25475" lon="-2.30242">
        <ele>15</ele>
        <time>2022-02-27T09:04:49.000Z</time>
      </trkpt>
      <trkpt lat="47.25479" lon="-2.30226">
        <ele>15</ele>
        <time>2022-02-27T09:04:52.000Z</time>
      </trkpt>
      <trkpt lat="47.25484" lon="-2.30212">
        <ele>14.60000038147</ele>
        <time>2022-02-27T09:04:55.000Z</time>
      </trkpt>
      <trkpt lat="47.25487" lon="-2.30208">
        <ele>14.199999809265</ele>
        <time>2022-02-27T09:04:56.000Z</time>
      </trkpt>
      <trkpt lat="47.2549" lon="-2.30204">
        <ele>13.800000190735</ele>
        <time>2022-02-27T09:04:57.000Z</time>
      </trkpt>
      <trkpt lat="47.25493" lon="-2.30199">
        <ele>13.39999961853</ele>
        <time>2022-02-27T09:04:58.000Z</time>
      </trkpt>
      <trkpt lat="47.25496" lon="-2.30196">
        <ele>13</ele>
        <time>2022-02-27T09:04:59.000Z</time>
      </trkpt>
      <trkpt lat="47.25505" lon="-2.30197">
        <ele>13</ele>
        <time>2022-02-27T09:05:01.000Z</time>
      </trkpt>
      <trkpt lat="47.25515" lon="-2.30198">
        <ele>13</ele>
        <time>2022-02-27T09:05:03.000Z</time>
      </trkpt>
      <trkpt lat="47.2552" lon="-2.30197">
        <ele>13</ele>
        <time>2022-02-27T09:05:04.000Z</time>
      </trkpt>
      <trkpt lat="47.25525" lon="-2.30196">
        <ele>13</ele>
        <time>2022-02-27T09:05:05.000Z</time>
      </trkpt>
      <trkpt lat="47.2555" lon="-2.30182">
        <ele>13</ele>
        <time>2022-02-27T09:05:10.000Z</time>
      </trkpt>
      <trkpt lat="47.25554" lon="-2.30178">
        <ele>13</ele>
        <time>2022-02-27T09:05:11.000Z</time>
      </trkpt>
      <trkpt lat="47.25561" lon="-2.3016">
        <ele>13</ele>
        <time>2022-02-27T09:05:14.000Z</time>
      </trkpt>
      <trkpt lat="47.25564" lon="-2.30135">
        <ele>13</ele>
        <time>2022-02-27T09:05:18.000Z</time>
      </trkpt>
      <trkpt lat="47.25565" lon="-2.3011">
        <ele>13</ele>
        <time>2022-02-27T09:05:22.000Z</time>
      </trkpt>
      <trkpt lat="47.25566" lon="-2.30104">
        <ele>13</ele>
        <time>2022-02-27T09:05:23.000Z</time>
      </trkpt>
      <trkpt lat="47.25575" lon="-2.30084">
        <ele>13</ele>
        <time>2022-02-27T09:05:27.000Z</time>
      </trkpt>
      <trkpt lat="47.2559" lon="-2.30065">
        <ele>13</ele>
        <time>2022-02-27T09:05:32.000Z</time>
      </trkpt>
      <trkpt lat="47.25606" lon="-2.30043">
        <ele>13</ele>
        <time>2022-02-27T09:05:37.000Z</time>
      </trkpt>
      <trkpt lat="47.25609" lon="-2.30038">
        <ele>13</ele>
        <time>2022-02-27T09:05:38.000Z</time>
      </trkpt>
      <trkpt lat="47.25611" lon="-2.30021">
        <ele>13.39999961853</ele>
        <time>2022-02-27T09:05:41.000Z</time>
      </trkpt>
      <trkpt lat="47.2561" lon="-2.30015">
        <ele>13.800000190735</ele>
        <time>2022-02-27T09:05:42.000Z</time>
      </trkpt>
      <trkpt lat="47.25609" lon="-2.30009">
        <ele>14.199999809265</ele>
        <time>2022-02-27T09:05:43.000Z</time>
      </trkpt>
      <trkpt lat="47.25607" lon="-2.30004">
        <ele>14.60000038147</ele>
        <time>2022-02-27T09:05:44.000Z</time>
      </trkpt>
      <trkpt lat="47.25604" lon="-2.3">
        <ele>15.199999809265</ele>
        <time>2022-02-27T09:05:45.000Z</time>
      </trkpt>
      <trkpt lat="47.25599" lon="-2.29991">
        <ele>15.199999809265</ele>
        <time>2022-02-27T09:05:47.000Z</time>
      </trkpt>
      <trkpt lat="47.25582" lon="-2.29965">
        <ele>15.199999809265</ele>
        <time>2022-02-27T09:05:53.000Z</time>
      </trkpt>
      <trkpt lat="47.25571" lon="-2.29946">
        <ele>15.60000038147</ele>
        <time>2022-02-27T09:05:57.000Z</time>
      </trkpt>
      <trkpt lat="47.25568" lon="-2.29941">
        <ele>16</ele>
        <time>2022-02-27T09:05:58.000Z</time>
      </trkpt>
      <trkpt lat="47.25565" lon="-2.29937">
        <ele>16.39999961853</ele>
        <time>2022-02-27T09:05:59.000Z</time>
      </trkpt>
      <trkpt lat="47.25563" lon="-2.29932">
        <ele>17.200000762939</ele>
        <time>2022-02-27T09:06:00.000Z</time>
      </trkpt>
      <trkpt lat="47.25551" lon="-2.29914">
        <ele>17.200000762939</ele>
        <time>2022-02-27T09:06:04.000Z</time>
      </trkpt>
      <trkpt lat="47.25545" lon="-2.29906">
        <ele>17.200000762939</ele>
        <time>2022-02-27T09:06:06.000Z</time>
      </trkpt>
      <trkpt lat="47.25538" lon="-2.29893">
        <ele>17.60000038147</ele>
        <time>2022-02-27T09:06:09.000Z</time>
      </trkpt>
      <trkpt lat="47.25536" lon="-2.29889">
        <ele>18</ele>
        <time>2022-02-27T09:06:10.000Z</time>
      </trkpt>
      <trkpt lat="47.25534" lon="-2.29884">
        <ele>18.39999961853</ele>
        <time>2022-02-27T09:06:11.000Z</time>
      </trkpt>
      <trkpt lat="47.25533" lon="-2.29878">
        <ele>18.799999237061</ele>
        <time>2022-02-27T09:06:12.000Z</time>
      </trkpt>
      <trkpt lat="47.25535" lon="-2.29872">
        <ele>19.200000762939</ele>
        <time>2022-02-27T09:06:13.000Z</time>
      </trkpt>
      <trkpt lat="47.25541" lon="-2.29861">
        <ele>19.200000762939</ele>
        <time>2022-02-27T09:06:15.000Z</time>
      </trkpt>
      <trkpt lat="47.25553" lon="-2.29845">
        <ele>19.200000762939</ele>
        <time>2022-02-27T09:06:18.000Z</time>
      </trkpt>
      <trkpt lat="47.2556" lon="-2.29834">
        <ele>19.200000762939</ele>
        <time>2022-02-27T09:06:20.000Z</time>
      </trkpt>
      <trkpt lat="47.25577" lon="-2.29813">
        <ele>18.799999237061</ele>
        <time>2022-02-27T09:06:25.000Z</time>
      </trkpt>
      <trkpt lat="47.25578" lon="-2.29808">
        <ele>18.39999961853</ele>
        <time>2022-02-27T09:06:26.000Z</time>
      </trkpt>
      <trkpt lat="47.25578" lon="-2.29804">
        <ele>18</ele>
        <time>2022-02-27T09:06:27.000Z</time>
      </trkpt>
      <trkpt lat="47.25577" lon="-2.29799">
        <ele>17.60000038147</ele>
        <time>2022-02-27T09:06:28.000Z</time>
      </trkpt>
      <trkpt lat="47.25575" lon="-2.29793">
        <ele>17.200000762939</ele>
        <time>2022-02-27T09:06:29.000Z</time>
      </trkpt>
      <trkpt lat="47.25567" lon="-2.29773">
        <ele>17.200000762939</ele>
        <time>2022-02-27T09:06:33.000Z</time>
      </trkpt>
      <trkpt lat="47.25563" lon="-2.29769">
        <ele>17.200000762939</ele>
        <time>2022-02-27T09:06:34.000Z</time>
      </trkpt>
      <trkpt lat="47.25547" lon="-2.29753">
        <ele>17.200000762939</ele>
        <time>2022-02-27T09:06:38.000Z</time>
      </trkpt>
      <trkpt lat="47.2553" lon="-2.29738">
        <ele>17.60000038147</ele>
        <time>2022-02-27T09:06:43.000Z</time>
      </trkpt>
      <trkpt lat="47.25524" lon="-2.29738">
        <ele>18</ele>
        <time>2022-02-27T09:06:44.000Z</time>
      </trkpt>
      <trkpt lat="47.25519" lon="-2.29739">
        <ele>18.39999961853</ele>
        <time>2022-02-27T09:06:45.000Z</time>
      </trkpt>
      <trkpt lat="47.25513" lon="-2.29739">
        <ele>18.799999237061</ele>
        <time>2022-02-27T09:06:46.000Z</time>
      </trkpt>
      <trkpt lat="47.25509" lon="-2.2974">
        <ele>19.200000762939</ele>
        <time>2022-02-27T09:06:47.000Z</time>
      </trkpt>
      <trkpt lat="47.25487" lon="-2.29743">
        <ele>19.60000038147</ele>
        <time>2022-02-27T09:06:52.000Z</time>
      </trkpt>
      <trkpt lat="47.25484" lon="-2.29738">
        <ele>20</ele>
        <time>2022-02-27T09:06:53.000Z</time>
      </trkpt>
      <trkpt lat="47.25482" lon="-2.29733">
        <ele>20.39999961853</ele>
        <time>2022-02-27T09:06:54.000Z</time>
      </trkpt>
      <trkpt lat="47.2548" lon="-2.29727">
        <ele>20.799999237061</ele>
        <time>2022-02-27T09:06:55.000Z</time>
      </trkpt>
      <trkpt lat="47.25479" lon="-2.29721">
        <ele>21.200000762939</ele>
        <time>2022-02-27T09:06:56.000Z</time>
      </trkpt>
      <trkpt lat="47.25478" lon="-2.29715">
        <ele>21.200000762939</ele>
        <time>2022-02-27T09:06:57.000Z</time>
      </trkpt>
      <trkpt lat="47.25477" lon="-2.29709">
        <ele>21.200000762939</ele>
        <time>2022-02-27T09:06:58.000Z</time>
      </trkpt>
      <trkpt lat="47.25471" lon="-2.29678">
        <ele>21.200000762939</ele>
        <time>2022-02-27T09:07:03.000Z</time>
      </trkpt>
      <trkpt lat="47.2547" lon="-2.29672">
        <ele>21.200000762939</ele>
        <time>2022-02-27T09:07:04.000Z</time>
      </trkpt>
      <trkpt lat="47.25465" lon="-2.29646">
        <ele>21.60000038147</ele>
        <time>2022-02-27T09:07:08.000Z</time>
      </trkpt>
      <trkpt lat="47.25463" lon="-2.29639">
        <ele>22</ele>
        <time>2022-02-27T09:07:09.000Z</time>
      </trkpt>
      <trkpt lat="47.25462" lon="-2.29633">
        <ele>22.39999961853</ele>
        <time>2022-02-27T09:07:10.000Z</time>
      </trkpt>
      <trkpt lat="47.2546" lon="-2.29627">
        <ele>22.799999237061</ele>
        <time>2022-02-27T09:07:11.000Z</time>
      </trkpt>
      <trkpt lat="47.25459" lon="-2.29621">
        <ele>23.200000762939</ele>
        <time>2022-02-27T09:07:12.000Z</time>
      </trkpt>
      <trkpt lat="47.25457" lon="-2.29615">
        <ele>23.200000762939</ele>
        <time>2022-02-27T09:07:13.000Z</time>
      </trkpt>
      <trkpt lat="47.25442" lon="-2.29567">
        <ele>23.200000762939</ele>
        <time>2022-02-27T09:07:21.000Z</time>
      </trkpt>
      <trkpt lat="47.25436" lon="-2.29549">
        <ele>23.200000762939</ele>
        <time>2022-02-27T09:07:24.000Z</time>
      </trkpt>
      <trkpt lat="47.25431" lon="-2.29523">
        <ele>23.200000762939</ele>
        <time>2022-02-27T09:07:28.000Z</time>
      </trkpt>
      <trkpt lat="47.2543" lon="-2.29516">
        <ele>23.200000762939</ele>
        <time>2022-02-27T09:07:29.000Z</time>
      </trkpt>
      <trkpt lat="47.25428" lon="-2.29482">
        <ele>23.60000038147</ele>
        <time>2022-02-27T09:07:34.000Z</time>
      </trkpt>
      <trkpt lat="47.25428" lon="-2.29475">
        <ele>24.200000762939</ele>
        <time>2022-02-27T09:07:35.000Z</time>
      </trkpt>
      <trkpt lat="47.25427" lon="-2.29468">
        <ele>24.60000038147</ele>
        <time>2022-02-27T09:07:36.000Z</time>
      </trkpt>
      <trkpt lat="47.25427" lon="-2.29461">
        <ele>25</ele>
        <time>2022-02-27T09:07:37.000Z</time>
      </trkpt>
      <trkpt lat="47.25427" lon="-2.29454">
        <ele>25.39999961853</ele>
        <time>2022-02-27T09:07:38.000Z</time>
      </trkpt>
      <trkpt lat="47.25427" lon="-2.2944">
        <ele>25.39999961853</ele>
        <time>2022-02-27T09:07:40.000Z</time>
      </trkpt>
      <trkpt lat="47.25426" lon="-2.29384">
        <ele>25.39999961853</ele>
        <time>2022-02-27T09:07:48.000Z</time>
      </trkpt>
      <trkpt lat="47.25426" lon="-2.29339">
        <ele>25.39999961853</ele>
        <time>2022-02-27T09:07:54.000Z</time>
      </trkpt>
      <trkpt lat="47.25425" lon="-2.29276">
        <ele>25.39999961853</ele>
        <time>2022-02-27T09:08:02.000Z</time>
      </trkpt>
      <trkpt lat="47.25424" lon="-2.2921">
        <ele>25.39999961853</ele>
        <time>2022-02-27T09:08:11.000Z</time>
      </trkpt>
      <trkpt lat="47.25428" lon="-2.29182">
        <ele>25.39999961853</ele>
        <time>2022-02-27T09:08:15.000Z</time>
      </trkpt>
      <trkpt lat="47.25431" lon="-2.29176">
        <ele>25.39999961853</ele>
        <time>2022-02-27T09:08:16.000Z</time>
      </trkpt>
      <trkpt lat="47.25436" lon="-2.29165">
        <ele>25.39999961853</ele>
        <time>2022-02-27T09:08:18.000Z</time>
      </trkpt>
      <trkpt lat="47.25447" lon="-2.2915">
        <ele>25.39999961853</ele>
        <time>2022-02-27T09:08:21.000Z</time>
      </trkpt>
      <trkpt lat="47.25456" lon="-2.29141">
        <ele>25.39999961853</ele>
        <time>2022-02-27T09:08:23.000Z</time>
      </trkpt>
      <trkpt lat="47.25475" lon="-2.29126">
        <ele>25.39999961853</ele>
        <time>2022-02-27T09:08:27.000Z</time>
      </trkpt>
      <trkpt lat="47.25508" lon="-2.29114">
        <ele>25.39999961853</ele>
        <time>2022-02-27T09:08:33.000Z</time>
      </trkpt>
      <trkpt lat="47.25532" lon="-2.29102">
        <ele>25.39999961853</ele>
        <time>2022-02-27T09:08:37.000Z</time>
      </trkpt>
      <trkpt lat="47.25536" lon="-2.29097">
        <ele>25</ele>
        <time>2022-02-27T09:08:38.000Z</time>
      </trkpt>
      <trkpt lat="47.25539" lon="-2.29089">
        <ele>24.39999961853</ele>
        <time>2022-02-27T09:08:39.000Z</time>
      </trkpt>
      <trkpt lat="47.25541" lon="-2.29081">
        <ele>24</ele>
        <time>2022-02-27T09:08:40.000Z</time>
      </trkpt>
      <trkpt lat="47.25542" lon="-2.29073">
        <ele>23.60000038147</ele>
        <time>2022-02-27T09:08:41.000Z</time>
      </trkpt>
      <trkpt lat="47.25541" lon="-2.29064">
        <ele>23.200000762939</ele>
        <time>2022-02-27T09:08:42.000Z</time>
      </trkpt>
      <trkpt lat="47.25539" lon="-2.29048">
        <ele>23.200000762939</ele>
        <time>2022-02-27T09:08:44.000Z</time>
      </trkpt>
      <trkpt lat="47.25537" lon="-2.2904">
        <ele>23.200000762939</ele>
        <time>2022-02-27T09:08:45.000Z</time>
      </trkpt>
      <trkpt lat="47.25538" lon="-2.29024">
        <ele>23.200000762939</ele>
        <time>2022-02-27T09:08:47.000Z</time>
      </trkpt>
      <trkpt lat="47.25541" lon="-2.29011">
        <ele>23.200000762939</ele>
        <time>2022-02-27T09:08:49.000Z</time>
      </trkpt>
      <trkpt lat="47.25557" lon="-2.28993">
        <ele>23.200000762939</ele>
        <time>2022-02-27T09:08:53.000Z</time>
      </trkpt>
      <trkpt lat="47.2557" lon="-2.28989">
        <ele>23.200000762939</ele>
        <time>2022-02-27T09:08:55.000Z</time>
      </trkpt>
      <trkpt lat="47.25581" lon="-2.2898">
        <ele>23.200000762939</ele>
        <time>2022-02-27T09:08:57.000Z</time>
      </trkpt>
      <trkpt lat="47.25583" lon="-2.28972">
        <ele>23.200000762939</ele>
        <time>2022-02-27T09:08:58.000Z</time>
      </trkpt>
      <trkpt lat="47.25584" lon="-2.28947">
        <ele>23.200000762939</ele>
        <time>2022-02-27T09:09:01.000Z</time>
      </trkpt>
      <trkpt lat="47.25579" lon="-2.28923">
        <ele>23.200000762939</ele>
        <time>2022-02-27T09:09:04.000Z</time>
      </trkpt>
      <trkpt lat="47.25575" lon="-2.28898">
        <ele>23.200000762939</ele>
        <time>2022-02-27T09:09:07.000Z</time>
      </trkpt>
      <trkpt lat="47.25565" lon="-2.2885">
        <ele>23.200000762939</ele>
        <time>2022-02-27T09:09:13.000Z</time>
      </trkpt>
      <trkpt lat="47.25548" lon="-2.28796">
        <ele>23.200000762939</ele>
        <time>2022-02-27T09:09:20.000Z</time>
      </trkpt>
      <trkpt lat="47.25544" lon="-2.28781">
        <ele>23.200000762939</ele>
        <time>2022-02-27T09:09:22.000Z</time>
      </trkpt>
      <trkpt lat="47.25537" lon="-2.28749">
        <ele>23.200000762939</ele>
        <time>2022-02-27T09:09:26.000Z</time>
      </trkpt>
      <trkpt lat="47.25536" lon="-2.28741">
        <ele>23.200000762939</ele>
        <time>2022-02-27T09:09:27.000Z</time>
      </trkpt>
      <trkpt lat="47.2553" lon="-2.287">
        <ele>23.200000762939</ele>
        <time>2022-02-27T09:09:32.000Z</time>
      </trkpt>
      <trkpt lat="47.25523" lon="-2.2865">
        <ele>23.200000762939</ele>
        <time>2022-02-27T09:09:38.000Z</time>
      </trkpt>
      <trkpt lat="47.25522" lon="-2.28642">
        <ele>23.200000762939</ele>
        <time>2022-02-27T09:09:39.000Z</time>
      </trkpt>
      <trkpt lat="47.2552" lon="-2.28602">
        <ele>23.60000038147</ele>
        <time>2022-02-27T09:09:44.000Z</time>
      </trkpt>
      <trkpt lat="47.25519" lon="-2.28594">
        <ele>24</ele>
        <time>2022-02-27T09:09:45.000Z</time>
      </trkpt>
      <trkpt lat="47.25519" lon="-2.28586">
        <ele>24.39999961853</ele>
        <time>2022-02-27T09:09:46.000Z</time>
      </trkpt>
      <trkpt lat="47.25518" lon="-2.28579">
        <ele>24.799999237061</ele>
        <time>2022-02-27T09:09:47.000Z</time>
      </trkpt>
      <trkpt lat="47.25518" lon="-2.28571">
        <ele>25.200000762939</ele>
        <time>2022-02-27T09:09:48.000Z</time>
      </trkpt>
      <trkpt lat="47.25516" lon="-2.28547">
        <ele>25.200000762939</ele>
        <time>2022-02-27T09:09:51.000Z</time>
      </trkpt>
      <trkpt lat="47.25516" lon="-2.28499">
        <ele>25.200000762939</ele>
        <time>2022-02-27T09:09:57.000Z</time>
      </trkpt>
      <trkpt lat="47.25518" lon="-2.28443">
        <ele>25.200000762939</ele>
        <time>2022-02-27T09:10:04.000Z</time>
      </trkpt>
      <trkpt lat="47.25521" lon="-2.28407">
        <ele>25.200000762939</ele>
        <time>2022-02-27T09:10:09.000Z</time>
      </trkpt>
      <trkpt lat="47.2552" lon="-2.28394">
        <ele>25.200000762939</ele>
        <time>2022-02-27T09:10:11.000Z</time>
      </trkpt>
      <trkpt lat="47.2552" lon="-2.28388">
        <ele>25.60000038147</ele>
        <time>2022-02-27T09:10:12.000Z</time>
      </trkpt>
      <trkpt lat="47.25519" lon="-2.28382">
        <ele>26</ele>
        <time>2022-02-27T09:10:13.000Z</time>
      </trkpt>
      <trkpt lat="47.25518" lon="-2.28377">
        <ele>26.39999961853</ele>
        <time>2022-02-27T09:10:14.000Z</time>
      </trkpt>
      <trkpt lat="47.25518" lon="-2.28372">
        <ele>26.799999237061</ele>
        <time>2022-02-27T09:10:15.000Z</time>
      </trkpt>
      <trkpt lat="47.25517" lon="-2.28367">
        <ele>27.200000762939</ele>
        <time>2022-02-27T09:10:16.000Z</time>
      </trkpt>
      <trkpt lat="47.25517" lon="-2.28362">
        <ele>27.200000762939</ele>
        <time>2022-02-27T09:10:17.000Z</time>
      </trkpt>
      <trkpt lat="47.25524" lon="-2.28346">
        <ele>27.200000762939</ele>
        <time>2022-02-27T09:10:21.000Z</time>
      </trkpt>
      <trkpt lat="47.25526" lon="-2.28344">
        <ele>27.200000762939</ele>
        <time>2022-02-27T09:10:22.000Z</time>
      </trkpt>
      <trkpt lat="47.2553" lon="-2.28327">
        <ele>27.200000762939</ele>
        <time>2022-02-27T09:10:25.000Z</time>
      </trkpt>
      <trkpt lat="47.25533" lon="-2.283">
        <ele>27.200000762939</ele>
        <time>2022-02-27T09:10:29.000Z</time>
      </trkpt>
      <trkpt lat="47.25534" lon="-2.28293">
        <ele>27.200000762939</ele>
        <time>2022-02-27T09:10:30.000Z</time>
      </trkpt>
      <trkpt lat="47.25537" lon="-2.28264">
        <ele>27.60000038147</ele>
        <time>2022-02-27T09:10:35.000Z</time>
      </trkpt>
      <trkpt lat="47.25536" lon="-2.28259">
        <ele>28</ele>
        <time>2022-02-27T09:10:36.000Z</time>
      </trkpt>
      <trkpt lat="47.25536" lon="-2.28254">
        <ele>28.39999961853</ele>
        <time>2022-02-27T09:10:37.000Z</time>
      </trkpt>
      <trkpt lat="47.25537" lon="-2.28249">
        <ele>28.799999237061</ele>
        <time>2022-02-27T09:10:38.000Z</time>
      </trkpt>
      <trkpt lat="47.25538" lon="-2.28243">
        <ele>29.200000762939</ele>
        <time>2022-02-27T09:10:39.000Z</time>
      </trkpt>
      <trkpt lat="47.25539" lon="-2.28237">
        <ele>29.200000762939</ele>
        <time>2022-02-27T09:10:40.000Z</time>
      </trkpt>
      <trkpt lat="47.25541" lon="-2.28231">
        <ele>29.200000762939</ele>
        <time>2022-02-27T09:10:41.000Z</time>
      </trkpt>
      <trkpt lat="47.25542" lon="-2.28224">
        <ele>29.200000762939</ele>
        <time>2022-02-27T09:10:42.000Z</time>
      </trkpt>
      <trkpt lat="47.25549" lon="-2.28191">
        <ele>29.200000762939</ele>
        <time>2022-02-27T09:10:47.000Z</time>
      </trkpt>
      <trkpt lat="47.2555" lon="-2.28184">
        <ele>29.200000762939</ele>
        <time>2022-02-27T09:10:48.000Z</time>
      </trkpt>
      <trkpt lat="47.2556" lon="-2.28151">
        <ele>29.60000038147</ele>
        <time>2022-02-27T09:10:53.000Z</time>
      </trkpt>
      <trkpt lat="47.25562" lon="-2.28146">
        <ele>30</ele>
        <time>2022-02-27T09:10:54.000Z</time>
      </trkpt>
      <trkpt lat="47.25564" lon="-2.2814">
        <ele>30.60000038147</ele>
        <time>2022-02-27T09:10:55.000Z</time>
      </trkpt>
      <trkpt lat="47.25567" lon="-2.28135">
        <ele>31.39999961853</ele>
        <time>2022-02-27T09:10:56.000Z</time>
      </trkpt>
      <trkpt lat="47.25574" lon="-2.28124">
        <ele>31.39999961853</ele>
        <time>2022-02-27T09:10:58.000Z</time>
      </trkpt>
      <trkpt lat="47.25584" lon="-2.28108">
        <ele>31.39999961853</ele>
        <time>2022-02-27T09:11:01.000Z</time>
      </trkpt>
      <trkpt lat="47.25592" lon="-2.28099">
        <ele>31.39999961853</ele>
        <time>2022-02-27T09:11:03.000Z</time>
      </trkpt>
      <trkpt lat="47.25619" lon="-2.28066">
        <ele>31.39999961853</ele>
        <time>2022-02-27T09:11:10.000Z</time>
      </trkpt>
      <trkpt lat="47.25634" lon="-2.28048">
        <ele>31.39999961853</ele>
        <time>2022-02-27T09:11:14.000Z</time>
      </trkpt>
      <trkpt lat="47.25645" lon="-2.28035">
        <ele>31.39999961853</ele>
        <time>2022-02-27T09:11:17.000Z</time>
      </trkpt>
      <trkpt lat="47.25666" lon="-2.2801">
        <ele>31.39999961853</ele>
        <time>2022-02-27T09:11:23.000Z</time>
      </trkpt>
      <trkpt lat="47.25675" lon="-2.27991">
        <ele>31.39999961853</ele>
        <time>2022-02-27T09:11:27.000Z</time>
      </trkpt>
      <trkpt lat="47.25674" lon="-2.27985">
        <ele>31.39999961853</ele>
        <time>2022-02-27T09:11:28.000Z</time>
      </trkpt>
      <trkpt lat="47.25666" lon="-2.27967">
        <ele>31.39999961853</ele>
        <time>2022-02-27T09:11:31.000Z</time>
      </trkpt>
      <trkpt lat="47.25663" lon="-2.27961">
        <ele>31.39999961853</ele>
        <time>2022-02-27T09:11:32.000Z</time>
      </trkpt>
      <trkpt lat="47.25646" lon="-2.27925">
        <ele>31.39999961853</ele>
        <time>2022-02-27T09:11:38.000Z</time>
      </trkpt>
      <trkpt lat="47.25638" lon="-2.27916">
        <ele>31.39999961853</ele>
        <time>2022-02-27T09:11:40.000Z</time>
      </trkpt>
      <trkpt lat="47.25625" lon="-2.27904">
        <ele>31.39999961853</ele>
        <time>2022-02-27T09:11:43.000Z</time>
      </trkpt>
      <trkpt lat="47.25595" lon="-2.27877">
        <ele>31.39999961853</ele>
        <time>2022-02-27T09:11:49.000Z</time>
      </trkpt>
      <trkpt lat="47.25564" lon="-2.27838">
        <ele>31.39999961853</ele>
        <time>2022-02-27T09:11:56.000Z</time>
      </trkpt>
      <trkpt lat="47.25559" lon="-2.27832">
        <ele>31.39999961853</ele>
        <time>2022-02-27T09:11:57.000Z</time>
      </trkpt>
      <trkpt lat="47.25522" lon="-2.27772">
        <ele>31.39999961853</ele>
        <time>2022-02-27T09:12:06.000Z</time>
      </trkpt>
      <trkpt lat="47.2551" lon="-2.27751">
        <ele>31</ele>
        <time>2022-02-27T09:12:09.000Z</time>
      </trkpt>
      <trkpt lat="47.25507" lon="-2.27744">
        <ele>30.200000762939</ele>
        <time>2022-02-27T09:12:10.000Z</time>
      </trkpt>
      <trkpt lat="47.25505" lon="-2.27736">
        <ele>29.799999237061</ele>
        <time>2022-02-27T09:12:11.000Z</time>
      </trkpt>
      <trkpt lat="47.25503" lon="-2.27728">
        <ele>29.39999961853</ele>
        <time>2022-02-27T09:12:12.000Z</time>
      </trkpt>
      <trkpt lat="47.25495" lon="-2.2769">
        <ele>29.39999961853</ele>
        <time>2022-02-27T09:12:16.000Z</time>
      </trkpt>
      <trkpt lat="47.25486" lon="-2.27639">
        <ele>29.39999961853</ele>
        <time>2022-02-27T09:12:22.000Z</time>
      </trkpt>
      <trkpt lat="47.25484" lon="-2.27601">
        <ele>29.39999961853</ele>
        <time>2022-02-27T09:12:27.000Z</time>
      </trkpt>
      <trkpt lat="47.25483" lon="-2.27595">
        <ele>29.39999961853</ele>
        <time>2022-02-27T09:12:28.000Z</time>
      </trkpt>
      <trkpt lat="47.25483" lon="-2.27576">
        <ele>29.39999961853</ele>
        <time>2022-02-27T09:12:33.000Z</time>
      </trkpt>
      <trkpt lat="47.25482" lon="-2.27551">
        <ele>29.39999961853</ele>
        <time>2022-02-27T09:12:40.000Z</time>
      </trkpt>
      <trkpt lat="47.25483" lon="-2.27521">
        <ele>29.39999961853</ele>
        <time>2022-02-27T09:12:46.000Z</time>
      </trkpt>
      <trkpt lat="47.25485" lon="-2.27494">
        <ele>29.39999961853</ele>
        <time>2022-02-27T09:12:52.000Z</time>
      </trkpt>
      <trkpt lat="47.25492" lon="-2.27468">
        <ele>29.39999961853</ele>
        <time>2022-02-27T09:12:58.000Z</time>
      </trkpt>
      <trkpt lat="47.25501" lon="-2.27434">
        <ele>29.39999961853</ele>
        <time>2022-02-27T09:13:05.000Z</time>
      </trkpt>
      <trkpt lat="47.25509" lon="-2.27398">
        <ele>29.39999961853</ele>
        <time>2022-02-27T09:13:12.000Z</time>
      </trkpt>
      <trkpt lat="47.25515" lon="-2.27377">
        <ele>29.799999237061</ele>
        <time>2022-02-27T09:13:16.000Z</time>
      </trkpt>
      <trkpt lat="47.25516" lon="-2.27372">
        <ele>30.200000762939</ele>
        <time>2022-02-27T09:13:17.000Z</time>
      </trkpt>
      <trkpt lat="47.25517" lon="-2.27367">
        <ele>30.60000038147</ele>
        <time>2022-02-27T09:13:18.000Z</time>
      </trkpt>
      <trkpt lat="47.25518" lon="-2.27362">
        <ele>31</ele>
        <time>2022-02-27T09:13:19.000Z</time>
      </trkpt>
      <trkpt lat="47.2552" lon="-2.27357">
        <ele>31.39999961853</ele>
        <time>2022-02-27T09:13:20.000Z</time>
      </trkpt>
      <trkpt lat="47.25529" lon="-2.27319">
        <ele>31.39999961853</ele>
        <time>2022-02-27T09:13:27.000Z</time>
      </trkpt>
      <trkpt lat="47.25532" lon="-2.27286">
        <ele>31.39999961853</ele>
        <time>2022-02-27T09:13:33.000Z</time>
      </trkpt>
      <trkpt lat="47.25533" lon="-2.27268">
        <ele>31.39999961853</ele>
        <time>2022-02-27T09:13:36.000Z</time>
      </trkpt>
      <trkpt lat="47.25532" lon="-2.27248">
        <ele>31.39999961853</ele>
        <time>2022-02-27T09:13:39.000Z</time>
      </trkpt>
      <trkpt lat="47.2554" lon="-2.27221">
        <ele>31.39999961853</ele>
        <time>2022-02-27T09:13:43.000Z</time>
      </trkpt>
      <trkpt lat="47.25542" lon="-2.27215">
        <ele>31.39999961853</ele>
        <time>2022-02-27T09:13:44.000Z</time>
      </trkpt>
      <trkpt lat="47.25557" lon="-2.27179">
        <ele>31.39999961853</ele>
        <time>2022-02-27T09:13:50.000Z</time>
      </trkpt>
      <trkpt lat="47.25574" lon="-2.27139">
        <ele>31.39999961853</ele>
        <time>2022-02-27T09:13:57.000Z</time>
      </trkpt>
      <trkpt lat="47.25577" lon="-2.27128">
        <ele>31.39999961853</ele>
        <time>2022-02-27T09:13:59.000Z</time>
      </trkpt>
      <trkpt lat="47.25572" lon="-2.27117">
        <ele>31.39999961853</ele>
        <time>2022-02-27T09:14:01.000Z</time>
      </trkpt>
      <trkpt lat="47.25565" lon="-2.2711">
        <ele>31.39999961853</ele>
        <time>2022-02-27T09:14:03.000Z</time>
      </trkpt>
      <trkpt lat="47.25557" lon="-2.27102">
        <ele>31.39999961853</ele>
        <time>2022-02-27T09:14:05.000Z</time>
      </trkpt>
      <trkpt lat="47.25533" lon="-2.2707">
        <ele>31.39999961853</ele>
        <time>2022-02-27T09:14:12.000Z</time>
      </trkpt>
      <trkpt lat="47.25532" lon="-2.2705">
        <ele>31.39999961853</ele>
        <time>2022-02-27T09:14:15.000Z</time>
      </trkpt>
      <trkpt lat="47.25534" lon="-2.27029">
        <ele>31.39999961853</ele>
        <time>2022-02-27T09:14:18.000Z</time>
      </trkpt>
      <trkpt lat="47.25535" lon="-2.27022">
        <ele>31.39999961853</ele>
        <time>2022-02-27T09:14:19.000Z</time>
      </trkpt>
      <trkpt lat="47.25536" lon="-2.27016">
        <ele>31.39999961853</ele>
        <time>2022-02-27T09:14:20.000Z</time>
      </trkpt>
      <trkpt lat="47.25537" lon="-2.27008">
        <ele>31.39999961853</ele>
        <time>2022-02-27T09:14:21.000Z</time>
      </trkpt>
      <trkpt lat="47.25539" lon="-2.2697">
        <ele>31.39999961853</ele>
        <time>2022-02-27T09:14:26.000Z</time>
      </trkpt>
      <trkpt lat="47.25535" lon="-2.2695">
        <ele>31.39999961853</ele>
        <time>2022-02-27T09:14:30.000Z</time>
      </trkpt>
      <trkpt lat="47.25532" lon="-2.26942">
        <ele>31.39999961853</ele>
        <time>2022-02-27T09:14:33.000Z</time>
      </trkpt>
      <trkpt lat="47.25519" lon="-2.26931">
        <ele>31.39999961853</ele>
        <time>2022-02-27T09:14:37.000Z</time>
      </trkpt>
      <trkpt lat="47.25514" lon="-2.26929">
        <ele>31.39999961853</ele>
        <time>2022-02-27T09:14:38.000Z</time>
      </trkpt>
      <trkpt lat="47.25497" lon="-2.26928">
        <ele>31.39999961853</ele>
        <time>2022-02-27T09:14:41.000Z</time>
      </trkpt>
      <trkpt lat="47.25454" lon="-2.26924">
        <ele>31.39999961853</ele>
        <time>2022-02-27T09:14:48.000Z</time>
      </trkpt>
      <trkpt lat="47.2541" lon="-2.26917">
        <ele>31.39999961853</ele>
        <time>2022-02-27T09:14:56.000Z</time>
      </trkpt>
      <trkpt lat="47.25383" lon="-2.26909">
        <ele>31.39999961853</ele>
        <time>2022-02-27T09:15:01.000Z</time>
      </trkpt>
      <trkpt lat="47.2538" lon="-2.26902">
        <ele>31.39999961853</ele>
        <time>2022-02-27T09:15:02.000Z</time>
      </trkpt>
      <trkpt lat="47.25379" lon="-2.26879">
        <ele>31.39999961853</ele>
        <time>2022-02-27T09:15:05.000Z</time>
      </trkpt>
      <trkpt lat="47.2538" lon="-2.26871">
        <ele>31.39999961853</ele>
        <time>2022-02-27T09:15:06.000Z</time>
      </trkpt>
      <trkpt lat="47.25381" lon="-2.26857">
        <ele>31.39999961853</ele>
        <time>2022-02-27T09:15:08.000Z</time>
      </trkpt>
      <trkpt lat="47.25383" lon="-2.26835">
        <ele>31.39999961853</ele>
        <time>2022-02-27T09:15:11.000Z</time>
      </trkpt>
      <trkpt lat="47.25385" lon="-2.26827">
        <ele>31.39999961853</ele>
        <time>2022-02-27T09:15:12.000Z</time>
      </trkpt>
      <trkpt lat="47.2539" lon="-2.26814">
        <ele>31</ele>
        <time>2022-02-27T09:15:14.000Z</time>
      </trkpt>
      <trkpt lat="47.25395" lon="-2.26808">
        <ele>30.60000038147</ele>
        <time>2022-02-27T09:15:15.000Z</time>
      </trkpt>
      <trkpt lat="47.25399" lon="-2.26802">
        <ele>30.200000762939</ele>
        <time>2022-02-27T09:15:16.000Z</time>
      </trkpt>
      <trkpt lat="47.25403" lon="-2.26798">
        <ele>29.799999237061</ele>
        <time>2022-02-27T09:15:17.000Z</time>
      </trkpt>
      <trkpt lat="47.25408" lon="-2.26793">
        <ele>29.39999961853</ele>
        <time>2022-02-27T09:15:18.000Z</time>
      </trkpt>
      <trkpt lat="47.25423" lon="-2.26777">
        <ele>29.39999961853</ele>
        <time>2022-02-27T09:15:21.000Z</time>
      </trkpt>
      <trkpt lat="47.25449" lon="-2.26752">
        <ele>29</ele>
        <time>2022-02-27T09:15:26.000Z</time>
      </trkpt>
      <trkpt lat="47.25454" lon="-2.26745">
        <ele>28.60000038147</ele>
        <time>2022-02-27T09:15:27.000Z</time>
      </trkpt>
      <trkpt lat="47.25458" lon="-2.26739">
        <ele>27.60000038147</ele>
        <time>2022-02-27T09:15:28.000Z</time>
      </trkpt>
      <trkpt lat="47.25462" lon="-2.26733">
        <ele>27.200000762939</ele>
        <time>2022-02-27T09:15:29.000Z</time>
      </trkpt>
      <trkpt lat="47.25466" lon="-2.26728">
        <ele>26.799999237061</ele>
        <time>2022-02-27T09:15:30.000Z</time>
      </trkpt>
      <trkpt lat="47.25469" lon="-2.26724">
        <ele>26.39999961853</ele>
        <time>2022-02-27T09:15:31.000Z</time>
      </trkpt>
      <trkpt lat="47.25472" lon="-2.2672">
        <ele>26</ele>
        <time>2022-02-27T09:15:32.000Z</time>
      </trkpt>
      <trkpt lat="47.25475" lon="-2.26715">
        <ele>25.60000038147</ele>
        <time>2022-02-27T09:15:33.000Z</time>
      </trkpt>
      <trkpt lat="47.25477" lon="-2.26711">
        <ele>25.200000762939</ele>
        <time>2022-02-27T09:15:34.000Z</time>
      </trkpt>
      <trkpt lat="47.25477" lon="-2.26695">
        <ele>25.200000762939</ele>
        <time>2022-02-27T09:15:36.000Z</time>
      </trkpt>
      <trkpt lat="47.25472" lon="-2.26673">
        <ele>25.200000762939</ele>
        <time>2022-02-27T09:15:39.000Z</time>
      </trkpt>
      <trkpt lat="47.25463" lon="-2.26667">
        <ele>25.200000762939</ele>
        <time>2022-02-27T09:15:41.000Z</time>
      </trkpt>
      <trkpt lat="47.25459" lon="-2.26663">
        <ele>25.200000762939</ele>
        <time>2022-02-27T09:15:42.000Z</time>
      </trkpt>
      <trkpt lat="47.25449" lon="-2.26646">
        <ele>25.200000762939</ele>
        <time>2022-02-27T09:15:45.000Z</time>
      </trkpt>
      <trkpt lat="47.25444" lon="-2.26635">
        <ele>25.200000762939</ele>
        <time>2022-02-27T09:15:47.000Z</time>
      </trkpt>
      <trkpt lat="47.25444" lon="-2.26627">
        <ele>25.200000762939</ele>
        <time>2022-02-27T09:15:48.000Z</time>
      </trkpt>
      <trkpt lat="47.25444" lon="-2.2661">
        <ele>25.200000762939</ele>
        <time>2022-02-27T09:15:50.000Z</time>
      </trkpt>
      <trkpt lat="47.25443" lon="-2.26601">
        <ele>24.799999237061</ele>
        <time>2022-02-27T09:15:51.000Z</time>
      </trkpt>
      <trkpt lat="47.25441" lon="-2.26592">
        <ele>24.200000762939</ele>
        <time>2022-02-27T09:15:52.000Z</time>
      </trkpt>
      <trkpt lat="47.25439" lon="-2.26583">
        <ele>23.39999961853</ele>
        <time>2022-02-27T09:15:53.000Z</time>
      </trkpt>
      <trkpt lat="47.25436" lon="-2.26574">
        <ele>23</ele>
        <time>2022-02-27T09:15:54.000Z</time>
      </trkpt>
      <trkpt lat="47.25424" lon="-2.26542">
        <ele>23</ele>
        <time>2022-02-27T09:15:58.000Z</time>
      </trkpt>
      <trkpt lat="47.25423" lon="-2.26522">
        <ele>23</ele>
        <time>2022-02-27T09:16:01.000Z</time>
      </trkpt>
      <trkpt lat="47.25423" lon="-2.26515">
        <ele>23</ele>
        <time>2022-02-27T09:16:02.000Z</time>
      </trkpt>
      <trkpt lat="47.25415" lon="-2.26488">
        <ele>23</ele>
        <time>2022-02-27T09:16:07.000Z</time>
      </trkpt>
      <trkpt lat="47.25408" lon="-2.26454">
        <ele>23</ele>
        <time>2022-02-27T09:16:11.000Z</time>
      </trkpt>
      <trkpt lat="47.25403" lon="-2.26417">
        <ele>22.60000038147</ele>
        <time>2022-02-27T09:16:15.000Z</time>
      </trkpt>
      <trkpt lat="47.25402" lon="-2.26407">
        <ele>22.200000762939</ele>
        <time>2022-02-27T09:16:16.000Z</time>
      </trkpt>
      <trkpt lat="47.25401" lon="-2.26397">
        <ele>21.39999961853</ele>
        <time>2022-02-27T09:16:17.000Z</time>
      </trkpt>
      <trkpt lat="47.254" lon="-2.26387">
        <ele>21</ele>
        <time>2022-02-27T09:16:18.000Z</time>
      </trkpt>
      <trkpt lat="47.25398" lon="-2.26354">
        <ele>21</ele>
        <time>2022-02-27T09:16:22.000Z</time>
      </trkpt>
      <trkpt lat="47.25397" lon="-2.26348">
        <ele>21</ele>
        <time>2022-02-27T09:16:23.000Z</time>
      </trkpt>
      <trkpt lat="47.25396" lon="-2.26327">
        <ele>21</ele>
        <time>2022-02-27T09:16:27.000Z</time>
      </trkpt>
      <trkpt lat="47.25393" lon="-2.26302">
        <ele>21</ele>
        <time>2022-02-27T09:16:31.000Z</time>
      </trkpt>
      <trkpt lat="47.25388" lon="-2.26284">
        <ele>21</ele>
        <time>2022-02-27T09:16:34.000Z</time>
      </trkpt>
      <trkpt lat="47.25387" lon="-2.26274">
        <ele>21</ele>
        <time>2022-02-27T09:16:36.000Z</time>
      </trkpt>
      <trkpt lat="47.25389" lon="-2.26261">
        <ele>20.39999961853</ele>
        <time>2022-02-27T09:16:38.000Z</time>
      </trkpt>
      <trkpt lat="47.2539" lon="-2.26254">
        <ele>20</ele>
        <time>2022-02-27T09:16:39.000Z</time>
      </trkpt>
      <trkpt lat="47.25391" lon="-2.26245">
        <ele>19.60000038147</ele>
        <time>2022-02-27T09:16:40.000Z</time>
      </trkpt>
      <trkpt lat="47.25388" lon="-2.26234">
        <ele>19</ele>
        <time>2022-02-27T09:16:41.000Z</time>
      </trkpt>
      <trkpt lat="47.25386" lon="-2.26225">
        <ele>18</ele>
        <time>2022-02-27T09:16:42.000Z</time>
      </trkpt>
      <trkpt lat="47.25382" lon="-2.26217">
        <ele>17.39999961853</ele>
        <time>2022-02-27T09:16:43.000Z</time>
      </trkpt>
      <trkpt lat="47.25378" lon="-2.26212">
        <ele>16.799999237061</ele>
        <time>2022-02-27T09:16:44.000Z</time>
      </trkpt>
      <trkpt lat="47.25375" lon="-2.26207">
        <ele>16.200000762939</ele>
        <time>2022-02-27T09:16:45.000Z</time>
      </trkpt>
      <trkpt lat="47.2537" lon="-2.26197">
        <ele>16.200000762939</ele>
        <time>2022-02-27T09:16:47.000Z</time>
      </trkpt>
      <trkpt lat="47.25369" lon="-2.26188">
        <ele>16.200000762939</ele>
        <time>2022-02-27T09:16:48.000Z</time>
      </trkpt>
      <trkpt lat="47.25364" lon="-2.26163">
        <ele>16.200000762939</ele>
        <time>2022-02-27T09:16:51.000Z</time>
      </trkpt>
      <trkpt lat="47.25365" lon="-2.26153">
        <ele>16.200000762939</ele>
        <time>2022-02-27T09:16:52.000Z</time>
      </trkpt>
      <trkpt lat="47.25368" lon="-2.26145">
        <ele>15.800000190735</ele>
        <time>2022-02-27T09:16:53.000Z</time>
      </trkpt>
      <trkpt lat="47.25371" lon="-2.26136">
        <ele>15.39999961853</ele>
        <time>2022-02-27T09:16:54.000Z</time>
      </trkpt>
      <trkpt lat="47.25372" lon="-2.26133">
        <ele>14.800000190735</ele>
        <time>2022-02-27T09:16:55.000Z</time>
      </trkpt>
      <trkpt lat="47.25375" lon="-2.26131">
        <ele>14.39999961853</ele>
        <time>2022-02-27T09:16:56.000Z</time>
      </trkpt>
      <trkpt lat="47.25379" lon="-2.26129">
        <ele>13.800000190735</ele>
        <time>2022-02-27T09:16:57.000Z</time>
      </trkpt>
      <trkpt lat="47.25382" lon="-2.26127">
        <ele>13.199999809265</ele>
        <time>2022-02-27T09:16:58.000Z</time>
      </trkpt>
      <trkpt lat="47.25383" lon="-2.26121">
        <ele>12.60000038147</ele>
        <time>2022-02-27T09:16:59.000Z</time>
      </trkpt>
      <trkpt lat="47.25383" lon="-2.26115">
        <ele>12</ele>
        <time>2022-02-27T09:17:00.000Z</time>
      </trkpt>
      <trkpt lat="47.25382" lon="-2.26108">
        <ele>11.39999961853</ele>
        <time>2022-02-27T09:17:01.000Z</time>
      </trkpt>
      <trkpt lat="47.25383" lon="-2.26086">
        <ele>11.39999961853</ele>
        <time>2022-02-27T09:17:04.000Z</time>
      </trkpt>
      <trkpt lat="47.25383" lon="-2.26076">
        <ele>11.39999961853</ele>
        <time>2022-02-27T09:17:05.000Z</time>
      </trkpt>
      <trkpt lat="47.25385" lon="-2.26059">
        <ele>11.39999961853</ele>
        <time>2022-02-27T09:17:08.000Z</time>
      </trkpt>
      <trkpt lat="47.25385" lon="-2.26054">
        <ele>11.39999961853</ele>
        <time>2022-02-27T09:17:09.000Z</time>
      </trkpt>
      <trkpt lat="47.25382" lon="-2.2604">
        <ele>11.39999961853</ele>
        <time>2022-02-27T09:17:13.000Z</time>
      </trkpt>
      <trkpt lat="47.25377" lon="-2.26033">
        <ele>11.39999961853</ele>
        <time>2022-02-27T09:17:15.000Z</time>
      </trkpt>
      <trkpt lat="47.2537" lon="-2.26026">
        <ele>11.39999961853</ele>
        <time>2022-02-27T09:17:17.000Z</time>
      </trkpt>
      <trkpt lat="47.25367" lon="-2.26025">
        <ele>11.800000190735</ele>
        <time>2022-02-27T09:17:18.000Z</time>
      </trkpt>
      <trkpt lat="47.25364" lon="-2.26024">
        <ele>12.199999809265</ele>
        <time>2022-02-27T09:17:19.000Z</time>
      </trkpt>
      <trkpt lat="47.25362" lon="-2.26024">
        <ele>12.800000190735</ele>
        <time>2022-02-27T09:17:20.000Z</time>
      </trkpt>
      <trkpt lat="47.25359" lon="-2.26025">
        <ele>13.199999809265</ele>
        <time>2022-02-27T09:17:21.000Z</time>
      </trkpt>
      <trkpt lat="47.25358" lon="-2.26026">
        <ele>13.60000038147</ele>
        <time>2022-02-27T09:17:22.000Z</time>
      </trkpt>
      <trkpt lat="47.25352" lon="-2.26028">
        <ele>14</ele>
        <time>2022-02-27T09:17:25.000Z</time>
      </trkpt>
      <trkpt lat="47.2535" lon="-2.2603">
        <ele>14.39999961853</ele>
        <time>2022-02-27T09:17:26.000Z</time>
      </trkpt>
      <trkpt lat="47.25348" lon="-2.26032">
        <ele>15</ele>
        <time>2022-02-27T09:17:27.000Z</time>
      </trkpt>
      <trkpt lat="47.25344" lon="-2.26034">
        <ele>15.39999961853</ele>
        <time>2022-02-27T09:17:28.000Z</time>
      </trkpt>
      <trkpt lat="47.25342" lon="-2.26035">
        <ele>15.800000190735</ele>
        <time>2022-02-27T09:17:29.000Z</time>
      </trkpt>
      <trkpt lat="47.25339" lon="-2.2603">
        <ele>15.800000190735</ele>
        <time>2022-02-27T09:17:31.000Z</time>
      </trkpt>
      <trkpt lat="47.25341" lon="-2.26018">
        <ele>15.800000190735</ele>
        <time>2022-02-27T09:17:34.000Z</time>
      </trkpt>
      <trkpt lat="47.25342" lon="-2.26015">
        <ele>15.800000190735</ele>
        <time>2022-02-27T09:17:36.000Z</time>
      </trkpt>
      <trkpt lat="47.25344" lon="-2.26013">
        <ele>15.800000190735</ele>
        <time>2022-02-27T09:17:38.000Z</time>
      </trkpt>
      <trkpt lat="47.25345" lon="-2.26013">
        <ele>15.800000190735</ele>
        <time>2022-02-27T09:17:40.000Z</time>
      </trkpt>
      <trkpt lat="47.25349" lon="-2.26013">
        <ele>15.800000190735</ele>
        <time>2022-02-27T09:18:02.000Z</time>
      </trkpt>
      <trkpt lat="47.2535" lon="-2.26013">
        <ele>15.800000190735</ele>
        <time>2022-02-27T09:18:03.000Z</time>
      </trkpt>
      <trkpt lat="47.25351" lon="-2.26011">
        <ele>15.800000190735</ele>
        <time>2022-02-27T09:18:04.000Z</time>
      </trkpt>
      <trkpt lat="47.25354" lon="-2.26003">
        <ele>15.800000190735</ele>
        <time>2022-02-27T09:18:07.000Z</time>
      </trkpt>
      <trkpt lat="47.25355" lon="-2.26001">
        <ele>15.800000190735</ele>
        <time>2022-02-27T09:18:08.000Z</time>
      </trkpt>
      <trkpt lat="47.25358" lon="-2.2599">
        <ele>15.39999961853</ele>
        <time>2022-02-27T09:18:10.000Z</time>
      </trkpt>
      <trkpt lat="47.25358" lon="-2.25987">
        <ele>15</ele>
        <time>2022-02-27T09:18:11.000Z</time>
      </trkpt>
      <trkpt lat="47.25359" lon="-2.25986">
        <ele>14.60000038147</ele>
        <time>2022-02-27T09:18:12.000Z</time>
      </trkpt>
      <trkpt lat="47.25361" lon="-2.25985">
        <ele>14</ele>
        <time>2022-02-27T09:18:13.000Z</time>
      </trkpt>
      <trkpt lat="47.25364" lon="-2.25984">
        <ele>13.60000038147</ele>
        <time>2022-02-27T09:18:14.000Z</time>
      </trkpt>
      <trkpt lat="47.25369" lon="-2.25984">
        <ele>13.199999809265</ele>
        <time>2022-02-27T09:18:16.000Z</time>
      </trkpt>
      <trkpt lat="47.25372" lon="-2.25983">
        <ele>12.800000190735</ele>
        <time>2022-02-27T09:18:17.000Z</time>
      </trkpt>
      <trkpt lat="47.25374" lon="-2.25983">
        <ele>12.39999961853</ele>
        <time>2022-02-27T09:18:18.000Z</time>
      </trkpt>
      <trkpt lat="47.25376" lon="-2.25983">
        <ele>11.800000190735</ele>
        <time>2022-02-27T09:18:19.000Z</time>
      </trkpt>
      <trkpt lat="47.25378" lon="-2.25983">
        <ele>11.39999961853</ele>
        <time>2022-02-27T09:18:20.000Z</time>
      </trkpt>
      <trkpt lat="47.25379" lon="-2.25983">
        <ele>10.199999809265</ele>
        <time>2022-02-27T09:18:21.000Z</time>
      </trkpt>
      <trkpt lat="47.25381" lon="-2.25982">
        <ele>9.6000003814697</ele>
        <time>2022-02-27T09:18:22.000Z</time>
      </trkpt>
      <trkpt lat="47.25384" lon="-2.25981">
        <ele>9.1999998092651</ele>
        <time>2022-02-27T09:18:23.000Z</time>
      </trkpt>
      <trkpt lat="47.25386" lon="-2.25981">
        <ele>8.6000003814697</ele>
        <time>2022-02-27T09:18:24.000Z</time>
      </trkpt>
      <trkpt lat="47.2539" lon="-2.25981">
        <ele>8.1999998092651</ele>
        <time>2022-02-27T09:18:25.000Z</time>
      </trkpt>
      <trkpt lat="47.25393" lon="-2.25981">
        <ele>7.5999999046326</ele>
        <time>2022-02-27T09:18:26.000Z</time>
      </trkpt>
      <trkpt lat="47.25396" lon="-2.25981">
        <ele>7.1999998092651</ele>
        <time>2022-02-27T09:18:27.000Z</time>
      </trkpt>
      <trkpt lat="47.25399" lon="-2.2598">
        <ele>6.8000001907349</ele>
        <time>2022-02-27T09:18:28.000Z</time>
      </trkpt>
      <trkpt lat="47.25402" lon="-2.25977">
        <ele>6.1999998092651</ele>
        <time>2022-02-27T09:18:29.000Z</time>
      </trkpt>
      <trkpt lat="47.25404" lon="-2.25972">
        <ele>5.8000001907349</ele>
        <time>2022-02-27T09:18:30.000Z</time>
      </trkpt>
      <trkpt lat="47.25407" lon="-2.25968">
        <ele>5.4000000953674</ele>
        <time>2022-02-27T09:18:31.000Z</time>
      </trkpt>
      <trkpt lat="47.25409" lon="-2.25963">
        <ele>5</ele>
        <time>2022-02-27T09:18:32.000Z</time>
      </trkpt>
      <trkpt lat="47.2541" lon="-2.25958">
        <ele>4.4000000953674</ele>
        <time>2022-02-27T09:18:33.000Z</time>
      </trkpt>
      <trkpt lat="47.25409" lon="-2.25948">
        <ele>4.4000000953674</ele>
        <time>2022-02-27T09:18:35.000Z</time>
      </trkpt>
      <trkpt lat="47.25403" lon="-2.25914">
        <ele>4.4000000953674</ele>
        <time>2022-02-27T09:18:41.000Z</time>
      </trkpt>
      <trkpt lat="47.254" lon="-2.25873">
        <ele>4</ele>
        <time>2022-02-27T09:18:46.000Z</time>
      </trkpt>
      <trkpt lat="47.254" lon="-2.25865">
        <ele>3.5999999046326</ele>
        <time>2022-02-27T09:18:47.000Z</time>
      </trkpt>
      <trkpt lat="47.25399" lon="-2.25857">
        <ele>3.2000000476837</ele>
        <time>2022-02-27T09:18:48.000Z</time>
      </trkpt>
      <trkpt lat="47.25398" lon="-2.25849">
        <ele>2.7999999523163</ele>
        <time>2022-02-27T09:18:49.000Z</time>
      </trkpt>
      <trkpt lat="47.25396" lon="-2.25842">
        <ele>2.4000000953674</ele>
        <time>2022-02-27T09:18:50.000Z</time>
      </trkpt>
      <trkpt lat="47.25391" lon="-2.25805">
        <ele>2.4000000953674</ele>
        <time>2022-02-27T09:18:55.000Z</time>
      </trkpt>
      <trkpt lat="47.2539" lon="-2.25782">
        <ele>1.7999999523163</ele>
        <time>2022-02-27T09:18:59.000Z</time>
      </trkpt>
      <trkpt lat="47.25389" lon="-2.25779">
        <ele>1.3999999761581</ele>
        <time>2022-02-27T09:19:00.000Z</time>
      </trkpt>
      <trkpt lat="47.25388" lon="-2.25777">
        <ele>1</ele>
        <time>2022-02-27T09:19:01.000Z</time>
      </trkpt>
      <trkpt lat="47.25388" lon="-2.25777">
        <ele>0.60000002384186</ele>
        <time>2022-02-27T09:19:02.000Z</time>
      </trkpt>
      <trkpt lat="47.25386" lon="-2.25778">
        <ele>0.20000000298023</ele>
        <time>2022-02-27T09:19:03.000Z</time>
      </trkpt>
      <trkpt lat="47.25378" lon="-2.25789">
        <ele>0.20000000298023</ele>
        <time>2022-02-27T09:19:08.000Z</time>
      </trkpt>
      <trkpt lat="47.25377" lon="-2.25792">
        <ele>0.20000000298023</ele>
        <time>2022-02-27T09:19:09.000Z</time>
      </trkpt>
      <trkpt lat="47.2537" lon="-2.25803">
        <ele>0.20000000298023</ele>
        <time>2022-02-27T09:19:14.000Z</time>
      </trkpt>
      <trkpt lat="47.25369" lon="-2.25804">
        <ele>0.60000002384186</ele>
        <time>2022-02-27T09:19:15.000Z</time>
      </trkpt>
      <trkpt lat="47.25368" lon="-2.25805">
        <ele>1</ele>
        <time>2022-02-27T09:19:16.000Z</time>
      </trkpt>
      <trkpt lat="47.25367" lon="-2.25805">
        <ele>1.3999999761581</ele>
        <time>2022-02-27T09:19:17.000Z</time>
      </trkpt>
      <trkpt lat="47.25366" lon="-2.25806">
        <ele>1.7999999523163</ele>
        <time>2022-02-27T09:19:18.000Z</time>
      </trkpt>
      <trkpt lat="47.25365" lon="-2.25807">
        <ele>2.4000000953674</ele>
        <time>2022-02-27T09:19:19.000Z</time>
      </trkpt>
      <trkpt lat="47.25361" lon="-2.25809">
        <ele>2.4000000953674</ele>
        <time>2022-02-27T09:19:22.000Z</time>
      </trkpt>
      <trkpt lat="47.25358" lon="-2.25811">
        <ele>2.7999999523163</ele>
        <time>2022-02-27T09:19:25.000Z</time>
      </trkpt>
      <trkpt lat="47.25357" lon="-2.25812">
        <ele>3.2000000476837</ele>
        <time>2022-02-27T09:19:26.000Z</time>
      </trkpt>
      <trkpt lat="47.25356" lon="-2.25813">
        <ele>3.5999999046326</ele>
        <time>2022-02-27T09:19:27.000Z</time>
      </trkpt>
      <trkpt lat="47.25356" lon="-2.25814">
        <ele>4</ele>
        <time>2022-02-27T09:19:28.000Z</time>
      </trkpt>
      <trkpt lat="47.25348" lon="-2.25834">
        <ele>7</ele>
        <time>2022-02-27T09:19:40.000Z</time>
      </trkpt>
      <trkpt lat="47.25347" lon="-2.25837">
        <ele>7.4000000953674</ele>
        <time>2022-02-27T09:19:41.000Z</time>
      </trkpt>
      <trkpt lat="47.25347" lon="-2.25839">
        <ele>7.8000001907349</ele>
        <time>2022-02-27T09:19:42.000Z</time>
      </trkpt>
      <trkpt lat="47.25346" lon="-2.25841">
        <ele>8.3999996185303</ele>
        <time>2022-02-27T09:19:43.000Z</time>
      </trkpt>
      <trkpt lat="47.25346" lon="-2.25843">
        <ele>8.8000001907349</ele>
        <time>2022-02-27T09:19:44.000Z</time>
      </trkpt>
      <trkpt lat="47.25345" lon="-2.25844">
        <ele>9.1999998092651</ele>
        <time>2022-02-27T09:19:45.000Z</time>
      </trkpt>
      <trkpt lat="47.25344" lon="-2.25845">
        <ele>9.6000003814697</ele>
        <time>2022-02-27T09:19:46.000Z</time>
      </trkpt>
      <trkpt lat="47.25344" lon="-2.25846">
        <ele>10</ele>
        <time>2022-02-27T09:19:47.000Z</time>
      </trkpt>
      <trkpt lat="47.25343" lon="-2.25847">
        <ele>10.39999961853</ele>
        <time>2022-02-27T09:19:48.000Z</time>
      </trkpt>
      <trkpt lat="47.25342" lon="-2.25848">
        <ele>10.800000190735</ele>
        <time>2022-02-27T09:19:49.000Z</time>
      </trkpt>
      <trkpt lat="47.25338" lon="-2.25839">
        <ele>10.800000190735</ele>
        <time>2022-02-27T09:19:57.000Z</time>
      </trkpt>
      <trkpt lat="47.25336" lon="-2.25833">
        <ele>10.800000190735</ele>
        <time>2022-02-27T09:19:59.000Z</time>
      </trkpt>
      <trkpt lat="47.25332" lon="-2.25812">
        <ele>10.800000190735</ele>
        <time>2022-02-27T09:20:03.000Z</time>
      </trkpt>
      <trkpt lat="47.25336" lon="-2.25787">
        <ele>10.800000190735</ele>
        <time>2022-02-27T09:20:07.000Z</time>
      </trkpt>
      <trkpt lat="47.25345" lon="-2.25756">
        <ele>10.800000190735</ele>
        <time>2022-02-27T09:20:12.000Z</time>
      </trkpt>
      <trkpt lat="47.25349" lon="-2.25717">
        <ele>10.800000190735</ele>
        <time>2022-02-27T09:20:19.000Z</time>
      </trkpt>
      <trkpt lat="47.25349" lon="-2.25682">
        <ele>10.800000190735</ele>
        <time>2022-02-27T09:20:25.000Z</time>
      </trkpt>
      <trkpt lat="47.25342" lon="-2.25635">
        <ele>10.800000190735</ele>
        <time>2022-02-27T09:20:33.000Z</time>
      </trkpt>
      <trkpt lat="47.25336" lon="-2.25605">
        <ele>10.800000190735</ele>
        <time>2022-02-27T09:20:39.000Z</time>
      </trkpt>
      <trkpt lat="47.25333" lon="-2.25577">
        <ele>10.800000190735</ele>
        <time>2022-02-27T09:20:44.000Z</time>
      </trkpt>
      <trkpt lat="47.25332" lon="-2.25563">
        <ele>10.39999961853</ele>
        <time>2022-02-27T09:20:46.000Z</time>
      </trkpt>
      <trkpt lat="47.25331" lon="-2.25555">
        <ele>10</ele>
        <time>2022-02-27T09:20:47.000Z</time>
      </trkpt>
      <trkpt lat="47.25331" lon="-2.25548">
        <ele>9.6000003814697</ele>
        <time>2022-02-27T09:20:48.000Z</time>
      </trkpt>
      <trkpt lat="47.2533" lon="-2.2554">
        <ele>8.6000003814697</ele>
        <time>2022-02-27T09:20:49.000Z</time>
      </trkpt>
      <trkpt lat="47.2533" lon="-2.25532">
        <ele>8.6000003814697</ele>
        <time>2022-02-27T09:20:50.000Z</time>
      </trkpt>
      <trkpt lat="47.25329" lon="-2.255">
        <ele>8.1999998092651</ele>
        <time>2022-02-27T09:20:54.000Z</time>
      </trkpt>
      <trkpt lat="47.25329" lon="-2.25492">
        <ele>7.8000001907349</ele>
        <time>2022-02-27T09:20:55.000Z</time>
      </trkpt>
      <trkpt lat="47.25329" lon="-2.25483">
        <ele>7.1999998092651</ele>
        <time>2022-02-27T09:20:56.000Z</time>
      </trkpt>
      <trkpt lat="47.25329" lon="-2.25475">
        <ele>6.8000001907349</ele>
        <time>2022-02-27T09:20:57.000Z</time>
      </trkpt>
      <trkpt lat="47.25329" lon="-2.25466">
        <ele>6.4000000953674</ele>
        <time>2022-02-27T09:20:58.000Z</time>
      </trkpt>
      <trkpt lat="47.25329" lon="-2.25457">
        <ele>5.8000001907349</ele>
        <time>2022-02-27T09:20:59.000Z</time>
      </trkpt>
      <trkpt lat="47.2533" lon="-2.25447">
        <ele>5.4000000953674</ele>
        <time>2022-02-27T09:21:00.000Z</time>
      </trkpt>
      <trkpt lat="47.2533" lon="-2.25439">
        <ele>4.8000001907349</ele>
        <time>2022-02-27T09:21:01.000Z</time>
      </trkpt>
      <trkpt lat="47.25329" lon="-2.25432">
        <ele>4.1999998092651</ele>
        <time>2022-02-27T09:21:02.000Z</time>
      </trkpt>
      <trkpt lat="47.2533" lon="-2.25427">
        <ele>3.5999999046326</ele>
        <time>2022-02-27T09:21:03.000Z</time>
      </trkpt>
      <trkpt lat="47.25331" lon="-2.25422">
        <ele>2.7999999523163</ele>
        <time>2022-02-27T09:21:04.000Z</time>
      </trkpt>
      <trkpt lat="47.25333" lon="-2.25419">
        <ele>2.2000000476837</ele>
        <time>2022-02-27T09:21:05.000Z</time>
      </trkpt>
      <trkpt lat="47.25336" lon="-2.25418">
        <ele>1.3999999761581</ele>
        <time>2022-02-27T09:21:06.000Z</time>
      </trkpt>
      <trkpt lat="47.2534" lon="-2.25419">
        <ele>0.80000001192093</ele>
        <time>2022-02-27T09:21:07.000Z</time>
      </trkpt>
      <trkpt lat="47.25342" lon="-2.25421">
        <ele>6.6</ele>
        <time>2022-02-27T09:21:08.000Z</time>
      </trkpt>
      <trkpt lat="47.25344" lon="-2.25424">
        <ele>-0.60000002384186</ele>
        <time>2022-02-27T09:21:09.000Z</time>
      </trkpt>
      <trkpt lat="47.25346" lon="-2.25428">
        <ele>-1.3999999761581</ele>
        <time>2022-02-27T09:21:10.000Z</time>
      </trkpt>
      <trkpt lat="47.25346" lon="-2.2543">
        <ele>-2</ele>
        <time>2022-02-27T09:21:11.000Z</time>
      </trkpt>
      <trkpt lat="47.25346" lon="-2.25432">
        <ele>-2.7999999523163</ele>
        <time>2022-02-27T09:21:12.000Z</time>
      </trkpt>
      <trkpt lat="47.25347" lon="-2.25434">
        <ele>-3.4000000953674</ele>
        <time>2022-02-27T09:21:13.000Z</time>
      </trkpt>
      <trkpt lat="47.25348" lon="-2.25436">
        <ele>-4.1999998092651</ele>
        <time>2022-02-27T09:21:14.000Z</time>
      </trkpt>
      <trkpt lat="47.25351" lon="-2.25442">
        <ele>-4.1999998092651</ele>
        <time>2022-02-27T09:21:16.000Z</time>
      </trkpt>
      <trkpt lat="47.2536" lon="-2.25458">
        <ele>-4.1999998092651</ele>
        <time>2022-02-27T09:21:22.000Z</time>
      </trkpt>
      <trkpt lat="47.2537" lon="-2.25472">
        <ele>-4.1999998092651</ele>
        <time>2022-02-27T09:21:28.000Z</time>
      </trkpt>
      <trkpt lat="47.25375" lon="-2.25481">
        <ele>-4.1999998092651</ele>
        <time>2022-02-27T09:21:32.000Z</time>
      </trkpt>
      <trkpt lat="47.25375" lon="-2.25483">
        <ele>-4.1999998092651</ele>
        <time>2022-02-27T09:21:33.000Z</time>
      </trkpt>
      <trkpt lat="47.2538" lon="-2.25492">
        <ele>-4.1999998092651</ele>
        <time>2022-02-27T09:21:36.000Z</time>
      </trkpt>
      <trkpt lat="47.25384" lon="-2.25498">
        <ele>-4.1999998092651</ele>
        <time>2022-02-27T09:21:39.000Z</time>
      </trkpt>
      <trkpt lat="47.25386" lon="-2.25503">
        <ele>-4.1999998092651</ele>
        <time>2022-02-27T09:21:43.000Z</time>
      </trkpt>
      <trkpt lat="47.25387" lon="-2.25506">
        <ele>-4.1999998092651</ele>
        <time>2022-02-27T09:24:16.000Z</time>
      </trkpt>
      <trkpt lat="47.25388" lon="-2.25521">
        <ele>-4.1999998092651</ele>
        <time>2022-02-27T09:24:20.000Z</time>
      </trkpt>
      <trkpt lat="47.25396" lon="-2.25539">
        <ele>-4.1999998092651</ele>
        <time>2022-02-27T09:24:25.000Z</time>
      </trkpt>
      <trkpt lat="47.254" lon="-2.25545">
        <ele>-3.7999999523163</ele>
        <time>2022-02-27T09:24:28.000Z</time>
      </trkpt>
      <trkpt lat="47.25402" lon="-2.25547">
        <ele>-3.4000000953674</ele>
        <time>2022-02-27T09:24:29.000Z</time>
      </trkpt>
      <trkpt lat="47.25403" lon="-2.25548">
        <ele>-3</ele>
        <time>2022-02-27T09:24:30.000Z</time>
      </trkpt>
      <trkpt lat="47.25404" lon="-2.2555">
        <ele>-2.2000000476837</ele>
        <time>2022-02-27T09:24:31.000Z</time>
      </trkpt>
      <trkpt lat="47.25405" lon="-2.25551">
        <ele>-2.2000000476837</ele>
        <time>2022-02-27T09:24:32.000Z</time>
      </trkpt>
      <trkpt lat="47.25408" lon="-2.25562">
        <ele>-2.2000000476837</ele>
        <time>2022-02-27T09:24:38.000Z</time>
      </trkpt>
      <trkpt lat="47.25407" lon="-2.25565">
        <ele>-2.2000000476837</ele>
        <time>2022-02-27T09:24:39.000Z</time>
      </trkpt>
      <trkpt lat="47.25405" lon="-2.25569">
        <ele>-2.2000000476837</ele>
        <time>2022-02-27T09:24:41.000Z</time>
      </trkpt>
      <trkpt lat="47.25405" lon="-2.25571">
        <ele>-2.2000000476837</ele>
        <time>2022-02-27T09:24:42.000Z</time>
      </trkpt>
      <trkpt lat="47.25414" lon="-2.25575">
        <ele>-2.2000000476837</ele>
        <time>2022-02-27T09:24:52.000Z</time>
      </trkpt>
      <trkpt lat="47.25422" lon="-2.25587">
        <ele>-2.2000000476837</ele>
        <time>2022-02-27T09:24:57.000Z</time>
      </trkpt>
      <trkpt lat="47.25425" lon="-2.2559">
        <ele>-1.7999999523163</ele>
        <time>2022-02-27T09:24:59.000Z</time>
      </trkpt>
      <trkpt lat="47.25426" lon="-2.25591">
        <ele>-1.2000000476837</ele>
        <time>2022-02-27T09:25:00.000Z</time>
      </trkpt>
      <trkpt lat="47.25427" lon="-2.25592">
        <ele>-0.80000001192093</ele>
        <time>2022-02-27T09:25:01.000Z</time>
      </trkpt>
      <trkpt lat="47.25428" lon="-2.25594">
        <ele>-0.40000000596046</ele>
        <time>2022-02-27T09:25:02.000Z</time>
      </trkpt>
      <trkpt lat="47.25428" lon="-2.25597">
        <ele>10.8</ele>
        <time>2022-02-27T09:25:03.000Z</time>
      </trkpt>
      <trkpt lat="47.25429" lon="-2.25599">
        <ele>0.40000000596046</ele>
        <time>2022-02-27T09:25:04.000Z</time>
      </trkpt>
      <trkpt lat="47.2543" lon="-2.25601">
        <ele>0.80000001192093</ele>
        <time>2022-02-27T09:25:05.000Z</time>
      </trkpt>
      <trkpt lat="47.2543" lon="-2.25603">
        <ele>1.2000000476837</ele>
        <time>2022-02-27T09:25:06.000Z</time>
      </trkpt>
      <trkpt lat="47.25431" lon="-2.25604">
        <ele>1.7999999523163</ele>
        <time>2022-02-27T09:25:07.000Z</time>
      </trkpt>
      <trkpt lat="47.25432" lon="-2.25604">
        <ele>2.2000000476837</ele>
        <time>2022-02-27T09:25:08.000Z</time>
      </trkpt>
      <trkpt lat="47.25434" lon="-2.25602">
        <ele>2.2000000476837</ele>
        <time>2022-02-27T09:25:10.000Z</time>
      </trkpt>
      <trkpt lat="47.25437" lon="-2.25591">
        <ele>2.2000000476837</ele>
        <time>2022-02-27T09:25:15.000Z</time>
      </trkpt>
      <trkpt lat="47.25438" lon="-2.25591">
        <ele>2.2000000476837</ele>
        <time>2022-02-27T09:25:16.000Z</time>
      </trkpt>
      <trkpt lat="47.2544" lon="-2.25592">
        <ele>2.2000000476837</ele>
        <time>2022-02-27T09:25:18.000Z</time>
      </trkpt>
      <trkpt lat="47.25441" lon="-2.25594">
        <ele>2.5999999046326</ele>
        <time>2022-02-27T09:25:19.000Z</time>
      </trkpt>
      <trkpt lat="47.25443" lon="-2.25595">
        <ele>3</ele>
        <time>2022-02-27T09:25:20.000Z</time>
      </trkpt>
      <trkpt lat="47.25444" lon="-2.25596">
        <ele>3.7999999523163</ele>
        <time>2022-02-27T09:25:21.000Z</time>
      </trkpt>
      <trkpt lat="47.25446" lon="-2.25597">
        <ele>4.4000000953674</ele>
        <time>2022-02-27T09:25:22.000Z</time>
      </trkpt>
      <trkpt lat="47.25451" lon="-2.25605">
        <ele>4.4000000953674</ele>
        <time>2022-02-27T09:25:26.000Z</time>
      </trkpt>
      <trkpt lat="47.25456" lon="-2.25615">
        <ele>4.4000000953674</ele>
        <time>2022-02-27T09:25:31.000Z</time>
      </trkpt>
      <trkpt lat="47.25456" lon="-2.25617">
        <ele>4.8000001907349</ele>
        <time>2022-02-27T09:25:32.000Z</time>
      </trkpt>
      <trkpt lat="47.25457" lon="-2.25618">
        <ele>5.1999998092651</ele>
        <time>2022-02-27T09:25:33.000Z</time>
      </trkpt>
      <trkpt lat="47.25458" lon="-2.2562">
        <ele>5.5999999046326</ele>
        <time>2022-02-27T09:25:34.000Z</time>
      </trkpt>
      <trkpt lat="47.25459" lon="-2.25622">
        <ele>6</ele>
        <time>2022-02-27T09:25:35.000Z</time>
      </trkpt>
      <trkpt lat="47.2546" lon="-2.25624">
        <ele>6.4000000953674</ele>
        <time>2022-02-27T09:25:36.000Z</time>
      </trkpt>
      <trkpt lat="47.25462" lon="-2.25627">
        <ele>6.4000000953674</ele>
        <time>2022-02-27T09:25:38.000Z</time>
      </trkpt>
      <trkpt lat="47.25467" lon="-2.25635">
        <ele>6.4000000953674</ele>
        <time>2022-02-27T09:25:44.000Z</time>
      </trkpt>
      <trkpt lat="47.25468" lon="-2.25636">
        <ele>6.4000000953674</ele>
        <time>2022-02-27T09:25:45.000Z</time>
      </trkpt>
      <trkpt lat="47.25471" lon="-2.25642">
        <ele>6.4000000953674</ele>
        <time>2022-02-27T09:25:49.000Z</time>
      </trkpt>
      <trkpt lat="47.25474" lon="-2.25646">
        <ele>6.4000000953674</ele>
        <time>2022-02-27T09:25:53.000Z</time>
      </trkpt>
      <trkpt lat="47.25473" lon="-2.25649">
        <ele>6.4000000953674</ele>
        <time>2022-02-27T09:26:04.000Z</time>
      </trkpt>
      <trkpt lat="47.25472" lon="-2.25652">
        <ele>6.4000000953674</ele>
        <time>2022-02-27T09:26:05.000Z</time>
      </trkpt>
      <trkpt lat="47.25468" lon="-2.25661">
        <ele>6.4000000953674</ele>
        <time>2022-02-27T09:26:10.000Z</time>
      </trkpt>
      <trkpt lat="47.25463" lon="-2.25673">
        <ele>6.4000000953674</ele>
        <time>2022-02-27T09:26:16.000Z</time>
      </trkpt>
      <trkpt lat="47.25462" lon="-2.25676">
        <ele>6.4000000953674</ele>
        <time>2022-02-27T09:26:17.000Z</time>
      </trkpt>
      <trkpt lat="47.25456" lon="-2.2569">
        <ele>6.4000000953674</ele>
        <time>2022-02-27T09:26:22.000Z</time>
      </trkpt>
      <trkpt lat="47.25455" lon="-2.25693">
        <ele>6.4000000953674</ele>
        <time>2022-02-27T09:26:23.000Z</time>
      </trkpt>
      <trkpt lat="47.25459" lon="-2.25704">
        <ele>6.4000000953674</ele>
        <time>2022-02-27T09:26:28.000Z</time>
      </trkpt>
      <trkpt lat="47.25463" lon="-2.2572">
        <ele>6.4000000953674</ele>
        <time>2022-02-27T09:26:33.000Z</time>
      </trkpt>
      <trkpt lat="47.25465" lon="-2.25731">
        <ele>6.8000001907349</ele>
        <time>2022-02-27T09:26:36.000Z</time>
      </trkpt>
      <trkpt lat="47.25465" lon="-2.25735">
        <ele>7.1999998092651</ele>
        <time>2022-02-27T09:26:37.000Z</time>
      </trkpt>
      <trkpt lat="47.25465" lon="-2.25739">
        <ele>7.5999999046326</ele>
        <time>2022-02-27T09:26:38.000Z</time>
      </trkpt>
      <trkpt lat="47.25465" lon="-2.25742">
        <ele>8</ele>
        <time>2022-02-27T09:26:39.000Z</time>
      </trkpt>
      <trkpt lat="47.25464" lon="-2.25745">
        <ele>8.3999996185303</ele>
        <time>2022-02-27T09:26:40.000Z</time>
      </trkpt>
      <trkpt lat="47.25461" lon="-2.25766">
        <ele>8.3999996185303</ele>
        <time>2022-02-27T09:26:46.000Z</time>
      </trkpt>
      <trkpt lat="47.25462" lon="-2.25768">
        <ele>9</ele>
        <time>2022-02-27T09:26:47.000Z</time>
      </trkpt>
      <trkpt lat="47.25463" lon="-2.2577">
        <ele>9.3999996185303</ele>
        <time>2022-02-27T09:26:48.000Z</time>
      </trkpt>
      <trkpt lat="47.25464" lon="-2.25772">
        <ele>10</ele>
        <time>2022-02-27T09:26:49.000Z</time>
      </trkpt>
      <trkpt lat="47.25466" lon="-2.25776">
        <ele>10.39999961853</ele>
        <time>2022-02-27T09:26:50.000Z</time>
      </trkpt>
      <trkpt lat="47.25467" lon="-2.2578">
        <ele>10.800000190735</ele>
        <time>2022-02-27T09:26:51.000Z</time>
      </trkpt>
      <trkpt lat="47.25468" lon="-2.25783">
        <ele>10.800000190735</ele>
        <time>2022-02-27T09:26:52.000Z</time>
      </trkpt>
      <trkpt lat="47.25468" lon="-2.25798">
        <ele>11.199999809265</ele>
        <time>2022-02-27T09:26:56.000Z</time>
      </trkpt>
      <trkpt lat="47.25468" lon="-2.25801">
        <ele>11.60000038147</ele>
        <time>2022-02-27T09:26:57.000Z</time>
      </trkpt>
      <trkpt lat="47.25467" lon="-2.25803">
        <ele>12</ele>
        <time>2022-02-27T09:26:58.000Z</time>
      </trkpt>
      <trkpt lat="47.25466" lon="-2.25806">
        <ele>12.60000038147</ele>
        <time>2022-02-27T09:26:59.000Z</time>
      </trkpt>
      <trkpt lat="47.25464" lon="-2.25807">
        <ele>13</ele>
        <time>2022-02-27T09:27:00.000Z</time>
      </trkpt>
      <trkpt lat="47.2546" lon="-2.25807">
        <ele>13</ele>
        <time>2022-02-27T09:27:02.000Z</time>
      </trkpt>
      <trkpt lat="47.25452" lon="-2.25811">
        <ele>12.39999961853</ele>
        <time>2022-02-27T09:27:06.000Z</time>
      </trkpt>
      <trkpt lat="47.2545" lon="-2.25814">
        <ele>11.800000190735</ele>
        <time>2022-02-27T09:27:07.000Z</time>
      </trkpt>
      <trkpt lat="47.25448" lon="-2.25818">
        <ele>11.39999961853</ele>
        <time>2022-02-27T09:27:08.000Z</time>
      </trkpt>
      <trkpt lat="47.25447" lon="-2.25821">
        <ele>10.800000190735</ele>
        <time>2022-02-27T09:27:09.000Z</time>
      </trkpt>
      <trkpt lat="47.25447" lon="-2.25825">
        <ele>10.199999809265</ele>
        <time>2022-02-27T09:27:10.000Z</time>
      </trkpt>
      <trkpt lat="47.25444" lon="-2.2584">
        <ele>10.199999809265</ele>
        <time>2022-02-27T09:27:14.000Z</time>
      </trkpt>
      <trkpt lat="47.25438" lon="-2.25865">
        <ele>10.199999809265</ele>
        <time>2022-02-27T09:27:19.000Z</time>
      </trkpt>
      <trkpt lat="47.25436" lon="-2.2587">
        <ele>9.8000001907349</ele>
        <time>2022-02-27T09:27:20.000Z</time>
      </trkpt>
      <trkpt lat="47.25434" lon="-2.25874">
        <ele>9.3999996185303</ele>
        <time>2022-02-27T09:27:21.000Z</time>
      </trkpt>
      <trkpt lat="47.25432" lon="-2.25878">
        <ele>9</ele>
        <time>2022-02-27T09:27:22.000Z</time>
      </trkpt>
      <trkpt lat="47.25431" lon="-2.25882">
        <ele>8.6000003814697</ele>
        <time>2022-02-27T09:27:23.000Z</time>
      </trkpt>
      <trkpt lat="47.2543" lon="-2.25886">
        <ele>8.1999998092651</ele>
        <time>2022-02-27T09:27:24.000Z</time>
      </trkpt>
      <trkpt lat="47.25432" lon="-2.25912">
        <ele>8.1999998092651</ele>
        <time>2022-02-27T09:27:30.000Z</time>
      </trkpt>
      <trkpt lat="47.25432" lon="-2.25937">
        <ele>8.1999998092651</ele>
        <time>2022-02-27T09:27:36.000Z</time>
      </trkpt>
      <trkpt lat="47.25423" lon="-2.25944">
        <ele>8.1999998092651</ele>
        <time>2022-02-27T09:27:38.000Z</time>
      </trkpt>
      <trkpt lat="47.25418" lon="-2.2595">
        <ele>8.1999998092651</ele>
        <time>2022-02-27T09:27:39.000Z</time>
      </trkpt>
      <trkpt lat="47.25412" lon="-2.25962">
        <ele>7.5999999046326</ele>
        <time>2022-02-27T09:27:41.000Z</time>
      </trkpt>
      <trkpt lat="47.25409" lon="-2.25967">
        <ele>7.1999998092651</ele>
        <time>2022-02-27T09:27:42.000Z</time>
      </trkpt>
      <trkpt lat="47.25407" lon="-2.25972">
        <ele>6.8000001907349</ele>
        <time>2022-02-27T09:27:43.000Z</time>
      </trkpt>
      <trkpt lat="47.25404" lon="-2.25977">
        <ele>6.4000000953674</ele>
        <time>2022-02-27T09:27:44.000Z</time>
      </trkpt>
      <trkpt lat="47.25402" lon="-2.25981">
        <ele>6</ele>
        <time>2022-02-27T09:27:45.000Z</time>
      </trkpt>
      <trkpt lat="47.254" lon="-2.25985">
        <ele>6</ele>
        <time>2022-02-27T09:27:46.000Z</time>
      </trkpt>
      <trkpt lat="47.25397" lon="-2.25987">
        <ele>6</ele>
        <time>2022-02-27T09:27:47.000Z</time>
      </trkpt>
      <trkpt lat="47.2539" lon="-2.25991">
        <ele>6</ele>
        <time>2022-02-27T09:27:50.000Z</time>
      </trkpt>
      <trkpt lat="47.25389" lon="-2.25992">
        <ele>6.4000000953674</ele>
        <time>2022-02-27T09:27:51.000Z</time>
      </trkpt>
      <trkpt lat="47.25387" lon="-2.25992">
        <ele>7</ele>
        <time>2022-02-27T09:27:52.000Z</time>
      </trkpt>
      <trkpt lat="47.25386" lon="-2.25993">
        <ele>7.4000000953674</ele>
        <time>2022-02-27T09:27:53.000Z</time>
      </trkpt>
      <trkpt lat="47.25385" lon="-2.25993">
        <ele>7.8000001907349</ele>
        <time>2022-02-27T09:27:54.000Z</time>
      </trkpt>
      <trkpt lat="47.25384" lon="-2.25994">
        <ele>8.3999996185303</ele>
        <time>2022-02-27T09:27:55.000Z</time>
      </trkpt>
      <trkpt lat="47.25383" lon="-2.25994">
        <ele>9</ele>
        <time>2022-02-27T09:27:56.000Z</time>
      </trkpt>
      <trkpt lat="47.25382" lon="-2.25994">
        <ele>9.3999996185303</ele>
        <time>2022-02-27T09:27:57.000Z</time>
      </trkpt>
      <trkpt lat="47.25381" lon="-2.25994">
        <ele>10</ele>
        <time>2022-02-27T09:27:58.000Z</time>
      </trkpt>
      <trkpt lat="47.25379" lon="-2.25994">
        <ele>10.60000038147</ele>
        <time>2022-02-27T09:27:59.000Z</time>
      </trkpt>
      <trkpt lat="47.25378" lon="-2.25993">
        <ele>11</ele>
        <time>2022-02-27T09:28:00.000Z</time>
      </trkpt>
      <trkpt lat="47.25377" lon="-2.25992">
        <ele>11.39999961853</ele>
        <time>2022-02-27T09:28:01.000Z</time>
      </trkpt>
      <trkpt lat="47.25376" lon="-2.2599">
        <ele>11.800000190735</ele>
        <time>2022-02-27T09:28:02.000Z</time>
      </trkpt>
      <trkpt lat="47.25374" lon="-2.25988">
        <ele>12.199999809265</ele>
        <time>2022-02-27T09:28:03.000Z</time>
      </trkpt>
      <trkpt lat="47.25373" lon="-2.25986">
        <ele>12.60000038147</ele>
        <time>2022-02-27T09:28:04.000Z</time>
      </trkpt>
      <trkpt lat="47.25371" lon="-2.25985">
        <ele>12.60000038147</ele>
        <time>2022-02-27T09:28:05.000Z</time>
      </trkpt>
      <trkpt lat="47.25366" lon="-2.25985">
        <ele>12.60000038147</ele>
        <time>2022-02-27T09:28:07.000Z</time>
      </trkpt>
      <trkpt lat="47.2536" lon="-2.25992">
        <ele>12.60000038147</ele>
        <time>2022-02-27T09:28:11.000Z</time>
      </trkpt>
      <trkpt lat="47.2536" lon="-2.25995">
        <ele>13</ele>
        <time>2022-02-27T09:28:12.000Z</time>
      </trkpt>
      <trkpt lat="47.2536" lon="-2.25997">
        <ele>13.39999961853</ele>
        <time>2022-02-27T09:28:13.000Z</time>
      </trkpt>
      <trkpt lat="47.25361" lon="-2.25999">
        <ele>14.39999961853</ele>
        <time>2022-02-27T09:28:14.000Z</time>
      </trkpt>
      <trkpt lat="47.25362" lon="-2.26001">
        <ele>14.800000190735</ele>
        <time>2022-02-27T09:28:15.000Z</time>
      </trkpt>
      <trkpt lat="47.25363" lon="-2.26003">
        <ele>14.800000190735</ele>
        <time>2022-02-27T09:28:16.000Z</time>
      </trkpt>
      <trkpt lat="47.25366" lon="-2.2601">
        <ele>14.800000190735</ele>
        <time>2022-02-27T09:28:20.000Z</time>
      </trkpt>
      <trkpt lat="47.25367" lon="-2.26012">
        <ele>14.800000190735</ele>
        <time>2022-02-27T09:28:22.000Z</time>
      </trkpt>
      <trkpt lat="47.25368" lon="-2.26013">
        <ele>14.800000190735</ele>
        <time>2022-02-27T09:28:24.000Z</time>
      </trkpt>
      <trkpt lat="47.25371" lon="-2.26015">
        <ele>14.800000190735</ele>
        <time>2022-02-27T09:30:15.000Z</time>
      </trkpt>
      <trkpt lat="47.25376" lon="-2.26018">
        <ele>14.800000190735</ele>
        <time>2022-02-27T09:30:17.000Z</time>
      </trkpt>
      <trkpt lat="47.25383" lon="-2.2603">
        <ele>14.800000190735</ele>
        <time>2022-02-27T09:30:21.000Z</time>
      </trkpt>
      <trkpt lat="47.25384" lon="-2.26034">
        <ele>14.800000190735</ele>
        <time>2022-02-27T09:30:22.000Z</time>
      </trkpt>
      <trkpt lat="47.2539" lon="-2.26053">
        <ele>14.800000190735</ele>
        <time>2022-02-27T09:30:27.000Z</time>
      </trkpt>
      <trkpt lat="47.2539" lon="-2.26064">
        <ele>14.39999961853</ele>
        <time>2022-02-27T09:30:29.000Z</time>
      </trkpt>
      <trkpt lat="47.25391" lon="-2.26072">
        <ele>13.800000190735</ele>
        <time>2022-02-27T09:30:30.000Z</time>
      </trkpt>
      <trkpt lat="47.25391" lon="-2.26079">
        <ele>13.39999961853</ele>
        <time>2022-02-27T09:30:31.000Z</time>
      </trkpt>
      <trkpt lat="47.25391" lon="-2.26085">
        <ele>13</ele>
        <time>2022-02-27T09:30:32.000Z</time>
      </trkpt>
      <trkpt lat="47.25391" lon="-2.2609">
        <ele>12.60000038147</ele>
        <time>2022-02-27T09:30:33.000Z</time>
      </trkpt>
      <trkpt lat="47.25396" lon="-2.26107">
        <ele>12.60000038147</ele>
        <time>2022-02-27T09:30:36.000Z</time>
      </trkpt>
      <trkpt lat="47.25401" lon="-2.26114">
        <ele>12.60000038147</ele>
        <time>2022-02-27T09:30:37.000Z</time>
      </trkpt>
      <trkpt lat="47.25414" lon="-2.26142">
        <ele>12.199999809265</ele>
        <time>2022-02-27T09:30:41.000Z</time>
      </trkpt>
      <trkpt lat="47.25418" lon="-2.26149">
        <ele>11.800000190735</ele>
        <time>2022-02-27T09:30:42.000Z</time>
      </trkpt>
      <trkpt lat="47.25419" lon="-2.26155">
        <ele>11</ele>
        <time>2022-02-27T09:30:43.000Z</time>
      </trkpt>
      <trkpt lat="47.25421" lon="-2.26161">
        <ele>10.60000038147</ele>
        <time>2022-02-27T09:30:44.000Z</time>
      </trkpt>
      <trkpt lat="47.25423" lon="-2.26189">
        <ele>10.60000038147</ele>
        <time>2022-02-27T09:30:48.000Z</time>
      </trkpt>
      <trkpt lat="47.25418" lon="-2.26208">
        <ele>10.60000038147</ele>
        <time>2022-02-27T09:30:52.000Z</time>
      </trkpt>
      <trkpt lat="47.25417" lon="-2.26215">
        <ele>11</ele>
        <time>2022-02-27T09:30:54.000Z</time>
      </trkpt>
      <trkpt lat="47.25417" lon="-2.2622">
        <ele>11.39999961853</ele>
        <time>2022-02-27T09:30:55.000Z</time>
      </trkpt>
      <trkpt lat="47.25418" lon="-2.26225">
        <ele>12</ele>
        <time>2022-02-27T09:30:56.000Z</time>
      </trkpt>
      <trkpt lat="47.25418" lon="-2.26229">
        <ele>12.39999961853</ele>
        <time>2022-02-27T09:30:57.000Z</time>
      </trkpt>
      <trkpt lat="47.25419" lon="-2.26235">
        <ele>12.800000190735</ele>
        <time>2022-02-27T09:30:58.000Z</time>
      </trkpt>
      <trkpt lat="47.25419" lon="-2.26268">
        <ele>12.800000190735</ele>
        <time>2022-02-27T09:31:03.000Z</time>
      </trkpt>
      <trkpt lat="47.25427" lon="-2.26288">
        <ele>13.800000190735</ele>
        <time>2022-02-27T09:31:07.000Z</time>
      </trkpt>
      <trkpt lat="47.25428" lon="-2.26292">
        <ele>14.199999809265</ele>
        <time>2022-02-27T09:31:08.000Z</time>
      </trkpt>
      <trkpt lat="47.2543" lon="-2.26295">
        <ele>14.60000038147</ele>
        <time>2022-02-27T09:31:09.000Z</time>
      </trkpt>
      <trkpt lat="47.25432" lon="-2.26296">
        <ele>15</ele>
        <time>2022-02-27T09:31:10.000Z</time>
      </trkpt>
      <trkpt lat="47.25441" lon="-2.26299">
        <ele>15</ele>
        <time>2022-02-27T09:31:13.000Z</time>
      </trkpt>
      <trkpt lat="47.25454" lon="-2.26305">
        <ele>15</ele>
        <time>2022-02-27T09:31:18.000Z</time>
      </trkpt>
      <trkpt lat="47.25456" lon="-2.26308">
        <ele>15</ele>
        <time>2022-02-27T09:31:19.000Z</time>
      </trkpt>
      <trkpt lat="47.25457" lon="-2.26315">
        <ele>15.39999961853</ele>
        <time>2022-02-27T09:31:21.000Z</time>
      </trkpt>
      <trkpt lat="47.25457" lon="-2.26318">
        <ele>15.800000190735</ele>
        <time>2022-02-27T09:31:22.000Z</time>
      </trkpt>
      <trkpt lat="47.25457" lon="-2.26321">
        <ele>16.200000762939</ele>
        <time>2022-02-27T09:31:23.000Z</time>
      </trkpt>
      <trkpt lat="47.25457" lon="-2.26324">
        <ele>16.60000038147</ele>
        <time>2022-02-27T09:31:24.000Z</time>
      </trkpt>
      <trkpt lat="47.25458" lon="-2.26328">
        <ele>17</ele>
        <time>2022-02-27T09:31:25.000Z</time>
      </trkpt>
      <trkpt lat="47.2546" lon="-2.26338">
        <ele>17</ele>
        <time>2022-02-27T09:31:30.000Z</time>
      </trkpt>
      <trkpt lat="47.2546" lon="-2.26342">
        <ele>17</ele>
        <time>2022-02-27T09:31:33.000Z</time>
      </trkpt>
      <trkpt lat="47.2546" lon="-2.26356">
        <ele>19</ele>
        <time>2022-02-27T09:42:26.000Z</time>
      </trkpt>
      <trkpt lat="47.2546" lon="-2.2636">
        <ele>19</ele>
        <time>2022-02-27T09:42:27.000Z</time>
      </trkpt>
      <trkpt lat="47.25458" lon="-2.26363">
        <ele>19</ele>
        <time>2022-02-27T09:42:28.000Z</time>
      </trkpt>
      <trkpt lat="47.25456" lon="-2.26376">
        <ele>19</ele>
        <time>2022-02-27T09:42:31.000Z</time>
      </trkpt>
      <trkpt lat="47.25452" lon="-2.26404">
        <ele>19</ele>
        <time>2022-02-27T09:42:36.000Z</time>
      </trkpt>
      <trkpt lat="47.2545" lon="-2.26428">
        <ele>19</ele>
        <time>2022-02-27T09:42:41.000Z</time>
      </trkpt>
      <trkpt lat="47.25444" lon="-2.26431">
        <ele>19.39999961853</ele>
        <time>2022-02-27T09:42:43.000Z</time>
      </trkpt>
      <trkpt lat="47.2544" lon="-2.26431">
        <ele>19.799999237061</ele>
        <time>2022-02-27T09:42:44.000Z</time>
      </trkpt>
      <trkpt lat="47.25436" lon="-2.26431">
        <ele>20.200000762939</ele>
        <time>2022-02-27T09:42:45.000Z</time>
      </trkpt>
      <trkpt lat="47.25433" lon="-2.26431">
        <ele>20.60000038147</ele>
        <time>2022-02-27T09:42:46.000Z</time>
      </trkpt>
      <trkpt lat="47.25431" lon="-2.26433">
        <ele>21</ele>
        <time>2022-02-27T09:42:47.000Z</time>
      </trkpt>
      <trkpt lat="47.2543" lon="-2.26436">
        <ele>21</ele>
        <time>2022-02-27T09:42:48.000Z</time>
      </trkpt>
      <trkpt lat="47.25427" lon="-2.26458">
        <ele>21</ele>
        <time>2022-02-27T09:42:53.000Z</time>
      </trkpt>
      <trkpt lat="47.25426" lon="-2.26467">
        <ele>21.60000038147</ele>
        <time>2022-02-27T09:42:55.000Z</time>
      </trkpt>
      <trkpt lat="47.25426" lon="-2.26471">
        <ele>22</ele>
        <time>2022-02-27T09:42:56.000Z</time>
      </trkpt>
      <trkpt lat="47.25425" lon="-2.26474">
        <ele>22.39999961853</ele>
        <time>2022-02-27T09:42:57.000Z</time>
      </trkpt>
      <trkpt lat="47.25425" lon="-2.26477">
        <ele>22.799999237061</ele>
        <time>2022-02-27T09:42:58.000Z</time>
      </trkpt>
      <trkpt lat="47.25424" lon="-2.26481">
        <ele>23.200000762939</ele>
        <time>2022-02-27T09:42:59.000Z</time>
      </trkpt>
      <trkpt lat="47.25423" lon="-2.26493">
        <ele>23.200000762939</ele>
        <time>2022-02-27T09:43:04.000Z</time>
      </trkpt>
      <trkpt lat="47.25424" lon="-2.26496">
        <ele>24.200000762939</ele>
        <time>2022-02-27T09:43:05.000Z</time>
      </trkpt>
      <trkpt lat="47.25424" lon="-2.26498">
        <ele>24.60000038147</ele>
        <time>2022-02-27T09:43:06.000Z</time>
      </trkpt>
      <trkpt lat="47.25424" lon="-2.26501">
        <ele>25</ele>
        <time>2022-02-27T09:43:07.000Z</time>
      </trkpt>
      <trkpt lat="47.25424" lon="-2.26505">
        <ele>25.39999961853</ele>
        <time>2022-02-27T09:43:08.000Z</time>
      </trkpt>
      <trkpt lat="47.25425" lon="-2.2652">
        <ele>25.39999961853</ele>
        <time>2022-02-27T09:43:12.000Z</time>
      </trkpt>
      <trkpt lat="47.25425" lon="-2.26523">
        <ele>25.799999237061</ele>
        <time>2022-02-27T09:43:13.000Z</time>
      </trkpt>
      <trkpt lat="47.25425" lon="-2.26528">
        <ele>26.39999961853</ele>
        <time>2022-02-27T09:43:14.000Z</time>
      </trkpt>
      <trkpt lat="47.25425" lon="-2.26533">
        <ele>26.799999237061</ele>
        <time>2022-02-27T09:43:15.000Z</time>
      </trkpt>
      <trkpt lat="47.25425" lon="-2.26537">
        <ele>27.200000762939</ele>
        <time>2022-02-27T09:43:16.000Z</time>
      </trkpt>
      <trkpt lat="47.25424" lon="-2.26541">
        <ele>27.60000038147</ele>
        <time>2022-02-27T09:43:17.000Z</time>
      </trkpt>
      <trkpt lat="47.25425" lon="-2.2655">
        <ele>27.60000038147</ele>
        <time>2022-02-27T09:43:19.000Z</time>
      </trkpt>
      <trkpt lat="47.25429" lon="-2.2656">
        <ele>27.60000038147</ele>
        <time>2022-02-27T09:43:21.000Z</time>
      </trkpt>
      <trkpt lat="47.25442" lon="-2.26597">
        <ele>27.60000038147</ele>
        <time>2022-02-27T09:43:28.000Z</time>
      </trkpt>
      <trkpt lat="47.25442" lon="-2.26615">
        <ele>27.60000038147</ele>
        <time>2022-02-27T09:43:33.000Z</time>
      </trkpt>
      <trkpt lat="47.25444" lon="-2.26633">
        <ele>28</ele>
        <time>2022-02-27T09:43:38.000Z</time>
      </trkpt>
      <trkpt lat="47.25444" lon="-2.26638">
        <ele>28.39999961853</ele>
        <time>2022-02-27T09:43:39.000Z</time>
      </trkpt>
      <trkpt lat="47.25445" lon="-2.26642">
        <ele>28.799999237061</ele>
        <time>2022-02-27T09:43:40.000Z</time>
      </trkpt>
      <trkpt lat="47.25446" lon="-2.26646">
        <ele>29.200000762939</ele>
        <time>2022-02-27T09:43:41.000Z</time>
      </trkpt>
      <trkpt lat="47.25447" lon="-2.26649">
        <ele>29.60000038147</ele>
        <time>2022-02-27T09:43:42.000Z</time>
      </trkpt>
      <trkpt lat="47.25452" lon="-2.26661">
        <ele>29.60000038147</ele>
        <time>2022-02-27T09:43:45.000Z</time>
      </trkpt>
      <trkpt lat="47.25467" lon="-2.26682">
        <ele>29.60000038147</ele>
        <time>2022-02-27T09:43:51.000Z</time>
      </trkpt>
      <trkpt lat="47.25473" lon="-2.2669">
        <ele>29.60000038147</ele>
        <time>2022-02-27T09:43:53.000Z</time>
      </trkpt>
      <trkpt lat="47.25477" lon="-2.26701">
        <ele>29.60000038147</ele>
        <time>2022-02-27T09:43:55.000Z</time>
      </trkpt>
      <trkpt lat="47.25476" lon="-2.26715">
        <ele>29.60000038147</ele>
        <time>2022-02-27T09:43:58.000Z</time>
      </trkpt>
      <trkpt lat="47.25478" lon="-2.26728">
        <ele>29.60000038147</ele>
        <time>2022-02-27T09:44:01.000Z</time>
      </trkpt>
      <trkpt lat="47.25479" lon="-2.26733">
        <ele>29.60000038147</ele>
        <time>2022-02-27T09:44:02.000Z</time>
      </trkpt>
      <trkpt lat="47.25486" lon="-2.2675">
        <ele>29.60000038147</ele>
        <time>2022-02-27T09:44:06.000Z</time>
      </trkpt>
      <trkpt lat="47.2549" lon="-2.26759">
        <ele>30</ele>
        <time>2022-02-27T09:44:08.000Z</time>
      </trkpt>
      <trkpt lat="47.25493" lon="-2.26763">
        <ele>30.39999961853</ele>
        <time>2022-02-27T09:44:09.000Z</time>
      </trkpt>
      <trkpt lat="47.25495" lon="-2.26767">
        <ele>30.799999237061</ele>
        <time>2022-02-27T09:44:10.000Z</time>
      </trkpt>
      <trkpt lat="47.25498" lon="-2.26772">
        <ele>31.200000762939</ele>
        <time>2022-02-27T09:44:11.000Z</time>
      </trkpt>
      <trkpt lat="47.255" lon="-2.26776">
        <ele>31.60000038147</ele>
        <time>2022-02-27T09:44:12.000Z</time>
      </trkpt>
      <trkpt lat="47.25502" lon="-2.2678">
        <ele>31.60000038147</ele>
        <time>2022-02-27T09:44:13.000Z</time>
      </trkpt>
      <trkpt lat="47.25522" lon="-2.26809">
        <ele>31.60000038147</ele>
        <time>2022-02-27T09:44:20.000Z</time>
      </trkpt>
      <trkpt lat="47.25525" lon="-2.26814">
        <ele>32</ele>
        <time>2022-02-27T09:44:21.000Z</time>
      </trkpt>
      <trkpt lat="47.25529" lon="-2.26817">
        <ele>32.599998474121</ele>
        <time>2022-02-27T09:44:22.000Z</time>
      </trkpt>
      <trkpt lat="47.25532" lon="-2.26821">
        <ele>33</ele>
        <time>2022-02-27T09:44:23.000Z</time>
      </trkpt>
      <trkpt lat="47.25536" lon="-2.26825">
        <ele>33.400001525879</ele>
        <time>2022-02-27T09:44:24.000Z</time>
      </trkpt>
      <trkpt lat="47.25539" lon="-2.26828">
        <ele>33.799999237061</ele>
        <time>2022-02-27T09:44:25.000Z</time>
      </trkpt>
      <trkpt lat="47.25558" lon="-2.26845">
        <ele>33.799999237061</ele>
        <time>2022-02-27T09:44:31.000Z</time>
      </trkpt>
      <trkpt lat="47.2557" lon="-2.26854">
        <ele>34.200000762939</ele>
        <time>2022-02-27T09:44:35.000Z</time>
      </trkpt>
      <trkpt lat="47.25573" lon="-2.26857">
        <ele>34.599998474121</ele>
        <time>2022-02-27T09:44:36.000Z</time>
      </trkpt>
      <trkpt lat="47.25577" lon="-2.26859">
        <ele>35</ele>
        <time>2022-02-27T09:44:37.000Z</time>
      </trkpt>
      <trkpt lat="47.2558" lon="-2.26861">
        <ele>35.400001525879</ele>
        <time>2022-02-27T09:44:38.000Z</time>
      </trkpt>
      <trkpt lat="47.25584" lon="-2.26863">
        <ele>36</ele>
        <time>2022-02-27T09:44:39.000Z</time>
      </trkpt>
      <trkpt lat="47.25597" lon="-2.26869">
        <ele>36</ele>
        <time>2022-02-27T09:44:43.000Z</time>
      </trkpt>
      <trkpt lat="47.25601" lon="-2.2687">
        <ele>36.400001525879</ele>
        <time>2022-02-27T09:44:44.000Z</time>
      </trkpt>
      <trkpt lat="47.25604" lon="-2.26871">
        <ele>36.799999237061</ele>
        <time>2022-02-27T09:44:45.000Z</time>
      </trkpt>
      <trkpt lat="47.25607" lon="-2.26873">
        <ele>37.200000762939</ele>
        <time>2022-02-27T09:44:46.000Z</time>
      </trkpt>
      <trkpt lat="47.2561" lon="-2.26874">
        <ele>37.599998474121</ele>
        <time>2022-02-27T09:44:47.000Z</time>
      </trkpt>
      <trkpt lat="47.25614" lon="-2.26876">
        <ele>38</ele>
        <time>2022-02-27T09:44:48.000Z</time>
      </trkpt>
      <trkpt lat="47.25617" lon="-2.26876">
        <ele>38</ele>
        <time>2022-02-27T09:44:49.000Z</time>
      </trkpt>
      <trkpt lat="47.25632" lon="-2.26867">
        <ele>38</ele>
        <time>2022-02-27T09:44:54.000Z</time>
      </trkpt>
      <trkpt lat="47.25644" lon="-2.26852">
        <ele>38.400001525879</ele>
        <time>2022-02-27T09:44:58.000Z</time>
      </trkpt>
      <trkpt lat="47.25647" lon="-2.26847">
        <ele>38.799999237061</ele>
        <time>2022-02-27T09:44:59.000Z</time>
      </trkpt>
      <trkpt lat="47.2565" lon="-2.26843">
        <ele>39.200000762939</ele>
        <time>2022-02-27T09:45:00.000Z</time>
      </trkpt>
      <trkpt lat="47.25652" lon="-2.26838">
        <ele>39.599998474121</ele>
        <time>2022-02-27T09:45:01.000Z</time>
      </trkpt>
      <trkpt lat="47.25654" lon="-2.26832">
        <ele>40</ele>
        <time>2022-02-27T09:45:02.000Z</time>
      </trkpt>
      <trkpt lat="47.25666" lon="-2.26819">
        <ele>40</ele>
        <time>2022-02-27T09:45:06.000Z</time>
      </trkpt>
      <trkpt lat="47.25684" lon="-2.26815">
        <ele>40</ele>
        <time>2022-02-27T09:45:10.000Z</time>
      </trkpt>
      <trkpt lat="47.25694" lon="-2.26816">
        <ele>40</ele>
        <time>2022-02-27T09:45:12.000Z</time>
      </trkpt>
      <trkpt lat="47.25698" lon="-2.26817">
        <ele>40</ele>
        <time>2022-02-27T09:45:13.000Z</time>
      </trkpt>
      <trkpt lat="47.25716" lon="-2.26827">
        <ele>40</ele>
        <time>2022-02-27T09:45:17.000Z</time>
      </trkpt>
      <trkpt lat="47.25728" lon="-2.26836">
        <ele>40</ele>
        <time>2022-02-27T09:45:21.000Z</time>
      </trkpt>
      <trkpt lat="47.2574" lon="-2.26858">
        <ele>40</ele>
        <time>2022-02-27T09:45:25.000Z</time>
      </trkpt>
      <trkpt lat="47.25748" lon="-2.26894">
        <ele>40</ele>
        <time>2022-02-27T09:45:30.000Z</time>
      </trkpt>
      <trkpt lat="47.25752" lon="-2.26898">
        <ele>40</ele>
        <time>2022-02-27T09:45:31.000Z</time>
      </trkpt>
      <trkpt lat="47.25761" lon="-2.26901">
        <ele>40</ele>
        <time>2022-02-27T09:45:33.000Z</time>
      </trkpt>
      <trkpt lat="47.25773" lon="-2.26894">
        <ele>40</ele>
        <time>2022-02-27T09:45:36.000Z</time>
      </trkpt>
      <trkpt lat="47.25778" lon="-2.26892">
        <ele>40</ele>
        <time>2022-02-27T09:45:37.000Z</time>
      </trkpt>
      <trkpt lat="47.25801" lon="-2.26882">
        <ele>40</ele>
        <time>2022-02-27T09:45:41.000Z</time>
      </trkpt>
      <trkpt lat="47.25836" lon="-2.26864">
        <ele>40</ele>
        <time>2022-02-27T09:45:47.000Z</time>
      </trkpt>
      <trkpt lat="47.25861" lon="-2.26853">
        <ele>39.599998474121</ele>
        <time>2022-02-27T09:45:51.000Z</time>
      </trkpt>
      <trkpt lat="47.25867" lon="-2.26851">
        <ele>39.200000762939</ele>
        <time>2022-02-27T09:45:52.000Z</time>
      </trkpt>
      <trkpt lat="47.25874" lon="-2.26849">
        <ele>38.799999237061</ele>
        <time>2022-02-27T09:45:53.000Z</time>
      </trkpt>
      <trkpt lat="47.2588" lon="-2.26846">
        <ele>38.400001525879</ele>
        <time>2022-02-27T09:45:54.000Z</time>
      </trkpt>
      <trkpt lat="47.25887" lon="-2.26843">
        <ele>38</ele>
        <time>2022-02-27T09:45:55.000Z</time>
      </trkpt>
      <trkpt lat="47.2592" lon="-2.26829">
        <ele>38</ele>
        <time>2022-02-27T09:46:00.000Z</time>
      </trkpt>
      <trkpt lat="47.25925" lon="-2.26824">
        <ele>37.400001525879</ele>
        <time>2022-02-27T09:46:01.000Z</time>
      </trkpt>
      <trkpt lat="47.25932" lon="-2.26821">
        <ele>37</ele>
        <time>2022-02-27T09:46:02.000Z</time>
      </trkpt>
      <trkpt lat="47.25938" lon="-2.26819">
        <ele>36.599998474121</ele>
        <time>2022-02-27T09:46:03.000Z</time>
      </trkpt>
      <trkpt lat="47.25944" lon="-2.26818">
        <ele>36.200000762939</ele>
        <time>2022-02-27T09:46:04.000Z</time>
      </trkpt>
      <trkpt lat="47.25951" lon="-2.26817">
        <ele>35.799999237061</ele>
        <time>2022-02-27T09:46:05.000Z</time>
      </trkpt>
      <trkpt lat="47.25985" lon="-2.26811">
        <ele>35.799999237061</ele>
        <time>2022-02-27T09:46:10.000Z</time>
      </trkpt>
      <trkpt lat="47.25991" lon="-2.26822">
        <ele>35.799999237061</ele>
        <time>2022-02-27T09:46:12.000Z</time>
      </trkpt>
      <trkpt lat="47.25993" lon="-2.26851">
        <ele>35.799999237061</ele>
        <time>2022-02-27T09:46:16.000Z</time>
      </trkpt>
      <trkpt lat="47.26" lon="-2.26899">
        <ele>35.799999237061</ele>
        <time>2022-02-27T09:46:22.000Z</time>
      </trkpt>
      <trkpt lat="47.26003" lon="-2.26906">
        <ele>35.799999237061</ele>
        <time>2022-02-27T09:46:23.000Z</time>
      </trkpt>
      <trkpt lat="47.26014" lon="-2.26926">
        <ele>35.799999237061</ele>
        <time>2022-02-27T09:46:26.000Z</time>
      </trkpt>
      <trkpt lat="47.26028" lon="-2.26946">
        <ele>35.799999237061</ele>
        <time>2022-02-27T09:46:30.000Z</time>
      </trkpt>
      <trkpt lat="47.26032" lon="-2.26951">
        <ele>35.799999237061</ele>
        <time>2022-02-27T09:46:31.000Z</time>
      </trkpt>
      <trkpt lat="47.26048" lon="-2.26972">
        <ele>35.799999237061</ele>
        <time>2022-02-27T09:46:35.000Z</time>
      </trkpt>
      <trkpt lat="47.26056" lon="-2.26984">
        <ele>35.799999237061</ele>
        <time>2022-02-27T09:46:37.000Z</time>
      </trkpt>
      <trkpt lat="47.26071" lon="-2.27017">
        <ele>35.799999237061</ele>
        <time>2022-02-27T09:46:42.000Z</time>
      </trkpt>
      <trkpt lat="47.2608" lon="-2.27055">
        <ele>35.799999237061</ele>
        <time>2022-02-27T09:46:47.000Z</time>
      </trkpt>
      <trkpt lat="47.26082" lon="-2.27063">
        <ele>35.799999237061</ele>
        <time>2022-02-27T09:46:48.000Z</time>
      </trkpt>
      <trkpt lat="47.2609" lon="-2.2711">
        <ele>35.799999237061</ele>
        <time>2022-02-27T09:46:54.000Z</time>
      </trkpt>
      <trkpt lat="47.26095" lon="-2.27143">
        <ele>35.799999237061</ele>
        <time>2022-02-27T09:46:58.000Z</time>
      </trkpt>
      <trkpt lat="47.261" lon="-2.27159">
        <ele>35.799999237061</ele>
        <time>2022-02-27T09:47:00.000Z</time>
      </trkpt>
      <trkpt lat="47.26105" lon="-2.27175">
        <ele>35.799999237061</ele>
        <time>2022-02-27T09:47:02.000Z</time>
      </trkpt>
      <trkpt lat="47.26118" lon="-2.27204">
        <ele>35.799999237061</ele>
        <time>2022-02-27T09:47:06.000Z</time>
      </trkpt>
      <trkpt lat="47.26137" lon="-2.27253">
        <ele>35.799999237061</ele>
        <time>2022-02-27T09:47:13.000Z</time>
      </trkpt>
      <trkpt lat="47.26141" lon="-2.27267">
        <ele>35.799999237061</ele>
        <time>2022-02-27T09:47:15.000Z</time>
      </trkpt>
      <trkpt lat="47.26146" lon="-2.27296">
        <ele>35.799999237061</ele>
        <time>2022-02-27T09:47:19.000Z</time>
      </trkpt>
      <trkpt lat="47.26149" lon="-2.27309">
        <ele>35.799999237061</ele>
        <time>2022-02-27T09:47:21.000Z</time>
      </trkpt>
      <trkpt lat="47.26156" lon="-2.27317">
        <ele>35.799999237061</ele>
        <time>2022-02-27T09:47:23.000Z</time>
      </trkpt>
      <trkpt lat="47.26171" lon="-2.27317">
        <ele>35.799999237061</ele>
        <time>2022-02-27T09:47:26.000Z</time>
      </trkpt>
      <trkpt lat="47.26181" lon="-2.27316">
        <ele>35.799999237061</ele>
        <time>2022-02-27T09:47:28.000Z</time>
      </trkpt>
      <trkpt lat="47.26199" lon="-2.27311">
        <ele>35.799999237061</ele>
        <time>2022-02-27T09:47:32.000Z</time>
      </trkpt>
      <trkpt lat="47.26226" lon="-2.27316">
        <ele>35.799999237061</ele>
        <time>2022-02-27T09:47:37.000Z</time>
      </trkpt>
      <trkpt lat="47.26265" lon="-2.27321">
        <ele>35.799999237061</ele>
        <time>2022-02-27T09:47:44.000Z</time>
      </trkpt>
      <trkpt lat="47.26307" lon="-2.27326">
        <ele>35.400001525879</ele>
        <time>2022-02-27T09:47:51.000Z</time>
      </trkpt>
      <trkpt lat="47.26314" lon="-2.27327">
        <ele>35</ele>
        <time>2022-02-27T09:47:52.000Z</time>
      </trkpt>
      <trkpt lat="47.2632" lon="-2.27328">
        <ele>34.599998474121</ele>
        <time>2022-02-27T09:47:53.000Z</time>
      </trkpt>
      <trkpt lat="47.26325" lon="-2.27328">
        <ele>34.200000762939</ele>
        <time>2022-02-27T09:47:54.000Z</time>
      </trkpt>
      <trkpt lat="47.26331" lon="-2.27328">
        <ele>33.799999237061</ele>
        <time>2022-02-27T09:47:55.000Z</time>
      </trkpt>
      <trkpt lat="47.26337" lon="-2.2733">
        <ele>33.799999237061</ele>
        <time>2022-02-27T09:47:56.000Z</time>
      </trkpt>
      <trkpt lat="47.26373" lon="-2.2733">
        <ele>33.799999237061</ele>
        <time>2022-02-27T09:48:02.000Z</time>
      </trkpt>
      <trkpt lat="47.2641" lon="-2.27333">
        <ele>33.799999237061</ele>
        <time>2022-02-27T09:48:08.000Z</time>
      </trkpt>
      <trkpt lat="47.26417" lon="-2.27335">
        <ele>33.400001525879</ele>
        <time>2022-02-27T09:48:09.000Z</time>
      </trkpt>
      <trkpt lat="47.26423" lon="-2.27336">
        <ele>33</ele>
        <time>2022-02-27T09:48:10.000Z</time>
      </trkpt>
      <trkpt lat="47.26427" lon="-2.27342">
        <ele>32.599998474121</ele>
        <time>2022-02-27T09:48:11.000Z</time>
      </trkpt>
      <trkpt lat="47.26431" lon="-2.27351">
        <ele>32</ele>
        <time>2022-02-27T09:48:12.000Z</time>
      </trkpt>
      <trkpt lat="47.26434" lon="-2.27357">
        <ele>31.60000038147</ele>
        <time>2022-02-27T09:48:13.000Z</time>
      </trkpt>
      <trkpt lat="47.26437" lon="-2.27364">
        <ele>31.60000038147</ele>
        <time>2022-02-27T09:48:14.000Z</time>
      </trkpt>
      <trkpt lat="47.26442" lon="-2.27375">
        <ele>31.60000038147</ele>
        <time>2022-02-27T09:48:16.000Z</time>
      </trkpt>
      <trkpt lat="47.26447" lon="-2.27388">
        <ele>31.60000038147</ele>
        <time>2022-02-27T09:48:18.000Z</time>
      </trkpt>
      <trkpt lat="47.26453" lon="-2.27409">
        <ele>31.60000038147</ele>
        <time>2022-02-27T09:48:21.000Z</time>
      </trkpt>
      <trkpt lat="47.26456" lon="-2.27417">
        <ele>31.60000038147</ele>
        <time>2022-02-27T09:48:22.000Z</time>
      </trkpt>
      <trkpt lat="47.26464" lon="-2.27444">
        <ele>31.60000038147</ele>
        <time>2022-02-27T09:48:25.000Z</time>
      </trkpt>
      <trkpt lat="47.26467" lon="-2.27453">
        <ele>31.200000762939</ele>
        <time>2022-02-27T09:48:26.000Z</time>
      </trkpt>
      <trkpt lat="47.26469" lon="-2.27462">
        <ele>30.39999961853</ele>
        <time>2022-02-27T09:48:27.000Z</time>
      </trkpt>
      <trkpt lat="47.26472" lon="-2.27471">
        <ele>30</ele>
        <time>2022-02-27T09:48:28.000Z</time>
      </trkpt>
      <trkpt lat="47.26474" lon="-2.27479">
        <ele>29.60000038147</ele>
        <time>2022-02-27T09:48:29.000Z</time>
      </trkpt>
      <trkpt lat="47.26477" lon="-2.27487">
        <ele>29.60000038147</ele>
        <time>2022-02-27T09:48:30.000Z</time>
      </trkpt>
      <trkpt lat="47.26482" lon="-2.27505">
        <ele>29.60000038147</ele>
        <time>2022-02-27T09:48:32.000Z</time>
      </trkpt>
      <trkpt lat="47.26487" lon="-2.27532">
        <ele>29.60000038147</ele>
        <time>2022-02-27T09:48:35.000Z</time>
      </trkpt>
      <trkpt lat="47.26489" lon="-2.27541">
        <ele>29.200000762939</ele>
        <time>2022-02-27T09:48:36.000Z</time>
      </trkpt>
      <trkpt lat="47.26491" lon="-2.27551">
        <ele>28.799999237061</ele>
        <time>2022-02-27T09:48:37.000Z</time>
      </trkpt>
      <trkpt lat="47.26492" lon="-2.2756">
        <ele>28.200000762939</ele>
        <time>2022-02-27T09:48:38.000Z</time>
      </trkpt>
      <trkpt lat="47.26493" lon="-2.27568">
        <ele>27.799999237061</ele>
        <time>2022-02-27T09:48:39.000Z</time>
      </trkpt>
      <trkpt lat="47.26495" lon="-2.27574">
        <ele>27.39999961853</ele>
        <time>2022-02-27T09:48:40.000Z</time>
      </trkpt>
      <trkpt lat="47.26498" lon="-2.27579">
        <ele>27.39999961853</ele>
        <time>2022-02-27T09:48:41.000Z</time>
      </trkpt>
      <trkpt lat="47.26508" lon="-2.27577">
        <ele>27.39999961853</ele>
        <time>2022-02-27T09:48:43.000Z</time>
      </trkpt>
      <trkpt lat="47.26531" lon="-2.27578">
        <ele>27.39999961853</ele>
        <time>2022-02-27T09:48:47.000Z</time>
      </trkpt>
      <trkpt lat="47.26544" lon="-2.2758">
        <ele>27.39999961853</ele>
        <time>2022-02-27T09:48:49.000Z</time>
      </trkpt>
      <trkpt lat="47.26564" lon="-2.27579">
        <ele>27.39999961853</ele>
        <time>2022-02-27T09:48:52.000Z</time>
      </trkpt>
      <trkpt lat="47.26589" lon="-2.27583">
        <ele>27.39999961853</ele>
        <time>2022-02-27T09:48:56.000Z</time>
      </trkpt>
      <trkpt lat="47.266" lon="-2.27587">
        <ele>27.39999961853</ele>
        <time>2022-02-27T09:48:58.000Z</time>
      </trkpt>
      <trkpt lat="47.2662" lon="-2.27598">
        <ele>27.39999961853</ele>
        <time>2022-02-27T09:49:02.000Z</time>
      </trkpt>
      <trkpt lat="47.26629" lon="-2.27604">
        <ele>27.39999961853</ele>
        <time>2022-02-27T09:49:04.000Z</time>
      </trkpt>
      <trkpt lat="47.26669" lon="-2.27623">
        <ele>27</ele>
        <time>2022-02-27T09:49:12.000Z</time>
      </trkpt>
      <trkpt lat="47.26674" lon="-2.27625">
        <ele>26.60000038147</ele>
        <time>2022-02-27T09:49:13.000Z</time>
      </trkpt>
      <trkpt lat="47.26679" lon="-2.27627">
        <ele>26.200000762939</ele>
        <time>2022-02-27T09:49:14.000Z</time>
      </trkpt>
      <trkpt lat="47.26684" lon="-2.27628">
        <ele>25.799999237061</ele>
        <time>2022-02-27T09:49:15.000Z</time>
      </trkpt>
      <trkpt lat="47.26689" lon="-2.2763">
        <ele>25.200000762939</ele>
        <time>2022-02-27T09:49:16.000Z</time>
      </trkpt>
      <trkpt lat="47.26701" lon="-2.27636">
        <ele>25.200000762939</ele>
        <time>2022-02-27T09:49:18.000Z</time>
      </trkpt>
      <trkpt lat="47.26722" lon="-2.27645">
        <ele>25.200000762939</ele>
        <time>2022-02-27T09:49:22.000Z</time>
      </trkpt>
      <trkpt lat="47.26734" lon="-2.27647">
        <ele>25.200000762939</ele>
        <time>2022-02-27T09:49:24.000Z</time>
      </trkpt>
      <trkpt lat="47.26753" lon="-2.27654">
        <ele>25.200000762939</ele>
        <time>2022-02-27T09:49:28.000Z</time>
      </trkpt>
      <trkpt lat="47.26757" lon="-2.27653">
        <ele>25.200000762939</ele>
        <time>2022-02-27T09:49:29.000Z</time>
      </trkpt>
      <trkpt lat="47.26764" lon="-2.2764">
        <ele>25.200000762939</ele>
        <time>2022-02-27T09:49:32.000Z</time>
      </trkpt>
      <trkpt lat="47.26762" lon="-2.27619">
        <ele>25.200000762939</ele>
        <time>2022-02-27T09:49:35.000Z</time>
      </trkpt>
      <trkpt lat="47.26757" lon="-2.27594">
        <ele>25.200000762939</ele>
        <time>2022-02-27T09:49:38.000Z</time>
      </trkpt>
      <trkpt lat="47.26755" lon="-2.27576">
        <ele>25.200000762939</ele>
        <time>2022-02-27T09:49:40.000Z</time>
      </trkpt>
      <trkpt lat="47.26752" lon="-2.27528">
        <ele>25.200000762939</ele>
        <time>2022-02-27T09:49:46.000Z</time>
      </trkpt>
      <trkpt lat="47.26751" lon="-2.27512">
        <ele>25.799999237061</ele>
        <time>2022-02-27T09:49:48.000Z</time>
      </trkpt>
      <trkpt lat="47.26751" lon="-2.27504">
        <ele>26.200000762939</ele>
        <time>2022-02-27T09:49:49.000Z</time>
      </trkpt>
      <trkpt lat="47.26751" lon="-2.27497">
        <ele>26.60000038147</ele>
        <time>2022-02-27T09:49:50.000Z</time>
      </trkpt>
      <trkpt lat="47.26751" lon="-2.27489">
        <ele>27</ele>
        <time>2022-02-27T09:49:51.000Z</time>
      </trkpt>
      <trkpt lat="47.26751" lon="-2.27482">
        <ele>27.39999961853</ele>
        <time>2022-02-27T09:49:52.000Z</time>
      </trkpt>
      <trkpt lat="47.26751" lon="-2.27433">
        <ele>27.39999961853</ele>
        <time>2022-02-27T09:49:58.000Z</time>
      </trkpt>
      <trkpt lat="47.2675" lon="-2.27425">
        <ele>27.39999961853</ele>
        <time>2022-02-27T09:49:59.000Z</time>
      </trkpt>
      <trkpt lat="47.26752" lon="-2.27419">
        <ele>27.39999961853</ele>
        <time>2022-02-27T09:50:00.000Z</time>
      </trkpt>
      <trkpt lat="47.2676" lon="-2.27413">
        <ele>27.39999961853</ele>
        <time>2022-02-27T09:50:02.000Z</time>
      </trkpt>
      <trkpt lat="47.26774" lon="-2.27413">
        <ele>27.39999961853</ele>
        <time>2022-02-27T09:50:05.000Z</time>
      </trkpt>
      <trkpt lat="47.26779" lon="-2.27413">
        <ele>27.39999961853</ele>
        <time>2022-02-27T09:50:06.000Z</time>
      </trkpt>
      <trkpt lat="47.26814" lon="-2.27413">
        <ele>27.39999961853</ele>
        <time>2022-02-27T09:50:13.000Z</time>
      </trkpt>
      <trkpt lat="47.2682" lon="-2.27412">
        <ele>27</ele>
        <time>2022-02-27T09:50:14.000Z</time>
      </trkpt>
      <trkpt lat="47.26826" lon="-2.27411">
        <ele>26.60000038147</ele>
        <time>2022-02-27T09:50:15.000Z</time>
      </trkpt>
      <trkpt lat="47.26831" lon="-2.27409">
        <ele>26.200000762939</ele>
        <time>2022-02-27T09:50:16.000Z</time>
      </trkpt>
      <trkpt lat="47.26837" lon="-2.27408">
        <ele>25.799999237061</ele>
        <time>2022-02-27T09:50:17.000Z</time>
      </trkpt>
      <trkpt lat="47.26842" lon="-2.27406">
        <ele>25.39999961853</ele>
        <time>2022-02-27T09:50:18.000Z</time>
      </trkpt>
      <trkpt lat="47.26857" lon="-2.274">
        <ele>25.39999961853</ele>
        <time>2022-02-27T09:50:21.000Z</time>
      </trkpt>
      <trkpt lat="47.26868" lon="-2.27396">
        <ele>25.39999961853</ele>
        <time>2022-02-27T09:50:23.000Z</time>
      </trkpt>
      <trkpt lat="47.26873" lon="-2.27394">
        <ele>24.799999237061</ele>
        <time>2022-02-27T09:50:24.000Z</time>
      </trkpt>
      <trkpt lat="47.26877" lon="-2.27392">
        <ele>24.39999961853</ele>
        <time>2022-02-27T09:50:25.000Z</time>
      </trkpt>
      <trkpt lat="47.26881" lon="-2.27391">
        <ele>24</ele>
        <time>2022-02-27T09:50:26.000Z</time>
      </trkpt>
      <trkpt lat="47.26886" lon="-2.27389">
        <ele>23.60000038147</ele>
        <time>2022-02-27T09:50:27.000Z</time>
      </trkpt>
      <trkpt lat="47.26889" lon="-2.27387">
        <ele>23.200000762939</ele>
        <time>2022-02-27T09:50:28.000Z</time>
      </trkpt>
      <trkpt lat="47.26895" lon="-2.27383">
        <ele>23.200000762939</ele>
        <time>2022-02-27T09:50:29.000Z</time>
      </trkpt>
      <trkpt lat="47.26899" lon="-2.2738">
        <ele>22.799999237061</ele>
        <time>2022-02-27T09:50:30.000Z</time>
      </trkpt>
      <trkpt lat="47.26903" lon="-2.27376">
        <ele>22.39999961853</ele>
        <time>2022-02-27T09:50:31.000Z</time>
      </trkpt>
      <trkpt lat="47.26906" lon="-2.27373">
        <ele>22</ele>
        <time>2022-02-27T09:50:32.000Z</time>
      </trkpt>
      <trkpt lat="47.26909" lon="-2.2737">
        <ele>21.39999961853</ele>
        <time>2022-02-27T09:50:33.000Z</time>
      </trkpt>
      <trkpt lat="47.2691" lon="-2.27365">
        <ele>21</ele>
        <time>2022-02-27T09:50:34.000Z</time>
      </trkpt>
      <trkpt lat="47.26913" lon="-2.27355">
        <ele>21</ele>
        <time>2022-02-27T09:50:37.000Z</time>
      </trkpt>
      <trkpt lat="47.26916" lon="-2.27341">
        <ele>21</ele>
        <time>2022-02-27T09:50:42.000Z</time>
      </trkpt>
      <trkpt lat="47.26922" lon="-2.27327">
        <ele>21</ele>
        <time>2022-02-27T09:50:49.000Z</time>
      </trkpt>
      <trkpt lat="47.26923" lon="-2.2732">
        <ele>21</ele>
        <time>2022-02-27T09:50:53.000Z</time>
      </trkpt>
      <trkpt lat="47.26924" lon="-2.27315">
        <ele>21</ele>
        <time>2022-02-27T09:50:55.000Z</time>
      </trkpt>
      <trkpt lat="47.26924" lon="-2.27313">
        <ele>21</ele>
        <time>2022-02-27T09:50:56.000Z</time>
      </trkpt>
      <trkpt lat="47.26924" lon="-2.27302">
        <ele>21</ele>
        <time>2022-02-27T09:51:00.000Z</time>
      </trkpt>
      <trkpt lat="47.26926" lon="-2.27289">
        <ele>21</ele>
        <time>2022-02-27T09:51:05.000Z</time>
      </trkpt>
      <trkpt lat="47.26929" lon="-2.27281">
        <ele>21</ele>
        <time>2022-02-27T09:51:09.000Z</time>
      </trkpt>
      <trkpt lat="47.26933" lon="-2.27271">
        <ele>21</ele>
        <time>2022-02-27T09:51:29.000Z</time>
      </trkpt>
      <trkpt lat="47.26936" lon="-2.2727">
        <ele>21</ele>
        <time>2022-02-27T09:51:30.000Z</time>
      </trkpt>
      <trkpt lat="47.26949" lon="-2.27266">
        <ele>21</ele>
        <time>2022-02-27T09:51:35.000Z</time>
      </trkpt>
      <trkpt lat="47.26951" lon="-2.27263">
        <ele>21</ele>
        <time>2022-02-27T09:51:37.000Z</time>
      </trkpt>
      <trkpt lat="47.26954" lon="-2.27259">
        <ele>21</ele>
        <time>2022-02-27T09:51:40.000Z</time>
      </trkpt>
      <trkpt lat="47.26961" lon="-2.27239">
        <ele>21</ele>
        <time>2022-02-27T09:51:45.000Z</time>
      </trkpt>
      <trkpt lat="47.26958" lon="-2.2722">
        <ele>21</ele>
        <time>2022-02-27T09:51:49.000Z</time>
      </trkpt>
      <trkpt lat="47.26958" lon="-2.27218">
        <ele>21</ele>
        <time>2022-02-27T09:51:50.000Z</time>
      </trkpt>
      <trkpt lat="47.26966" lon="-2.27207">
        <ele>21</ele>
        <time>2022-02-27T09:51:54.000Z</time>
      </trkpt>
      <trkpt lat="47.26974" lon="-2.27199">
        <ele>21</ele>
        <time>2022-02-27T09:51:59.000Z</time>
      </trkpt>
      <trkpt lat="47.26976" lon="-2.27186">
        <ele>21</ele>
        <time>2022-02-27T09:52:10.000Z</time>
      </trkpt>
      <trkpt lat="47.26976" lon="-2.27183">
        <ele>21</ele>
        <time>2022-02-27T09:52:11.000Z</time>
      </trkpt>
      <trkpt lat="47.26981" lon="-2.27179">
        <ele>21</ele>
        <time>2022-02-27T09:52:14.000Z</time>
      </trkpt>
      <trkpt lat="47.26982" lon="-2.2718">
        <ele>21</ele>
        <time>2022-02-27T09:52:15.000Z</time>
      </trkpt>
      <trkpt lat="47.26987" lon="-2.27181">
        <ele>21</ele>
        <time>2022-02-27T09:52:18.000Z</time>
      </trkpt>
      <trkpt lat="47.26989" lon="-2.27179">
        <ele>21</ele>
        <time>2022-02-27T09:52:20.000Z</time>
      </trkpt>
      <trkpt lat="47.26991" lon="-2.27176">
        <ele>21</ele>
        <time>2022-02-27T09:52:22.000Z</time>
      </trkpt>
      <trkpt lat="47.27" lon="-2.2717">
        <ele>21</ele>
        <time>2022-02-27T09:52:28.000Z</time>
      </trkpt>
      <trkpt lat="47.27007" lon="-2.2717">
        <ele>21</ele>
        <time>2022-02-27T09:52:32.000Z</time>
      </trkpt>
      <trkpt lat="47.27007" lon="-2.27172">
        <ele>20.60000038147</ele>
        <time>2022-02-27T09:52:33.000Z</time>
      </trkpt>
      <trkpt lat="47.27007" lon="-2.27174">
        <ele>19.799999237061</ele>
        <time>2022-02-27T09:52:34.000Z</time>
      </trkpt>
      <trkpt lat="47.27008" lon="-2.27175">
        <ele>19.39999961853</ele>
        <time>2022-02-27T09:52:35.000Z</time>
      </trkpt>
      <trkpt lat="47.2701" lon="-2.27175">
        <ele>19</ele>
        <time>2022-02-27T09:52:36.000Z</time>
      </trkpt>
      <trkpt lat="47.27011" lon="-2.27174">
        <ele>19</ele>
        <time>2022-02-27T09:52:38.000Z</time>
      </trkpt>
      <trkpt lat="47.27012" lon="-2.27172">
        <ele>19</ele>
        <time>2022-02-27T09:52:40.000Z</time>
      </trkpt>
      <trkpt lat="47.27016" lon="-2.27167">
        <ele>19</ele>
        <time>2022-02-27T09:52:43.000Z</time>
      </trkpt>
      <trkpt lat="47.27017" lon="-2.27165">
        <ele>19</ele>
        <time>2022-02-27T09:52:44.000Z</time>
      </trkpt>
      <trkpt lat="47.27023" lon="-2.27159">
        <ele>19</ele>
        <time>2022-02-27T09:52:48.000Z</time>
      </trkpt>
      <trkpt lat="47.27025" lon="-2.27158">
        <ele>18.60000038147</ele>
        <time>2022-02-27T09:52:49.000Z</time>
      </trkpt>
      <trkpt lat="47.27027" lon="-2.27156">
        <ele>18.200000762939</ele>
        <time>2022-02-27T09:52:50.000Z</time>
      </trkpt>
      <trkpt lat="47.27029" lon="-2.27152">
        <ele>17.60000038147</ele>
        <time>2022-02-27T09:52:51.000Z</time>
      </trkpt>
      <trkpt lat="47.27031" lon="-2.27149">
        <ele>17.200000762939</ele>
        <time>2022-02-27T09:52:52.000Z</time>
      </trkpt>
      <trkpt lat="47.27032" lon="-2.27145">
        <ele>16.799999237061</ele>
        <time>2022-02-27T09:52:53.000Z</time>
      </trkpt>
      <trkpt lat="47.27031" lon="-2.27137">
        <ele>16.799999237061</ele>
        <time>2022-02-27T09:52:56.000Z</time>
      </trkpt>
      <trkpt lat="47.27028" lon="-2.27131">
        <ele>16.799999237061</ele>
        <time>2022-02-27T09:52:58.000Z</time>
      </trkpt>
      <trkpt lat="47.27021" lon="-2.27117">
        <ele>16.799999237061</ele>
        <time>2022-02-27T09:53:01.000Z</time>
      </trkpt>
      <trkpt lat="47.27017" lon="-2.27108">
        <ele>17.39999961853</ele>
        <time>2022-02-27T09:53:03.000Z</time>
      </trkpt>
      <trkpt lat="47.27016" lon="-2.27104">
        <ele>17.799999237061</ele>
        <time>2022-02-27T09:53:04.000Z</time>
      </trkpt>
      <trkpt lat="47.27014" lon="-2.271">
        <ele>18.200000762939</ele>
        <time>2022-02-27T09:53:05.000Z</time>
      </trkpt>
      <trkpt lat="47.27013" lon="-2.27096">
        <ele>18.60000038147</ele>
        <time>2022-02-27T09:53:06.000Z</time>
      </trkpt>
      <trkpt lat="47.27013" lon="-2.27093">
        <ele>19.200000762939</ele>
        <time>2022-02-27T09:53:07.000Z</time>
      </trkpt>
      <trkpt lat="47.27011" lon="-2.27083">
        <ele>19.200000762939</ele>
        <time>2022-02-27T09:53:11.000Z</time>
      </trkpt>
      <trkpt lat="47.27011" lon="-2.27082">
        <ele>19.200000762939</ele>
        <time>2022-02-27T09:53:12.000Z</time>
      </trkpt>
      <trkpt lat="47.2701" lon="-2.2708">
        <ele>19.200000762939</ele>
        <time>2022-02-27T09:53:18.000Z</time>
      </trkpt>
      <trkpt lat="47.27009" lon="-2.27075">
        <ele>19.200000762939</ele>
        <time>2022-02-27T09:53:20.000Z</time>
      </trkpt>
      <trkpt lat="47.27006" lon="-2.27063">
        <ele>19.200000762939</ele>
        <time>2022-02-27T09:53:23.000Z</time>
      </trkpt>
      <trkpt lat="47.27001" lon="-2.27051">
        <ele>19.200000762939</ele>
        <time>2022-02-27T09:53:26.000Z</time>
      </trkpt>
      <trkpt lat="47.26984" lon="-2.27024">
        <ele>19.200000762939</ele>
        <time>2022-02-27T09:53:32.000Z</time>
      </trkpt>
      <trkpt lat="47.2696" lon="-2.26996">
        <ele>19.200000762939</ele>
        <time>2022-02-27T09:53:38.000Z</time>
      </trkpt>
      <trkpt lat="47.26957" lon="-2.26989">
        <ele>19.200000762939</ele>
        <time>2022-02-27T09:53:39.000Z</time>
      </trkpt>
      <trkpt lat="47.26957" lon="-2.26974">
        <ele>19.200000762939</ele>
        <time>2022-02-27T09:53:41.000Z</time>
      </trkpt>
      <trkpt lat="47.26958" lon="-2.26965">
        <ele>18.799999237061</ele>
        <time>2022-02-27T09:53:42.000Z</time>
      </trkpt>
      <trkpt lat="47.2696" lon="-2.26956">
        <ele>18.39999961853</ele>
        <time>2022-02-27T09:53:43.000Z</time>
      </trkpt>
      <trkpt lat="47.26961" lon="-2.26948">
        <ele>18</ele>
        <time>2022-02-27T09:53:44.000Z</time>
      </trkpt>
      <trkpt lat="47.26962" lon="-2.26939">
        <ele>17.60000038147</ele>
        <time>2022-02-27T09:53:45.000Z</time>
      </trkpt>
      <trkpt lat="47.26963" lon="-2.26929">
        <ele>17.200000762939</ele>
        <time>2022-02-27T09:53:46.000Z</time>
      </trkpt>
      <trkpt lat="47.26964" lon="-2.2692">
        <ele>17.200000762939</ele>
        <time>2022-02-27T09:53:47.000Z</time>
      </trkpt>
      <trkpt lat="47.26963" lon="-2.26892">
        <ele>17.200000762939</ele>
        <time>2022-02-27T09:53:50.000Z</time>
      </trkpt>
      <trkpt lat="47.26957" lon="-2.26852">
        <ele>17.200000762939</ele>
        <time>2022-02-27T09:53:55.000Z</time>
      </trkpt>
      <trkpt lat="47.26955" lon="-2.26845">
        <ele>17.200000762939</ele>
        <time>2022-02-27T09:53:56.000Z</time>
      </trkpt>
      <trkpt lat="47.26958" lon="-2.26826">
        <ele>17.200000762939</ele>
        <time>2022-02-27T09:53:59.000Z</time>
      </trkpt>
      <trkpt lat="47.2696" lon="-2.26823">
        <ele>16.60000038147</ele>
        <time>2022-02-27T09:54:00.000Z</time>
      </trkpt>
      <trkpt lat="47.26962" lon="-2.26819">
        <ele>16.200000762939</ele>
        <time>2022-02-27T09:54:01.000Z</time>
      </trkpt>
      <trkpt lat="47.26964" lon="-2.26817">
        <ele>15.800000190735</ele>
        <time>2022-02-27T09:54:02.000Z</time>
      </trkpt>
      <trkpt lat="47.26966" lon="-2.26814">
        <ele>15.39999961853</ele>
        <time>2022-02-27T09:54:03.000Z</time>
      </trkpt>
      <trkpt lat="47.26967" lon="-2.26811">
        <ele>15</ele>
        <time>2022-02-27T09:54:04.000Z</time>
      </trkpt>
      <trkpt lat="47.26975" lon="-2.26806">
        <ele>15</ele>
        <time>2022-02-27T09:54:08.000Z</time>
      </trkpt>
      <trkpt lat="47.26979" lon="-2.26802">
        <ele>15</ele>
        <time>2022-02-27T09:54:12.000Z</time>
      </trkpt>
      <trkpt lat="47.26981" lon="-2.26798">
        <ele>15</ele>
        <time>2022-02-27T09:54:15.000Z</time>
      </trkpt>
      <trkpt lat="47.26985" lon="-2.26794">
        <ele>15</ele>
        <time>2022-02-27T09:54:18.000Z</time>
      </trkpt>
      <trkpt lat="47.26988" lon="-2.26794">
        <ele>15</ele>
        <time>2022-02-27T09:54:20.000Z</time>
      </trkpt>
      <trkpt lat="47.26997" lon="-2.26787">
        <ele>15</ele>
        <time>2022-02-27T09:54:26.000Z</time>
      </trkpt>
      <trkpt lat="47.26999" lon="-2.26784">
        <ele>15</ele>
        <time>2022-02-27T09:54:28.000Z</time>
      </trkpt>
      <trkpt lat="47.27006" lon="-2.26777">
        <ele>15</ele>
        <time>2022-02-27T09:54:32.000Z</time>
      </trkpt>
      <trkpt lat="47.27008" lon="-2.26771">
        <ele>15</ele>
        <time>2022-02-27T09:54:36.000Z</time>
      </trkpt>
      <trkpt lat="47.27008" lon="-2.26771">
        <ele>14.60000038147</ele>
        <time>2022-02-27T09:54:38.000Z</time>
      </trkpt>
      <trkpt lat="47.27008" lon="-2.26771">
        <ele>14.199999809265</ele>
        <time>2022-02-27T09:54:39.000Z</time>
      </trkpt>
      <trkpt lat="47.27008" lon="-2.26771">
        <ele>13.800000190735</ele>
        <time>2022-02-27T09:54:40.000Z</time>
      </trkpt>
      <trkpt lat="47.27012" lon="-2.26766">
        <ele>13</ele>
        <time>2022-02-27T09:54:54.000Z</time>
      </trkpt>
      <trkpt lat="47.27014" lon="-2.26764">
        <ele>13</ele>
        <time>2022-02-27T09:54:55.000Z</time>
      </trkpt>
      <trkpt lat="47.27021" lon="-2.26756">
        <ele>13</ele>
        <time>2022-02-27T09:55:00.000Z</time>
      </trkpt>
      <trkpt lat="47.27026" lon="-2.26749">
        <ele>13</ele>
        <time>2022-02-27T09:55:03.000Z</time>
      </trkpt>
      <trkpt lat="47.27027" lon="-2.2674">
        <ele>13</ele>
        <time>2022-02-27T09:55:05.000Z</time>
      </trkpt>
      <trkpt lat="47.27032" lon="-2.26709">
        <ele>13</ele>
        <time>2022-02-27T09:55:10.000Z</time>
      </trkpt>
      <trkpt lat="47.2703" lon="-2.26685">
        <ele>13</ele>
        <time>2022-02-27T09:55:14.000Z</time>
      </trkpt>
      <trkpt lat="47.27029" lon="-2.26662">
        <ele>13</ele>
        <time>2022-02-27T09:55:19.000Z</time>
      </trkpt>
      <trkpt lat="47.27028" lon="-2.26658">
        <ele>13</ele>
        <time>2022-02-27T09:55:20.000Z</time>
      </trkpt>
      <trkpt lat="47.27023" lon="-2.2665">
        <ele>13</ele>
        <time>2022-02-27T09:55:22.000Z</time>
      </trkpt>
      <trkpt lat="47.27004" lon="-2.26624">
        <ele>13.39999961853</ele>
        <time>2022-02-27T09:55:28.000Z</time>
      </trkpt>
      <trkpt lat="47.27001" lon="-2.26619">
        <ele>14</ele>
        <time>2022-02-27T09:55:29.000Z</time>
      </trkpt>
      <trkpt lat="47.26998" lon="-2.26614">
        <ele>14.39999961853</ele>
        <time>2022-02-27T09:55:30.000Z</time>
      </trkpt>
      <trkpt lat="47.26995" lon="-2.26608">
        <ele>14.800000190735</ele>
        <time>2022-02-27T09:55:31.000Z</time>
      </trkpt>
      <trkpt lat="47.26992" lon="-2.26603">
        <ele>15.199999809265</ele>
        <time>2022-02-27T09:55:32.000Z</time>
      </trkpt>
      <trkpt lat="47.26981" lon="-2.26582">
        <ele>15.199999809265</ele>
        <time>2022-02-27T09:55:36.000Z</time>
      </trkpt>
      <trkpt lat="47.26972" lon="-2.26546">
        <ele>15.199999809265</ele>
        <time>2022-02-27T09:55:43.000Z</time>
      </trkpt>
      <trkpt lat="47.26965" lon="-2.2652">
        <ele>15.199999809265</ele>
        <time>2022-02-27T09:55:49.000Z</time>
      </trkpt>
      <trkpt lat="47.26965" lon="-2.26511">
        <ele>15.800000190735</ele>
        <time>2022-02-27T09:55:51.000Z</time>
      </trkpt>
      <trkpt lat="47.26966" lon="-2.26508">
        <ele>16.200000762939</ele>
        <time>2022-02-27T09:55:52.000Z</time>
      </trkpt>
      <trkpt lat="47.26967" lon="-2.26505">
        <ele>16.60000038147</ele>
        <time>2022-02-27T09:55:53.000Z</time>
      </trkpt>
      <trkpt lat="47.26969" lon="-2.26501">
        <ele>17</ele>
        <time>2022-02-27T09:55:54.000Z</time>
      </trkpt>
      <trkpt lat="47.26972" lon="-2.26498">
        <ele>17.39999961853</ele>
        <time>2022-02-27T09:55:55.000Z</time>
      </trkpt>
      <trkpt lat="47.26979" lon="-2.26491">
        <ele>17.39999961853</ele>
        <time>2022-02-27T09:55:57.000Z</time>
      </trkpt>
      <trkpt lat="47.27002" lon="-2.26462">
        <ele>17.39999961853</ele>
        <time>2022-02-27T09:56:03.000Z</time>
      </trkpt>
      <trkpt lat="47.27018" lon="-2.2644">
        <ele>17.39999961853</ele>
        <time>2022-02-27T09:56:07.000Z</time>
      </trkpt>
      <trkpt lat="47.27025" lon="-2.26428">
        <ele>17.39999961853</ele>
        <time>2022-02-27T09:56:09.000Z</time>
      </trkpt>
      <trkpt lat="47.27051" lon="-2.26395">
        <ele>17.39999961853</ele>
        <time>2022-02-27T09:56:16.000Z</time>
      </trkpt>
      <trkpt lat="47.27072" lon="-2.26364">
        <ele>17.39999961853</ele>
        <time>2022-02-27T09:56:22.000Z</time>
      </trkpt>
      <trkpt lat="47.27099" lon="-2.2632">
        <ele>17.39999961853</ele>
        <time>2022-02-27T09:56:29.000Z</time>
      </trkpt>
      <trkpt lat="47.27123" lon="-2.26289">
        <ele>17.39999961853</ele>
        <time>2022-02-27T09:56:34.000Z</time>
      </trkpt>
      <trkpt lat="47.27155" lon="-2.26243">
        <ele>17.39999961853</ele>
        <time>2022-02-27T09:56:40.000Z</time>
      </trkpt>
      <trkpt lat="47.27197" lon="-2.26198">
        <ele>17.39999961853</ele>
        <time>2022-02-27T09:56:46.000Z</time>
      </trkpt>
      <trkpt lat="47.27213" lon="-2.26186">
        <ele>17</ele>
        <time>2022-02-27T09:56:48.000Z</time>
      </trkpt>
      <trkpt lat="47.27221" lon="-2.2618">
        <ele>16.60000038147</ele>
        <time>2022-02-27T09:56:49.000Z</time>
      </trkpt>
      <trkpt lat="47.27228" lon="-2.26175">
        <ele>16.200000762939</ele>
        <time>2022-02-27T09:56:50.000Z</time>
      </trkpt>
      <trkpt lat="47.27236" lon="-2.26169">
        <ele>15.800000190735</ele>
        <time>2022-02-27T09:56:51.000Z</time>
      </trkpt>
      <trkpt lat="47.27244" lon="-2.26164">
        <ele>15.39999961853</ele>
        <time>2022-02-27T09:56:52.000Z</time>
      </trkpt>
      <trkpt lat="47.27292" lon="-2.2614">
        <ele>15.39999961853</ele>
        <time>2022-02-27T09:56:58.000Z</time>
      </trkpt>
      <trkpt lat="47.2733" lon="-2.2613">
        <ele>15.39999961853</ele>
        <time>2022-02-27T09:57:03.000Z</time>
      </trkpt>
      <trkpt lat="47.27342" lon="-2.26124">
        <ele>15.39999961853</ele>
        <time>2022-02-27T09:57:05.000Z</time>
      </trkpt>
      <trkpt lat="47.27345" lon="-2.26117">
        <ele>15.39999961853</ele>
        <time>2022-02-27T09:57:06.000Z</time>
      </trkpt>
      <trkpt lat="47.27339" lon="-2.26095">
        <ele>15.39999961853</ele>
        <time>2022-02-27T09:57:09.000Z</time>
      </trkpt>
      <trkpt lat="47.27331" lon="-2.26081">
        <ele>15.39999961853</ele>
        <time>2022-02-27T09:57:11.000Z</time>
      </trkpt>
      <trkpt lat="47.27319" lon="-2.26058">
        <ele>15.39999961853</ele>
        <time>2022-02-27T09:57:14.000Z</time>
      </trkpt>
      <trkpt lat="47.27315" lon="-2.2605">
        <ele>15</ele>
        <time>2022-02-27T09:57:15.000Z</time>
      </trkpt>
      <trkpt lat="47.27311" lon="-2.26043">
        <ele>14.60000038147</ele>
        <time>2022-02-27T09:57:16.000Z</time>
      </trkpt>
      <trkpt lat="47.27307" lon="-2.26035">
        <ele>14.199999809265</ele>
        <time>2022-02-27T09:57:17.000Z</time>
      </trkpt>
      <trkpt lat="47.27304" lon="-2.26027">
        <ele>13.800000190735</ele>
        <time>2022-02-27T09:57:18.000Z</time>
      </trkpt>
      <trkpt lat="47.273" lon="-2.2602">
        <ele>13.39999961853</ele>
        <time>2022-02-27T09:57:19.000Z</time>
      </trkpt>
      <trkpt lat="47.27293" lon="-2.26007">
        <ele>13.39999961853</ele>
        <time>2022-02-27T09:57:21.000Z</time>
      </trkpt>
      <trkpt lat="47.27291" lon="-2.26001">
        <ele>13.39999961853</ele>
        <time>2022-02-27T09:57:22.000Z</time>
      </trkpt>
      <trkpt lat="47.27292" lon="-2.25992">
        <ele>13.39999961853</ele>
        <time>2022-02-27T09:57:24.000Z</time>
      </trkpt>
      <trkpt lat="47.27301" lon="-2.25984">
        <ele>13.39999961853</ele>
        <time>2022-02-27T09:57:27.000Z</time>
      </trkpt>
      <trkpt lat="47.27304" lon="-2.25981">
        <ele>13.39999961853</ele>
        <time>2022-02-27T09:57:28.000Z</time>
      </trkpt>
      <trkpt lat="47.27325" lon="-2.25968">
        <ele>13.39999961853</ele>
        <time>2022-02-27T09:57:34.000Z</time>
      </trkpt>
      <trkpt lat="47.27329" lon="-2.25965">
        <ele>13.39999961853</ele>
        <time>2022-02-27T09:57:35.000Z</time>
      </trkpt>
      <trkpt lat="47.27349" lon="-2.25954">
        <ele>13.39999961853</ele>
        <time>2022-02-27T09:57:40.000Z</time>
      </trkpt>
      <trkpt lat="47.27353" lon="-2.25951">
        <ele>13.39999961853</ele>
        <time>2022-02-27T09:57:41.000Z</time>
      </trkpt>
      <trkpt lat="47.27362" lon="-2.25943">
        <ele>13.39999961853</ele>
        <time>2022-02-27T09:57:43.000Z</time>
      </trkpt>
      <trkpt lat="47.27366" lon="-2.25938">
        <ele>13.39999961853</ele>
        <time>2022-02-27T09:57:44.000Z</time>
      </trkpt>
      <trkpt lat="47.27379" lon="-2.2592">
        <ele>13.39999961853</ele>
        <time>2022-02-27T09:57:47.000Z</time>
      </trkpt>
      <trkpt lat="47.27384" lon="-2.25915">
        <ele>13.39999961853</ele>
        <time>2022-02-27T09:57:48.000Z</time>
      </trkpt>
      <trkpt lat="47.27403" lon="-2.25891">
        <ele>13.39999961853</ele>
        <time>2022-02-27T09:57:52.000Z</time>
      </trkpt>
      <trkpt lat="47.27411" lon="-2.25876">
        <ele>13.39999961853</ele>
        <time>2022-02-27T09:57:54.000Z</time>
      </trkpt>
      <trkpt lat="47.27422" lon="-2.25855">
        <ele>13.39999961853</ele>
        <time>2022-02-27T09:57:57.000Z</time>
      </trkpt>
      <trkpt lat="47.27434" lon="-2.25836">
        <ele>13.39999961853</ele>
        <time>2022-02-27T09:58:00.000Z</time>
      </trkpt>
      <trkpt lat="47.27441" lon="-2.25823">
        <ele>13.39999961853</ele>
        <time>2022-02-27T09:58:02.000Z</time>
      </trkpt>
      <trkpt lat="47.27448" lon="-2.25811">
        <ele>13.39999961853</ele>
        <time>2022-02-27T09:58:04.000Z</time>
      </trkpt>
      <trkpt lat="47.27451" lon="-2.25807">
        <ele>13.39999961853</ele>
        <time>2022-02-27T09:58:05.000Z</time>
      </trkpt>
      <trkpt lat="47.27462" lon="-2.25797">
        <ele>13.39999961853</ele>
        <time>2022-02-27T09:58:09.000Z</time>
      </trkpt>
      <trkpt lat="47.27475" lon="-2.25786">
        <ele>13.39999961853</ele>
        <time>2022-02-27T09:58:14.000Z</time>
      </trkpt>
      <trkpt lat="47.27488" lon="-2.25772">
        <ele>13.39999961853</ele>
        <time>2022-02-27T09:58:18.000Z</time>
      </trkpt>
      <trkpt lat="47.27494" lon="-2.25764">
        <ele>13.39999961853</ele>
        <time>2022-02-27T09:58:20.000Z</time>
      </trkpt>
      <trkpt lat="47.27501" lon="-2.25755">
        <ele>13.39999961853</ele>
        <time>2022-02-27T09:58:22.000Z</time>
      </trkpt>
      <trkpt lat="47.27512" lon="-2.25741">
        <ele>13.39999961853</ele>
        <time>2022-02-27T09:58:25.000Z</time>
      </trkpt>
      <trkpt lat="47.27515" lon="-2.25737">
        <ele>13</ele>
        <time>2022-02-27T09:58:26.000Z</time>
      </trkpt>
      <trkpt lat="47.27517" lon="-2.25733">
        <ele>12.60000038147</ele>
        <time>2022-02-27T09:58:27.000Z</time>
      </trkpt>
      <trkpt lat="47.2752" lon="-2.25728">
        <ele>12.199999809265</ele>
        <time>2022-02-27T09:58:28.000Z</time>
      </trkpt>
      <trkpt lat="47.27524" lon="-2.25722">
        <ele>11.60000038147</ele>
        <time>2022-02-27T09:58:29.000Z</time>
      </trkpt>
      <trkpt lat="47.27527" lon="-2.25716">
        <ele>11.199999809265</ele>
        <time>2022-02-27T09:58:30.000Z</time>
      </trkpt>
      <trkpt lat="47.27533" lon="-2.25705">
        <ele>11.199999809265</ele>
        <time>2022-02-27T09:58:32.000Z</time>
      </trkpt>
      <trkpt lat="47.27543" lon="-2.25688">
        <ele>11.199999809265</ele>
        <time>2022-02-27T09:58:35.000Z</time>
      </trkpt>
      <trkpt lat="47.27548" lon="-2.25677">
        <ele>10.800000190735</ele>
        <time>2022-02-27T09:58:37.000Z</time>
      </trkpt>
      <trkpt lat="47.27552" lon="-2.25673">
        <ele>10.39999961853</ele>
        <time>2022-02-27T09:58:38.000Z</time>
      </trkpt>
      <trkpt lat="47.27555" lon="-2.25669">
        <ele>10</ele>
        <time>2022-02-27T09:58:39.000Z</time>
      </trkpt>
      <trkpt lat="47.27557" lon="-2.25665">
        <ele>9.3999996185303</ele>
        <time>2022-02-27T09:58:40.000Z</time>
      </trkpt>
      <trkpt lat="47.2756" lon="-2.25661">
        <ele>9</ele>
        <time>2022-02-27T09:58:41.000Z</time>
      </trkpt>
      <trkpt lat="47.2756" lon="-2.25657">
        <ele>9</ele>
        <time>2022-02-27T09:58:42.000Z</time>
      </trkpt>
      <trkpt lat="47.2756" lon="-2.25653">
        <ele>9</ele>
        <time>2022-02-27T09:58:43.000Z</time>
      </trkpt>
      <trkpt lat="47.27559" lon="-2.25637">
        <ele>9</ele>
        <time>2022-02-27T09:58:48.000Z</time>
      </trkpt>
      <trkpt lat="47.2756" lon="-2.25632">
        <ele>9</ele>
        <time>2022-02-27T09:58:51.000Z</time>
      </trkpt>
      <trkpt lat="47.27561" lon="-2.25628">
        <ele>9</ele>
        <time>2022-02-27T09:59:51.000Z</time>
      </trkpt>
      <trkpt lat="47.27561" lon="-2.25624">
        <ele>9</ele>
        <time>2022-02-27T09:59:52.000Z</time>
      </trkpt>
      <trkpt lat="47.27563" lon="-2.25597">
        <ele>9</ele>
        <time>2022-02-27T09:59:57.000Z</time>
      </trkpt>
      <trkpt lat="47.2756" lon="-2.25568">
        <ele>9</ele>
        <time>2022-02-27T10:00:01.000Z</time>
      </trkpt>
      <trkpt lat="47.27553" lon="-2.25541">
        <ele>9</ele>
        <time>2022-02-27T10:00:05.000Z</time>
      </trkpt>
      <trkpt lat="47.27551" lon="-2.25534">
        <ele>9</ele>
        <time>2022-02-27T10:00:06.000Z</time>
      </trkpt>
      <trkpt lat="47.27541" lon="-2.25511">
        <ele>9</ele>
        <time>2022-02-27T10:00:10.000Z</time>
      </trkpt>
      <trkpt lat="47.27524" lon="-2.25477">
        <ele>9</ele>
        <time>2022-02-27T10:00:16.000Z</time>
      </trkpt>
      <trkpt lat="47.27516" lon="-2.25468">
        <ele>9</ele>
        <time>2022-02-27T10:00:18.000Z</time>
      </trkpt>
      <trkpt lat="47.27507" lon="-2.25458">
        <ele>9</ele>
        <time>2022-02-27T10:00:20.000Z</time>
      </trkpt>
      <trkpt lat="47.27503" lon="-2.25455">
        <ele>9</ele>
        <time>2022-02-27T10:00:21.000Z</time>
      </trkpt>
      <trkpt lat="47.27487" lon="-2.25451">
        <ele>9</ele>
        <time>2022-02-27T10:00:24.000Z</time>
      </trkpt>
      <trkpt lat="47.27476" lon="-2.25452">
        <ele>9</ele>
        <time>2022-02-27T10:00:26.000Z</time>
      </trkpt>
      <trkpt lat="47.27465" lon="-2.25452">
        <ele>9</ele>
        <time>2022-02-27T10:00:28.000Z</time>
      </trkpt>
      <trkpt lat="47.2746" lon="-2.2545">
        <ele>9</ele>
        <time>2022-02-27T10:00:29.000Z</time>
      </trkpt>
      <trkpt lat="47.27442" lon="-2.25443">
        <ele>9</ele>
        <time>2022-02-27T10:00:33.000Z</time>
      </trkpt>
      <trkpt lat="47.27439" lon="-2.2544">
        <ele>9</ele>
        <time>2022-02-27T10:00:34.000Z</time>
      </trkpt>
      <trkpt lat="47.27432" lon="-2.25431">
        <ele>9</ele>
        <time>2022-02-27T10:00:38.000Z</time>
      </trkpt>
      <trkpt lat="47.27431" lon="-2.25428">
        <ele>9</ele>
        <time>2022-02-27T10:00:39.000Z</time>
      </trkpt>
      <trkpt lat="47.27422" lon="-2.25418">
        <ele>9</ele>
        <time>2022-02-27T10:00:43.000Z</time>
      </trkpt>
      <trkpt lat="47.27418" lon="-2.25406">
        <ele>9</ele>
        <time>2022-02-27T10:00:47.000Z</time>
      </trkpt>
      <trkpt lat="47.27411" lon="-2.25392">
        <ele>9</ele>
        <time>2022-02-27T10:00:53.000Z</time>
      </trkpt>
      <trkpt lat="47.27407" lon="-2.25381">
        <ele>9</ele>
        <time>2022-02-27T10:00:58.000Z</time>
      </trkpt>
      <trkpt lat="47.27405" lon="-2.25373">
        <ele>9</ele>
        <time>2022-02-27T10:01:00.000Z</time>
      </trkpt>
      <trkpt lat="47.27403" lon="-2.25366">
        <ele>9</ele>
        <time>2022-02-27T10:01:02.000Z</time>
      </trkpt>
      <trkpt lat="47.27404" lon="-2.25363">
        <ele>9</ele>
        <time>2022-02-27T10:01:03.000Z</time>
      </trkpt>
      <trkpt lat="47.27403" lon="-2.25342">
        <ele>9</ele>
        <time>2022-02-27T10:01:09.000Z</time>
      </trkpt>
      <trkpt lat="47.27396" lon="-2.25325">
        <ele>9</ele>
        <time>2022-02-27T10:01:14.000Z</time>
      </trkpt>
      <trkpt lat="47.27396" lon="-2.25321">
        <ele>9</ele>
        <time>2022-02-27T10:01:15.000Z</time>
      </trkpt>
      <trkpt lat="47.27397" lon="-2.25307">
        <ele>9</ele>
        <time>2022-02-27T10:01:18.000Z</time>
      </trkpt>
      <trkpt lat="47.27395" lon="-2.25285">
        <ele>9</ele>
        <time>2022-02-27T10:01:22.000Z</time>
      </trkpt>
      <trkpt lat="47.27393" lon="-2.25271">
        <ele>9</ele>
        <time>2022-02-27T10:01:25.000Z</time>
      </trkpt>
      <trkpt lat="47.2739" lon="-2.25262">
        <ele>9</ele>
        <time>2022-02-27T10:01:27.000Z</time>
      </trkpt>
      <trkpt lat="47.27388" lon="-2.25248">
        <ele>8.6000003814697</ele>
        <time>2022-02-27T10:01:31.000Z</time>
      </trkpt>
      <trkpt lat="47.27388" lon="-2.25244">
        <ele>8.1999998092651</ele>
        <time>2022-02-27T10:01:32.000Z</time>
      </trkpt>
      <trkpt lat="47.27388" lon="-2.25241">
        <ele>7.8000001907349</ele>
        <time>2022-02-27T10:01:33.000Z</time>
      </trkpt>
      <trkpt lat="47.27387" lon="-2.25239">
        <ele>7.4000000953674</ele>
        <time>2022-02-27T10:01:34.000Z</time>
      </trkpt>
      <trkpt lat="47.27387" lon="-2.25238">
        <ele>7</ele>
        <time>2022-02-27T10:01:35.000Z</time>
      </trkpt>
      <trkpt lat="47.27387" lon="-2.25236">
        <ele>7</ele>
        <time>2022-02-27T10:01:36.000Z</time>
      </trkpt>
      <trkpt lat="47.27385" lon="-2.25222">
        <ele>7</ele>
        <time>2022-02-27T10:01:43.000Z</time>
      </trkpt>
      <trkpt lat="47.27386" lon="-2.2522">
        <ele>7</ele>
        <time>2022-02-27T10:01:44.000Z</time>
      </trkpt>
      <trkpt lat="47.27387" lon="-2.25213">
        <ele>7</ele>
        <time>2022-02-27T10:01:48.000Z</time>
      </trkpt>
      <trkpt lat="47.27387" lon="-2.25212">
        <ele>7</ele>
        <time>2022-02-27T10:01:49.000Z</time>
      </trkpt>
      <trkpt lat="47.27388" lon="-2.25205">
        <ele>7</ele>
        <time>2022-02-27T10:02:02.000Z</time>
      </trkpt>
      <trkpt lat="47.27386" lon="-2.25194">
        <ele>7</ele>
        <time>2022-02-27T10:02:05.000Z</time>
      </trkpt>
      <trkpt lat="47.2738" lon="-2.25174">
        <ele>7</ele>
        <time>2022-02-27T10:02:09.000Z</time>
      </trkpt>
      <trkpt lat="47.27364" lon="-2.25134">
        <ele>7</ele>
        <time>2022-02-27T10:02:16.000Z</time>
      </trkpt>
      <trkpt lat="47.27362" lon="-2.25127">
        <ele>7</ele>
        <time>2022-02-27T10:02:17.000Z</time>
      </trkpt>
      <trkpt lat="47.27354" lon="-2.25107">
        <ele>7</ele>
        <time>2022-02-27T10:02:20.000Z</time>
      </trkpt>
      <trkpt lat="47.27341" lon="-2.25063">
        <ele>7</ele>
        <time>2022-02-27T10:02:26.000Z</time>
      </trkpt>
      <trkpt lat="47.27339" lon="-2.25056">
        <ele>7</ele>
        <time>2022-02-27T10:02:27.000Z</time>
      </trkpt>
      <trkpt lat="47.27332" lon="-2.25024">
        <ele>7</ele>
        <time>2022-02-27T10:02:31.000Z</time>
      </trkpt>
      <trkpt lat="47.27329" lon="-2.25011">
        <ele>7</ele>
        <time>2022-02-27T10:02:33.000Z</time>
      </trkpt>
      <trkpt lat="47.27329" lon="-2.24997">
        <ele>7</ele>
        <time>2022-02-27T10:02:35.000Z</time>
      </trkpt>
      <trkpt lat="47.27338" lon="-2.24973">
        <ele>7</ele>
        <time>2022-02-27T10:02:39.000Z</time>
      </trkpt>
      <trkpt lat="47.2735" lon="-2.24959">
        <ele>7</ele>
        <time>2022-02-27T10:02:42.000Z</time>
      </trkpt>
      <trkpt lat="47.27357" lon="-2.2495">
        <ele>7</ele>
        <time>2022-02-27T10:02:44.000Z</time>
      </trkpt>
      <trkpt lat="47.27382" lon="-2.24914">
        <ele>7</ele>
        <time>2022-02-27T10:02:51.000Z</time>
      </trkpt>
      <trkpt lat="47.27388" lon="-2.24904">
        <ele>7</ele>
        <time>2022-02-27T10:02:53.000Z</time>
      </trkpt>
      <trkpt lat="47.27399" lon="-2.2489">
        <ele>7</ele>
        <time>2022-02-27T10:02:56.000Z</time>
      </trkpt>
      <trkpt lat="47.27406" lon="-2.24873">
        <ele>7</ele>
        <time>2022-02-27T10:03:00.000Z</time>
      </trkpt>
      <trkpt lat="47.27423" lon="-2.24839">
        <ele>7</ele>
        <time>2022-02-27T10:03:08.000Z</time>
      </trkpt>
      <trkpt lat="47.27433" lon="-2.24812">
        <ele>7</ele>
        <time>2022-02-27T10:03:12.000Z</time>
      </trkpt>
      <trkpt lat="47.2745" lon="-2.2479">
        <ele>7</ele>
        <time>2022-02-27T10:03:17.000Z</time>
      </trkpt>
      <trkpt lat="47.2746" lon="-2.24785">
        <ele>7.4000000953674</ele>
        <time>2022-02-27T10:03:20.000Z</time>
      </trkpt>
      <trkpt lat="47.27463" lon="-2.24785">
        <ele>7.8000001907349</ele>
        <time>2022-02-27T10:03:21.000Z</time>
      </trkpt>
      <trkpt lat="47.27466" lon="-2.24784">
        <ele>8.1999998092651</ele>
        <time>2022-02-27T10:03:22.000Z</time>
      </trkpt>
      <trkpt lat="47.27469" lon="-2.24784">
        <ele>8.6000003814697</ele>
        <time>2022-02-27T10:03:23.000Z</time>
      </trkpt>
      <trkpt lat="47.27471" lon="-2.24784">
        <ele>9</ele>
        <time>2022-02-27T10:03:24.000Z</time>
      </trkpt>
      <trkpt lat="47.27477" lon="-2.24786">
        <ele>9</ele>
        <time>2022-02-27T10:03:26.000Z</time>
      </trkpt>
      <trkpt lat="47.2748" lon="-2.24787">
        <ele>9</ele>
        <time>2022-02-27T10:03:27.000Z</time>
      </trkpt>
      <trkpt lat="47.27483" lon="-2.24787">
        <ele>9.3999996185303</ele>
        <time>2022-02-27T10:03:28.000Z</time>
      </trkpt>
      <trkpt lat="47.27486" lon="-2.24787">
        <ele>9.8000001907349</ele>
        <time>2022-02-27T10:03:29.000Z</time>
      </trkpt>
      <trkpt lat="47.27489" lon="-2.24787">
        <ele>10.39999961853</ele>
        <time>2022-02-27T10:03:30.000Z</time>
      </trkpt>
      <trkpt lat="47.27492" lon="-2.24787">
        <ele>10.800000190735</ele>
        <time>2022-02-27T10:03:31.000Z</time>
      </trkpt>
      <trkpt lat="47.27494" lon="-2.24787">
        <ele>11.199999809265</ele>
        <time>2022-02-27T10:03:32.000Z</time>
      </trkpt>
      <trkpt lat="47.27497" lon="-2.24787">
        <ele>11.199999809265</ele>
        <time>2022-02-27T10:03:33.000Z</time>
      </trkpt>
      <trkpt lat="47.27516" lon="-2.24786">
        <ele>12</ele>
        <time>2022-02-27T10:03:39.000Z</time>
      </trkpt>
      <trkpt lat="47.2752" lon="-2.24787">
        <ele>12.39999961853</ele>
        <time>2022-02-27T10:03:40.000Z</time>
      </trkpt>
      <trkpt lat="47.27524" lon="-2.24787">
        <ele>12.800000190735</ele>
        <time>2022-02-27T10:03:41.000Z</time>
      </trkpt>
      <trkpt lat="47.27528" lon="-2.24786">
        <ele>13.39999961853</ele>
        <time>2022-02-27T10:03:42.000Z</time>
      </trkpt>
      <trkpt lat="47.27543" lon="-2.24787">
        <ele>13.39999961853</ele>
        <time>2022-02-27T10:03:46.000Z</time>
      </trkpt>
      <trkpt lat="47.27575" lon="-2.2479">
        <ele>13.39999961853</ele>
        <time>2022-02-27T10:03:54.000Z</time>
      </trkpt>
      <trkpt lat="47.27603" lon="-2.24792">
        <ele>13.39999961853</ele>
        <time>2022-02-27T10:04:01.000Z</time>
      </trkpt>
      <trkpt lat="47.27628" lon="-2.2479">
        <ele>13.39999961853</ele>
        <time>2022-02-27T10:04:07.000Z</time>
      </trkpt>
      <trkpt lat="47.2765" lon="-2.24796">
        <ele>13.39999961853</ele>
        <time>2022-02-27T10:04:11.000Z</time>
      </trkpt>
      <trkpt lat="47.27656" lon="-2.248">
        <ele>13.39999961853</ele>
        <time>2022-02-27T10:04:12.000Z</time>
      </trkpt>
      <trkpt lat="47.27675" lon="-2.24805">
        <ele>13.39999961853</ele>
        <time>2022-02-27T10:04:15.000Z</time>
      </trkpt>
      <trkpt lat="47.27681" lon="-2.24805">
        <ele>13.39999961853</ele>
        <time>2022-02-27T10:04:16.000Z</time>
      </trkpt>
      <trkpt lat="47.27717" lon="-2.24804">
        <ele>13.39999961853</ele>
        <time>2022-02-27T10:04:22.000Z</time>
      </trkpt>
      <trkpt lat="47.27763" lon="-2.24802">
        <ele>13.39999961853</ele>
        <time>2022-02-27T10:04:30.000Z</time>
      </trkpt>
      <trkpt lat="47.278" lon="-2.248">
        <ele>13.39999961853</ele>
        <time>2022-02-27T10:04:37.000Z</time>
      </trkpt>
      <trkpt lat="47.27834" lon="-2.24795">
        <ele>13.39999961853</ele>
        <time>2022-02-27T10:04:44.000Z</time>
      </trkpt>
      <trkpt lat="47.27848" lon="-2.24791">
        <ele>13.39999961853</ele>
        <time>2022-02-27T10:04:47.000Z</time>
      </trkpt>
      <trkpt lat="47.27854" lon="-2.24785">
        <ele>13.39999961853</ele>
        <time>2022-02-27T10:04:49.000Z</time>
      </trkpt>
      <trkpt lat="47.27862" lon="-2.24772">
        <ele>13.39999961853</ele>
        <time>2022-02-27T10:04:54.000Z</time>
      </trkpt>
      <trkpt lat="47.27862" lon="-2.24772">
        <ele>13.39999961853</ele>
        <time>2022-02-27T10:04:55.000Z</time>
      </trkpt>
      <trkpt lat="47.27864" lon="-2.24772">
        <ele>13.39999961853</ele>
        <time>2022-02-27T10:04:57.000Z</time>
      </trkpt>
      <trkpt lat="47.27866" lon="-2.24772">
        <ele>13.39999961853</ele>
        <time>2022-02-27T10:04:58.000Z</time>
      </trkpt>
      <trkpt lat="47.27875" lon="-2.24783">
        <ele>13.39999961853</ele>
        <time>2022-02-27T10:05:02.000Z</time>
      </trkpt>
      <trkpt lat="47.27883" lon="-2.24783">
        <ele>13.800000190735</ele>
        <time>2022-02-27T10:05:05.000Z</time>
      </trkpt>
      <trkpt lat="47.27884" lon="-2.24784">
        <ele>14.199999809265</ele>
        <time>2022-02-27T10:05:06.000Z</time>
      </trkpt>
      <trkpt lat="47.27886" lon="-2.24784">
        <ele>14.60000038147</ele>
        <time>2022-02-27T10:05:07.000Z</time>
      </trkpt>
      <trkpt lat="47.27888" lon="-2.24784">
        <ele>15</ele>
        <time>2022-02-27T10:05:08.000Z</time>
      </trkpt>
      <trkpt lat="47.2789" lon="-2.24783">
        <ele>15.39999961853</ele>
        <time>2022-02-27T10:05:09.000Z</time>
      </trkpt>
      <trkpt lat="47.27894" lon="-2.24783">
        <ele>15.39999961853</ele>
        <time>2022-02-27T10:05:11.000Z</time>
      </trkpt>
      <trkpt lat="47.27898" lon="-2.24784">
        <ele>15.39999961853</ele>
        <time>2022-02-27T10:05:14.000Z</time>
      </trkpt>
      <trkpt lat="47.27898" lon="-2.24785">
        <ele>15.39999961853</ele>
        <time>2022-02-27T10:05:15.000Z</time>
      </trkpt>
      <trkpt lat="47.27897" lon="-2.24789">
        <ele>15.39999961853</ele>
        <time>2022-02-27T10:05:31.000Z</time>
      </trkpt>
      <trkpt lat="47.27904" lon="-2.24799">
        <ele>15.39999961853</ele>
        <time>2022-02-27T10:05:35.000Z</time>
      </trkpt>
      <trkpt lat="47.27908" lon="-2.24801">
        <ele>15.39999961853</ele>
        <time>2022-02-27T10:05:36.000Z</time>
      </trkpt>
      <trkpt lat="47.27919" lon="-2.24807">
        <ele>15.39999961853</ele>
        <time>2022-02-27T10:05:39.000Z</time>
      </trkpt>
      <trkpt lat="47.27923" lon="-2.2481">
        <ele>15.39999961853</ele>
        <time>2022-02-27T10:05:40.000Z</time>
      </trkpt>
      <trkpt lat="47.27928" lon="-2.24812">
        <ele>15.39999961853</ele>
        <time>2022-02-27T10:05:41.000Z</time>
      </trkpt>
      <trkpt lat="47.2794" lon="-2.24816">
        <ele>15.39999961853</ele>
        <time>2022-02-27T10:05:44.000Z</time>
      </trkpt>
      <trkpt lat="47.27944" lon="-2.24818">
        <ele>15.39999961853</ele>
        <time>2022-02-27T10:05:45.000Z</time>
      </trkpt>
      <trkpt lat="47.27955" lon="-2.24822">
        <ele>15.39999961853</ele>
        <time>2022-02-27T10:05:48.000Z</time>
      </trkpt>
      <trkpt lat="47.27959" lon="-2.24823">
        <ele>15.800000190735</ele>
        <time>2022-02-27T10:05:49.000Z</time>
      </trkpt>
      <trkpt lat="47.27964" lon="-2.24824">
        <ele>16.200000762939</ele>
        <time>2022-02-27T10:05:50.000Z</time>
      </trkpt>
      <trkpt lat="47.27969" lon="-2.24825">
        <ele>16.60000038147</ele>
        <time>2022-02-27T10:05:51.000Z</time>
      </trkpt>
      <trkpt lat="47.27974" lon="-2.24826">
        <ele>17</ele>
        <time>2022-02-27T10:05:52.000Z</time>
      </trkpt>
      <trkpt lat="47.27979" lon="-2.24828">
        <ele>17.39999961853</ele>
        <time>2022-02-27T10:05:53.000Z</time>
      </trkpt>
      <trkpt lat="47.27989" lon="-2.24831">
        <ele>17.39999961853</ele>
        <time>2022-02-27T10:05:55.000Z</time>
      </trkpt>
      <trkpt lat="47.28008" lon="-2.24834">
        <ele>17.39999961853</ele>
        <time>2022-02-27T10:05:59.000Z</time>
      </trkpt>
      <trkpt lat="47.28021" lon="-2.24837">
        <ele>17.39999961853</ele>
        <time>2022-02-27T10:06:02.000Z</time>
      </trkpt>
      <trkpt lat="47.28026" lon="-2.24838">
        <ele>17.39999961853</ele>
        <time>2022-02-27T10:06:03.000Z</time>
      </trkpt>
      <trkpt lat="47.28038" lon="-2.24841">
        <ele>17.39999961853</ele>
        <time>2022-02-27T10:06:06.000Z</time>
      </trkpt>
      <trkpt lat="47.28043" lon="-2.24842">
        <ele>17.39999961853</ele>
        <time>2022-02-27T10:06:07.000Z</time>
      </trkpt>
      <trkpt lat="47.28055" lon="-2.24844">
        <ele>17.39999961853</ele>
        <time>2022-02-27T10:06:10.000Z</time>
      </trkpt>
      <trkpt lat="47.28068" lon="-2.24848">
        <ele>17.39999961853</ele>
        <time>2022-02-27T10:06:13.000Z</time>
      </trkpt>
      <trkpt lat="47.28077" lon="-2.24848">
        <ele>17.39999961853</ele>
        <time>2022-02-27T10:06:15.000Z</time>
      </trkpt>
      <trkpt lat="47.28095" lon="-2.24846">
        <ele>17.39999961853</ele>
        <time>2022-02-27T10:06:19.000Z</time>
      </trkpt>
      <trkpt lat="47.28099" lon="-2.24848">
        <ele>17.39999961853</ele>
        <time>2022-02-27T10:06:20.000Z</time>
      </trkpt>
      <trkpt lat="47.28126" lon="-2.24856">
        <ele>17</ele>
        <time>2022-02-27T10:06:25.000Z</time>
      </trkpt>
      <trkpt lat="47.28132" lon="-2.24856">
        <ele>16.60000038147</ele>
        <time>2022-02-27T10:06:26.000Z</time>
      </trkpt>
      <trkpt lat="47.28138" lon="-2.24857">
        <ele>16.200000762939</ele>
        <time>2022-02-27T10:06:27.000Z</time>
      </trkpt>
      <trkpt lat="47.28144" lon="-2.24858">
        <ele>15.60000038147</ele>
        <time>2022-02-27T10:06:28.000Z</time>
      </trkpt>
      <trkpt lat="47.28148" lon="-2.24857">
        <ele>15.199999809265</ele>
        <time>2022-02-27T10:06:29.000Z</time>
      </trkpt>
      <trkpt lat="47.28151" lon="-2.24856">
        <ele>15.199999809265</ele>
        <time>2022-02-27T10:06:30.000Z</time>
      </trkpt>
      <trkpt lat="47.28154" lon="-2.24855">
        <ele>14.39999961853</ele>
        <time>2022-02-27T10:06:31.000Z</time>
      </trkpt>
      <trkpt lat="47.28156" lon="-2.24853">
        <ele>14</ele>
        <time>2022-02-27T10:06:32.000Z</time>
      </trkpt>
      <trkpt lat="47.28158" lon="-2.2485">
        <ele>13.39999961853</ele>
        <time>2022-02-27T10:06:33.000Z</time>
      </trkpt>
      <trkpt lat="47.28159" lon="-2.24846">
        <ele>13</ele>
        <time>2022-02-27T10:06:34.000Z</time>
      </trkpt>
      <trkpt lat="47.28161" lon="-2.24825">
        <ele>13</ele>
        <time>2022-02-27T10:06:39.000Z</time>
      </trkpt>
      <trkpt lat="47.28162" lon="-2.2482">
        <ele>13</ele>
        <time>2022-02-27T10:06:40.000Z</time>
      </trkpt>
      <trkpt lat="47.28169" lon="-2.24813">
        <ele>13</ele>
        <time>2022-02-27T10:06:42.000Z</time>
      </trkpt>
      <trkpt lat="47.2818" lon="-2.24812">
        <ele>12.60000038147</ele>
        <time>2022-02-27T10:06:44.000Z</time>
      </trkpt>
      <trkpt lat="47.28186" lon="-2.24813">
        <ele>12</ele>
        <time>2022-02-27T10:06:45.000Z</time>
      </trkpt>
      <trkpt lat="47.28191" lon="-2.24813">
        <ele>11.60000038147</ele>
        <time>2022-02-27T10:06:46.000Z</time>
      </trkpt>
      <trkpt lat="47.28197" lon="-2.24814">
        <ele>10.800000190735</ele>
        <time>2022-02-27T10:06:47.000Z</time>
      </trkpt>
      <trkpt lat="47.28203" lon="-2.24815">
        <ele>10.199999809265</ele>
        <time>2022-02-27T10:06:48.000Z</time>
      </trkpt>
      <trkpt lat="47.28208" lon="-2.24816">
        <ele>9.3999996185303</ele>
        <time>2022-02-27T10:06:49.000Z</time>
      </trkpt>
      <trkpt lat="47.28214" lon="-2.24817">
        <ele>8.6000003814697</ele>
        <time>2022-02-27T10:06:50.000Z</time>
      </trkpt>
      <trkpt lat="47.28221" lon="-2.24818">
        <ele>8</ele>
        <time>2022-02-27T10:06:51.000Z</time>
      </trkpt>
      <trkpt lat="47.28228" lon="-2.24818">
        <ele>7.1999998092651</ele>
        <time>2022-02-27T10:06:52.000Z</time>
      </trkpt>
      <trkpt lat="47.28235" lon="-2.24817">
        <ele>6.4000000953674</ele>
        <time>2022-02-27T10:06:53.000Z</time>
      </trkpt>
      <trkpt lat="47.28242" lon="-2.24815">
        <ele>5.5999999046326</ele>
        <time>2022-02-27T10:06:54.000Z</time>
      </trkpt>
      <trkpt lat="47.28255" lon="-2.24809">
        <ele>4.8000001907349</ele>
        <time>2022-02-27T10:06:56.000Z</time>
      </trkpt>
      <trkpt lat="47.28261" lon="-2.24805">
        <ele>4.4000000953674</ele>
        <time>2022-02-27T10:06:57.000Z</time>
      </trkpt>
      <trkpt lat="47.28267" lon="-2.24801">
        <ele>4</ele>
        <time>2022-02-27T10:06:58.000Z</time>
      </trkpt>
      <trkpt lat="47.28273" lon="-2.24797">
        <ele>3.5999999046326</ele>
        <time>2022-02-27T10:06:59.000Z</time>
      </trkpt>
      <trkpt lat="47.28286" lon="-2.24787">
        <ele>3.5999999046326</ele>
        <time>2022-02-27T10:07:01.000Z</time>
      </trkpt>
      <trkpt lat="47.283" lon="-2.24779">
        <ele>3</ele>
        <time>2022-02-27T10:07:03.000Z</time>
      </trkpt>
      <trkpt lat="47.28308" lon="-2.24774">
        <ele>2.5999999046326</ele>
        <time>2022-02-27T10:07:05.000Z</time>
      </trkpt>
      <trkpt lat="47.28315" lon="-2.24769">
        <ele>2.2000000476837</ele>
        <time>2022-02-27T10:07:06.000Z</time>
      </trkpt>
      <trkpt lat="47.28322" lon="-2.24765">
        <ele>1.7999999523163</ele>
        <time>2022-02-27T10:07:07.000Z</time>
      </trkpt>
      <trkpt lat="47.28329" lon="-2.24762">
        <ele>1.3999999761581</ele>
        <time>2022-02-27T10:07:08.000Z</time>
      </trkpt>
      <trkpt lat="47.28348" lon="-2.24756">
        <ele>1.3999999761581</ele>
        <time>2022-02-27T10:07:11.000Z</time>
      </trkpt>
      <trkpt lat="47.28358" lon="-2.24745">
        <ele>1.3999999761581</ele>
        <time>2022-02-27T10:07:14.000Z</time>
      </trkpt>
      <trkpt lat="47.28362" lon="-2.24742">
        <ele>1.3999999761581</ele>
        <time>2022-02-27T10:07:16.000Z</time>
      </trkpt>
      <trkpt lat="47.28366" lon="-2.2475">
        <ele>1.3999999761581</ele>
        <time>2022-02-27T10:07:18.000Z</time>
      </trkpt>
      <trkpt lat="47.28366" lon="-2.24756">
        <ele>1</ele>
        <time>2022-02-27T10:07:19.000Z</time>
      </trkpt>
      <trkpt lat="47.28366" lon="-2.24762">
        <ele>0.60000002384186</ele>
        <time>2022-02-27T10:07:20.000Z</time>
      </trkpt>
      <trkpt lat="47.28367" lon="-2.24767">
        <ele>7.2</ele>
        <time>2022-02-27T10:07:21.000Z</time>
      </trkpt>
      <trkpt lat="47.28369" lon="-2.24771">
        <ele>-0.40000000596046</ele>
        <time>2022-02-27T10:07:22.000Z</time>
      </trkpt>
      <trkpt lat="47.28372" lon="-2.24772">
        <ele>-0.80000001192093</ele>
        <time>2022-02-27T10:07:23.000Z</time>
      </trkpt>
      <trkpt lat="47.28376" lon="-2.24773">
        <ele>-0.80000001192093</ele>
        <time>2022-02-27T10:07:24.000Z</time>
      </trkpt>
      <trkpt lat="47.28388" lon="-2.2477">
        <ele>-0.80000001192093</ele>
        <time>2022-02-27T10:07:27.000Z</time>
      </trkpt>
      <trkpt lat="47.28392" lon="-2.24768">
        <ele>-0.80000001192093</ele>
        <time>2022-02-27T10:07:28.000Z</time>
      </trkpt>
      <trkpt lat="47.28397" lon="-2.24765">
        <ele>-0.80000001192093</ele>
        <time>2022-02-27T10:07:29.000Z</time>
      </trkpt>
      <trkpt lat="47.28413" lon="-2.24756">
        <ele>-0.80000001192093</ele>
        <time>2022-02-27T10:07:32.000Z</time>
      </trkpt>
      <trkpt lat="47.28419" lon="-2.24751">
        <ele>-0.80000001192093</ele>
        <time>2022-02-27T10:07:33.000Z</time>
      </trkpt>
      <trkpt lat="47.28425" lon="-2.24748">
        <ele>-1.2000000476837</ele>
        <time>2022-02-27T10:07:34.000Z</time>
      </trkpt>
      <trkpt lat="47.28432" lon="-2.24743">
        <ele>-1.6000000238419</ele>
        <time>2022-02-27T10:07:35.000Z</time>
      </trkpt>
      <trkpt lat="47.28438" lon="-2.24739">
        <ele>-2</ele>
        <time>2022-02-27T10:07:36.000Z</time>
      </trkpt>
      <trkpt lat="47.28445" lon="-2.24735">
        <ele>-2.4000000953674</ele>
        <time>2022-02-27T10:07:37.000Z</time>
      </trkpt>
      <trkpt lat="47.28451" lon="-2.24731">
        <ele>-2.7999999523163</ele>
        <time>2022-02-27T10:07:38.000Z</time>
      </trkpt>
      <trkpt lat="47.2849" lon="-2.24702">
        <ele>-2.7999999523163</ele>
        <time>2022-02-27T10:07:44.000Z</time>
      </trkpt>
      <trkpt lat="47.28514" lon="-2.24684">
        <ele>-2.7999999523163</ele>
        <time>2022-02-27T10:07:48.000Z</time>
      </trkpt>
      <trkpt lat="47.28526" lon="-2.24674">
        <ele>-2.7999999523163</ele>
        <time>2022-02-27T10:07:50.000Z</time>
      </trkpt>
      <trkpt lat="47.28555" lon="-2.24649">
        <ele>-2.7999999523163</ele>
        <time>2022-02-27T10:07:55.000Z</time>
      </trkpt>
      <trkpt lat="47.28573" lon="-2.24636">
        <ele>-2.7999999523163</ele>
        <time>2022-02-27T10:07:59.000Z</time>
      </trkpt>
      <trkpt lat="47.28586" lon="-2.24624">
        <ele>-2.7999999523163</ele>
        <time>2022-02-27T10:08:04.000Z</time>
      </trkpt>
      <trkpt lat="47.28592" lon="-2.24614">
        <ele>-2.7999999523163</ele>
        <time>2022-02-27T10:08:08.000Z</time>
      </trkpt>
      <trkpt lat="47.28605" lon="-2.246">
        <ele>-2.7999999523163</ele>
        <time>2022-02-27T10:08:12.000Z</time>
      </trkpt>
      <trkpt lat="47.28608" lon="-2.24595">
        <ele>-2.7999999523163</ele>
        <time>2022-02-27T10:08:13.000Z</time>
      </trkpt>
      <trkpt lat="47.28612" lon="-2.24576">
        <ele>-2.7999999523163</ele>
        <time>2022-02-27T10:08:16.000Z</time>
      </trkpt>
      <trkpt lat="47.28613" lon="-2.24569">
        <ele>-2.7999999523163</ele>
        <time>2022-02-27T10:08:17.000Z</time>
      </trkpt>
      <trkpt lat="47.28614" lon="-2.24562">
        <ele>-2.7999999523163</ele>
        <time>2022-02-27T10:08:18.000Z</time>
      </trkpt>
      <trkpt lat="47.28619" lon="-2.24541">
        <ele>-2.7999999523163</ele>
        <time>2022-02-27T10:08:21.000Z</time>
      </trkpt>
      <trkpt lat="47.28623" lon="-2.24526">
        <ele>-2.7999999523163</ele>
        <time>2022-02-27T10:08:23.000Z</time>
      </trkpt>
      <trkpt lat="47.28631" lon="-2.24492">
        <ele>-2.7999999523163</ele>
        <time>2022-02-27T10:08:27.000Z</time>
      </trkpt>
      <trkpt lat="47.28643" lon="-2.24441">
        <ele>-2.7999999523163</ele>
        <time>2022-02-27T10:08:33.000Z</time>
      </trkpt>
      <trkpt lat="47.28655" lon="-2.24392">
        <ele>-2.7999999523163</ele>
        <time>2022-02-27T10:08:39.000Z</time>
      </trkpt>
      <trkpt lat="47.28667" lon="-2.24346">
        <ele>-2.7999999523163</ele>
        <time>2022-02-27T10:08:45.000Z</time>
      </trkpt>
      <trkpt lat="47.28675" lon="-2.24315">
        <ele>-2.7999999523163</ele>
        <time>2022-02-27T10:08:49.000Z</time>
      </trkpt>
      <trkpt lat="47.28678" lon="-2.243">
        <ele>-2.7999999523163</ele>
        <time>2022-02-27T10:08:51.000Z</time>
      </trkpt>
      <trkpt lat="47.28687" lon="-2.24263">
        <ele>-2.7999999523163</ele>
        <time>2022-02-27T10:08:56.000Z</time>
      </trkpt>
      <trkpt lat="47.28687" lon="-2.24255">
        <ele>-2.7999999523163</ele>
        <time>2022-02-27T10:08:57.000Z</time>
      </trkpt>
      <trkpt lat="47.28683" lon="-2.24207">
        <ele>-2.7999999523163</ele>
        <time>2022-02-27T10:09:03.000Z</time>
      </trkpt>
      <trkpt lat="47.28679" lon="-2.24164">
        <ele>-2.7999999523163</ele>
        <time>2022-02-27T10:09:08.000Z</time>
      </trkpt>
      <trkpt lat="47.28678" lon="-2.24147">
        <ele>-2.7999999523163</ele>
        <time>2022-02-27T10:09:10.000Z</time>
      </trkpt>
      <trkpt lat="47.28672" lon="-2.24064">
        <ele>-2.7999999523163</ele>
        <time>2022-02-27T10:09:19.000Z</time>
      </trkpt>
      <trkpt lat="47.28667" lon="-2.24017">
        <ele>-2.7999999523163</ele>
        <time>2022-02-27T10:09:24.000Z</time>
      </trkpt>
      <trkpt lat="47.28665" lon="-2.23998">
        <ele>-2.7999999523163</ele>
        <time>2022-02-27T10:09:26.000Z</time>
      </trkpt>
      <trkpt lat="47.28658" lon="-2.23942">
        <ele>-2.7999999523163</ele>
        <time>2022-02-27T10:09:32.000Z</time>
      </trkpt>
      <trkpt lat="47.28651" lon="-2.23884">
        <ele>-2.7999999523163</ele>
        <time>2022-02-27T10:09:38.000Z</time>
      </trkpt>
      <trkpt lat="47.28641" lon="-2.2381">
        <ele>-2.7999999523163</ele>
        <time>2022-02-27T10:09:46.000Z</time>
      </trkpt>
      <trkpt lat="47.28634" lon="-2.23755">
        <ele>-2.7999999523163</ele>
        <time>2022-02-27T10:09:52.000Z</time>
      </trkpt>
      <trkpt lat="47.28628" lon="-2.23691">
        <ele>-2.7999999523163</ele>
        <time>2022-02-27T10:09:59.000Z</time>
      </trkpt>
      <trkpt lat="47.28626" lon="-2.23645">
        <ele>-2.7999999523163</ele>
        <time>2022-02-27T10:10:05.000Z</time>
      </trkpt>
      <trkpt lat="47.28625" lon="-2.23632">
        <ele>-2.7999999523163</ele>
        <time>2022-02-27T10:10:07.000Z</time>
      </trkpt>
      <trkpt lat="47.28625" lon="-2.2362">
        <ele>-2.7999999523163</ele>
        <time>2022-02-27T10:10:09.000Z</time>
      </trkpt>
      <trkpt lat="47.28626" lon="-2.23607">
        <ele>-3.4000000953674</ele>
        <time>2022-02-27T10:10:11.000Z</time>
      </trkpt>
      <trkpt lat="47.28626" lon="-2.23601">
        <ele>-3.7999999523163</ele>
        <time>2022-02-27T10:10:12.000Z</time>
      </trkpt>
      <trkpt lat="47.28627" lon="-2.23595">
        <ele>-4.1999998092651</ele>
        <time>2022-02-27T10:10:13.000Z</time>
      </trkpt>
      <trkpt lat="47.28627" lon="-2.23589">
        <ele>-4.5999999046326</ele>
        <time>2022-02-27T10:10:14.000Z</time>
      </trkpt>
      <trkpt lat="47.28628" lon="-2.23583">
        <ele>-5</ele>
        <time>2022-02-27T10:10:15.000Z</time>
      </trkpt>
      <trkpt lat="47.28629" lon="-2.23576">
        <ele>-5</ele>
        <time>2022-02-27T10:10:16.000Z</time>
      </trkpt>
      <trkpt lat="47.28635" lon="-2.23567">
        <ele>-5</ele>
        <time>2022-02-27T10:10:18.000Z</time>
      </trkpt>
      <trkpt lat="47.28643" lon="-2.23562">
        <ele>-5</ele>
        <time>2022-02-27T10:10:20.000Z</time>
      </trkpt>
      <trkpt lat="47.28647" lon="-2.23558">
        <ele>-5</ele>
        <time>2022-02-27T10:10:21.000Z</time>
      </trkpt>
      <trkpt lat="47.28649" lon="-2.23552">
        <ele>-5</ele>
        <time>2022-02-27T10:10:22.000Z</time>
      </trkpt>
      <trkpt lat="47.28651" lon="-2.23534">
        <ele>-5</ele>
        <time>2022-02-27T10:10:25.000Z</time>
      </trkpt>
      <trkpt lat="47.2865" lon="-2.23529">
        <ele>-5</ele>
        <time>2022-02-27T10:10:26.000Z</time>
      </trkpt>
      <trkpt lat="47.28654" lon="-2.23498">
        <ele>-5</ele>
        <time>2022-02-27T10:10:31.000Z</time>
      </trkpt>
      <trkpt lat="47.28655" lon="-2.23487">
        <ele>-5</ele>
        <time>2022-02-27T10:10:33.000Z</time>
      </trkpt>
      <trkpt lat="47.28656" lon="-2.23474">
        <ele>-5</ele>
        <time>2022-02-27T10:10:35.000Z</time>
      </trkpt>
      <trkpt lat="47.28656" lon="-2.2346">
        <ele>-5</ele>
        <time>2022-02-27T10:10:37.000Z</time>
      </trkpt>
      <trkpt lat="47.28651" lon="-2.2344">
        <ele>-5</ele>
        <time>2022-02-27T10:10:40.000Z</time>
      </trkpt>
      <trkpt lat="47.28643" lon="-2.23418">
        <ele>-5</ele>
        <time>2022-02-27T10:10:43.000Z</time>
      </trkpt>
      <trkpt lat="47.28642" lon="-2.23409">
        <ele>-5</ele>
        <time>2022-02-27T10:10:44.000Z</time>
      </trkpt>
      <trkpt lat="47.28643" lon="-2.23384">
        <ele>-5</ele>
        <time>2022-02-27T10:10:47.000Z</time>
      </trkpt>
      <trkpt lat="47.28644" lon="-2.23377">
        <ele>-5</ele>
        <time>2022-02-27T10:10:48.000Z</time>
      </trkpt>
      <trkpt lat="47.28652" lon="-2.23364">
        <ele>-5</ele>
        <time>2022-02-27T10:10:51.000Z</time>
      </trkpt>
      <trkpt lat="47.28661" lon="-2.23365">
        <ele>-5</ele>
        <time>2022-02-27T10:10:55.000Z</time>
      </trkpt>
      <trkpt lat="47.28665" lon="-2.23355">
        <ele>-5</ele>
        <time>2022-02-27T10:10:58.000Z</time>
      </trkpt>
      <trkpt lat="47.28667" lon="-2.23346">
        <ele>-5</ele>
        <time>2022-02-27T10:11:00.000Z</time>
      </trkpt>
      <trkpt lat="47.2867" lon="-2.23328">
        <ele>-5</ele>
        <time>2022-02-27T10:11:04.000Z</time>
      </trkpt>
      <trkpt lat="47.28671" lon="-2.23313">
        <ele>-5</ele>
        <time>2022-02-27T10:11:09.000Z</time>
      </trkpt>
      <trkpt lat="47.28673" lon="-2.23293">
        <ele>-5</ele>
        <time>2022-02-27T10:11:14.000Z</time>
      </trkpt>
      <trkpt lat="47.28677" lon="-2.2328">
        <ele>-5</ele>
        <time>2022-02-27T10:11:17.000Z</time>
      </trkpt>
      <trkpt lat="47.28683" lon="-2.23262">
        <ele>-5</ele>
        <time>2022-02-27T10:11:21.000Z</time>
      </trkpt>
      <trkpt lat="47.28685" lon="-2.23258">
        <ele>-5</ele>
        <time>2022-02-27T10:11:22.000Z</time>
      </trkpt>
      <trkpt lat="47.28689" lon="-2.23251">
        <ele>-4.5999999046326</ele>
        <time>2022-02-27T10:11:25.000Z</time>
      </trkpt>
      <trkpt lat="47.28689" lon="-2.23249">
        <ele>-4</ele>
        <time>2022-02-27T10:11:26.000Z</time>
      </trkpt>
      <trkpt lat="47.28688" lon="-2.23247">
        <ele>-3.4000000953674</ele>
        <time>2022-02-27T10:11:27.000Z</time>
      </trkpt>
      <trkpt lat="47.28687" lon="-2.23244">
        <ele>-3</ele>
        <time>2022-02-27T10:11:28.000Z</time>
      </trkpt>
      <trkpt lat="47.28686" lon="-2.2324">
        <ele>-2.4000000953674</ele>
        <time>2022-02-27T10:11:29.000Z</time>
      </trkpt>
      <trkpt lat="47.28685" lon="-2.23235">
        <ele>-2.4000000953674</ele>
        <time>2022-02-27T10:11:30.000Z</time>
      </trkpt>
      <trkpt lat="47.28678" lon="-2.23207">
        <ele>-2.7999999523163</ele>
        <time>2022-02-27T10:11:33.000Z</time>
      </trkpt>
      <trkpt lat="47.28674" lon="-2.23199">
        <ele>-3.4000000953674</ele>
        <time>2022-02-27T10:11:34.000Z</time>
      </trkpt>
      <trkpt lat="47.28668" lon="-2.23193">
        <ele>-3.7999999523163</ele>
        <time>2022-02-27T10:11:35.000Z</time>
      </trkpt>
      <trkpt lat="47.28662" lon="-2.23188">
        <ele>-4.1999998092651</ele>
        <time>2022-02-27T10:11:36.000Z</time>
      </trkpt>
      <trkpt lat="47.28657" lon="-2.23185">
        <ele>-4.8000001907349</ele>
        <time>2022-02-27T10:11:37.000Z</time>
      </trkpt>
      <trkpt lat="47.2864" lon="-2.23182">
        <ele>-4.8000001907349</ele>
        <time>2022-02-27T10:11:40.000Z</time>
      </trkpt>
      <trkpt lat="47.28626" lon="-2.23188">
        <ele>-4.8000001907349</ele>
        <time>2022-02-27T10:11:43.000Z</time>
      </trkpt>
      <trkpt lat="47.28621" lon="-2.23191">
        <ele>-4.8000001907349</ele>
        <time>2022-02-27T10:11:44.000Z</time>
      </trkpt>
      <trkpt lat="47.28617" lon="-2.23195">
        <ele>-4.8000001907349</ele>
        <time>2022-02-27T10:11:45.000Z</time>
      </trkpt>
      <trkpt lat="47.28601" lon="-2.2321">
        <ele>-4.8000001907349</ele>
        <time>2022-02-27T10:11:49.000Z</time>
      </trkpt>
      <trkpt lat="47.28597" lon="-2.2322">
        <ele>-4.8000001907349</ele>
        <time>2022-02-27T10:11:51.000Z</time>
      </trkpt>
      <trkpt lat="47.28595" lon="-2.23233">
        <ele>-4.8000001907349</ele>
        <time>2022-02-27T10:11:53.000Z</time>
      </trkpt>
      <trkpt lat="47.28593" lon="-2.23247">
        <ele>-4.8000001907349</ele>
        <time>2022-02-27T10:11:55.000Z</time>
      </trkpt>
      <trkpt lat="47.28592" lon="-2.23254">
        <ele>-4.8000001907349</ele>
        <time>2022-02-27T10:11:56.000Z</time>
      </trkpt>
      <trkpt lat="47.28595" lon="-2.23275">
        <ele>-4.8000001907349</ele>
        <time>2022-02-27T10:11:59.000Z</time>
      </trkpt>
      <trkpt lat="47.28599" lon="-2.23289">
        <ele>-4.8000001907349</ele>
        <time>2022-02-27T10:12:01.000Z</time>
      </trkpt>
      <trkpt lat="47.28607" lon="-2.23296">
        <ele>-4.8000001907349</ele>
        <time>2022-02-27T10:12:03.000Z</time>
      </trkpt>
      <trkpt lat="47.28621" lon="-2.23301">
        <ele>-4.8000001907349</ele>
        <time>2022-02-27T10:12:06.000Z</time>
      </trkpt>
      <trkpt lat="47.2863" lon="-2.23302">
        <ele>-4.8000001907349</ele>
        <time>2022-02-27T10:12:08.000Z</time>
      </trkpt>
      <trkpt lat="47.28643" lon="-2.23301">
        <ele>-5.1999998092651</ele>
        <time>2022-02-27T10:12:12.000Z</time>
      </trkpt>
      <trkpt lat="47.28646" lon="-2.23301">
        <ele>-5.5999999046326</ele>
        <time>2022-02-27T10:12:13.000Z</time>
      </trkpt>
      <trkpt lat="47.28649" lon="-2.23302">
        <ele>-6</ele>
        <time>2022-02-27T10:12:14.000Z</time>
      </trkpt>
      <trkpt lat="47.28652" lon="-2.23303">
        <ele>-6.4000000953674</ele>
        <time>2022-02-27T10:12:15.000Z</time>
      </trkpt>
      <trkpt lat="47.28656" lon="-2.23304">
        <ele>-6.8000001907349</ele>
        <time>2022-02-27T10:12:16.000Z</time>
      </trkpt>
      <trkpt lat="47.28666" lon="-2.23304">
        <ele>-6.4000000953674</ele>
        <time>2022-02-27T10:12:20.000Z</time>
      </trkpt>
      <trkpt lat="47.28666" lon="-2.23303">
        <ele>-5.8000001907349</ele>
        <time>2022-02-27T10:12:21.000Z</time>
      </trkpt>
      <trkpt lat="47.28666" lon="-2.23301">
        <ele>-5.4000000953674</ele>
        <time>2022-02-27T10:12:22.000Z</time>
      </trkpt>
      <trkpt lat="47.28666" lon="-2.23299">
        <ele>-4.8000001907349</ele>
        <time>2022-02-27T10:12:23.000Z</time>
      </trkpt>
      <trkpt lat="47.28665" lon="-2.23297">
        <ele>-4.4000000953674</ele>
        <time>2022-02-27T10:12:24.000Z</time>
      </trkpt>
      <trkpt lat="47.28663" lon="-2.23296">
        <ele>-4.4000000953674</ele>
        <time>2022-02-27T10:12:26.000Z</time>
      </trkpt>
      <trkpt lat="47.28656" lon="-2.23311">
        <ele>-4.4000000953674</ele>
        <time>2022-02-27T10:12:29.000Z</time>
      </trkpt>
      <trkpt lat="47.28656" lon="-2.23328">
        <ele>-4.4000000953674</ele>
        <time>2022-02-27T10:12:31.000Z</time>
      </trkpt>
      <trkpt lat="47.28654" lon="-2.23342">
        <ele>-4.8000001907349</ele>
        <time>2022-02-27T10:12:33.000Z</time>
      </trkpt>
      <trkpt lat="47.28654" lon="-2.23348">
        <ele>-5.1999998092651</ele>
        <time>2022-02-27T10:12:34.000Z</time>
      </trkpt>
      <trkpt lat="47.28654" lon="-2.23355">
        <ele>-5.5999999046326</ele>
        <time>2022-02-27T10:12:35.000Z</time>
      </trkpt>
      <trkpt lat="47.28652" lon="-2.23362">
        <ele>-6</ele>
        <time>2022-02-27T10:12:36.000Z</time>
      </trkpt>
      <trkpt lat="47.28651" lon="-2.23369">
        <ele>-6.4000000953674</ele>
        <time>2022-02-27T10:12:37.000Z</time>
      </trkpt>
      <trkpt lat="47.2865" lon="-2.23376">
        <ele>-6.4000000953674</ele>
        <time>2022-02-27T10:12:38.000Z</time>
      </trkpt>
      <trkpt lat="47.28648" lon="-2.23382">
        <ele>-6.4000000953674</ele>
        <time>2022-02-27T10:12:39.000Z</time>
      </trkpt>
      <trkpt lat="47.28646" lon="-2.23402">
        <ele>-6.4000000953674</ele>
        <time>2022-02-27T10:12:42.000Z</time>
      </trkpt>
      <trkpt lat="47.28647" lon="-2.23409">
        <ele>-6.4000000953674</ele>
        <time>2022-02-27T10:12:43.000Z</time>
      </trkpt>
      <trkpt lat="47.28649" lon="-2.23417">
        <ele>-6.4000000953674</ele>
        <time>2022-02-27T10:12:44.000Z</time>
      </trkpt>
      <trkpt lat="47.28652" lon="-2.23427">
        <ele>-6.4000000953674</ele>
        <time>2022-02-27T10:12:46.000Z</time>
      </trkpt>
      <trkpt lat="47.28658" lon="-2.23451">
        <ele>-6.4000000953674</ele>
        <time>2022-02-27T10:12:51.000Z</time>
      </trkpt>
      <trkpt lat="47.28658" lon="-2.23457">
        <ele>-5.8000001907349</ele>
        <time>2022-02-27T10:12:52.000Z</time>
      </trkpt>
      <trkpt lat="47.28657" lon="-2.23463">
        <ele>-5.4000000953674</ele>
        <time>2022-02-27T10:12:53.000Z</time>
      </trkpt>
      <trkpt lat="47.28657" lon="-2.23469">
        <ele>-5</ele>
        <time>2022-02-27T10:12:54.000Z</time>
      </trkpt>
      <trkpt lat="47.28657" lon="-2.23474">
        <ele>-4.5999999046326</ele>
        <time>2022-02-27T10:12:55.000Z</time>
      </trkpt>
      <trkpt lat="47.28656" lon="-2.23481">
        <ele>-4.1999998092651</ele>
        <time>2022-02-27T10:12:56.000Z</time>
      </trkpt>
      <trkpt lat="47.28651" lon="-2.23517">
        <ele>-4.1999998092651</ele>
        <time>2022-02-27T10:13:01.000Z</time>
      </trkpt>
      <trkpt lat="47.28649" lon="-2.23524">
        <ele>-4.1999998092651</ele>
        <time>2022-02-27T10:13:02.000Z</time>
      </trkpt>
      <trkpt lat="47.28651" lon="-2.23549">
        <ele>-4.1999998092651</ele>
        <time>2022-02-27T10:13:05.000Z</time>
      </trkpt>
      <trkpt lat="47.28662" lon="-2.23559">
        <ele>-4.1999998092651</ele>
        <time>2022-02-27T10:13:08.000Z</time>
      </trkpt>
      <trkpt lat="47.2867" lon="-2.23564">
        <ele>-4.1999998092651</ele>
        <time>2022-02-27T10:13:10.000Z</time>
      </trkpt>
      <trkpt lat="47.28674" lon="-2.23568">
        <ele>-4.1999998092651</ele>
        <time>2022-02-27T10:13:11.000Z</time>
      </trkpt>
      <trkpt lat="47.28682" lon="-2.23576">
        <ele>-4.1999998092651</ele>
        <time>2022-02-27T10:13:13.000Z</time>
      </trkpt>
      <trkpt lat="47.28685" lon="-2.2358">
        <ele>-4.1999998092651</ele>
        <time>2022-02-27T10:13:14.000Z</time>
      </trkpt>
      <trkpt lat="47.28694" lon="-2.23589">
        <ele>-4.1999998092651</ele>
        <time>2022-02-27T10:13:16.000Z</time>
      </trkpt>
      <trkpt lat="47.28703" lon="-2.23588">
        <ele>-4.1999998092651</ele>
        <time>2022-02-27T10:13:18.000Z</time>
      </trkpt>
      <trkpt lat="47.28712" lon="-2.23585">
        <ele>-4.1999998092651</ele>
        <time>2022-02-27T10:13:20.000Z</time>
      </trkpt>
      <trkpt lat="47.28719" lon="-2.2358">
        <ele>-4.1999998092651</ele>
        <time>2022-02-27T10:13:22.000Z</time>
      </trkpt>
      <trkpt lat="47.28721" lon="-2.23575">
        <ele>-4.1999998092651</ele>
        <time>2022-02-27T10:13:23.000Z</time>
      </trkpt>
      <trkpt lat="47.28727" lon="-2.2356">
        <ele>-4.1999998092651</ele>
        <time>2022-02-27T10:13:26.000Z</time>
      </trkpt>
      <trkpt lat="47.28742" lon="-2.23541">
        <ele>-4.1999998092651</ele>
        <time>2022-02-27T10:13:31.000Z</time>
      </trkpt>
      <trkpt lat="47.28762" lon="-2.23525">
        <ele>-4.1999998092651</ele>
        <time>2022-02-27T10:13:37.000Z</time>
      </trkpt>
      <trkpt lat="47.28768" lon="-2.23523">
        <ele>-3.7999999523163</ele>
        <time>2022-02-27T10:13:39.000Z</time>
      </trkpt>
      <trkpt lat="47.28771" lon="-2.23521">
        <ele>-3.4000000953674</ele>
        <time>2022-02-27T10:13:40.000Z</time>
      </trkpt>
      <trkpt lat="47.28774" lon="-2.23519">
        <ele>-3</ele>
        <time>2022-02-27T10:13:41.000Z</time>
      </trkpt>
      <trkpt lat="47.28778" lon="-2.23518">
        <ele>-2.4000000953674</ele>
        <time>2022-02-27T10:13:42.000Z</time>
      </trkpt>
      <trkpt lat="47.28781" lon="-2.23517">
        <ele>-2</ele>
        <time>2022-02-27T10:13:43.000Z</time>
      </trkpt>
      <trkpt lat="47.28807" lon="-2.23509">
        <ele>-2</ele>
        <time>2022-02-27T10:13:50.000Z</time>
      </trkpt>
      <trkpt lat="47.28815" lon="-2.23508">
        <ele>-1.2000000476837</ele>
        <time>2022-02-27T10:13:52.000Z</time>
      </trkpt>
      <trkpt lat="47.28819" lon="-2.23508">
        <ele>-0.60000002384186</ele>
        <time>2022-02-27T10:13:53.000Z</time>
      </trkpt>
      <trkpt lat="47.28823" lon="-2.23507">
        <ele>-0.20000000298023</ele>
        <time>2022-02-27T10:13:54.000Z</time>
      </trkpt>
      <trkpt lat="47.28827" lon="-2.23506">
        <ele>0.20000000298023</ele>
        <time>2022-02-27T10:13:55.000Z</time>
      </trkpt>
      <trkpt lat="47.28834" lon="-2.23505">
        <ele>0.20000000298023</ele>
        <time>2022-02-27T10:13:57.000Z</time>
      </trkpt>
      <trkpt lat="47.28858" lon="-2.23504">
        <ele>0.20000000298023</ele>
        <time>2022-02-27T10:14:03.000Z</time>
      </trkpt>
      <trkpt lat="47.28865" lon="-2.23502">
        <ele>0.60000002384186</ele>
        <time>2022-02-27T10:14:05.000Z</time>
      </trkpt>
      <trkpt lat="47.28869" lon="-2.23502">
        <ele>1</ele>
        <time>2022-02-27T10:14:06.000Z</time>
      </trkpt>
      <trkpt lat="47.28874" lon="-2.23501">
        <ele>1.3999999761581</ele>
        <time>2022-02-27T10:14:07.000Z</time>
      </trkpt>
      <trkpt lat="47.28878" lon="-2.23501">
        <ele>1.7999999523163</ele>
        <time>2022-02-27T10:14:08.000Z</time>
      </trkpt>
      <trkpt lat="47.28881" lon="-2.23502">
        <ele>2.2000000476837</ele>
        <time>2022-02-27T10:14:09.000Z</time>
      </trkpt>
      <trkpt lat="47.28886" lon="-2.23502">
        <ele>2.2000000476837</ele>
        <time>2022-02-27T10:14:10.000Z</time>
      </trkpt>
      <trkpt lat="47.28894" lon="-2.23503">
        <ele>2.2000000476837</ele>
        <time>2022-02-27T10:14:12.000Z</time>
      </trkpt>
      <trkpt lat="47.28907" lon="-2.23502">
        <ele>2.2000000476837</ele>
        <time>2022-02-27T10:14:15.000Z</time>
      </trkpt>
      <trkpt lat="47.2892" lon="-2.23498">
        <ele>2.2000000476837</ele>
        <time>2022-02-27T10:14:18.000Z</time>
      </trkpt>
      <trkpt lat="47.28932" lon="-2.23494">
        <ele>2.2000000476837</ele>
        <time>2022-02-27T10:14:21.000Z</time>
      </trkpt>
      <trkpt lat="47.28937" lon="-2.23493">
        <ele>2.2000000476837</ele>
        <time>2022-02-27T10:14:22.000Z</time>
      </trkpt>
      <trkpt lat="47.28951" lon="-2.23492">
        <ele>2.5999999046326</ele>
        <time>2022-02-27T10:14:25.000Z</time>
      </trkpt>
      <trkpt lat="47.28955" lon="-2.23491">
        <ele>3</ele>
        <time>2022-02-27T10:14:26.000Z</time>
      </trkpt>
      <trkpt lat="47.28959" lon="-2.2349">
        <ele>3.4000000953674</ele>
        <time>2022-02-27T10:14:27.000Z</time>
      </trkpt>
      <trkpt lat="47.28961" lon="-2.23486">
        <ele>3.7999999523163</ele>
        <time>2022-02-27T10:14:28.000Z</time>
      </trkpt>
      <trkpt lat="47.28961" lon="-2.2348">
        <ele>4.1999998092651</ele>
        <time>2022-02-27T10:14:29.000Z</time>
      </trkpt>
      <trkpt lat="47.28961" lon="-2.23474">
        <ele>4.1999998092651</ele>
        <time>2022-02-27T10:14:30.000Z</time>
      </trkpt>
      <trkpt lat="47.28961" lon="-2.23461">
        <ele>4.1999998092651</ele>
        <time>2022-02-27T10:14:32.000Z</time>
      </trkpt>
      <trkpt lat="47.28964" lon="-2.23431">
        <ele>4.1999998092651</ele>
        <time>2022-02-27T10:14:36.000Z</time>
      </trkpt>
      <trkpt lat="47.28968" lon="-2.23381">
        <ele>4.1999998092651</ele>
        <time>2022-02-27T10:14:43.000Z</time>
      </trkpt>
      <trkpt lat="47.28973" lon="-2.23326">
        <ele>4.1999998092651</ele>
        <time>2022-02-27T10:14:50.000Z</time>
      </trkpt>
      <trkpt lat="47.2898" lon="-2.23259">
        <ele>3.7999999523163</ele>
        <time>2022-02-27T10:14:57.000Z</time>
      </trkpt>
      <trkpt lat="47.28981" lon="-2.23248">
        <ele>3.4000000953674</ele>
        <time>2022-02-27T10:14:58.000Z</time>
      </trkpt>
      <trkpt lat="47.28982" lon="-2.23237">
        <ele>2.7999999523163</ele>
        <time>2022-02-27T10:14:59.000Z</time>
      </trkpt>
      <trkpt lat="47.28982" lon="-2.23226">
        <ele>2.4000000953674</ele>
        <time>2022-02-27T10:15:00.000Z</time>
      </trkpt>
      <trkpt lat="47.28983" lon="-2.23215">
        <ele>2</ele>
        <time>2022-02-27T10:15:01.000Z</time>
      </trkpt>
      <trkpt lat="47.28987" lon="-2.2318">
        <ele>2</ele>
        <time>2022-02-27T10:15:04.000Z</time>
      </trkpt>
      <trkpt lat="47.28988" lon="-2.23168">
        <ele>1.6000000238419</ele>
        <time>2022-02-27T10:15:05.000Z</time>
      </trkpt>
      <trkpt lat="47.2899" lon="-2.23157">
        <ele>0.60000002384186</ele>
        <time>2022-02-27T10:15:06.000Z</time>
      </trkpt>
      <trkpt lat="47.28991" lon="-2.23145">
        <ele>0.20000000298023</ele>
        <time>2022-02-27T10:15:07.000Z</time>
      </trkpt>
      <trkpt lat="47.28993" lon="-2.23133">
        <ele>-0.20000000298023</ele>
        <time>2022-02-27T10:15:08.000Z</time>
      </trkpt>
      <trkpt lat="47.28997" lon="-2.23097">
        <ele>-0.60000002384186</ele>
        <time>2022-02-27T10:15:11.000Z</time>
      </trkpt>
      <trkpt lat="47.28999" lon="-2.23086">
        <ele>-1</ele>
        <time>2022-02-27T10:15:12.000Z</time>
      </trkpt>
      <trkpt lat="47.29001" lon="-2.23074">
        <ele>-1.6000000238419</ele>
        <time>2022-02-27T10:15:13.000Z</time>
      </trkpt>
      <trkpt lat="47.29003" lon="-2.23063">
        <ele>-2</ele>
        <time>2022-02-27T10:15:14.000Z</time>
      </trkpt>
      <trkpt lat="47.29006" lon="-2.23052">
        <ele>-2.4000000953674</ele>
        <time>2022-02-27T10:15:15.000Z</time>
      </trkpt>
      <trkpt lat="47.29013" lon="-2.23031">
        <ele>-2.7999999523163</ele>
        <time>2022-02-27T10:15:17.000Z</time>
      </trkpt>
      <trkpt lat="47.29016" lon="-2.23021">
        <ele>-3.2000000476837</ele>
        <time>2022-02-27T10:15:18.000Z</time>
      </trkpt>
      <trkpt lat="47.29018" lon="-2.23011">
        <ele>-3.5999999046326</ele>
        <time>2022-02-27T10:15:19.000Z</time>
      </trkpt>
      <trkpt lat="47.29021" lon="-2.23002">
        <ele>-4.1999998092651</ele>
        <time>2022-02-27T10:15:20.000Z</time>
      </trkpt>
      <trkpt lat="47.29024" lon="-2.22996">
        <ele>-4.5999999046326</ele>
        <time>2022-02-27T10:15:21.000Z</time>
      </trkpt>
      <trkpt lat="47.29026" lon="-2.22988">
        <ele>-4.5999999046326</ele>
        <time>2022-02-27T10:15:22.000Z</time>
      </trkpt>
      <trkpt lat="47.29031" lon="-2.22971">
        <ele>-4.5999999046326</ele>
        <time>2022-02-27T10:15:25.000Z</time>
      </trkpt>
      <trkpt lat="47.2904" lon="-2.22976">
        <ele>-4.5999999046326</ele>
        <time>2022-02-27T10:15:27.000Z</time>
      </trkpt>
      <trkpt lat="47.29046" lon="-2.22989">
        <ele>-5.4000000953674</ele>
        <time>2022-02-27T10:15:29.000Z</time>
      </trkpt>
      <trkpt lat="47.29049" lon="-2.22995">
        <ele>-5.8000001907349</ele>
        <time>2022-02-27T10:15:30.000Z</time>
      </trkpt>
      <trkpt lat="47.29053" lon="-2.23001">
        <ele>-6.1999998092651</ele>
        <time>2022-02-27T10:15:31.000Z</time>
      </trkpt>
      <trkpt lat="47.29058" lon="-2.23007">
        <ele>-6.5999999046326</ele>
        <time>2022-02-27T10:15:32.000Z</time>
      </trkpt>
      <trkpt lat="47.29066" lon="-2.23015">
        <ele>-6.5999999046326</ele>
        <time>2022-02-27T10:15:34.000Z</time>
      </trkpt>
      <trkpt lat="47.29075" lon="-2.23022">
        <ele>-6.5999999046326</ele>
        <time>2022-02-27T10:15:36.000Z</time>
      </trkpt>
      <trkpt lat="47.29086" lon="-2.23035">
        <ele>-6.5999999046326</ele>
        <time>2022-02-27T10:15:39.000Z</time>
      </trkpt>
      <trkpt lat="47.2911" lon="-2.23062">
        <ele>-6.5999999046326</ele>
        <time>2022-02-27T10:15:46.000Z</time>
      </trkpt>
      <trkpt lat="47.29132" lon="-2.23091">
        <ele>-6.5999999046326</ele>
        <time>2022-02-27T10:15:53.000Z</time>
      </trkpt>
      <trkpt lat="47.29156" lon="-2.23123">
        <ele>-6.5999999046326</ele>
        <time>2022-02-27T10:16:00.000Z</time>
      </trkpt>
      <trkpt lat="47.29161" lon="-2.23132">
        <ele>-6.5999999046326</ele>
        <time>2022-02-27T10:16:02.000Z</time>
      </trkpt>
      <trkpt lat="47.29167" lon="-2.23141">
        <ele>-6.5999999046326</ele>
        <time>2022-02-27T10:16:04.000Z</time>
      </trkpt>
      <trkpt lat="47.29173" lon="-2.2315">
        <ele>-6.5999999046326</ele>
        <time>2022-02-27T10:16:06.000Z</time>
      </trkpt>
      <trkpt lat="47.29188" lon="-2.23176">
        <ele>-6.5999999046326</ele>
        <time>2022-02-27T10:16:10.000Z</time>
      </trkpt>
      <trkpt lat="47.29197" lon="-2.23185">
        <ele>-6.5999999046326</ele>
        <time>2022-02-27T10:16:12.000Z</time>
      </trkpt>
      <trkpt lat="47.292" lon="-2.23199">
        <ele>-6.5999999046326</ele>
        <time>2022-02-27T10:16:14.000Z</time>
      </trkpt>
      <trkpt lat="47.29201" lon="-2.23214">
        <ele>-6.5999999046326</ele>
        <time>2022-02-27T10:16:16.000Z</time>
      </trkpt>
      <trkpt lat="47.29206" lon="-2.23228">
        <ele>-6.5999999046326</ele>
        <time>2022-02-27T10:16:18.000Z</time>
      </trkpt>
      <trkpt lat="47.29214" lon="-2.23241">
        <ele>-6.5999999046326</ele>
        <time>2022-02-27T10:16:20.000Z</time>
      </trkpt>
      <trkpt lat="47.29229" lon="-2.23257">
        <ele>-6.5999999046326</ele>
        <time>2022-02-27T10:16:23.000Z</time>
      </trkpt>
      <trkpt lat="47.29258" lon="-2.23303">
        <ele>-6.5999999046326</ele>
        <time>2022-02-27T10:16:30.000Z</time>
      </trkpt>
      <trkpt lat="47.29272" lon="-2.23354">
        <ele>-6.5999999046326</ele>
        <time>2022-02-27T10:16:36.000Z</time>
      </trkpt>
      <trkpt lat="47.29281" lon="-2.23401">
        <ele>-6.5999999046326</ele>
        <time>2022-02-27T10:16:41.000Z</time>
      </trkpt>
      <trkpt lat="47.29293" lon="-2.23455">
        <ele>-6.5999999046326</ele>
        <time>2022-02-27T10:16:47.000Z</time>
      </trkpt>
      <trkpt lat="47.293" lon="-2.2349">
        <ele>-6.5999999046326</ele>
        <time>2022-02-27T10:16:51.000Z</time>
      </trkpt>
      <trkpt lat="47.29303" lon="-2.2351">
        <ele>-6.5999999046326</ele>
        <time>2022-02-27T10:16:53.000Z</time>
      </trkpt>
      <trkpt lat="47.29313" lon="-2.23585">
        <ele>-6.5999999046326</ele>
        <time>2022-02-27T10:17:01.000Z</time>
      </trkpt>
      <trkpt lat="47.29313" lon="-2.23612">
        <ele>-6.5999999046326</ele>
        <time>2022-02-27T10:17:04.000Z</time>
      </trkpt>
      <trkpt lat="47.29314" lon="-2.23629">
        <ele>-6.5999999046326</ele>
        <time>2022-02-27T10:17:06.000Z</time>
      </trkpt>
      <trkpt lat="47.29314" lon="-2.2365">
        <ele>-6.5999999046326</ele>
        <time>2022-02-27T10:17:09.000Z</time>
      </trkpt>
      <trkpt lat="47.29314" lon="-2.23656">
        <ele>-6.5999999046326</ele>
        <time>2022-02-27T10:17:10.000Z</time>
      </trkpt>
      <trkpt lat="47.29315" lon="-2.23671">
        <ele>-6.5999999046326</ele>
        <time>2022-02-27T10:17:13.000Z</time>
      </trkpt>
      <trkpt lat="47.29315" lon="-2.23681">
        <ele>-6.5999999046326</ele>
        <time>2022-02-27T10:17:15.000Z</time>
      </trkpt>
      <trkpt lat="47.29316" lon="-2.23721">
        <ele>-6.5999999046326</ele>
        <time>2022-02-27T10:17:22.000Z</time>
      </trkpt>
      <trkpt lat="47.29316" lon="-2.23752">
        <ele>-6.5999999046326</ele>
        <time>2022-02-27T10:17:28.000Z</time>
      </trkpt>
      <trkpt lat="47.29318" lon="-2.23779">
        <ele>-6.5999999046326</ele>
        <time>2022-02-27T10:17:34.000Z</time>
      </trkpt>
      <trkpt lat="47.29316" lon="-2.23802">
        <ele>-6.5999999046326</ele>
        <time>2022-02-27T10:17:39.000Z</time>
      </trkpt>
      <trkpt lat="47.29319" lon="-2.23842">
        <ele>-6.5999999046326</ele>
        <time>2022-02-27T10:17:48.000Z</time>
      </trkpt>
      <trkpt lat="47.29324" lon="-2.23872">
        <ele>-6.5999999046326</ele>
        <time>2022-02-27T10:17:55.000Z</time>
      </trkpt>
      <trkpt lat="47.29332" lon="-2.23898">
        <ele>-6.5999999046326</ele>
        <time>2022-02-27T10:18:02.000Z</time>
      </trkpt>
      <trkpt lat="47.29342" lon="-2.23921">
        <ele>-6.5999999046326</ele>
        <time>2022-02-27T10:18:08.000Z</time>
      </trkpt>
      <trkpt lat="47.29357" lon="-2.23943">
        <ele>-6.5999999046326</ele>
        <time>2022-02-27T10:18:14.000Z</time>
      </trkpt>
      <trkpt lat="47.29363" lon="-2.23967">
        <ele>-6.5999999046326</ele>
        <time>2022-02-27T10:18:19.000Z</time>
      </trkpt>
      <trkpt lat="47.29356" lon="-2.23974">
        <ele>-6.5999999046326</ele>
        <time>2022-02-27T10:18:22.000Z</time>
      </trkpt>
      <trkpt lat="47.2935" lon="-2.23973">
        <ele>-6.5999999046326</ele>
        <time>2022-02-27T10:18:24.000Z</time>
      </trkpt>
      <trkpt lat="47.29338" lon="-2.23975">
        <ele>-6.5999999046326</ele>
        <time>2022-02-27T10:18:28.000Z</time>
      </trkpt>
      <trkpt lat="47.29325" lon="-2.23971">
        <ele>-6.5999999046326</ele>
        <time>2022-02-27T10:18:34.000Z</time>
      </trkpt>
      <trkpt lat="47.29315" lon="-2.23972">
        <ele>-6.5999999046326</ele>
        <time>2022-02-27T10:18:40.000Z</time>
      </trkpt>
      <trkpt lat="47.29303" lon="-2.2397">
        <ele>-6.5999999046326</ele>
        <time>2022-02-27T10:18:46.000Z</time>
      </trkpt>
      <trkpt lat="47.29291" lon="-2.23966">
        <ele>-6.5999999046326</ele>
        <time>2022-02-27T10:18:50.000Z</time>
      </trkpt>
      <trkpt lat="47.29276" lon="-2.23969">
        <ele>-6.5999999046326</ele>
        <time>2022-02-27T10:18:55.000Z</time>
      </trkpt>
      <trkpt lat="47.29256" lon="-2.23973">
        <ele>-6.5999999046326</ele>
        <time>2022-02-27T10:18:59.000Z</time>
      </trkpt>
      <trkpt lat="47.29251" lon="-2.23976">
        <ele>-6.5999999046326</ele>
        <time>2022-02-27T10:19:00.000Z</time>
      </trkpt>
      <trkpt lat="47.29228" lon="-2.23994">
        <ele>-6.5999999046326</ele>
        <time>2022-02-27T10:19:06.000Z</time>
      </trkpt>
      <trkpt lat="47.29216" lon="-2.24006">
        <ele>-6.5999999046326</ele>
        <time>2022-02-27T10:19:09.000Z</time>
      </trkpt>
      <trkpt lat="47.29208" lon="-2.24014">
        <ele>-6.5999999046326</ele>
        <time>2022-02-27T10:19:11.000Z</time>
      </trkpt>
      <trkpt lat="47.29204" lon="-2.24018">
        <ele>-6.1999998092651</ele>
        <time>2022-02-27T10:19:12.000Z</time>
      </trkpt>
      <trkpt lat="47.29201" lon="-2.24021">
        <ele>-5.5999999046326</ele>
        <time>2022-02-27T10:19:13.000Z</time>
      </trkpt>
      <trkpt lat="47.29197" lon="-2.24025">
        <ele>-5.1999998092651</ele>
        <time>2022-02-27T10:19:14.000Z</time>
      </trkpt>
      <trkpt lat="47.29193" lon="-2.24028">
        <ele>-4.8000001907349</ele>
        <time>2022-02-27T10:19:15.000Z</time>
      </trkpt>
      <trkpt lat="47.29188" lon="-2.24032">
        <ele>-4.4000000953674</ele>
        <time>2022-02-27T10:19:16.000Z</time>
      </trkpt>
      <trkpt lat="47.29176" lon="-2.24041">
        <ele>-4.4000000953674</ele>
        <time>2022-02-27T10:19:19.000Z</time>
      </trkpt>
      <trkpt lat="47.29158" lon="-2.24053">
        <ele>-4</ele>
        <time>2022-02-27T10:19:24.000Z</time>
      </trkpt>
      <trkpt lat="47.29154" lon="-2.24056">
        <ele>-3.5999999046326</ele>
        <time>2022-02-27T10:19:25.000Z</time>
      </trkpt>
      <trkpt lat="47.2915" lon="-2.24059">
        <ele>-3.2000000476837</ele>
        <time>2022-02-27T10:19:26.000Z</time>
      </trkpt>
      <trkpt lat="47.29147" lon="-2.24061">
        <ele>-2.7999999523163</ele>
        <time>2022-02-27T10:19:27.000Z</time>
      </trkpt>
      <trkpt lat="47.29143" lon="-2.24064">
        <ele>-2.2000000476837</ele>
        <time>2022-02-27T10:19:28.000Z</time>
      </trkpt>
      <trkpt lat="47.29132" lon="-2.24069">
        <ele>-2.2000000476837</ele>
        <time>2022-02-27T10:19:31.000Z</time>
      </trkpt>
      <trkpt lat="47.29123" lon="-2.24077">
        <ele>-1.7999999523163</ele>
        <time>2022-02-27T10:19:34.000Z</time>
      </trkpt>
      <trkpt lat="47.29122" lon="-2.24082">
        <ele>-1.3999999761581</ele>
        <time>2022-02-27T10:19:35.000Z</time>
      </trkpt>
      <trkpt lat="47.29122" lon="-2.24087">
        <ele>-1</ele>
        <time>2022-02-27T10:19:36.000Z</time>
      </trkpt>
      <trkpt lat="47.29123" lon="-2.24092">
        <ele>-0.20000000298023</ele>
        <time>2022-02-27T10:19:37.000Z</time>
      </trkpt>
      <trkpt lat="47.29124" lon="-2.24098">
        <ele>-0.20000000298023</ele>
        <time>2022-02-27T10:19:38.000Z</time>
      </trkpt>
      <trkpt lat="47.29127" lon="-2.24114">
        <ele>-0.20000000298023</ele>
        <time>2022-02-27T10:19:41.000Z</time>
      </trkpt>
      <trkpt lat="47.2913" lon="-2.24146">
        <ele>-0.20000000298023</ele>
        <time>2022-02-27T10:19:47.000Z</time>
      </trkpt>
      <trkpt lat="47.29131" lon="-2.24151">
        <ele>-0.20000000298023</ele>
        <time>2022-02-27T10:19:48.000Z</time>
      </trkpt>
      <trkpt lat="47.29134" lon="-2.24162">
        <ele>-0.20000000298023</ele>
        <time>2022-02-27T10:19:50.000Z</time>
      </trkpt>
      <trkpt lat="47.29144" lon="-2.24206">
        <ele>-0.20000000298023</ele>
        <time>2022-02-27T10:19:57.000Z</time>
      </trkpt>
      <trkpt lat="47.29158" lon="-2.24254">
        <ele>-0.20000000298023</ele>
        <time>2022-02-27T10:20:04.000Z</time>
      </trkpt>
      <trkpt lat="47.29172" lon="-2.24298">
        <ele>-0.20000000298023</ele>
        <time>2022-02-27T10:20:10.000Z</time>
      </trkpt>
      <trkpt lat="47.29177" lon="-2.24312">
        <ele>-0.20000000298023</ele>
        <time>2022-02-27T10:20:12.000Z</time>
      </trkpt>
      <trkpt lat="47.29186" lon="-2.24333">
        <ele>-0.20000000298023</ele>
        <time>2022-02-27T10:20:15.000Z</time>
      </trkpt>
      <trkpt lat="47.29189" lon="-2.2434">
        <ele>-0.20000000298023</ele>
        <time>2022-02-27T10:20:16.000Z</time>
      </trkpt>
      <trkpt lat="47.29197" lon="-2.24361">
        <ele>-0.20000000298023</ele>
        <time>2022-02-27T10:20:19.000Z</time>
      </trkpt>
      <trkpt lat="47.29201" lon="-2.24368">
        <ele>-0.20000000298023</ele>
        <time>2022-02-27T10:20:20.000Z</time>
      </trkpt>
      <trkpt lat="47.29217" lon="-2.24408">
        <ele>-0.20000000298023</ele>
        <time>2022-02-27T10:20:26.000Z</time>
      </trkpt>
      <trkpt lat="47.29219" lon="-2.24415">
        <ele>-0.20000000298023</ele>
        <time>2022-02-27T10:20:27.000Z</time>
      </trkpt>
      <trkpt lat="47.29231" lon="-2.24462">
        <ele>-0.20000000298023</ele>
        <time>2022-02-27T10:20:34.000Z</time>
      </trkpt>
      <trkpt lat="47.29235" lon="-2.2447">
        <ele>-0.20000000298023</ele>
        <time>2022-02-27T10:20:37.000Z</time>
      </trkpt>
      <trkpt lat="47.2924" lon="-2.24472">
        <ele>-0.20000000298023</ele>
        <time>2022-02-27T10:20:40.000Z</time>
      </trkpt>
      <trkpt lat="47.29245" lon="-2.24472">
        <ele>-0.20000000298023</ele>
        <time>2022-02-27T10:20:42.000Z</time>
      </trkpt>
      <trkpt lat="47.29248" lon="-2.24471">
        <ele>0.20000000298023</ele>
        <time>2022-02-27T10:20:43.000Z</time>
      </trkpt>
      <trkpt lat="47.29252" lon="-2.24469">
        <ele>0.60000002384186</ele>
        <time>2022-02-27T10:20:44.000Z</time>
      </trkpt>
      <trkpt lat="47.29256" lon="-2.24467">
        <ele>1</ele>
        <time>2022-02-27T10:20:45.000Z</time>
      </trkpt>
      <trkpt lat="47.29261" lon="-2.24465">
        <ele>1.3999999761581</ele>
        <time>2022-02-27T10:20:46.000Z</time>
      </trkpt>
      <trkpt lat="47.29266" lon="-2.24462">
        <ele>1.7999999523163</ele>
        <time>2022-02-27T10:20:47.000Z</time>
      </trkpt>
      <trkpt lat="47.29281" lon="-2.24457">
        <ele>1.7999999523163</ele>
        <time>2022-02-27T10:20:50.000Z</time>
      </trkpt>
      <trkpt lat="47.2929" lon="-2.24461">
        <ele>1.7999999523163</ele>
        <time>2022-02-27T10:20:52.000Z</time>
      </trkpt>
      <trkpt lat="47.29294" lon="-2.24481">
        <ele>1.7999999523163</ele>
        <time>2022-02-27T10:20:55.000Z</time>
      </trkpt>
      <trkpt lat="47.29294" lon="-2.24504">
        <ele>1.7999999523163</ele>
        <time>2022-02-27T10:20:58.000Z</time>
      </trkpt>
      <trkpt lat="47.29294" lon="-2.24519">
        <ele>1.7999999523163</ele>
        <time>2022-02-27T10:21:00.000Z</time>
      </trkpt>
      <trkpt lat="47.29297" lon="-2.2457">
        <ele>1.7999999523163</ele>
        <time>2022-02-27T10:21:06.000Z</time>
      </trkpt>
      <trkpt lat="47.29299" lon="-2.24607">
        <ele>1.7999999523163</ele>
        <time>2022-02-27T10:21:12.000Z</time>
      </trkpt>
      <trkpt lat="47.29298" lon="-2.24636">
        <ele>1.7999999523163</ele>
        <time>2022-02-27T10:21:17.000Z</time>
      </trkpt>
      <trkpt lat="47.293" lon="-2.24679">
        <ele>1.7999999523163</ele>
        <time>2022-02-27T10:21:24.000Z</time>
      </trkpt>
      <trkpt lat="47.29305" lon="-2.24683">
        <ele>1.7999999523163</ele>
        <time>2022-02-27T10:21:27.000Z</time>
      </trkpt>
      <trkpt lat="47.29307" lon="-2.24683">
        <ele>1.7999999523163</ele>
        <time>2022-02-27T10:21:28.000Z</time>
      </trkpt>
      <trkpt lat="47.2932" lon="-2.24678">
        <ele>1.7999999523163</ele>
        <time>2022-02-27T10:21:33.000Z</time>
      </trkpt>
      <trkpt lat="47.29347" lon="-2.2467">
        <ele>1.7999999523163</ele>
        <time>2022-02-27T10:21:40.000Z</time>
      </trkpt>
      <trkpt lat="47.29367" lon="-2.24666">
        <ele>1.3999999761581</ele>
        <time>2022-02-27T10:21:45.000Z</time>
      </trkpt>
      <trkpt lat="47.29371" lon="-2.24665">
        <ele>1</ele>
        <time>2022-02-27T10:21:46.000Z</time>
      </trkpt>
      <trkpt lat="47.29374" lon="-2.24665">
        <ele>0.60000002384186</ele>
        <time>2022-02-27T10:21:47.000Z</time>
      </trkpt>
      <trkpt lat="47.29378" lon="-2.24665">
        <ele>9.4</ele>
        <time>2022-02-27T10:21:48.000Z</time>
      </trkpt>
      <trkpt lat="47.29381" lon="-2.24665">
        <ele>-0.40000000596046</ele>
        <time>2022-02-27T10:21:49.000Z</time>
      </trkpt>
      <trkpt lat="47.29385" lon="-2.24666">
        <ele>-0.40000000596046</ele>
        <time>2022-02-27T10:21:51.000Z</time>
      </trkpt>
      <trkpt lat="47.29394" lon="-2.24667">
        <ele>-0.40000000596046</ele>
        <time>2022-02-27T10:21:57.000Z</time>
      </trkpt>
      <trkpt lat="47.29396" lon="-2.24668">
        <ele>-0.40000000596046</ele>
        <time>2022-02-27T10:21:58.000Z</time>
      </trkpt>
      <trkpt lat="47.29403" lon="-2.24672">
        <ele>-0.40000000596046</ele>
        <time>2022-02-27T10:22:02.000Z</time>
      </trkpt>
      <trkpt lat="47.29412" lon="-2.24677">
        <ele>-0.40000000596046</ele>
        <time>2022-02-27T10:22:07.000Z</time>
      </trkpt>
      <trkpt lat="47.29423" lon="-2.24677">
        <ele>-0.40000000596046</ele>
        <time>2022-02-27T10:22:13.000Z</time>
      </trkpt>
      <trkpt lat="47.29426" lon="-2.24679">
        <ele>-0.40000000596046</ele>
        <time>2022-02-27T10:22:15.000Z</time>
      </trkpt>
      <trkpt lat="47.29431" lon="-2.24687">
        <ele>-0.40000000596046</ele>
        <time>2022-02-27T10:22:18.000Z</time>
      </trkpt>
      <trkpt lat="47.29444" lon="-2.24709">
        <ele>-0.40000000596046</ele>
        <time>2022-02-27T10:22:26.000Z</time>
      </trkpt>
      <trkpt lat="47.29458" lon="-2.24739">
        <ele>-0.40000000596046</ele>
        <time>2022-02-27T10:22:33.000Z</time>
      </trkpt>
      <trkpt lat="47.29465" lon="-2.24754">
        <ele>-0.40000000596046</ele>
        <time>2022-02-27T10:22:38.000Z</time>
      </trkpt>
      <trkpt lat="47.29467" lon="-2.24758">
        <ele>-0.40000000596046</ele>
        <time>2022-02-27T10:22:41.000Z</time>
      </trkpt>
      <trkpt lat="47.29471" lon="-2.24763">
        <ele>-0.40000000596046</ele>
        <time>2022-02-27T10:23:04.000Z</time>
      </trkpt>
      <trkpt lat="47.29472" lon="-2.24765">
        <ele>-0.40000000596046</ele>
        <time>2022-02-27T10:23:05.000Z</time>
      </trkpt>
      <trkpt lat="47.29476" lon="-2.2478">
        <ele>-0.40000000596046</ele>
        <time>2022-02-27T10:23:09.000Z</time>
      </trkpt>
      <trkpt lat="47.2949" lon="-2.24817">
        <ele>-0.40000000596046</ele>
        <time>2022-02-27T10:23:16.000Z</time>
      </trkpt>
      <trkpt lat="47.295" lon="-2.24847">
        <ele>-0.40000000596046</ele>
        <time>2022-02-27T10:23:22.000Z</time>
      </trkpt>
      <trkpt lat="47.29503" lon="-2.24856">
        <ele>-0.80000001192093</ele>
        <time>2022-02-27T10:23:24.000Z</time>
      </trkpt>
      <trkpt lat="47.29504" lon="-2.24861">
        <ele>-1.2000000476837</ele>
        <time>2022-02-27T10:23:25.000Z</time>
      </trkpt>
      <trkpt lat="47.29505" lon="-2.24866">
        <ele>-1.6000000238419</ele>
        <time>2022-02-27T10:23:26.000Z</time>
      </trkpt>
      <trkpt lat="47.29507" lon="-2.24871">
        <ele>-2</ele>
        <time>2022-02-27T10:23:27.000Z</time>
      </trkpt>
      <trkpt lat="47.29508" lon="-2.24875">
        <ele>-2.4000000953674</ele>
        <time>2022-02-27T10:23:28.000Z</time>
      </trkpt>
      <trkpt lat="47.29509" lon="-2.24879">
        <ele>-2.4000000953674</ele>
        <time>2022-02-27T10:23:29.000Z</time>
      </trkpt>
      <trkpt lat="47.29513" lon="-2.24897">
        <ele>-2.4000000953674</ele>
        <time>2022-02-27T10:23:34.000Z</time>
      </trkpt>
      <trkpt lat="47.29515" lon="-2.24904">
        <ele>-2.4000000953674</ele>
        <time>2022-02-27T10:23:36.000Z</time>
      </trkpt>
      <trkpt lat="47.29512" lon="-2.24916">
        <ele>-2.4000000953674</ele>
        <time>2022-02-27T10:23:39.000Z</time>
      </trkpt>
      <trkpt lat="47.29505" lon="-2.24925">
        <ele>-2.4000000953674</ele>
        <time>2022-02-27T10:23:42.000Z</time>
      </trkpt>
      <trkpt lat="47.29503" lon="-2.24927">
        <ele>-2.4000000953674</ele>
        <time>2022-02-27T10:23:43.000Z</time>
      </trkpt>
      <trkpt lat="47.29485" lon="-2.24934">
        <ele>-2.4000000953674</ele>
        <time>2022-02-27T10:23:49.000Z</time>
      </trkpt>
      <trkpt lat="47.29482" lon="-2.24933">
        <ele>-2.4000000953674</ele>
        <time>2022-02-27T10:23:50.000Z</time>
      </trkpt>
      <trkpt lat="47.29461" lon="-2.24922">
        <ele>-2.4000000953674</ele>
        <time>2022-02-27T10:23:57.000Z</time>
      </trkpt>
      <trkpt lat="47.29438" lon="-2.24915">
        <ele>-2.4000000953674</ele>
        <time>2022-02-27T10:24:05.000Z</time>
      </trkpt>
      <trkpt lat="47.29425" lon="-2.24918">
        <ele>-2.4000000953674</ele>
        <time>2022-02-27T10:24:12.000Z</time>
      </trkpt>
      <trkpt lat="47.29421" lon="-2.2492">
        <ele>-2</ele>
        <time>2022-02-27T10:24:15.000Z</time>
      </trkpt>
      <trkpt lat="47.29419" lon="-2.24921">
        <ele>-1.6000000238419</ele>
        <time>2022-02-27T10:24:16.000Z</time>
      </trkpt>
      <trkpt lat="47.29418" lon="-2.24922">
        <ele>-1.2000000476837</ele>
        <time>2022-02-27T10:24:17.000Z</time>
      </trkpt>
      <trkpt lat="47.29418" lon="-2.24922">
        <ele>-0.80000001192093</ele>
        <time>2022-02-27T10:24:18.000Z</time>
      </trkpt>
      <trkpt lat="47.29416" lon="-2.24921">
        <ele>-0.40000000596046</ele>
        <time>2022-02-27T10:25:51.000Z</time>
      </trkpt>
      <trkpt lat="47.29405" lon="-2.24918">
        <ele>-0.40000000596046</ele>
        <time>2022-02-27T10:25:57.000Z</time>
      </trkpt>
      <trkpt lat="47.29401" lon="-2.24918">
        <ele>-0.40000000596046</ele>
        <time>2022-02-27T10:25:58.000Z</time>
      </trkpt>
      <trkpt lat="47.29387" lon="-2.24918">
        <ele>-0.40000000596046</ele>
        <time>2022-02-27T10:26:02.000Z</time>
      </trkpt>
      <trkpt lat="47.29373" lon="-2.24918">
        <ele>11.6</ele>
        <time>2022-02-27T10:26:06.000Z</time>
      </trkpt>
      <trkpt lat="47.2937" lon="-2.24917">
        <ele>0.60000002384186</ele>
        <time>2022-02-27T10:26:07.000Z</time>
      </trkpt>
      <trkpt lat="47.29366" lon="-2.24917">
        <ele>1</ele>
        <time>2022-02-27T10:26:08.000Z</time>
      </trkpt>
      <trkpt lat="47.29363" lon="-2.24918">
        <ele>1.3999999761581</ele>
        <time>2022-02-27T10:26:09.000Z</time>
      </trkpt>
      <trkpt lat="47.2936" lon="-2.24918">
        <ele>1.7999999523163</ele>
        <time>2022-02-27T10:26:10.000Z</time>
      </trkpt>
      <trkpt lat="47.29343" lon="-2.24917">
        <ele>2.2000000476837</ele>
        <time>2022-02-27T10:26:15.000Z</time>
      </trkpt>
      <trkpt lat="47.29339" lon="-2.24917">
        <ele>2.5999999046326</ele>
        <time>2022-02-27T10:26:16.000Z</time>
      </trkpt>
      <trkpt lat="47.29336" lon="-2.24917">
        <ele>3</ele>
        <time>2022-02-27T10:26:17.000Z</time>
      </trkpt>
      <trkpt lat="47.29332" lon="-2.24918">
        <ele>3.4000000953674</ele>
        <time>2022-02-27T10:26:18.000Z</time>
      </trkpt>
      <trkpt lat="47.29329" lon="-2.24919">
        <ele>3.7999999523163</ele>
        <time>2022-02-27T10:26:19.000Z</time>
      </trkpt>
      <trkpt lat="47.29322" lon="-2.24919">
        <ele>3.7999999523163</ele>
        <time>2022-02-27T10:26:21.000Z</time>
      </trkpt>
      <trkpt lat="47.29296" lon="-2.24921">
        <ele>3.7999999523163</ele>
        <time>2022-02-27T10:26:28.000Z</time>
      </trkpt>
      <trkpt lat="47.29292" lon="-2.24921">
        <ele>4.1999998092651</ele>
        <time>2022-02-27T10:26:29.000Z</time>
      </trkpt>
      <trkpt lat="47.29288" lon="-2.24921">
        <ele>4.5999999046326</ele>
        <time>2022-02-27T10:26:30.000Z</time>
      </trkpt>
      <trkpt lat="47.29285" lon="-2.24921">
        <ele>5</ele>
        <time>2022-02-27T10:26:31.000Z</time>
      </trkpt>
      <trkpt lat="47.29281" lon="-2.24921">
        <ele>5.4000000953674</ele>
        <time>2022-02-27T10:26:32.000Z</time>
      </trkpt>
      <trkpt lat="47.29278" lon="-2.24921">
        <ele>5.8000001907349</ele>
        <time>2022-02-27T10:26:33.000Z</time>
      </trkpt>
      <trkpt lat="47.29269" lon="-2.2492">
        <ele>5.8000001907349</ele>
        <time>2022-02-27T10:26:36.000Z</time>
      </trkpt>
      <trkpt lat="47.29261" lon="-2.24921">
        <ele>5.8000001907349</ele>
        <time>2022-02-27T10:26:39.000Z</time>
      </trkpt>
      <trkpt lat="47.29258" lon="-2.24928">
        <ele>5.8000001907349</ele>
        <time>2022-02-27T10:26:41.000Z</time>
      </trkpt>
      <trkpt lat="47.29261" lon="-2.24954">
        <ele>5.8000001907349</ele>
        <time>2022-02-27T10:26:46.000Z</time>
      </trkpt>
      <trkpt lat="47.29264" lon="-2.24967">
        <ele>5.8000001907349</ele>
        <time>2022-02-27T10:26:48.000Z</time>
      </trkpt>
      <trkpt lat="47.29269" lon="-2.24995">
        <ele>5.8000001907349</ele>
        <time>2022-02-27T10:26:52.000Z</time>
      </trkpt>
      <trkpt lat="47.29281" lon="-2.25045">
        <ele>5.8000001907349</ele>
        <time>2022-02-27T10:26:59.000Z</time>
      </trkpt>
      <trkpt lat="47.29284" lon="-2.25058">
        <ele>5.8000001907349</ele>
        <time>2022-02-27T10:27:01.000Z</time>
      </trkpt>
      <trkpt lat="47.29289" lon="-2.25077">
        <ele>5.8000001907349</ele>
        <time>2022-02-27T10:27:04.000Z</time>
      </trkpt>
      <trkpt lat="47.29291" lon="-2.25091">
        <ele>5.8000001907349</ele>
        <time>2022-02-27T10:27:06.000Z</time>
      </trkpt>
      <trkpt lat="47.29295" lon="-2.25114">
        <ele>5.8000001907349</ele>
        <time>2022-02-27T10:27:09.000Z</time>
      </trkpt>
      <trkpt lat="47.29297" lon="-2.2513">
        <ele>5.4000000953674</ele>
        <time>2022-02-27T10:27:11.000Z</time>
      </trkpt>
      <trkpt lat="47.29298" lon="-2.25138">
        <ele>5</ele>
        <time>2022-02-27T10:27:12.000Z</time>
      </trkpt>
      <trkpt lat="47.29299" lon="-2.25146">
        <ele>4.5999999046326</ele>
        <time>2022-02-27T10:27:13.000Z</time>
      </trkpt>
      <trkpt lat="47.29301" lon="-2.25155">
        <ele>4.1999998092651</ele>
        <time>2022-02-27T10:27:14.000Z</time>
      </trkpt>
      <trkpt lat="47.29302" lon="-2.25164">
        <ele>3.7999999523163</ele>
        <time>2022-02-27T10:27:15.000Z</time>
      </trkpt>
      <trkpt lat="47.29304" lon="-2.25173">
        <ele>3.7999999523163</ele>
        <time>2022-02-27T10:27:16.000Z</time>
      </trkpt>
      <trkpt lat="47.29307" lon="-2.25189">
        <ele>3.4000000953674</ele>
        <time>2022-02-27T10:27:18.000Z</time>
      </trkpt>
      <trkpt lat="47.2931" lon="-2.25195">
        <ele>2.7999999523163</ele>
        <time>2022-02-27T10:27:19.000Z</time>
      </trkpt>
      <trkpt lat="47.29314" lon="-2.25198">
        <ele>2.4000000953674</ele>
        <time>2022-02-27T10:27:20.000Z</time>
      </trkpt>
      <trkpt lat="47.29318" lon="-2.25197">
        <ele>2</ele>
        <time>2022-02-27T10:27:21.000Z</time>
      </trkpt>
      <trkpt lat="47.29323" lon="-2.25196">
        <ele>1.6000000238419</ele>
        <time>2022-02-27T10:27:22.000Z</time>
      </trkpt>
      <trkpt lat="47.29327" lon="-2.25195">
        <ele>1.6000000238419</ele>
        <time>2022-02-27T10:27:23.000Z</time>
      </trkpt>
      <trkpt lat="47.29331" lon="-2.25195">
        <ele>1.6000000238419</ele>
        <time>2022-02-27T10:27:24.000Z</time>
      </trkpt>
      <trkpt lat="47.29341" lon="-2.25195">
        <ele>1.6000000238419</ele>
        <time>2022-02-27T10:27:26.000Z</time>
      </trkpt>
      <trkpt lat="47.29351" lon="-2.25197">
        <ele>1.6000000238419</ele>
        <time>2022-02-27T10:27:28.000Z</time>
      </trkpt>
      <trkpt lat="47.29391" lon="-2.25207">
        <ele>1.6000000238419</ele>
        <time>2022-02-27T10:27:35.000Z</time>
      </trkpt>
      <trkpt lat="47.29417" lon="-2.25211">
        <ele>1.6000000238419</ele>
        <time>2022-02-27T10:27:40.000Z</time>
      </trkpt>
      <trkpt lat="47.29423" lon="-2.2521">
        <ele>1.6000000238419</ele>
        <time>2022-02-27T10:27:41.000Z</time>
      </trkpt>
      <trkpt lat="47.29442" lon="-2.25203">
        <ele>1.6000000238419</ele>
        <time>2022-02-27T10:27:45.000Z</time>
      </trkpt>
      <trkpt lat="47.29453" lon="-2.25201">
        <ele>1.6000000238419</ele>
        <time>2022-02-27T10:27:47.000Z</time>
      </trkpt>
      <trkpt lat="47.29457" lon="-2.25199">
        <ele>2</ele>
        <time>2022-02-27T10:27:48.000Z</time>
      </trkpt>
      <trkpt lat="47.29462" lon="-2.25198">
        <ele>2.4000000953674</ele>
        <time>2022-02-27T10:27:49.000Z</time>
      </trkpt>
      <trkpt lat="47.29467" lon="-2.25197">
        <ele>3</ele>
        <time>2022-02-27T10:27:50.000Z</time>
      </trkpt>
      <trkpt lat="47.29472" lon="-2.25196">
        <ele>3.7999999523163</ele>
        <time>2022-02-27T10:27:51.000Z</time>
      </trkpt>
      <trkpt lat="47.29481" lon="-2.25193">
        <ele>3.7999999523163</ele>
        <time>2022-02-27T10:27:53.000Z</time>
      </trkpt>
      <trkpt lat="47.29504" lon="-2.25185">
        <ele>3.7999999523163</ele>
        <time>2022-02-27T10:27:58.000Z</time>
      </trkpt>
      <trkpt lat="47.29527" lon="-2.25179">
        <ele>4.1999998092651</ele>
        <time>2022-02-27T10:28:03.000Z</time>
      </trkpt>
      <trkpt lat="47.29531" lon="-2.25178">
        <ele>4.5999999046326</ele>
        <time>2022-02-27T10:28:04.000Z</time>
      </trkpt>
      <trkpt lat="47.29536" lon="-2.25177">
        <ele>5</ele>
        <time>2022-02-27T10:28:05.000Z</time>
      </trkpt>
      <trkpt lat="47.2954" lon="-2.25178">
        <ele>5.4000000953674</ele>
        <time>2022-02-27T10:28:06.000Z</time>
      </trkpt>
      <trkpt lat="47.29543" lon="-2.25179">
        <ele>5.8000001907349</ele>
        <time>2022-02-27T10:28:07.000Z</time>
      </trkpt>
      <trkpt lat="47.29546" lon="-2.25181">
        <ele>5.8000001907349</ele>
        <time>2022-02-27T10:28:08.000Z</time>
      </trkpt>
      <trkpt lat="47.29549" lon="-2.25187">
        <ele>5.8000001907349</ele>
        <time>2022-02-27T10:28:11.000Z</time>
      </trkpt>
      <trkpt lat="47.29549" lon="-2.25189">
        <ele>5.8000001907349</ele>
        <time>2022-02-27T10:28:12.000Z</time>
      </trkpt>
      <trkpt lat="47.29549" lon="-2.25201">
        <ele>5.8000001907349</ele>
        <time>2022-02-27T10:28:15.000Z</time>
      </trkpt>
      <trkpt lat="47.29548" lon="-2.25208">
        <ele>5.8000001907349</ele>
        <time>2022-02-27T10:28:16.000Z</time>
      </trkpt>
      <trkpt lat="47.29545" lon="-2.2522">
        <ele>5.8000001907349</ele>
        <time>2022-02-27T10:28:18.000Z</time>
      </trkpt>
      <trkpt lat="47.29543" lon="-2.25227">
        <ele>5.8000001907349</ele>
        <time>2022-02-27T10:28:19.000Z</time>
      </trkpt>
      <trkpt lat="47.2954" lon="-2.25254">
        <ele>5.8000001907349</ele>
        <time>2022-02-27T10:28:23.000Z</time>
      </trkpt>
      <trkpt lat="47.2954" lon="-2.25269">
        <ele>5.8000001907349</ele>
        <time>2022-02-27T10:28:25.000Z</time>
      </trkpt>
      <trkpt lat="47.29545" lon="-2.25299">
        <ele>5.8000001907349</ele>
        <time>2022-02-27T10:28:29.000Z</time>
      </trkpt>
      <trkpt lat="47.29548" lon="-2.25307">
        <ele>5.8000001907349</ele>
        <time>2022-02-27T10:28:30.000Z</time>
      </trkpt>
      <trkpt lat="47.29559" lon="-2.25333">
        <ele>6.1999998092651</ele>
        <time>2022-02-27T10:28:34.000Z</time>
      </trkpt>
      <trkpt lat="47.29563" lon="-2.2534">
        <ele>6.5999999046326</ele>
        <time>2022-02-27T10:28:35.000Z</time>
      </trkpt>
      <trkpt lat="47.29566" lon="-2.25346">
        <ele>7</ele>
        <time>2022-02-27T10:28:36.000Z</time>
      </trkpt>
      <trkpt lat="47.29569" lon="-2.25353">
        <ele>7.5999999046326</ele>
        <time>2022-02-27T10:28:37.000Z</time>
      </trkpt>
      <trkpt lat="47.29572" lon="-2.25359">
        <ele>8</ele>
        <time>2022-02-27T10:28:38.000Z</time>
      </trkpt>
      <trkpt lat="47.2958" lon="-2.25388">
        <ele>8</ele>
        <time>2022-02-27T10:28:42.000Z</time>
      </trkpt>
      <trkpt lat="47.29581" lon="-2.25396">
        <ele>8</ele>
        <time>2022-02-27T10:28:43.000Z</time>
      </trkpt>
      <trkpt lat="47.29584" lon="-2.25426">
        <ele>8.3999996185303</ele>
        <time>2022-02-27T10:28:47.000Z</time>
      </trkpt>
      <trkpt lat="47.29585" lon="-2.25434">
        <ele>8.8000001907349</ele>
        <time>2022-02-27T10:28:48.000Z</time>
      </trkpt>
      <trkpt lat="47.29585" lon="-2.25442">
        <ele>9.1999998092651</ele>
        <time>2022-02-27T10:28:49.000Z</time>
      </trkpt>
      <trkpt lat="47.29586" lon="-2.25449">
        <ele>9.6000003814697</ele>
        <time>2022-02-27T10:28:50.000Z</time>
      </trkpt>
      <trkpt lat="47.29586" lon="-2.25457">
        <ele>10</ele>
        <time>2022-02-27T10:28:51.000Z</time>
      </trkpt>
      <trkpt lat="47.29587" lon="-2.25495">
        <ele>10</ele>
        <time>2022-02-27T10:28:56.000Z</time>
      </trkpt>
      <trkpt lat="47.29585" lon="-2.25502">
        <ele>10</ele>
        <time>2022-02-27T10:28:57.000Z</time>
      </trkpt>
      <trkpt lat="47.29576" lon="-2.2553">
        <ele>10.39999961853</ele>
        <time>2022-02-27T10:29:01.000Z</time>
      </trkpt>
      <trkpt lat="47.29572" lon="-2.25536">
        <ele>10.800000190735</ele>
        <time>2022-02-27T10:29:02.000Z</time>
      </trkpt>
      <trkpt lat="47.29567" lon="-2.25541">
        <ele>11.199999809265</ele>
        <time>2022-02-27T10:29:03.000Z</time>
      </trkpt>
      <trkpt lat="47.29563" lon="-2.25545">
        <ele>11.60000038147</ele>
        <time>2022-02-27T10:29:04.000Z</time>
      </trkpt>
      <trkpt lat="47.29558" lon="-2.25549">
        <ele>12</ele>
        <time>2022-02-27T10:29:05.000Z</time>
      </trkpt>
      <trkpt lat="47.29548" lon="-2.25556">
        <ele>12</ele>
        <time>2022-02-27T10:29:07.000Z</time>
      </trkpt>
      <trkpt lat="47.29515" lon="-2.25577">
        <ele>12</ele>
        <time>2022-02-27T10:29:14.000Z</time>
      </trkpt>
      <trkpt lat="47.29506" lon="-2.25584">
        <ele>12.60000038147</ele>
        <time>2022-02-27T10:29:16.000Z</time>
      </trkpt>
      <trkpt lat="47.29501" lon="-2.25586">
        <ele>13</ele>
        <time>2022-02-27T10:29:17.000Z</time>
      </trkpt>
      <trkpt lat="47.29497" lon="-2.25589">
        <ele>13.39999961853</ele>
        <time>2022-02-27T10:29:18.000Z</time>
      </trkpt>
      <trkpt lat="47.29492" lon="-2.25592">
        <ele>13.800000190735</ele>
        <time>2022-02-27T10:29:19.000Z</time>
      </trkpt>
      <trkpt lat="47.29487" lon="-2.25594">
        <ele>14.199999809265</ele>
        <time>2022-02-27T10:29:20.000Z</time>
      </trkpt>
      <trkpt lat="47.29482" lon="-2.25597">
        <ele>14.199999809265</ele>
        <time>2022-02-27T10:29:21.000Z</time>
      </trkpt>
      <trkpt lat="47.29453" lon="-2.2561">
        <ele>14.199999809265</ele>
        <time>2022-02-27T10:29:27.000Z</time>
      </trkpt>
      <trkpt lat="47.29422" lon="-2.25623">
        <ele>14.199999809265</ele>
        <time>2022-02-27T10:29:33.000Z</time>
      </trkpt>
      <trkpt lat="47.29392" lon="-2.25638">
        <ele>14.199999809265</ele>
        <time>2022-02-27T10:29:40.000Z</time>
      </trkpt>
      <trkpt lat="47.2939" lon="-2.25644">
        <ele>14.199999809265</ele>
        <time>2022-02-27T10:29:42.000Z</time>
      </trkpt>
      <trkpt lat="47.29392" lon="-2.25647">
        <ele>14.199999809265</ele>
        <time>2022-02-27T10:29:43.000Z</time>
      </trkpt>
      <trkpt lat="47.294" lon="-2.25654">
        <ele>14.199999809265</ele>
        <time>2022-02-27T10:29:48.000Z</time>
      </trkpt>
      <trkpt lat="47.29409" lon="-2.25659">
        <ele>14.199999809265</ele>
        <time>2022-02-27T10:29:51.000Z</time>
      </trkpt>
      <trkpt lat="47.29412" lon="-2.25661">
        <ele>14.199999809265</ele>
        <time>2022-02-27T10:29:52.000Z</time>
      </trkpt>
      <trkpt lat="47.29422" lon="-2.25675">
        <ele>14.199999809265</ele>
        <time>2022-02-27T10:29:56.000Z</time>
      </trkpt>
      <trkpt lat="47.29428" lon="-2.25692">
        <ele>14.199999809265</ele>
        <time>2022-02-27T10:29:59.000Z</time>
      </trkpt>
      <trkpt lat="47.29431" lon="-2.25704">
        <ele>14.199999809265</ele>
        <time>2022-02-27T10:30:01.000Z</time>
      </trkpt>
      <trkpt lat="47.29433" lon="-2.25711">
        <ele>13.800000190735</ele>
        <time>2022-02-27T10:30:02.000Z</time>
      </trkpt>
      <trkpt lat="47.29435" lon="-2.25718">
        <ele>13.39999961853</ele>
        <time>2022-02-27T10:30:03.000Z</time>
      </trkpt>
      <trkpt lat="47.29437" lon="-2.25725">
        <ele>12.800000190735</ele>
        <time>2022-02-27T10:30:04.000Z</time>
      </trkpt>
      <trkpt lat="47.29439" lon="-2.25731">
        <ele>12.39999961853</ele>
        <time>2022-02-27T10:30:05.000Z</time>
      </trkpt>
      <trkpt lat="47.2944" lon="-2.25738">
        <ele>12</ele>
        <time>2022-02-27T10:30:06.000Z</time>
      </trkpt>
      <trkpt lat="47.29444" lon="-2.25752">
        <ele>11.60000038147</ele>
        <time>2022-02-27T10:30:08.000Z</time>
      </trkpt>
      <trkpt lat="47.29446" lon="-2.25759">
        <ele>11</ele>
        <time>2022-02-27T10:30:09.000Z</time>
      </trkpt>
      <trkpt lat="47.29447" lon="-2.25765">
        <ele>10.60000038147</ele>
        <time>2022-02-27T10:30:10.000Z</time>
      </trkpt>
      <trkpt lat="47.29447" lon="-2.2577">
        <ele>10</ele>
        <time>2022-02-27T10:30:11.000Z</time>
      </trkpt>
      <trkpt lat="47.29447" lon="-2.25774">
        <ele>9.6000003814697</ele>
        <time>2022-02-27T10:30:12.000Z</time>
      </trkpt>
      <trkpt lat="47.29441" lon="-2.25779">
        <ele>9.6000003814697</ele>
        <time>2022-02-27T10:30:15.000Z</time>
      </trkpt>
      <trkpt lat="47.29438" lon="-2.2578">
        <ele>9.6000003814697</ele>
        <time>2022-02-27T10:30:16.000Z</time>
      </trkpt>
      <trkpt lat="47.29433" lon="-2.25781">
        <ele>9.6000003814697</ele>
        <time>2022-02-27T10:30:18.000Z</time>
      </trkpt>
      <trkpt lat="47.29429" lon="-2.2578">
        <ele>9.6000003814697</ele>
        <time>2022-02-27T10:30:20.000Z</time>
      </trkpt>
      <trkpt lat="47.29426" lon="-2.25777">
        <ele>9.6000003814697</ele>
        <time>2022-02-27T10:30:22.000Z</time>
      </trkpt>
      <trkpt lat="47.29423" lon="-2.25772">
        <ele>9.6000003814697</ele>
        <time>2022-02-27T10:30:24.000Z</time>
      </trkpt>
      <trkpt lat="47.29409" lon="-2.25759">
        <ele>9.6000003814697</ele>
        <time>2022-02-27T10:30:30.000Z</time>
      </trkpt>
      <trkpt lat="47.294" lon="-2.25753">
        <ele>9.6000003814697</ele>
        <time>2022-02-27T10:30:35.000Z</time>
      </trkpt>
      <trkpt lat="47.29394" lon="-2.25755">
        <ele>10</ele>
        <time>2022-02-27T10:30:38.000Z</time>
      </trkpt>
      <trkpt lat="47.29391" lon="-2.25756">
        <ele>10.39999961853</ele>
        <time>2022-02-27T10:30:39.000Z</time>
      </trkpt>
      <trkpt lat="47.29388" lon="-2.25757">
        <ele>10.800000190735</ele>
        <time>2022-02-27T10:30:40.000Z</time>
      </trkpt>
      <trkpt lat="47.29386" lon="-2.25757">
        <ele>11.199999809265</ele>
        <time>2022-02-27T10:30:41.000Z</time>
      </trkpt>
      <trkpt lat="47.29384" lon="-2.25757">
        <ele>11.60000038147</ele>
        <time>2022-02-27T10:30:42.000Z</time>
      </trkpt>
      <trkpt lat="47.29377" lon="-2.25759">
        <ele>11.60000038147</ele>
        <time>2022-02-27T10:30:45.000Z</time>
      </trkpt>
      <trkpt lat="47.29374" lon="-2.25763">
        <ele>11.60000038147</ele>
        <time>2022-02-27T10:30:47.000Z</time>
      </trkpt>
      <trkpt lat="47.29369" lon="-2.25781">
        <ele>11.60000038147</ele>
        <time>2022-02-27T10:30:54.000Z</time>
      </trkpt>
      <trkpt lat="47.2937" lon="-2.25785">
        <ele>11.60000038147</ele>
        <time>2022-02-27T10:30:56.000Z</time>
      </trkpt>
      <trkpt lat="47.29372" lon="-2.25793">
        <ele>11.60000038147</ele>
        <time>2022-02-27T10:30:59.000Z</time>
      </trkpt>
      <trkpt lat="47.29375" lon="-2.25809">
        <ele>11.60000038147</ele>
        <time>2022-02-27T10:31:03.000Z</time>
      </trkpt>
      <trkpt lat="47.29375" lon="-2.25812">
        <ele>11.60000038147</ele>
        <time>2022-02-27T10:31:04.000Z</time>
      </trkpt>
      <trkpt lat="47.29374" lon="-2.25816">
        <ele>11.60000038147</ele>
        <time>2022-02-27T10:31:05.000Z</time>
      </trkpt>
      <trkpt lat="47.29371" lon="-2.2582">
        <ele>11.60000038147</ele>
        <time>2022-02-27T10:31:07.000Z</time>
      </trkpt>
      <trkpt lat="47.29371" lon="-2.25824">
        <ele>11.60000038147</ele>
        <time>2022-02-27T10:31:08.000Z</time>
      </trkpt>
      <trkpt lat="47.2937" lon="-2.25833">
        <ele>11.60000038147</ele>
        <time>2022-02-27T10:31:11.000Z</time>
      </trkpt>
      <trkpt lat="47.2937" lon="-2.25836">
        <ele>11.60000038147</ele>
        <time>2022-02-27T10:31:12.000Z</time>
      </trkpt>
      <trkpt lat="47.29372" lon="-2.25844">
        <ele>11.60000038147</ele>
        <time>2022-02-27T10:31:14.000Z</time>
      </trkpt>
      <trkpt lat="47.29371" lon="-2.25854">
        <ele>11.60000038147</ele>
        <time>2022-02-27T10:31:17.000Z</time>
      </trkpt>
      <trkpt lat="47.29369" lon="-2.25858">
        <ele>11.60000038147</ele>
        <time>2022-02-27T10:31:19.000Z</time>
      </trkpt>
      <trkpt lat="47.29362" lon="-2.25871">
        <ele>11.60000038147</ele>
        <time>2022-02-27T10:31:23.000Z</time>
      </trkpt>
      <trkpt lat="47.2936" lon="-2.25873">
        <ele>11.60000038147</ele>
        <time>2022-02-27T10:31:24.000Z</time>
      </trkpt>
      <trkpt lat="47.29352" lon="-2.25879">
        <ele>11.60000038147</ele>
        <time>2022-02-27T10:31:30.000Z</time>
      </trkpt>
      <trkpt lat="47.29347" lon="-2.25882">
        <ele>11.60000038147</ele>
        <time>2022-02-27T10:31:36.000Z</time>
      </trkpt>
      <trkpt lat="47.29339" lon="-2.25883">
        <ele>11.60000038147</ele>
        <time>2022-02-27T10:31:41.000Z</time>
      </trkpt>
      <trkpt lat="47.29337" lon="-2.25881">
        <ele>11.60000038147</ele>
        <time>2022-02-27T10:31:42.000Z</time>
      </trkpt>
      <trkpt lat="47.29329" lon="-2.25866">
        <ele>11.60000038147</ele>
        <time>2022-02-27T10:31:49.000Z</time>
      </trkpt>
      <trkpt lat="47.29328" lon="-2.25858">
        <ele>11.60000038147</ele>
        <time>2022-02-27T10:31:52.000Z</time>
      </trkpt>
      <trkpt lat="47.29327" lon="-2.25855">
        <ele>12</ele>
        <time>2022-02-27T10:31:53.000Z</time>
      </trkpt>
      <trkpt lat="47.29324" lon="-2.25853">
        <ele>12.39999961853</ele>
        <time>2022-02-27T10:31:54.000Z</time>
      </trkpt>
      <trkpt lat="47.29321" lon="-2.25851">
        <ele>12.800000190735</ele>
        <time>2022-02-27T10:31:55.000Z</time>
      </trkpt>
      <trkpt lat="47.29318" lon="-2.25849">
        <ele>13.199999809265</ele>
        <time>2022-02-27T10:31:56.000Z</time>
      </trkpt>
      <trkpt lat="47.29315" lon="-2.25848">
        <ele>13.60000038147</ele>
        <time>2022-02-27T10:31:57.000Z</time>
      </trkpt>
      <trkpt lat="47.29309" lon="-2.2585">
        <ele>13.60000038147</ele>
        <time>2022-02-27T10:31:59.000Z</time>
      </trkpt>
      <trkpt lat="47.29307" lon="-2.2585">
        <ele>13.60000038147</ele>
        <time>2022-02-27T10:32:01.000Z</time>
      </trkpt>
      <trkpt lat="47.29307" lon="-2.25853">
        <ele>13.60000038147</ele>
        <time>2022-02-27T10:32:02.000Z</time>
      </trkpt>
      <trkpt lat="47.29315" lon="-2.25865">
        <ele>13.60000038147</ele>
        <time>2022-02-27T10:32:06.000Z</time>
      </trkpt>
      <trkpt lat="47.29321" lon="-2.25879">
        <ele>13.60000038147</ele>
        <time>2022-02-27T10:32:11.000Z</time>
      </trkpt>
      <trkpt lat="47.2932" lon="-2.25887">
        <ele>13.60000038147</ele>
        <time>2022-02-27T10:32:14.000Z</time>
      </trkpt>
      <trkpt lat="47.29319" lon="-2.2589">
        <ele>13.60000038147</ele>
        <time>2022-02-27T10:32:16.000Z</time>
      </trkpt>
      <trkpt lat="47.29318" lon="-2.25892">
        <ele>13.60000038147</ele>
        <time>2022-02-27T10:32:17.000Z</time>
      </trkpt>
      <trkpt lat="47.29318" lon="-2.25899">
        <ele>13.60000038147</ele>
        <time>2022-02-27T10:32:19.000Z</time>
      </trkpt>
      <trkpt lat="47.2932" lon="-2.25911">
        <ele>13.60000038147</ele>
        <time>2022-02-27T10:32:21.000Z</time>
      </trkpt>
      <trkpt lat="47.29323" lon="-2.25926">
        <ele>13.60000038147</ele>
        <time>2022-02-27T10:32:24.000Z</time>
      </trkpt>
      <trkpt lat="47.29325" lon="-2.25938">
        <ele>13.60000038147</ele>
        <time>2022-02-27T10:32:26.000Z</time>
      </trkpt>
      <trkpt lat="47.29325" lon="-2.25943">
        <ele>13.199999809265</ele>
        <time>2022-02-27T10:32:27.000Z</time>
      </trkpt>
      <trkpt lat="47.29325" lon="-2.25948">
        <ele>12.800000190735</ele>
        <time>2022-02-27T10:32:28.000Z</time>
      </trkpt>
      <trkpt lat="47.29325" lon="-2.25953">
        <ele>12.39999961853</ele>
        <time>2022-02-27T10:32:29.000Z</time>
      </trkpt>
      <trkpt lat="47.29324" lon="-2.25958">
        <ele>12</ele>
        <time>2022-02-27T10:32:30.000Z</time>
      </trkpt>
      <trkpt lat="47.29322" lon="-2.25962">
        <ele>11.60000038147</ele>
        <time>2022-02-27T10:32:31.000Z</time>
      </trkpt>
      <trkpt lat="47.29309" lon="-2.25973">
        <ele>11.60000038147</ele>
        <time>2022-02-27T10:32:36.000Z</time>
      </trkpt>
      <trkpt lat="47.29292" lon="-2.25978">
        <ele>11.60000038147</ele>
        <time>2022-02-27T10:32:41.000Z</time>
      </trkpt>
      <trkpt lat="47.29277" lon="-2.25986">
        <ele>11.60000038147</ele>
        <time>2022-02-27T10:32:46.000Z</time>
      </trkpt>
      <trkpt lat="47.29271" lon="-2.25987">
        <ele>12</ele>
        <time>2022-02-27T10:32:48.000Z</time>
      </trkpt>
      <trkpt lat="47.29268" lon="-2.25985">
        <ele>12.800000190735</ele>
        <time>2022-02-27T10:32:49.000Z</time>
      </trkpt>
      <trkpt lat="47.29264" lon="-2.25983">
        <ele>13.199999809265</ele>
        <time>2022-02-27T10:32:50.000Z</time>
      </trkpt>
      <trkpt lat="47.29262" lon="-2.25981">
        <ele>13.800000190735</ele>
        <time>2022-02-27T10:32:51.000Z</time>
      </trkpt>
      <trkpt lat="47.29252" lon="-2.25983">
        <ele>13.800000190735</ele>
        <time>2022-02-27T10:32:54.000Z</time>
      </trkpt>
      <trkpt lat="47.29235" lon="-2.25989">
        <ele>13.800000190735</ele>
        <time>2022-02-27T10:33:00.000Z</time>
      </trkpt>
      <trkpt lat="47.29216" lon="-2.25995">
        <ele>13.800000190735</ele>
        <time>2022-02-27T10:33:07.000Z</time>
      </trkpt>
      <trkpt lat="47.29204" lon="-2.26004">
        <ele>13.800000190735</ele>
        <time>2022-02-27T10:33:13.000Z</time>
      </trkpt>
      <trkpt lat="47.29203" lon="-2.26005">
        <ele>13.800000190735</ele>
        <time>2022-02-27T10:33:14.000Z</time>
      </trkpt>
      <trkpt lat="47.29198" lon="-2.26022">
        <ele>13.800000190735</ele>
        <time>2022-02-27T10:33:20.000Z</time>
      </trkpt>
      <trkpt lat="47.292" lon="-2.2603">
        <ele>14.199999809265</ele>
        <time>2022-02-27T10:33:22.000Z</time>
      </trkpt>
      <trkpt lat="47.29203" lon="-2.26034">
        <ele>14.60000038147</ele>
        <time>2022-02-27T10:33:23.000Z</time>
      </trkpt>
      <trkpt lat="47.29205" lon="-2.26039">
        <ele>15</ele>
        <time>2022-02-27T10:33:24.000Z</time>
      </trkpt>
      <trkpt lat="47.29207" lon="-2.26043">
        <ele>15.39999961853</ele>
        <time>2022-02-27T10:33:25.000Z</time>
      </trkpt>
      <trkpt lat="47.2921" lon="-2.26047">
        <ele>15.800000190735</ele>
        <time>2022-02-27T10:33:26.000Z</time>
      </trkpt>
      <trkpt lat="47.29221" lon="-2.26065">
        <ele>15.800000190735</ele>
        <time>2022-02-27T10:33:30.000Z</time>
      </trkpt>
      <trkpt lat="47.29233" lon="-2.26094">
        <ele>15.800000190735</ele>
        <time>2022-02-27T10:33:36.000Z</time>
      </trkpt>
      <trkpt lat="47.29247" lon="-2.26128">
        <ele>15.800000190735</ele>
        <time>2022-02-27T10:33:42.000Z</time>
      </trkpt>
      <trkpt lat="47.29255" lon="-2.26152">
        <ele>15.800000190735</ele>
        <time>2022-02-27T10:33:46.000Z</time>
      </trkpt>
      <trkpt lat="47.29257" lon="-2.26159">
        <ele>15.800000190735</ele>
        <time>2022-02-27T10:33:47.000Z</time>
      </trkpt>
      <trkpt lat="47.29261" lon="-2.26173">
        <ele>15.800000190735</ele>
        <time>2022-02-27T10:33:49.000Z</time>
      </trkpt>
      <trkpt lat="47.29267" lon="-2.26181">
        <ele>15.800000190735</ele>
        <time>2022-02-27T10:33:51.000Z</time>
      </trkpt>
      <trkpt lat="47.29281" lon="-2.26181">
        <ele>15.800000190735</ele>
        <time>2022-02-27T10:33:55.000Z</time>
      </trkpt>
      <trkpt lat="47.293" lon="-2.2618">
        <ele>15.800000190735</ele>
        <time>2022-02-27T10:34:00.000Z</time>
      </trkpt>
      <trkpt lat="47.29307" lon="-2.26183">
        <ele>15.800000190735</ele>
        <time>2022-02-27T10:34:02.000Z</time>
      </trkpt>
      <trkpt lat="47.29312" lon="-2.26181">
        <ele>15.800000190735</ele>
        <time>2022-02-27T10:34:04.000Z</time>
      </trkpt>
      <trkpt lat="47.29314" lon="-2.26178">
        <ele>15.800000190735</ele>
        <time>2022-02-27T10:34:07.000Z</time>
      </trkpt>
      <trkpt lat="47.29319" lon="-2.26176">
        <ele>15.800000190735</ele>
        <time>2022-02-27T10:34:10.000Z</time>
      </trkpt>
      <trkpt lat="47.29335" lon="-2.26171">
        <ele>15.800000190735</ele>
        <time>2022-02-27T10:34:15.000Z</time>
      </trkpt>
      <trkpt lat="47.29339" lon="-2.26169">
        <ele>15.800000190735</ele>
        <time>2022-02-27T10:34:16.000Z</time>
      </trkpt>
      <trkpt lat="47.29358" lon="-2.26163">
        <ele>15.800000190735</ele>
        <time>2022-02-27T10:34:20.000Z</time>
      </trkpt>
      <trkpt lat="47.29363" lon="-2.26161">
        <ele>15.800000190735</ele>
        <time>2022-02-27T10:34:21.000Z</time>
      </trkpt>
      <trkpt lat="47.29369" lon="-2.2616">
        <ele>15.39999961853</ele>
        <time>2022-02-27T10:34:22.000Z</time>
      </trkpt>
      <trkpt lat="47.29373" lon="-2.26161">
        <ele>15</ele>
        <time>2022-02-27T10:34:23.000Z</time>
      </trkpt>
      <trkpt lat="47.29377" lon="-2.26162">
        <ele>14.60000038147</ele>
        <time>2022-02-27T10:34:24.000Z</time>
      </trkpt>
      <trkpt lat="47.29382" lon="-2.26164">
        <ele>14</ele>
        <time>2022-02-27T10:34:25.000Z</time>
      </trkpt>
      <trkpt lat="47.29386" lon="-2.26166">
        <ele>13.60000038147</ele>
        <time>2022-02-27T10:34:26.000Z</time>
      </trkpt>
      <trkpt lat="47.29416" lon="-2.26177">
        <ele>13.60000038147</ele>
        <time>2022-02-27T10:34:31.000Z</time>
      </trkpt>
      <trkpt lat="47.29429" lon="-2.26179">
        <ele>13.199999809265</ele>
        <time>2022-02-27T10:34:33.000Z</time>
      </trkpt>
      <trkpt lat="47.29436" lon="-2.26179">
        <ele>12.800000190735</ele>
        <time>2022-02-27T10:34:34.000Z</time>
      </trkpt>
      <trkpt lat="47.29442" lon="-2.26179">
        <ele>12.39999961853</ele>
        <time>2022-02-27T10:34:35.000Z</time>
      </trkpt>
      <trkpt lat="47.29449" lon="-2.26178">
        <ele>11.800000190735</ele>
        <time>2022-02-27T10:34:36.000Z</time>
      </trkpt>
      <trkpt lat="47.29455" lon="-2.26177">
        <ele>11.39999961853</ele>
        <time>2022-02-27T10:34:37.000Z</time>
      </trkpt>
      <trkpt lat="47.29467" lon="-2.26177">
        <ele>11</ele>
        <time>2022-02-27T10:34:39.000Z</time>
      </trkpt>
      <trkpt lat="47.29473" lon="-2.26177">
        <ele>10.60000038147</ele>
        <time>2022-02-27T10:34:40.000Z</time>
      </trkpt>
      <trkpt lat="47.29479" lon="-2.26178">
        <ele>10.199999809265</ele>
        <time>2022-02-27T10:34:41.000Z</time>
      </trkpt>
      <trkpt lat="47.29484" lon="-2.2618">
        <ele>9.8000001907349</ele>
        <time>2022-02-27T10:34:42.000Z</time>
      </trkpt>
      <trkpt lat="47.2949" lon="-2.26181">
        <ele>9.3999996185303</ele>
        <time>2022-02-27T10:34:43.000Z</time>
      </trkpt>
      <trkpt lat="47.29505" lon="-2.2619">
        <ele>9.3999996185303</ele>
        <time>2022-02-27T10:34:46.000Z</time>
      </trkpt>
      <trkpt lat="47.29512" lon="-2.26193">
        <ele>9</ele>
        <time>2022-02-27T10:34:47.000Z</time>
      </trkpt>
      <trkpt lat="47.29518" lon="-2.26195">
        <ele>8.6000003814697</ele>
        <time>2022-02-27T10:34:48.000Z</time>
      </trkpt>
      <trkpt lat="47.29522" lon="-2.26197">
        <ele>8.1999998092651</ele>
        <time>2022-02-27T10:34:49.000Z</time>
      </trkpt>
      <trkpt lat="47.29525" lon="-2.26198">
        <ele>7.8000001907349</ele>
        <time>2022-02-27T10:34:50.000Z</time>
      </trkpt>
      <trkpt lat="47.29528" lon="-2.262">
        <ele>7.1999998092651</ele>
        <time>2022-02-27T10:34:51.000Z</time>
      </trkpt>
      <trkpt lat="47.29538" lon="-2.26215">
        <ele>6.8000001907349</ele>
        <time>2022-02-27T10:34:55.000Z</time>
      </trkpt>
      <trkpt lat="47.29539" lon="-2.26219">
        <ele>6.4000000953674</ele>
        <time>2022-02-27T10:34:56.000Z</time>
      </trkpt>
      <trkpt lat="47.29539" lon="-2.26222">
        <ele>6</ele>
        <time>2022-02-27T10:34:57.000Z</time>
      </trkpt>
      <trkpt lat="47.2954" lon="-2.26226">
        <ele>5.5999999046326</ele>
        <time>2022-02-27T10:34:58.000Z</time>
      </trkpt>
      <trkpt lat="47.29539" lon="-2.2623">
        <ele>5.1999998092651</ele>
        <time>2022-02-27T10:34:59.000Z</time>
      </trkpt>
      <trkpt lat="47.29538" lon="-2.26233">
        <ele>5.1999998092651</ele>
        <time>2022-02-27T10:35:00.000Z</time>
      </trkpt>
      <trkpt lat="47.29536" lon="-2.26236">
        <ele>5.1999998092651</ele>
        <time>2022-02-27T10:35:01.000Z</time>
      </trkpt>
      <trkpt lat="47.2954" lon="-2.26245">
        <ele>5.1999998092651</ele>
        <time>2022-02-27T10:35:04.000Z</time>
      </trkpt>
      <trkpt lat="47.29555" lon="-2.26246">
        <ele>5.1999998092651</ele>
        <time>2022-02-27T10:35:07.000Z</time>
      </trkpt>
      <trkpt lat="47.29561" lon="-2.26247">
        <ele>4.8000001907349</ele>
        <time>2022-02-27T10:35:08.000Z</time>
      </trkpt>
      <trkpt lat="47.29567" lon="-2.26247">
        <ele>4.4000000953674</ele>
        <time>2022-02-27T10:35:09.000Z</time>
      </trkpt>
      <trkpt lat="47.29573" lon="-2.26248">
        <ele>4</ele>
        <time>2022-02-27T10:35:10.000Z</time>
      </trkpt>
      <trkpt lat="47.2958" lon="-2.26248">
        <ele>3.4000000953674</ele>
        <time>2022-02-27T10:35:11.000Z</time>
      </trkpt>
      <trkpt lat="47.29586" lon="-2.26248">
        <ele>3</ele>
        <time>2022-02-27T10:35:12.000Z</time>
      </trkpt>
      <trkpt lat="47.296" lon="-2.26249">
        <ele>3</ele>
        <time>2022-02-27T10:35:14.000Z</time>
      </trkpt>
      <trkpt lat="47.29613" lon="-2.26249">
        <ele>2.5999999046326</ele>
        <time>2022-02-27T10:35:16.000Z</time>
      </trkpt>
      <trkpt lat="47.29617" lon="-2.2625">
        <ele>1.6000000238419</ele>
        <time>2022-02-27T10:35:17.000Z</time>
      </trkpt>
      <trkpt lat="47.29621" lon="-2.26251">
        <ele>1.2000000476837</ele>
        <time>2022-02-27T10:35:18.000Z</time>
      </trkpt>
      <trkpt lat="47.29622" lon="-2.26254">
        <ele>0.60000002384186</ele>
        <time>2022-02-27T10:35:19.000Z</time>
      </trkpt>
      <trkpt lat="47.29623" lon="-2.26257">
        <ele>0.20000000298023</ele>
        <time>2022-02-27T10:35:20.000Z</time>
      </trkpt>
      <trkpt lat="47.29622" lon="-2.26259">
        <ele>-0.40000000596046</ele>
        <time>2022-02-27T10:35:21.000Z</time>
      </trkpt>
      <trkpt lat="47.29621" lon="-2.26261">
        <ele>-1</ele>
        <time>2022-02-27T10:35:22.000Z</time>
      </trkpt>
      <trkpt lat="47.29621" lon="-2.26263">
        <ele>-1.3999999761581</ele>
        <time>2022-02-27T10:35:23.000Z</time>
      </trkpt>
      <trkpt lat="47.29619" lon="-2.26266">
        <ele>-1.3999999761581</ele>
        <time>2022-02-27T10:35:25.000Z</time>
      </trkpt>
      <trkpt lat="47.29607" lon="-2.2628">
        <ele>-1.3999999761581</ele>
        <time>2022-02-27T10:35:31.000Z</time>
      </trkpt>
      <trkpt lat="47.29601" lon="-2.26287">
        <ele>-1.3999999761581</ele>
        <time>2022-02-27T10:35:35.000Z</time>
      </trkpt>
      <trkpt lat="47.296" lon="-2.26292">
        <ele>-1.3999999761581</ele>
        <time>2022-02-27T10:35:37.000Z</time>
      </trkpt>
      <trkpt lat="47.296" lon="-2.26298">
        <ele>-1.3999999761581</ele>
        <time>2022-02-27T10:35:39.000Z</time>
      </trkpt>
      <trkpt lat="47.29602" lon="-2.26308">
        <ele>-1.3999999761581</ele>
        <time>2022-02-27T10:35:43.000Z</time>
      </trkpt>
      <trkpt lat="47.29604" lon="-2.26314">
        <ele>-1.3999999761581</ele>
        <time>2022-02-27T10:35:48.000Z</time>
      </trkpt>
      <trkpt lat="47.29605" lon="-2.26317">
        <ele>-1.3999999761581</ele>
        <time>2022-02-27T10:35:55.000Z</time>
      </trkpt>
      <trkpt lat="47.29614" lon="-2.26329">
        <ele>-1.3999999761581</ele>
        <time>2022-02-27T10:36:00.000Z</time>
      </trkpt>
      <trkpt lat="47.29614" lon="-2.26332">
        <ele>-1.3999999761581</ele>
        <time>2022-02-27T10:36:01.000Z</time>
      </trkpt>
      <trkpt lat="47.29612" lon="-2.26341">
        <ele>-1.3999999761581</ele>
        <time>2022-02-27T10:36:04.000Z</time>
      </trkpt>
      <trkpt lat="47.29606" lon="-2.2636">
        <ele>-1.3999999761581</ele>
        <time>2022-02-27T10:36:09.000Z</time>
      </trkpt>
      <trkpt lat="47.29607" lon="-2.26362">
        <ele>-1.3999999761581</ele>
        <time>2022-02-27T10:36:10.000Z</time>
      </trkpt>
      <trkpt lat="47.2961" lon="-2.26363">
        <ele>-1.3999999761581</ele>
        <time>2022-02-27T10:36:12.000Z</time>
      </trkpt>
      <trkpt lat="47.29614" lon="-2.26374">
        <ele>-1.3999999761581</ele>
        <time>2022-02-27T10:36:15.000Z</time>
      </trkpt>
      <trkpt lat="47.29615" lon="-2.26384">
        <ele>-1.3999999761581</ele>
        <time>2022-02-27T10:36:17.000Z</time>
      </trkpt>
      <trkpt lat="47.29614" lon="-2.26399">
        <ele>-1.3999999761581</ele>
        <time>2022-02-27T10:36:20.000Z</time>
      </trkpt>
      <trkpt lat="47.29606" lon="-2.26423">
        <ele>-1.3999999761581</ele>
        <time>2022-02-27T10:36:25.000Z</time>
      </trkpt>
      <trkpt lat="47.29603" lon="-2.26438">
        <ele>-1</ele>
        <time>2022-02-27T10:36:28.000Z</time>
      </trkpt>
      <trkpt lat="47.29603" lon="-2.26442">
        <ele>-0.60000002384186</ele>
        <time>2022-02-27T10:36:29.000Z</time>
      </trkpt>
      <trkpt lat="47.29602" lon="-2.26446">
        <ele>-0.20000000298023</ele>
        <time>2022-02-27T10:36:30.000Z</time>
      </trkpt>
      <trkpt lat="47.29602" lon="-2.2645">
        <ele>0.60000002384186</ele>
        <time>2022-02-27T10:36:31.000Z</time>
      </trkpt>
      <trkpt lat="47.29601" lon="-2.26462">
        <ele>1</ele>
        <time>2022-02-27T10:36:34.000Z</time>
      </trkpt>
      <trkpt lat="47.29601" lon="-2.26466">
        <ele>1.6000000238419</ele>
        <time>2022-02-27T10:36:35.000Z</time>
      </trkpt>
      <trkpt lat="47.29601" lon="-2.2647">
        <ele>2</ele>
        <time>2022-02-27T10:36:36.000Z</time>
      </trkpt>
      <trkpt lat="47.29601" lon="-2.26474">
        <ele>2.4000000953674</ele>
        <time>2022-02-27T10:36:37.000Z</time>
      </trkpt>
      <trkpt lat="47.29601" lon="-2.26478">
        <ele>2.7999999523163</ele>
        <time>2022-02-27T10:36:38.000Z</time>
      </trkpt>
      <trkpt lat="47.296" lon="-2.26482">
        <ele>2.7999999523163</ele>
        <time>2022-02-27T10:36:39.000Z</time>
      </trkpt>
      <trkpt lat="47.29597" lon="-2.265">
        <ele>2.7999999523163</ele>
        <time>2022-02-27T10:36:44.000Z</time>
      </trkpt>
      <trkpt lat="47.29592" lon="-2.26504">
        <ele>3.2000000476837</ele>
        <time>2022-02-27T10:36:46.000Z</time>
      </trkpt>
      <trkpt lat="47.2959" lon="-2.26505">
        <ele>3.5999999046326</ele>
        <time>2022-02-27T10:36:47.000Z</time>
      </trkpt>
      <trkpt lat="47.29588" lon="-2.26507">
        <ele>4</ele>
        <time>2022-02-27T10:36:48.000Z</time>
      </trkpt>
      <trkpt lat="47.29586" lon="-2.26508">
        <ele>4.4000000953674</ele>
        <time>2022-02-27T10:36:49.000Z</time>
      </trkpt>
      <trkpt lat="47.29583" lon="-2.2651">
        <ele>4.8000001907349</ele>
        <time>2022-02-27T10:36:50.000Z</time>
      </trkpt>
      <trkpt lat="47.29577" lon="-2.26513">
        <ele>4.8000001907349</ele>
        <time>2022-02-27T10:36:52.000Z</time>
      </trkpt>
      <trkpt lat="47.29568" lon="-2.26521">
        <ele>4.8000001907349</ele>
        <time>2022-02-27T10:36:56.000Z</time>
      </trkpt>
      <trkpt lat="47.29557" lon="-2.26528">
        <ele>5.1999998092651</ele>
        <time>2022-02-27T10:37:00.000Z</time>
      </trkpt>
      <trkpt lat="47.29554" lon="-2.2653">
        <ele>5.5999999046326</ele>
        <time>2022-02-27T10:37:01.000Z</time>
      </trkpt>
      <trkpt lat="47.29552" lon="-2.26532">
        <ele>6</ele>
        <time>2022-02-27T10:37:02.000Z</time>
      </trkpt>
      <trkpt lat="47.2955" lon="-2.26534">
        <ele>6.4000000953674</ele>
        <time>2022-02-27T10:37:03.000Z</time>
      </trkpt>
      <trkpt lat="47.29548" lon="-2.26536">
        <ele>6.8000001907349</ele>
        <time>2022-02-27T10:37:04.000Z</time>
      </trkpt>
      <trkpt lat="47.29537" lon="-2.26546">
        <ele>6.8000001907349</ele>
        <time>2022-02-27T10:37:09.000Z</time>
      </trkpt>
      <trkpt lat="47.29521" lon="-2.26564">
        <ele>6.8000001907349</ele>
        <time>2022-02-27T10:37:16.000Z</time>
      </trkpt>
      <trkpt lat="47.2951" lon="-2.26577">
        <ele>7.1999998092651</ele>
        <time>2022-02-27T10:37:21.000Z</time>
      </trkpt>
      <trkpt lat="47.29508" lon="-2.26579">
        <ele>7.5999999046326</ele>
        <time>2022-02-27T10:37:22.000Z</time>
      </trkpt>
      <trkpt lat="47.29505" lon="-2.26582">
        <ele>8</ele>
        <time>2022-02-27T10:37:23.000Z</time>
      </trkpt>
      <trkpt lat="47.29502" lon="-2.26584">
        <ele>8.3999996185303</ele>
        <time>2022-02-27T10:37:24.000Z</time>
      </trkpt>
      <trkpt lat="47.295" lon="-2.26586">
        <ele>8.8000001907349</ele>
        <time>2022-02-27T10:37:25.000Z</time>
      </trkpt>
      <trkpt lat="47.29491" lon="-2.26592">
        <ele>8.8000001907349</ele>
        <time>2022-02-27T10:37:28.000Z</time>
      </trkpt>
      <trkpt lat="47.29471" lon="-2.26603">
        <ele>8.8000001907349</ele>
        <time>2022-02-27T10:37:35.000Z</time>
      </trkpt>
      <trkpt lat="47.29448" lon="-2.26614">
        <ele>8.8000001907349</ele>
        <time>2022-02-27T10:37:42.000Z</time>
      </trkpt>
      <trkpt lat="47.29423" lon="-2.26621">
        <ele>8.8000001907349</ele>
        <time>2022-02-27T10:37:49.000Z</time>
      </trkpt>
      <trkpt lat="47.29387" lon="-2.26637">
        <ele>8.8000001907349</ele>
        <time>2022-02-27T10:37:58.000Z</time>
      </trkpt>
      <trkpt lat="47.29379" lon="-2.26642">
        <ele>8.8000001907349</ele>
        <time>2022-02-27T10:38:00.000Z</time>
      </trkpt>
      <trkpt lat="47.29363" lon="-2.26648">
        <ele>8.8000001907349</ele>
        <time>2022-02-27T10:38:04.000Z</time>
      </trkpt>
      <trkpt lat="47.29338" lon="-2.26654">
        <ele>8.8000001907349</ele>
        <time>2022-02-27T10:38:10.000Z</time>
      </trkpt>
      <trkpt lat="47.29321" lon="-2.26663">
        <ele>8.8000001907349</ele>
        <time>2022-02-27T10:38:15.000Z</time>
      </trkpt>
      <trkpt lat="47.29302" lon="-2.26674">
        <ele>8.8000001907349</ele>
        <time>2022-02-27T10:38:20.000Z</time>
      </trkpt>
      <trkpt lat="47.29286" lon="-2.2668">
        <ele>8.8000001907349</ele>
        <time>2022-02-27T10:38:24.000Z</time>
      </trkpt>
      <trkpt lat="47.29278" lon="-2.26682">
        <ele>8.8000001907349</ele>
        <time>2022-02-27T10:38:26.000Z</time>
      </trkpt>
      <trkpt lat="47.29253" lon="-2.26687">
        <ele>8.8000001907349</ele>
        <time>2022-02-27T10:38:32.000Z</time>
      </trkpt>
      <trkpt lat="47.29249" lon="-2.26688">
        <ele>8.8000001907349</ele>
        <time>2022-02-27T10:38:33.000Z</time>
      </trkpt>
      <trkpt lat="47.29245" lon="-2.26689">
        <ele>8.8000001907349</ele>
        <time>2022-02-27T10:38:34.000Z</time>
      </trkpt>
      <trkpt lat="47.29235" lon="-2.26701">
        <ele>8.8000001907349</ele>
        <time>2022-02-27T10:38:37.000Z</time>
      </trkpt>
      <trkpt lat="47.29222" lon="-2.26714">
        <ele>8.8000001907349</ele>
        <time>2022-02-27T10:38:41.000Z</time>
      </trkpt>
      <trkpt lat="47.29219" lon="-2.26716">
        <ele>8.8000001907349</ele>
        <time>2022-02-27T10:38:42.000Z</time>
      </trkpt>
      <trkpt lat="47.29213" lon="-2.26722">
        <ele>8.8000001907349</ele>
        <time>2022-02-27T10:38:46.000Z</time>
      </trkpt>
      <trkpt lat="47.29213" lon="-2.26723">
        <ele>8.8000001907349</ele>
        <time>2022-02-27T10:38:48.000Z</time>
      </trkpt>
      <trkpt lat="47.29209" lon="-2.26725">
        <ele>8.8000001907349</ele>
        <time>2022-02-27T10:39:17.000Z</time>
      </trkpt>
      <trkpt lat="47.29208" lon="-2.26727">
        <ele>8.8000001907349</ele>
        <time>2022-02-27T10:39:18.000Z</time>
      </trkpt>
      <trkpt lat="47.2921" lon="-2.26743">
        <ele>8.8000001907349</ele>
        <time>2022-02-27T10:39:22.000Z</time>
      </trkpt>
      <trkpt lat="47.29217" lon="-2.26776">
        <ele>8.8000001907349</ele>
        <time>2022-02-27T10:39:28.000Z</time>
      </trkpt>
      <trkpt lat="47.29226" lon="-2.26833">
        <ele>8.8000001907349</ele>
        <time>2022-02-27T10:39:36.000Z</time>
      </trkpt>
      <trkpt lat="47.29237" lon="-2.26891">
        <ele>8.8000001907349</ele>
        <time>2022-02-27T10:39:44.000Z</time>
      </trkpt>
      <trkpt lat="47.2924" lon="-2.26924">
        <ele>8.8000001907349</ele>
        <time>2022-02-27T10:39:48.000Z</time>
      </trkpt>
      <trkpt lat="47.29238" lon="-2.2693">
        <ele>8.8000001907349</ele>
        <time>2022-02-27T10:39:49.000Z</time>
      </trkpt>
      <trkpt lat="47.29228" lon="-2.26945">
        <ele>8.8000001907349</ele>
        <time>2022-02-27T10:39:52.000Z</time>
      </trkpt>
      <trkpt lat="47.29224" lon="-2.26965">
        <ele>8.8000001907349</ele>
        <time>2022-02-27T10:39:56.000Z</time>
      </trkpt>
      <trkpt lat="47.29224" lon="-2.26971">
        <ele>8.8000001907349</ele>
        <time>2022-02-27T10:39:57.000Z</time>
      </trkpt>
      <trkpt lat="47.29224" lon="-2.26977">
        <ele>8.8000001907349</ele>
        <time>2022-02-27T10:39:58.000Z</time>
      </trkpt>
      <trkpt lat="47.29223" lon="-2.27002">
        <ele>8.8000001907349</ele>
        <time>2022-02-27T10:40:02.000Z</time>
      </trkpt>
      <trkpt lat="47.29226" lon="-2.2703">
        <ele>8.8000001907349</ele>
        <time>2022-02-27T10:40:06.000Z</time>
      </trkpt>
      <trkpt lat="47.29229" lon="-2.27046">
        <ele>8.8000001907349</ele>
        <time>2022-02-27T10:40:08.000Z</time>
      </trkpt>
      <trkpt lat="47.29229" lon="-2.27053">
        <ele>8.8000001907349</ele>
        <time>2022-02-27T10:40:09.000Z</time>
      </trkpt>
      <trkpt lat="47.2923" lon="-2.27068">
        <ele>8.8000001907349</ele>
        <time>2022-02-27T10:40:11.000Z</time>
      </trkpt>
      <trkpt lat="47.2923" lon="-2.27076">
        <ele>8.8000001907349</ele>
        <time>2022-02-27T10:40:12.000Z</time>
      </trkpt>
      <trkpt lat="47.29231" lon="-2.27083">
        <ele>8.3999996185303</ele>
        <time>2022-02-27T10:40:13.000Z</time>
      </trkpt>
      <trkpt lat="47.29232" lon="-2.2709">
        <ele>8</ele>
        <time>2022-02-27T10:40:14.000Z</time>
      </trkpt>
      <trkpt lat="47.29234" lon="-2.27097">
        <ele>7.5999999046326</ele>
        <time>2022-02-27T10:40:15.000Z</time>
      </trkpt>
      <trkpt lat="47.29234" lon="-2.27104">
        <ele>7.1999998092651</ele>
        <time>2022-02-27T10:40:16.000Z</time>
      </trkpt>
      <trkpt lat="47.29233" lon="-2.27111">
        <ele>6.8000001907349</ele>
        <time>2022-02-27T10:40:17.000Z</time>
      </trkpt>
      <trkpt lat="47.29225" lon="-2.27134">
        <ele>6.8000001907349</ele>
        <time>2022-02-27T10:40:21.000Z</time>
      </trkpt>
      <trkpt lat="47.2921" lon="-2.27165">
        <ele>6.8000001907349</ele>
        <time>2022-02-27T10:40:27.000Z</time>
      </trkpt>
      <trkpt lat="47.29196" lon="-2.27177">
        <ele>6.8000001907349</ele>
        <time>2022-02-27T10:40:31.000Z</time>
      </trkpt>
      <trkpt lat="47.29174" lon="-2.27184">
        <ele>6.8000001907349</ele>
        <time>2022-02-27T10:40:36.000Z</time>
      </trkpt>
      <trkpt lat="47.29161" lon="-2.27185">
        <ele>6.8000001907349</ele>
        <time>2022-02-27T10:40:41.000Z</time>
      </trkpt>
      <trkpt lat="47.29157" lon="-2.27188">
        <ele>6.8000001907349</ele>
        <time>2022-02-27T10:40:43.000Z</time>
      </trkpt>
      <trkpt lat="47.29156" lon="-2.27189">
        <ele>6.8000001907349</ele>
        <time>2022-02-27T10:40:44.000Z</time>
      </trkpt>
      <trkpt lat="47.2915" lon="-2.2719">
        <ele>6.8000001907349</ele>
        <time>2022-02-27T10:40:47.000Z</time>
      </trkpt>
      <trkpt lat="47.29146" lon="-2.2719">
        <ele>6.8000001907349</ele>
        <time>2022-02-27T10:40:48.000Z</time>
      </trkpt>
      <trkpt lat="47.29135" lon="-2.27196">
        <ele>6.8000001907349</ele>
        <time>2022-02-27T10:40:52.000Z</time>
      </trkpt>
      <trkpt lat="47.29133" lon="-2.27201">
        <ele>6.8000001907349</ele>
        <time>2022-02-27T10:40:53.000Z</time>
      </trkpt>
      <trkpt lat="47.2913" lon="-2.2721">
        <ele>6.8000001907349</ele>
        <time>2022-02-27T10:40:55.000Z</time>
      </trkpt>
      <trkpt lat="47.29126" lon="-2.27228">
        <ele>6.8000001907349</ele>
        <time>2022-02-27T10:40:59.000Z</time>
      </trkpt>
      <trkpt lat="47.29124" lon="-2.27233">
        <ele>6.8000001907349</ele>
        <time>2022-02-27T10:41:00.000Z</time>
      </trkpt>
      <trkpt lat="47.29121" lon="-2.27245">
        <ele>6.8000001907349</ele>
        <time>2022-02-27T10:41:02.000Z</time>
      </trkpt>
      <trkpt lat="47.29119" lon="-2.27263">
        <ele>6.8000001907349</ele>
        <time>2022-02-27T10:41:05.000Z</time>
      </trkpt>
      <trkpt lat="47.29114" lon="-2.27296">
        <ele>6.8000001907349</ele>
        <time>2022-02-27T10:41:11.000Z</time>
      </trkpt>
      <trkpt lat="47.29104" lon="-2.27327">
        <ele>6.8000001907349</ele>
        <time>2022-02-27T10:41:18.000Z</time>
      </trkpt>
      <trkpt lat="47.29098" lon="-2.27351">
        <ele>6.8000001907349</ele>
        <time>2022-02-27T10:41:23.000Z</time>
      </trkpt>
      <trkpt lat="47.291" lon="-2.27371">
        <ele>6.8000001907349</ele>
        <time>2022-02-27T10:41:27.000Z</time>
      </trkpt>
      <trkpt lat="47.29107" lon="-2.27404">
        <ele>6.8000001907349</ele>
        <time>2022-02-27T10:41:32.000Z</time>
      </trkpt>
      <trkpt lat="47.29109" lon="-2.27427">
        <ele>6.8000001907349</ele>
        <time>2022-02-27T10:41:35.000Z</time>
      </trkpt>
      <trkpt lat="47.29108" lon="-2.2744">
        <ele>6.8000001907349</ele>
        <time>2022-02-27T10:41:37.000Z</time>
      </trkpt>
      <trkpt lat="47.29107" lon="-2.27453">
        <ele>6.8000001907349</ele>
        <time>2022-02-27T10:41:39.000Z</time>
      </trkpt>
      <trkpt lat="47.29105" lon="-2.27473">
        <ele>7.1999998092651</ele>
        <time>2022-02-27T10:41:42.000Z</time>
      </trkpt>
      <trkpt lat="47.29105" lon="-2.27479">
        <ele>7.8000001907349</ele>
        <time>2022-02-27T10:41:43.000Z</time>
      </trkpt>
      <trkpt lat="47.29105" lon="-2.27485">
        <ele>8.1999998092651</ele>
        <time>2022-02-27T10:41:44.000Z</time>
      </trkpt>
      <trkpt lat="47.29105" lon="-2.2749">
        <ele>8.6000003814697</ele>
        <time>2022-02-27T10:41:45.000Z</time>
      </trkpt>
      <trkpt lat="47.29105" lon="-2.27496">
        <ele>9</ele>
        <time>2022-02-27T10:41:46.000Z</time>
      </trkpt>
      <trkpt lat="47.29105" lon="-2.27515">
        <ele>9</ele>
        <time>2022-02-27T10:41:50.000Z</time>
      </trkpt>
      <trkpt lat="47.29103" lon="-2.27529">
        <ele>9</ele>
        <time>2022-02-27T10:41:55.000Z</time>
      </trkpt>
      <trkpt lat="47.29099" lon="-2.27532">
        <ele>9</ele>
        <time>2022-02-27T10:41:57.000Z</time>
      </trkpt>
      <trkpt lat="47.2909" lon="-2.27535">
        <ele>9</ele>
        <time>2022-02-27T10:42:00.000Z</time>
      </trkpt>
      <trkpt lat="47.29082" lon="-2.27534">
        <ele>9</ele>
        <time>2022-02-27T10:42:02.000Z</time>
      </trkpt>
      <trkpt lat="47.29069" lon="-2.27533">
        <ele>9</ele>
        <time>2022-02-27T10:42:05.000Z</time>
      </trkpt>
      <trkpt lat="47.2906" lon="-2.27531">
        <ele>9</ele>
        <time>2022-02-27T10:42:07.000Z</time>
      </trkpt>
      <trkpt lat="47.29037" lon="-2.27527">
        <ele>9</ele>
        <time>2022-02-27T10:42:11.000Z</time>
      </trkpt>
      <trkpt lat="47.29002" lon="-2.27524">
        <ele>9</ele>
        <time>2022-02-27T10:42:18.000Z</time>
      </trkpt>
      <trkpt lat="47.28964" lon="-2.27523">
        <ele>9</ele>
        <time>2022-02-27T10:42:25.000Z</time>
      </trkpt>
      <trkpt lat="47.2893" lon="-2.27523">
        <ele>9</ele>
        <time>2022-02-27T10:42:31.000Z</time>
      </trkpt>
      <trkpt lat="47.28901" lon="-2.27526">
        <ele>9</ele>
        <time>2022-02-27T10:42:36.000Z</time>
      </trkpt>
      <trkpt lat="47.2889" lon="-2.27528">
        <ele>9</ele>
        <time>2022-02-27T10:42:38.000Z</time>
      </trkpt>
      <trkpt lat="47.28849" lon="-2.27535">
        <ele>9</ele>
        <time>2022-02-27T10:42:45.000Z</time>
      </trkpt>
      <trkpt lat="47.28815" lon="-2.27542">
        <ele>9</ele>
        <time>2022-02-27T10:42:51.000Z</time>
      </trkpt>
      <trkpt lat="47.28809" lon="-2.27545">
        <ele>9</ele>
        <time>2022-02-27T10:42:52.000Z</time>
      </trkpt>
      <trkpt lat="47.28791" lon="-2.27566">
        <ele>9</ele>
        <time>2022-02-27T10:42:56.000Z</time>
      </trkpt>
      <trkpt lat="47.28782" lon="-2.27575">
        <ele>9</ele>
        <time>2022-02-27T10:42:58.000Z</time>
      </trkpt>
      <trkpt lat="47.28766" lon="-2.27593">
        <ele>9</ele>
        <time>2022-02-27T10:43:02.000Z</time>
      </trkpt>
      <trkpt lat="47.28742" lon="-2.27624">
        <ele>9</ele>
        <time>2022-02-27T10:43:08.000Z</time>
      </trkpt>
      <trkpt lat="47.28714" lon="-2.27668">
        <ele>9</ele>
        <time>2022-02-27T10:43:15.000Z</time>
      </trkpt>
      <trkpt lat="47.28703" lon="-2.27688">
        <ele>9</ele>
        <time>2022-02-27T10:43:18.000Z</time>
      </trkpt>
      <trkpt lat="47.28693" lon="-2.27706">
        <ele>9</ele>
        <time>2022-02-27T10:43:21.000Z</time>
      </trkpt>
      <trkpt lat="47.28669" lon="-2.27749">
        <ele>9</ele>
        <time>2022-02-27T10:43:28.000Z</time>
      </trkpt>
      <trkpt lat="47.28651" lon="-2.27794">
        <ele>9</ele>
        <time>2022-02-27T10:43:34.000Z</time>
      </trkpt>
      <trkpt lat="47.2864" lon="-2.27844">
        <ele>9.3999996185303</ele>
        <time>2022-02-27T10:43:40.000Z</time>
      </trkpt>
      <trkpt lat="47.28638" lon="-2.27854">
        <ele>9.8000001907349</ele>
        <time>2022-02-27T10:43:41.000Z</time>
      </trkpt>
      <trkpt lat="47.28637" lon="-2.27862">
        <ele>10.199999809265</ele>
        <time>2022-02-27T10:43:42.000Z</time>
      </trkpt>
      <trkpt lat="47.28636" lon="-2.2787">
        <ele>10.800000190735</ele>
        <time>2022-02-27T10:43:43.000Z</time>
      </trkpt>
      <trkpt lat="47.28635" lon="-2.27877">
        <ele>11.199999809265</ele>
        <time>2022-02-27T10:43:44.000Z</time>
      </trkpt>
      <trkpt lat="47.28634" lon="-2.27886">
        <ele>11.199999809265</ele>
        <time>2022-02-27T10:43:45.000Z</time>
      </trkpt>
      <trkpt lat="47.28626" lon="-2.27929">
        <ele>11.199999809265</ele>
        <time>2022-02-27T10:43:51.000Z</time>
      </trkpt>
      <trkpt lat="47.28622" lon="-2.27944">
        <ele>11.199999809265</ele>
        <time>2022-02-27T10:43:53.000Z</time>
      </trkpt>
      <trkpt lat="47.28614" lon="-2.27965">
        <ele>11.199999809265</ele>
        <time>2022-02-27T10:43:56.000Z</time>
      </trkpt>
      <trkpt lat="47.28602" lon="-2.28006">
        <ele>11.199999809265</ele>
        <time>2022-02-27T10:44:02.000Z</time>
      </trkpt>
      <trkpt lat="47.28597" lon="-2.28017">
        <ele>11.199999809265</ele>
        <time>2022-02-27T10:44:04.000Z</time>
      </trkpt>
      <trkpt lat="47.28587" lon="-2.28028">
        <ele>11.199999809265</ele>
        <time>2022-02-27T10:44:07.000Z</time>
      </trkpt>
      <trkpt lat="47.28568" lon="-2.28046">
        <ele>11.199999809265</ele>
        <time>2022-02-27T10:44:13.000Z</time>
      </trkpt>
      <trkpt lat="47.28551" lon="-2.28048">
        <ele>11.199999809265</ele>
        <time>2022-02-27T10:44:18.000Z</time>
      </trkpt>
      <trkpt lat="47.28546" lon="-2.28046">
        <ele>11.60000038147</ele>
        <time>2022-02-27T10:44:20.000Z</time>
      </trkpt>
      <trkpt lat="47.28544" lon="-2.28047">
        <ele>12.39999961853</ele>
        <time>2022-02-27T10:44:21.000Z</time>
      </trkpt>
      <trkpt lat="47.28542" lon="-2.28047">
        <ele>13</ele>
        <time>2022-02-27T10:44:22.000Z</time>
      </trkpt>
      <trkpt lat="47.2854" lon="-2.28047">
        <ele>13.39999961853</ele>
        <time>2022-02-27T10:44:23.000Z</time>
      </trkpt>
      <trkpt lat="47.28534" lon="-2.28047">
        <ele>13.800000190735</ele>
        <time>2022-02-27T10:44:26.000Z</time>
      </trkpt>
      <trkpt lat="47.28531" lon="-2.28048">
        <ele>14.199999809265</ele>
        <time>2022-02-27T10:44:27.000Z</time>
      </trkpt>
      <trkpt lat="47.28528" lon="-2.28048">
        <ele>14.60000038147</ele>
        <time>2022-02-27T10:44:28.000Z</time>
      </trkpt>
      <trkpt lat="47.28525" lon="-2.28049">
        <ele>15.199999809265</ele>
        <time>2022-02-27T10:44:29.000Z</time>
      </trkpt>
      <trkpt lat="47.28523" lon="-2.28048">
        <ele>15.60000038147</ele>
        <time>2022-02-27T10:44:30.000Z</time>
      </trkpt>
      <trkpt lat="47.28516" lon="-2.28045">
        <ele>16</ele>
        <time>2022-02-27T10:44:33.000Z</time>
      </trkpt>
      <trkpt lat="47.28514" lon="-2.28044">
        <ele>16.39999961853</ele>
        <time>2022-02-27T10:44:34.000Z</time>
      </trkpt>
      <trkpt lat="47.28512" lon="-2.28041">
        <ele>16.799999237061</ele>
        <time>2022-02-27T10:44:35.000Z</time>
      </trkpt>
      <trkpt lat="47.2851" lon="-2.2804">
        <ele>17.200000762939</ele>
        <time>2022-02-27T10:44:36.000Z</time>
      </trkpt>
      <trkpt lat="47.28508" lon="-2.28038">
        <ele>17.799999237061</ele>
        <time>2022-02-27T10:44:37.000Z</time>
      </trkpt>
      <trkpt lat="47.285" lon="-2.28033">
        <ele>18.200000762939</ele>
        <time>2022-02-27T10:44:40.000Z</time>
      </trkpt>
      <trkpt lat="47.28497" lon="-2.28035">
        <ele>18.60000038147</ele>
        <time>2022-02-27T10:44:41.000Z</time>
      </trkpt>
      <trkpt lat="47.28494" lon="-2.28037">
        <ele>19</ele>
        <time>2022-02-27T10:44:42.000Z</time>
      </trkpt>
      <trkpt lat="47.2849" lon="-2.28038">
        <ele>19.39999961853</ele>
        <time>2022-02-27T10:44:43.000Z</time>
      </trkpt>
      <trkpt lat="47.28487" lon="-2.2804">
        <ele>19.799999237061</ele>
        <time>2022-02-27T10:44:44.000Z</time>
      </trkpt>
      <trkpt lat="47.28485" lon="-2.28046">
        <ele>19.799999237061</ele>
        <time>2022-02-27T10:44:46.000Z</time>
      </trkpt>
      <trkpt lat="47.2849" lon="-2.28064">
        <ele>19.799999237061</ele>
        <time>2022-02-27T10:44:50.000Z</time>
      </trkpt>
      <trkpt lat="47.28489" lon="-2.2808">
        <ele>19.39999961853</ele>
        <time>2022-02-27T10:44:54.000Z</time>
      </trkpt>
      <trkpt lat="47.28486" lon="-2.28083">
        <ele>19</ele>
        <time>2022-02-27T10:44:55.000Z</time>
      </trkpt>
      <trkpt lat="47.28481" lon="-2.28086">
        <ele>18.60000038147</ele>
        <time>2022-02-27T10:44:56.000Z</time>
      </trkpt>
      <trkpt lat="47.28477" lon="-2.2809">
        <ele>18.200000762939</ele>
        <time>2022-02-27T10:44:57.000Z</time>
      </trkpt>
      <trkpt lat="47.28472" lon="-2.28092">
        <ele>17.60000038147</ele>
        <time>2022-02-27T10:44:58.000Z</time>
      </trkpt>
      <trkpt lat="47.28465" lon="-2.28089">
        <ele>17.60000038147</ele>
        <time>2022-02-27T10:45:00.000Z</time>
      </trkpt>
      <trkpt lat="47.28457" lon="-2.28085">
        <ele>17.60000038147</ele>
        <time>2022-02-27T10:45:04.000Z</time>
      </trkpt>
      <trkpt lat="47.28441" lon="-2.28084">
        <ele>17.60000038147</ele>
        <time>2022-02-27T10:45:10.000Z</time>
      </trkpt>
      <trkpt lat="47.28434" lon="-2.28085">
        <ele>17.60000038147</ele>
        <time>2022-02-27T10:45:12.000Z</time>
      </trkpt>
      <trkpt lat="47.28431" lon="-2.28084">
        <ele>17.60000038147</ele>
        <time>2022-02-27T10:45:13.000Z</time>
      </trkpt>
      <trkpt lat="47.28419" lon="-2.28086">
        <ele>17.60000038147</ele>
        <time>2022-02-27T10:45:17.000Z</time>
      </trkpt>
      <trkpt lat="47.2841" lon="-2.28083">
        <ele>17.60000038147</ele>
        <time>2022-02-27T10:45:20.000Z</time>
      </trkpt>
      <trkpt lat="47.28404" lon="-2.28079">
        <ele>17.60000038147</ele>
        <time>2022-02-27T10:45:22.000Z</time>
      </trkpt>
      <trkpt lat="47.28388" lon="-2.28077">
        <ele>17.60000038147</ele>
        <time>2022-02-27T10:45:27.000Z</time>
      </trkpt>
      <trkpt lat="47.28376" lon="-2.28073">
        <ele>17.60000038147</ele>
        <time>2022-02-27T10:45:32.000Z</time>
      </trkpt>
      <trkpt lat="47.28375" lon="-2.28068">
        <ele>17.60000038147</ele>
        <time>2022-02-27T10:45:36.000Z</time>
      </trkpt>
      <trkpt lat="47.28376" lon="-2.28063">
        <ele>17.60000038147</ele>
        <time>2022-02-27T10:45:38.000Z</time>
      </trkpt>
      <trkpt lat="47.28372" lon="-2.28058">
        <ele>17.60000038147</ele>
        <time>2022-02-27T10:45:42.000Z</time>
      </trkpt>
      <trkpt lat="47.28371" lon="-2.2806">
        <ele>17.60000038147</ele>
        <time>2022-02-27T10:45:43.000Z</time>
      </trkpt>
      <trkpt lat="47.2837" lon="-2.28069">
        <ele>17.60000038147</ele>
        <time>2022-02-27T10:45:46.000Z</time>
      </trkpt>
      <trkpt lat="47.28369" lon="-2.28079">
        <ele>17.200000762939</ele>
        <time>2022-02-27T10:45:49.000Z</time>
      </trkpt>
      <trkpt lat="47.28368" lon="-2.28085">
        <ele>16.799999237061</ele>
        <time>2022-02-27T10:45:50.000Z</time>
      </trkpt>
      <trkpt lat="47.28365" lon="-2.28089">
        <ele>16.39999961853</ele>
        <time>2022-02-27T10:45:51.000Z</time>
      </trkpt>
      <trkpt lat="47.28363" lon="-2.28091">
        <ele>16</ele>
        <time>2022-02-27T10:45:52.000Z</time>
      </trkpt>
      <trkpt lat="47.28361" lon="-2.28093">
        <ele>15.60000038147</ele>
        <time>2022-02-27T10:45:53.000Z</time>
      </trkpt>
      <trkpt lat="47.28355" lon="-2.28103">
        <ele>15.60000038147</ele>
        <time>2022-02-27T10:45:57.000Z</time>
      </trkpt>
      <trkpt lat="47.2833" lon="-2.28108">
        <ele>15.60000038147</ele>
        <time>2022-02-27T10:46:04.000Z</time>
      </trkpt>
      <trkpt lat="47.28327" lon="-2.28115">
        <ele>15.60000038147</ele>
        <time>2022-02-27T10:46:06.000Z</time>
      </trkpt>
      <trkpt lat="47.28326" lon="-2.28124">
        <ele>15.60000038147</ele>
        <time>2022-02-27T10:46:08.000Z</time>
      </trkpt>
      <trkpt lat="47.28325" lon="-2.28141">
        <ele>15.60000038147</ele>
        <time>2022-02-27T10:46:12.000Z</time>
      </trkpt>
      <trkpt lat="47.28325" lon="-2.28171">
        <ele>16</ele>
        <time>2022-02-27T10:46:18.000Z</time>
      </trkpt>
      <trkpt lat="47.28325" lon="-2.28176">
        <ele>16.39999961853</ele>
        <time>2022-02-27T10:46:19.000Z</time>
      </trkpt>
      <trkpt lat="47.28325" lon="-2.2818">
        <ele>16.799999237061</ele>
        <time>2022-02-27T10:46:20.000Z</time>
      </trkpt>
      <trkpt lat="47.28324" lon="-2.28185">
        <ele>17.200000762939</ele>
        <time>2022-02-27T10:46:21.000Z</time>
      </trkpt>
      <trkpt lat="47.28324" lon="-2.2819">
        <ele>17.799999237061</ele>
        <time>2022-02-27T10:46:22.000Z</time>
      </trkpt>
      <trkpt lat="47.28325" lon="-2.28203">
        <ele>18.200000762939</ele>
        <time>2022-02-27T10:46:25.000Z</time>
      </trkpt>
      <trkpt lat="47.28325" lon="-2.28208">
        <ele>18.60000038147</ele>
        <time>2022-02-27T10:46:26.000Z</time>
      </trkpt>
      <trkpt lat="47.28325" lon="-2.28213">
        <ele>19</ele>
        <time>2022-02-27T10:46:27.000Z</time>
      </trkpt>
      <trkpt lat="47.28325" lon="-2.28217">
        <ele>19.39999961853</ele>
        <time>2022-02-27T10:46:28.000Z</time>
      </trkpt>
      <trkpt lat="47.28325" lon="-2.28222">
        <ele>19.799999237061</ele>
        <time>2022-02-27T10:46:29.000Z</time>
      </trkpt>
      <trkpt lat="47.28326" lon="-2.28236">
        <ele>19.799999237061</ele>
        <time>2022-02-27T10:46:32.000Z</time>
      </trkpt>
      <trkpt lat="47.28326" lon="-2.28257">
        <ele>20.200000762939</ele>
        <time>2022-02-27T10:46:36.000Z</time>
      </trkpt>
      <trkpt lat="47.28326" lon="-2.28262">
        <ele>20.60000038147</ele>
        <time>2022-02-27T10:46:37.000Z</time>
      </trkpt>
      <trkpt lat="47.28326" lon="-2.28268">
        <ele>21</ele>
        <time>2022-02-27T10:46:38.000Z</time>
      </trkpt>
      <trkpt lat="47.28326" lon="-2.28273">
        <ele>21.60000038147</ele>
        <time>2022-02-27T10:46:39.000Z</time>
      </trkpt>
      <trkpt lat="47.28326" lon="-2.28278">
        <ele>22</ele>
        <time>2022-02-27T10:46:40.000Z</time>
      </trkpt>
      <trkpt lat="47.28326" lon="-2.28283">
        <ele>22</ele>
        <time>2022-02-27T10:46:41.000Z</time>
      </trkpt>
      <trkpt lat="47.28325" lon="-2.28301">
        <ele>22</ele>
        <time>2022-02-27T10:46:46.000Z</time>
      </trkpt>
      <trkpt lat="47.28324" lon="-2.28304">
        <ele>22</ele>
        <time>2022-02-27T10:46:47.000Z</time>
      </trkpt>
      <trkpt lat="47.28325" lon="-2.28308">
        <ele>22</ele>
        <time>2022-02-27T10:46:48.000Z</time>
      </trkpt>
      <trkpt lat="47.28326" lon="-2.28318">
        <ele>22.39999961853</ele>
        <time>2022-02-27T10:46:51.000Z</time>
      </trkpt>
      <trkpt lat="47.28326" lon="-2.28322">
        <ele>22.799999237061</ele>
        <time>2022-02-27T10:46:52.000Z</time>
      </trkpt>
      <trkpt lat="47.28326" lon="-2.28326">
        <ele>23.200000762939</ele>
        <time>2022-02-27T10:46:53.000Z</time>
      </trkpt>
      <trkpt lat="47.28326" lon="-2.2833">
        <ele>23.60000038147</ele>
        <time>2022-02-27T10:46:54.000Z</time>
      </trkpt>
      <trkpt lat="47.28327" lon="-2.28335">
        <ele>24</ele>
        <time>2022-02-27T10:46:55.000Z</time>
      </trkpt>
      <trkpt lat="47.28326" lon="-2.28362">
        <ele>24</ele>
        <time>2022-02-27T10:47:01.000Z</time>
      </trkpt>
      <trkpt lat="47.28322" lon="-2.28389">
        <ele>24</ele>
        <time>2022-02-27T10:47:07.000Z</time>
      </trkpt>
      <trkpt lat="47.28315" lon="-2.28415">
        <ele>24</ele>
        <time>2022-02-27T10:47:13.000Z</time>
      </trkpt>
      <trkpt lat="47.28305" lon="-2.28449">
        <ele>24</ele>
        <time>2022-02-27T10:47:21.000Z</time>
      </trkpt>
      <trkpt lat="47.28296" lon="-2.28487">
        <ele>24</ele>
        <time>2022-02-27T10:47:28.000Z</time>
      </trkpt>
      <trkpt lat="47.28292" lon="-2.28522">
        <ele>24</ele>
        <time>2022-02-27T10:47:34.000Z</time>
      </trkpt>
      <trkpt lat="47.28284" lon="-2.28571">
        <ele>24</ele>
        <time>2022-02-27T10:47:42.000Z</time>
      </trkpt>
      <trkpt lat="47.28276" lon="-2.2861">
        <ele>24</ele>
        <time>2022-02-27T10:47:49.000Z</time>
      </trkpt>
      <trkpt lat="47.28265" lon="-2.28656">
        <ele>24</ele>
        <time>2022-02-27T10:47:57.000Z</time>
      </trkpt>
      <trkpt lat="47.28256" lon="-2.28698">
        <ele>24</ele>
        <time>2022-02-27T10:48:04.000Z</time>
      </trkpt>
      <trkpt lat="47.28247" lon="-2.28751">
        <ele>24</ele>
        <time>2022-02-27T10:48:13.000Z</time>
      </trkpt>
      <trkpt lat="47.28246" lon="-2.28757">
        <ele>24</ele>
        <time>2022-02-27T10:48:14.000Z</time>
      </trkpt>
      <trkpt lat="47.28242" lon="-2.28786">
        <ele>24</ele>
        <time>2022-02-27T10:48:19.000Z</time>
      </trkpt>
      <trkpt lat="47.2824" lon="-2.28792">
        <ele>24</ele>
        <time>2022-02-27T10:48:20.000Z</time>
      </trkpt>
      <trkpt lat="47.2823" lon="-2.2885">
        <ele>24</ele>
        <time>2022-02-27T10:48:30.000Z</time>
      </trkpt>
      <trkpt lat="47.28216" lon="-2.28868">
        <ele>24</ele>
        <time>2022-02-27T10:48:35.000Z</time>
      </trkpt>
      <trkpt lat="47.28212" lon="-2.28868">
        <ele>24</ele>
        <time>2022-02-27T10:48:36.000Z</time>
      </trkpt>
      <trkpt lat="47.28199" lon="-2.28863">
        <ele>24</ele>
        <time>2022-02-27T10:48:39.000Z</time>
      </trkpt>
      <trkpt lat="47.28183" lon="-2.28849">
        <ele>24</ele>
        <time>2022-02-27T10:48:43.000Z</time>
      </trkpt>
      <trkpt lat="47.28174" lon="-2.28842">
        <ele>24</ele>
        <time>2022-02-27T10:48:45.000Z</time>
      </trkpt>
      <trkpt lat="47.2817" lon="-2.28838">
        <ele>24</ele>
        <time>2022-02-27T10:48:46.000Z</time>
      </trkpt>
      <trkpt lat="47.28161" lon="-2.2883">
        <ele>23.60000038147</ele>
        <time>2022-02-27T10:48:48.000Z</time>
      </trkpt>
      <trkpt lat="47.28157" lon="-2.28826">
        <ele>23</ele>
        <time>2022-02-27T10:48:49.000Z</time>
      </trkpt>
      <trkpt lat="47.28152" lon="-2.28822">
        <ele>22.60000038147</ele>
        <time>2022-02-27T10:48:50.000Z</time>
      </trkpt>
      <trkpt lat="47.28148" lon="-2.28819">
        <ele>22.200000762939</ele>
        <time>2022-02-27T10:48:51.000Z</time>
      </trkpt>
      <trkpt lat="47.28143" lon="-2.28815">
        <ele>21.799999237061</ele>
        <time>2022-02-27T10:48:52.000Z</time>
      </trkpt>
      <trkpt lat="47.28117" lon="-2.28795">
        <ele>21.39999961853</ele>
        <time>2022-02-27T10:48:57.000Z</time>
      </trkpt>
      <trkpt lat="47.28111" lon="-2.28792">
        <ele>20.799999237061</ele>
        <time>2022-02-27T10:48:58.000Z</time>
      </trkpt>
      <trkpt lat="47.28105" lon="-2.28788">
        <ele>20.39999961853</ele>
        <time>2022-02-27T10:48:59.000Z</time>
      </trkpt>
      <trkpt lat="47.28099" lon="-2.28785">
        <ele>20</ele>
        <time>2022-02-27T10:49:00.000Z</time>
      </trkpt>
      <trkpt lat="47.28093" lon="-2.28782">
        <ele>19.39999961853</ele>
        <time>2022-02-27T10:49:01.000Z</time>
      </trkpt>
      <trkpt lat="47.28075" lon="-2.28771">
        <ele>19.39999961853</ele>
        <time>2022-02-27T10:49:04.000Z</time>
      </trkpt>
      <trkpt lat="47.28039" lon="-2.28757">
        <ele>19.39999961853</ele>
        <time>2022-02-27T10:49:10.000Z</time>
      </trkpt>
      <trkpt lat="47.28027" lon="-2.28755">
        <ele>19.39999961853</ele>
        <time>2022-02-27T10:49:12.000Z</time>
      </trkpt>
      <trkpt lat="47.28021" lon="-2.28754">
        <ele>19</ele>
        <time>2022-02-27T10:49:13.000Z</time>
      </trkpt>
      <trkpt lat="47.28015" lon="-2.28752">
        <ele>18.60000038147</ele>
        <time>2022-02-27T10:49:14.000Z</time>
      </trkpt>
      <trkpt lat="47.28009" lon="-2.2875">
        <ele>18.200000762939</ele>
        <time>2022-02-27T10:49:15.000Z</time>
      </trkpt>
      <trkpt lat="47.28003" lon="-2.2875">
        <ele>17.799999237061</ele>
        <time>2022-02-27T10:49:16.000Z</time>
      </trkpt>
      <trkpt lat="47.27997" lon="-2.28749">
        <ele>17.39999961853</ele>
        <time>2022-02-27T10:49:17.000Z</time>
      </trkpt>
      <trkpt lat="47.27979" lon="-2.28747">
        <ele>17.39999961853</ele>
        <time>2022-02-27T10:49:20.000Z</time>
      </trkpt>
      <trkpt lat="47.2794" lon="-2.28752">
        <ele>17.39999961853</ele>
        <time>2022-02-27T10:49:27.000Z</time>
      </trkpt>
      <trkpt lat="47.27903" lon="-2.28765">
        <ele>17.39999961853</ele>
        <time>2022-02-27T10:49:35.000Z</time>
      </trkpt>
      <trkpt lat="47.27881" lon="-2.28776">
        <ele>17.39999961853</ele>
        <time>2022-02-27T10:49:41.000Z</time>
      </trkpt>
      <trkpt lat="47.27873" lon="-2.28795">
        <ele>17.39999961853</ele>
        <time>2022-02-27T10:49:45.000Z</time>
      </trkpt>
      <trkpt lat="47.27871" lon="-2.288">
        <ele>17.39999961853</ele>
        <time>2022-02-27T10:49:46.000Z</time>
      </trkpt>
      <trkpt lat="47.27863" lon="-2.28814">
        <ele>17.39999961853</ele>
        <time>2022-02-27T10:49:49.000Z</time>
      </trkpt>
      <trkpt lat="47.27859" lon="-2.28814">
        <ele>17.39999961853</ele>
        <time>2022-02-27T10:49:50.000Z</time>
      </trkpt>
      <trkpt lat="47.27854" lon="-2.28811">
        <ele>17.39999961853</ele>
        <time>2022-02-27T10:49:51.000Z</time>
      </trkpt>
      <trkpt lat="47.27846" lon="-2.28803">
        <ele>17.39999961853</ele>
        <time>2022-02-27T10:49:53.000Z</time>
      </trkpt>
      <trkpt lat="47.27826" lon="-2.28794">
        <ele>17.39999961853</ele>
        <time>2022-02-27T10:49:57.000Z</time>
      </trkpt>
      <trkpt lat="47.2782" lon="-2.28794">
        <ele>17.39999961853</ele>
        <time>2022-02-27T10:49:58.000Z</time>
      </trkpt>
      <trkpt lat="47.27796" lon="-2.28795">
        <ele>17.39999961853</ele>
        <time>2022-02-27T10:50:03.000Z</time>
      </trkpt>
      <trkpt lat="47.27788" lon="-2.28795">
        <ele>17.39999961853</ele>
        <time>2022-02-27T10:50:05.000Z</time>
      </trkpt>
      <trkpt lat="47.27776" lon="-2.28795">
        <ele>17.39999961853</ele>
        <time>2022-02-27T10:50:08.000Z</time>
      </trkpt>
      <trkpt lat="47.27772" lon="-2.28797">
        <ele>17.39999961853</ele>
        <time>2022-02-27T10:50:09.000Z</time>
      </trkpt>
      <trkpt lat="47.27748" lon="-2.28805">
        <ele>17.39999961853</ele>
        <time>2022-02-27T10:50:15.000Z</time>
      </trkpt>
      <trkpt lat="47.27724" lon="-2.28818">
        <ele>17.39999961853</ele>
        <time>2022-02-27T10:50:22.000Z</time>
      </trkpt>
      <trkpt lat="47.27715" lon="-2.28822">
        <ele>17.39999961853</ele>
        <time>2022-02-27T10:50:24.000Z</time>
      </trkpt>
      <trkpt lat="47.27697" lon="-2.28829">
        <ele>17.39999961853</ele>
        <time>2022-02-27T10:50:28.000Z</time>
      </trkpt>
      <trkpt lat="47.27692" lon="-2.28832">
        <ele>17.39999961853</ele>
        <time>2022-02-27T10:50:29.000Z</time>
      </trkpt>
      <trkpt lat="47.27669" lon="-2.28839">
        <ele>17.39999961853</ele>
        <time>2022-02-27T10:50:33.000Z</time>
      </trkpt>
      <trkpt lat="47.27622" lon="-2.28857">
        <ele>17.39999961853</ele>
        <time>2022-02-27T10:50:41.000Z</time>
      </trkpt>
      <trkpt lat="47.27587" lon="-2.28873">
        <ele>17.39999961853</ele>
        <time>2022-02-27T10:50:47.000Z</time>
      </trkpt>
      <trkpt lat="47.27543" lon="-2.28899">
        <ele>17.39999961853</ele>
        <time>2022-02-27T10:50:55.000Z</time>
      </trkpt>
      <trkpt lat="47.27501" lon="-2.28922">
        <ele>17.39999961853</ele>
        <time>2022-02-27T10:51:03.000Z</time>
      </trkpt>
      <trkpt lat="47.27477" lon="-2.28937">
        <ele>17.39999961853</ele>
        <time>2022-02-27T10:51:08.000Z</time>
      </trkpt>
      <trkpt lat="47.27472" lon="-2.28941">
        <ele>17.39999961853</ele>
        <time>2022-02-27T10:51:09.000Z</time>
      </trkpt>
      <trkpt lat="47.27461" lon="-2.28958">
        <ele>17.39999961853</ele>
        <time>2022-02-27T10:51:12.000Z</time>
      </trkpt>
      <trkpt lat="47.27444" lon="-2.29007">
        <ele>17.39999961853</ele>
        <time>2022-02-27T10:51:18.000Z</time>
      </trkpt>
      <trkpt lat="47.27436" lon="-2.2902">
        <ele>17.39999961853</ele>
        <time>2022-02-27T10:51:20.000Z</time>
      </trkpt>
      <trkpt lat="47.27426" lon="-2.29028">
        <ele>17.39999961853</ele>
        <time>2022-02-27T10:51:22.000Z</time>
      </trkpt>
      <trkpt lat="47.27416" lon="-2.29032">
        <ele>17.39999961853</ele>
        <time>2022-02-27T10:51:24.000Z</time>
      </trkpt>
      <trkpt lat="47.2741" lon="-2.29034">
        <ele>17.39999961853</ele>
        <time>2022-02-27T10:51:25.000Z</time>
      </trkpt>
      <trkpt lat="47.27399" lon="-2.29037">
        <ele>17.39999961853</ele>
        <time>2022-02-27T10:51:27.000Z</time>
      </trkpt>
      <trkpt lat="47.27388" lon="-2.29039">
        <ele>17.39999961853</ele>
        <time>2022-02-27T10:51:29.000Z</time>
      </trkpt>
      <trkpt lat="47.27377" lon="-2.2904">
        <ele>17.799999237061</ele>
        <time>2022-02-27T10:51:31.000Z</time>
      </trkpt>
      <trkpt lat="47.27371" lon="-2.29039">
        <ele>18.200000762939</ele>
        <time>2022-02-27T10:51:32.000Z</time>
      </trkpt>
      <trkpt lat="47.27366" lon="-2.29039">
        <ele>18.799999237061</ele>
        <time>2022-02-27T10:51:33.000Z</time>
      </trkpt>
      <trkpt lat="47.2736" lon="-2.29037">
        <ele>19.200000762939</ele>
        <time>2022-02-27T10:51:34.000Z</time>
      </trkpt>
      <trkpt lat="47.27355" lon="-2.29035">
        <ele>19.60000038147</ele>
        <time>2022-02-27T10:51:35.000Z</time>
      </trkpt>
      <trkpt lat="47.27346" lon="-2.29026">
        <ele>19.60000038147</ele>
        <time>2022-02-27T10:51:37.000Z</time>
      </trkpt>
      <trkpt lat="47.2734" lon="-2.29005">
        <ele>19.60000038147</ele>
        <time>2022-02-27T10:51:40.000Z</time>
      </trkpt>
      <trkpt lat="47.2734" lon="-2.28988">
        <ele>19.60000038147</ele>
        <time>2022-02-27T10:51:42.000Z</time>
      </trkpt>
      <trkpt lat="47.27342" lon="-2.28972">
        <ele>19.60000038147</ele>
        <time>2022-02-27T10:51:44.000Z</time>
      </trkpt>
      <trkpt lat="47.27343" lon="-2.28964">
        <ele>19.60000038147</ele>
        <time>2022-02-27T10:51:45.000Z</time>
      </trkpt>
      <trkpt lat="47.27335" lon="-2.28947">
        <ele>19.60000038147</ele>
        <time>2022-02-27T10:51:48.000Z</time>
      </trkpt>
      <trkpt lat="47.27322" lon="-2.28946">
        <ele>19.60000038147</ele>
        <time>2022-02-27T10:51:51.000Z</time>
      </trkpt>
      <trkpt lat="47.27315" lon="-2.28955">
        <ele>19.60000038147</ele>
        <time>2022-02-27T10:51:54.000Z</time>
      </trkpt>
      <trkpt lat="47.2731" lon="-2.28964">
        <ele>19.60000038147</ele>
        <time>2022-02-27T10:51:57.000Z</time>
      </trkpt>
      <trkpt lat="47.27306" lon="-2.28967">
        <ele>19.60000038147</ele>
        <time>2022-02-27T10:51:58.000Z</time>
      </trkpt>
      <trkpt lat="47.27296" lon="-2.28976">
        <ele>19.60000038147</ele>
        <time>2022-02-27T10:52:01.000Z</time>
      </trkpt>
      <trkpt lat="47.27293" lon="-2.2898">
        <ele>19.60000038147</ele>
        <time>2022-02-27T10:52:02.000Z</time>
      </trkpt>
      <trkpt lat="47.27281" lon="-2.28998">
        <ele>19.60000038147</ele>
        <time>2022-02-27T10:52:06.000Z</time>
      </trkpt>
      <trkpt lat="47.27279" lon="-2.29005">
        <ele>19.60000038147</ele>
        <time>2022-02-27T10:52:07.000Z</time>
      </trkpt>
      <trkpt lat="47.27266" lon="-2.29028">
        <ele>19.60000038147</ele>
        <time>2022-02-27T10:52:11.000Z</time>
      </trkpt>
      <trkpt lat="47.27262" lon="-2.29033">
        <ele>19.60000038147</ele>
        <time>2022-02-27T10:52:12.000Z</time>
      </trkpt>
      <trkpt lat="47.27254" lon="-2.29045">
        <ele>19.60000038147</ele>
        <time>2022-02-27T10:52:14.000Z</time>
      </trkpt>
      <trkpt lat="47.27244" lon="-2.29055">
        <ele>19.60000038147</ele>
        <time>2022-02-27T10:52:16.000Z</time>
      </trkpt>
      <trkpt lat="47.27209" lon="-2.29089">
        <ele>19.60000038147</ele>
        <time>2022-02-27T10:52:23.000Z</time>
      </trkpt>
      <trkpt lat="47.27189" lon="-2.29107">
        <ele>19.60000038147</ele>
        <time>2022-02-27T10:52:27.000Z</time>
      </trkpt>
      <trkpt lat="47.27184" lon="-2.29107">
        <ele>19.60000038147</ele>
        <time>2022-02-27T10:52:28.000Z</time>
      </trkpt>
      <trkpt lat="47.27161" lon="-2.29096">
        <ele>19.60000038147</ele>
        <time>2022-02-27T10:52:33.000Z</time>
      </trkpt>
      <trkpt lat="47.27157" lon="-2.29096">
        <ele>19.60000038147</ele>
        <time>2022-02-27T10:52:34.000Z</time>
      </trkpt>
      <trkpt lat="47.27148" lon="-2.29103">
        <ele>19.60000038147</ele>
        <time>2022-02-27T10:52:37.000Z</time>
      </trkpt>
      <trkpt lat="47.27139" lon="-2.29121">
        <ele>19.60000038147</ele>
        <time>2022-02-27T10:52:41.000Z</time>
      </trkpt>
      <trkpt lat="47.27129" lon="-2.29132">
        <ele>19.60000038147</ele>
        <time>2022-02-27T10:52:44.000Z</time>
      </trkpt>
      <trkpt lat="47.27124" lon="-2.2914">
        <ele>19.60000038147</ele>
        <time>2022-02-27T10:52:46.000Z</time>
      </trkpt>
      <trkpt lat="47.2712" lon="-2.2915">
        <ele>19.60000038147</ele>
        <time>2022-02-27T10:52:49.000Z</time>
      </trkpt>
      <trkpt lat="47.27121" lon="-2.29158">
        <ele>19.60000038147</ele>
        <time>2022-02-27T10:52:51.000Z</time>
      </trkpt>
      <trkpt lat="47.27125" lon="-2.29164">
        <ele>19.60000038147</ele>
        <time>2022-02-27T10:52:53.000Z</time>
      </trkpt>
      <trkpt lat="47.27137" lon="-2.29177">
        <ele>19.60000038147</ele>
        <time>2022-02-27T10:52:57.000Z</time>
      </trkpt>
      <trkpt lat="47.2715" lon="-2.29187">
        <ele>19.60000038147</ele>
        <time>2022-02-27T10:53:01.000Z</time>
      </trkpt>
      <trkpt lat="47.27157" lon="-2.29198">
        <ele>19.60000038147</ele>
        <time>2022-02-27T10:53:05.000Z</time>
      </trkpt>
      <trkpt lat="47.27159" lon="-2.29204">
        <ele>19.60000038147</ele>
        <time>2022-02-27T10:53:09.000Z</time>
      </trkpt>
      <trkpt lat="47.27165" lon="-2.29214">
        <ele>19.60000038147</ele>
        <time>2022-02-27T10:53:15.000Z</time>
      </trkpt>
      <trkpt lat="47.27173" lon="-2.29228">
        <ele>19.60000038147</ele>
        <time>2022-02-27T10:53:20.000Z</time>
      </trkpt>
      <trkpt lat="47.27172" lon="-2.29249">
        <ele>20</ele>
        <time>2022-02-27T10:53:24.000Z</time>
      </trkpt>
      <trkpt lat="47.27171" lon="-2.29254">
        <ele>20.799999237061</ele>
        <time>2022-02-27T10:53:25.000Z</time>
      </trkpt>
      <trkpt lat="47.2717" lon="-2.2926">
        <ele>21.200000762939</ele>
        <time>2022-02-27T10:53:26.000Z</time>
      </trkpt>
      <trkpt lat="47.27168" lon="-2.29266">
        <ele>21.60000038147</ele>
        <time>2022-02-27T10:53:27.000Z</time>
      </trkpt>
      <trkpt lat="47.27165" lon="-2.29276">
        <ele>21.60000038147</ele>
        <time>2022-02-27T10:53:29.000Z</time>
      </trkpt>
      <trkpt lat="47.27153" lon="-2.29303">
        <ele>21.60000038147</ele>
        <time>2022-02-27T10:53:34.000Z</time>
      </trkpt>
      <trkpt lat="47.27153" lon="-2.29308">
        <ele>21.60000038147</ele>
        <time>2022-02-27T10:53:35.000Z</time>
      </trkpt>
      <trkpt lat="47.27156" lon="-2.29318">
        <ele>21.60000038147</ele>
        <time>2022-02-27T10:53:37.000Z</time>
      </trkpt>
      <trkpt lat="47.27171" lon="-2.29338">
        <ele>21.60000038147</ele>
        <time>2022-02-27T10:53:41.000Z</time>
      </trkpt>
      <trkpt lat="47.27176" lon="-2.29343">
        <ele>21.60000038147</ele>
        <time>2022-02-27T10:53:42.000Z</time>
      </trkpt>
      <trkpt lat="47.2718" lon="-2.29349">
        <ele>21.60000038147</ele>
        <time>2022-02-27T10:53:43.000Z</time>
      </trkpt>
      <trkpt lat="47.27191" lon="-2.2937">
        <ele>21.60000038147</ele>
        <time>2022-02-27T10:53:46.000Z</time>
      </trkpt>
      <trkpt lat="47.27203" lon="-2.29407">
        <ele>21.60000038147</ele>
        <time>2022-02-27T10:53:51.000Z</time>
      </trkpt>
      <trkpt lat="47.2722" lon="-2.29461">
        <ele>21.60000038147</ele>
        <time>2022-02-27T10:53:58.000Z</time>
      </trkpt>
      <trkpt lat="47.2724" lon="-2.29517">
        <ele>21.60000038147</ele>
        <time>2022-02-27T10:54:06.000Z</time>
      </trkpt>
      <trkpt lat="47.2725" lon="-2.29544">
        <ele>21.60000038147</ele>
        <time>2022-02-27T10:54:10.000Z</time>
      </trkpt>
      <trkpt lat="47.27251" lon="-2.29551">
        <ele>21.60000038147</ele>
        <time>2022-02-27T10:54:11.000Z</time>
      </trkpt>
      <trkpt lat="47.27254" lon="-2.29574">
        <ele>21.60000038147</ele>
        <time>2022-02-27T10:54:14.000Z</time>
      </trkpt>
      <trkpt lat="47.27258" lon="-2.29598">
        <ele>21.60000038147</ele>
        <time>2022-02-27T10:54:17.000Z</time>
      </trkpt>
      <trkpt lat="47.27263" lon="-2.29627">
        <ele>21.60000038147</ele>
        <time>2022-02-27T10:54:22.000Z</time>
      </trkpt>
      <trkpt lat="47.27264" lon="-2.29631">
        <ele>21.60000038147</ele>
        <time>2022-02-27T10:54:26.000Z</time>
      </trkpt>
      <trkpt lat="47.27265" lon="-2.29637">
        <ele>21.60000038147</ele>
        <time>2022-02-27T10:57:25.000Z</time>
      </trkpt>
      <trkpt lat="47.27267" lon="-2.29644">
        <ele>21.60000038147</ele>
        <time>2022-02-27T10:57:28.000Z</time>
      </trkpt>
      <trkpt lat="47.27267" lon="-2.2965">
        <ele>21.60000038147</ele>
        <time>2022-02-27T10:57:30.000Z</time>
      </trkpt>
      <trkpt lat="47.27269" lon="-2.29674">
        <ele>21.60000038147</ele>
        <time>2022-02-27T10:57:35.000Z</time>
      </trkpt>
      <trkpt lat="47.2727" lon="-2.29679">
        <ele>21.60000038147</ele>
        <time>2022-02-27T10:57:36.000Z</time>
      </trkpt>
      <trkpt lat="47.27277" lon="-2.29709">
        <ele>21.60000038147</ele>
        <time>2022-02-27T10:57:41.000Z</time>
      </trkpt>
      <trkpt lat="47.27288" lon="-2.2975">
        <ele>21.60000038147</ele>
        <time>2022-02-27T10:57:48.000Z</time>
      </trkpt>
      <trkpt lat="47.27295" lon="-2.29776">
        <ele>21.60000038147</ele>
        <time>2022-02-27T10:57:52.000Z</time>
      </trkpt>
      <trkpt lat="47.27299" lon="-2.29788">
        <ele>21.60000038147</ele>
        <time>2022-02-27T10:57:54.000Z</time>
      </trkpt>
      <trkpt lat="47.27308" lon="-2.29805">
        <ele>21.60000038147</ele>
        <time>2022-02-27T10:57:57.000Z</time>
      </trkpt>
      <trkpt lat="47.27315" lon="-2.29817">
        <ele>21.60000038147</ele>
        <time>2022-02-27T10:57:59.000Z</time>
      </trkpt>
      <trkpt lat="47.27323" lon="-2.29827">
        <ele>21.60000038147</ele>
        <time>2022-02-27T10:58:01.000Z</time>
      </trkpt>
      <trkpt lat="47.27333" lon="-2.29844">
        <ele>21.60000038147</ele>
        <time>2022-02-27T10:58:04.000Z</time>
      </trkpt>
      <trkpt lat="47.27337" lon="-2.2985">
        <ele>21.60000038147</ele>
        <time>2022-02-27T10:58:05.000Z</time>
      </trkpt>
      <trkpt lat="47.27355" lon="-2.29885">
        <ele>21.60000038147</ele>
        <time>2022-02-27T10:58:11.000Z</time>
      </trkpt>
      <trkpt lat="47.2737" lon="-2.29918">
        <ele>21.60000038147</ele>
        <time>2022-02-27T10:58:17.000Z</time>
      </trkpt>
      <trkpt lat="47.27386" lon="-2.29957">
        <ele>21.60000038147</ele>
        <time>2022-02-27T10:58:23.000Z</time>
      </trkpt>
      <trkpt lat="47.27409" lon="-2.30011">
        <ele>21.60000038147</ele>
        <time>2022-02-27T10:58:30.000Z</time>
      </trkpt>
      <trkpt lat="47.27425" lon="-2.30048">
        <ele>21.60000038147</ele>
        <time>2022-02-27T10:58:35.000Z</time>
      </trkpt>
      <trkpt lat="47.27437" lon="-2.30088">
        <ele>21.60000038147</ele>
        <time>2022-02-27T10:58:40.000Z</time>
      </trkpt>
      <trkpt lat="47.27446" lon="-2.30138">
        <ele>21.60000038147</ele>
        <time>2022-02-27T10:58:46.000Z</time>
      </trkpt>
      <trkpt lat="47.27449" lon="-2.30146">
        <ele>21.200000762939</ele>
        <time>2022-02-27T10:58:47.000Z</time>
      </trkpt>
      <trkpt lat="47.27451" lon="-2.30155">
        <ele>20.799999237061</ele>
        <time>2022-02-27T10:58:48.000Z</time>
      </trkpt>
      <trkpt lat="47.27452" lon="-2.30164">
        <ele>20.39999961853</ele>
        <time>2022-02-27T10:58:49.000Z</time>
      </trkpt>
      <trkpt lat="47.27454" lon="-2.30172">
        <ele>20</ele>
        <time>2022-02-27T10:58:50.000Z</time>
      </trkpt>
      <trkpt lat="47.27456" lon="-2.30181">
        <ele>19.60000038147</ele>
        <time>2022-02-27T10:58:51.000Z</time>
      </trkpt>
      <trkpt lat="47.27458" lon="-2.3019">
        <ele>19.60000038147</ele>
        <time>2022-02-27T10:58:52.000Z</time>
      </trkpt>
      <trkpt lat="47.27459" lon="-2.30198">
        <ele>19.60000038147</ele>
        <time>2022-02-27T10:58:53.000Z</time>
      </trkpt>
      <trkpt lat="47.27462" lon="-2.30228">
        <ele>19.200000762939</ele>
        <time>2022-02-27T10:58:56.000Z</time>
      </trkpt>
      <trkpt lat="47.27465" lon="-2.30237">
        <ele>18.799999237061</ele>
        <time>2022-02-27T10:58:57.000Z</time>
      </trkpt>
      <trkpt lat="47.27467" lon="-2.30247">
        <ele>18.39999961853</ele>
        <time>2022-02-27T10:58:58.000Z</time>
      </trkpt>
      <trkpt lat="47.2747" lon="-2.30257">
        <ele>18</ele>
        <time>2022-02-27T10:58:59.000Z</time>
      </trkpt>
      <trkpt lat="47.27472" lon="-2.30267">
        <ele>17.60000038147</ele>
        <time>2022-02-27T10:59:00.000Z</time>
      </trkpt>
      <trkpt lat="47.27481" lon="-2.30318">
        <ele>17.60000038147</ele>
        <time>2022-02-27T10:59:05.000Z</time>
      </trkpt>
      <trkpt lat="47.27483" lon="-2.30329">
        <ele>17</ele>
        <time>2022-02-27T10:59:06.000Z</time>
      </trkpt>
      <trkpt lat="47.27486" lon="-2.3034">
        <ele>16.60000038147</ele>
        <time>2022-02-27T10:59:07.000Z</time>
      </trkpt>
      <trkpt lat="47.27488" lon="-2.3035">
        <ele>16.200000762939</ele>
        <time>2022-02-27T10:59:08.000Z</time>
      </trkpt>
      <trkpt lat="47.27491" lon="-2.3036">
        <ele>15.800000190735</ele>
        <time>2022-02-27T10:59:09.000Z</time>
      </trkpt>
      <trkpt lat="47.27494" lon="-2.30371">
        <ele>15.39999961853</ele>
        <time>2022-02-27T10:59:10.000Z</time>
      </trkpt>
      <trkpt lat="47.27497" lon="-2.30382">
        <ele>15.39999961853</ele>
        <time>2022-02-27T10:59:11.000Z</time>
      </trkpt>
      <trkpt lat="47.27499" lon="-2.30392">
        <ele>14.800000190735</ele>
        <time>2022-02-27T10:59:12.000Z</time>
      </trkpt>
      <trkpt lat="47.27501" lon="-2.30403">
        <ele>14.39999961853</ele>
        <time>2022-02-27T10:59:13.000Z</time>
      </trkpt>
      <trkpt lat="47.27503" lon="-2.30414">
        <ele>14</ele>
        <time>2022-02-27T10:59:14.000Z</time>
      </trkpt>
      <trkpt lat="47.27505" lon="-2.30425">
        <ele>13.60000038147</ele>
        <time>2022-02-27T10:59:15.000Z</time>
      </trkpt>
      <trkpt lat="47.27507" lon="-2.30435">
        <ele>13.199999809265</ele>
        <time>2022-02-27T10:59:16.000Z</time>
      </trkpt>
      <trkpt lat="47.27509" lon="-2.30446">
        <ele>13.199999809265</ele>
        <time>2022-02-27T10:59:17.000Z</time>
      </trkpt>
      <trkpt lat="47.27523" lon="-2.30507">
        <ele>12.60000038147</ele>
        <time>2022-02-27T10:59:23.000Z</time>
      </trkpt>
      <trkpt lat="47.27525" lon="-2.30517">
        <ele>12.199999809265</ele>
        <time>2022-02-27T10:59:24.000Z</time>
      </trkpt>
      <trkpt lat="47.27527" lon="-2.30527">
        <ele>11.800000190735</ele>
        <time>2022-02-27T10:59:25.000Z</time>
      </trkpt>
      <trkpt lat="47.2753" lon="-2.30537">
        <ele>11.39999961853</ele>
        <time>2022-02-27T10:59:26.000Z</time>
      </trkpt>
      <trkpt lat="47.27533" lon="-2.30546">
        <ele>11</ele>
        <time>2022-02-27T10:59:27.000Z</time>
      </trkpt>
      <trkpt lat="47.27536" lon="-2.30555">
        <ele>11</ele>
        <time>2022-02-27T10:59:28.000Z</time>
      </trkpt>
      <trkpt lat="47.27542" lon="-2.30572">
        <ele>11</ele>
        <time>2022-02-27T10:59:30.000Z</time>
      </trkpt>
      <trkpt lat="47.27548" lon="-2.30585">
        <ele>11</ele>
        <time>2022-02-27T10:59:33.000Z</time>
      </trkpt>
      <trkpt lat="47.27548" lon="-2.30588">
        <ele>11</ele>
        <time>2022-02-27T10:59:35.000Z</time>
      </trkpt>
      <trkpt lat="47.27549" lon="-2.30591">
        <ele>11</ele>
        <time>2022-02-27T10:59:40.000Z</time>
      </trkpt>
      <trkpt lat="47.27548" lon="-2.30606">
        <ele>11</ele>
        <time>2022-02-27T10:59:44.000Z</time>
      </trkpt>
      <trkpt lat="47.27551" lon="-2.30619">
        <ele>11</ele>
        <time>2022-02-27T10:59:48.000Z</time>
      </trkpt>
      <trkpt lat="47.2756" lon="-2.30648">
        <ele>11</ele>
        <time>2022-02-27T10:59:53.000Z</time>
      </trkpt>
      <trkpt lat="47.27567" lon="-2.30678">
        <ele>11</ele>
        <time>2022-02-27T10:59:58.000Z</time>
      </trkpt>
      <trkpt lat="47.27571" lon="-2.30697">
        <ele>11</ele>
        <time>2022-02-27T11:00:01.000Z</time>
      </trkpt>
      <trkpt lat="47.27574" lon="-2.30713">
        <ele>11</ele>
        <time>2022-02-27T11:00:04.000Z</time>
      </trkpt>
      <trkpt lat="47.27581" lon="-2.30746">
        <ele>11</ele>
        <time>2022-02-27T11:00:10.000Z</time>
      </trkpt>
      <trkpt lat="47.27583" lon="-2.30753">
        <ele>11</ele>
        <time>2022-02-27T11:00:11.000Z</time>
      </trkpt>
      <trkpt lat="47.27588" lon="-2.30767">
        <ele>11.39999961853</ele>
        <time>2022-02-27T11:00:13.000Z</time>
      </trkpt>
      <trkpt lat="47.27591" lon="-2.30773">
        <ele>11.800000190735</ele>
        <time>2022-02-27T11:00:14.000Z</time>
      </trkpt>
      <trkpt lat="47.27593" lon="-2.3078">
        <ele>12.199999809265</ele>
        <time>2022-02-27T11:00:15.000Z</time>
      </trkpt>
      <trkpt lat="47.27596" lon="-2.30787">
        <ele>12.60000038147</ele>
        <time>2022-02-27T11:00:16.000Z</time>
      </trkpt>
      <trkpt lat="47.27599" lon="-2.30794">
        <ele>13</ele>
        <time>2022-02-27T11:00:17.000Z</time>
      </trkpt>
      <trkpt lat="47.27614" lon="-2.30826">
        <ele>13</ele>
        <time>2022-02-27T11:00:22.000Z</time>
      </trkpt>
      <trkpt lat="47.27616" lon="-2.30832">
        <ele>13</ele>
        <time>2022-02-27T11:00:23.000Z</time>
      </trkpt>
      <trkpt lat="47.27626" lon="-2.30855">
        <ele>13</ele>
        <time>2022-02-27T11:00:27.000Z</time>
      </trkpt>
      <trkpt lat="47.27644" lon="-2.30896">
        <ele>13</ele>
        <time>2022-02-27T11:00:34.000Z</time>
      </trkpt>
      <trkpt lat="47.27661" lon="-2.30932">
        <ele>13</ele>
        <time>2022-02-27T11:00:40.000Z</time>
      </trkpt>
      <trkpt lat="47.27676" lon="-2.30973">
        <ele>13</ele>
        <time>2022-02-27T11:00:46.000Z</time>
      </trkpt>
      <trkpt lat="47.27696" lon="-2.31022">
        <ele>13</ele>
        <time>2022-02-27T11:00:53.000Z</time>
      </trkpt>
      <trkpt lat="47.2771" lon="-2.31061">
        <ele>13</ele>
        <time>2022-02-27T11:00:59.000Z</time>
      </trkpt>
      <trkpt lat="47.27713" lon="-2.31066">
        <ele>13</ele>
        <time>2022-02-27T11:01:00.000Z</time>
      </trkpt>
      <trkpt lat="47.27715" lon="-2.31084">
        <ele>13</ele>
        <time>2022-02-27T11:01:03.000Z</time>
      </trkpt>
      <trkpt lat="47.27707" lon="-2.31113">
        <ele>13</ele>
        <time>2022-02-27T11:01:08.000Z</time>
      </trkpt>
      <trkpt lat="47.27705" lon="-2.31119">
        <ele>13</ele>
        <time>2022-02-27T11:01:09.000Z</time>
      </trkpt>
      <trkpt lat="47.277" lon="-2.3114">
        <ele>13</ele>
        <time>2022-02-27T11:01:12.000Z</time>
      </trkpt>
      <trkpt lat="47.27694" lon="-2.31162">
        <ele>13</ele>
        <time>2022-02-27T11:01:15.000Z</time>
      </trkpt>
      <trkpt lat="47.27692" lon="-2.3117">
        <ele>12.60000038147</ele>
        <time>2022-02-27T11:01:16.000Z</time>
      </trkpt>
      <trkpt lat="47.2769" lon="-2.31177">
        <ele>12.199999809265</ele>
        <time>2022-02-27T11:01:17.000Z</time>
      </trkpt>
      <trkpt lat="47.27689" lon="-2.31184">
        <ele>11.800000190735</ele>
        <time>2022-02-27T11:01:18.000Z</time>
      </trkpt>
      <trkpt lat="47.27687" lon="-2.31192">
        <ele>11.39999961853</ele>
        <time>2022-02-27T11:01:19.000Z</time>
      </trkpt>
      <trkpt lat="47.27686" lon="-2.31201">
        <ele>10.800000190735</ele>
        <time>2022-02-27T11:01:20.000Z</time>
      </trkpt>
      <trkpt lat="47.27684" lon="-2.31209">
        <ele>10.800000190735</ele>
        <time>2022-02-27T11:01:21.000Z</time>
      </trkpt>
      <trkpt lat="47.27681" lon="-2.31227">
        <ele>10.800000190735</ele>
        <time>2022-02-27T11:01:23.000Z</time>
      </trkpt>
      <trkpt lat="47.27679" lon="-2.31235">
        <ele>10.800000190735</ele>
        <time>2022-02-27T11:01:24.000Z</time>
      </trkpt>
      <trkpt lat="47.2767" lon="-2.31268">
        <ele>10.800000190735</ele>
        <time>2022-02-27T11:01:28.000Z</time>
      </trkpt>
      <trkpt lat="47.27668" lon="-2.31276">
        <ele>10.39999961853</ele>
        <time>2022-02-27T11:01:29.000Z</time>
      </trkpt>
      <trkpt lat="47.27666" lon="-2.31284">
        <ele>10</ele>
        <time>2022-02-27T11:01:30.000Z</time>
      </trkpt>
      <trkpt lat="47.27664" lon="-2.31292">
        <ele>9.6000003814697</ele>
        <time>2022-02-27T11:01:31.000Z</time>
      </trkpt>
      <trkpt lat="47.27662" lon="-2.31299">
        <ele>9.1999998092651</ele>
        <time>2022-02-27T11:01:32.000Z</time>
      </trkpt>
      <trkpt lat="47.27659" lon="-2.31308">
        <ele>8.8000001907349</ele>
        <time>2022-02-27T11:01:33.000Z</time>
      </trkpt>
      <trkpt lat="47.27657" lon="-2.31316">
        <ele>8.8000001907349</ele>
        <time>2022-02-27T11:01:34.000Z</time>
      </trkpt>
      <trkpt lat="47.27654" lon="-2.31325">
        <ele>8.8000001907349</ele>
        <time>2022-02-27T11:01:35.000Z</time>
      </trkpt>
      <trkpt lat="47.27642" lon="-2.31363">
        <ele>8.8000001907349</ele>
        <time>2022-02-27T11:01:39.000Z</time>
      </trkpt>
      <trkpt lat="47.27633" lon="-2.31396">
        <ele>8.3999996185303</ele>
        <time>2022-02-27T11:01:42.000Z</time>
      </trkpt>
      <trkpt lat="47.2763" lon="-2.31407">
        <ele>8</ele>
        <time>2022-02-27T11:01:43.000Z</time>
      </trkpt>
      <trkpt lat="47.27627" lon="-2.31417">
        <ele>7.4000000953674</ele>
        <time>2022-02-27T11:01:44.000Z</time>
      </trkpt>
      <trkpt lat="47.27625" lon="-2.31428">
        <ele>7</ele>
        <time>2022-02-27T11:01:45.000Z</time>
      </trkpt>
      <trkpt lat="47.27622" lon="-2.31439">
        <ele>6.5999999046326</ele>
        <time>2022-02-27T11:01:46.000Z</time>
      </trkpt>
      <trkpt lat="47.27613" lon="-2.31472">
        <ele>6.1999998092651</ele>
        <time>2022-02-27T11:01:49.000Z</time>
      </trkpt>
      <trkpt lat="47.2761" lon="-2.31484">
        <ele>5.8000001907349</ele>
        <time>2022-02-27T11:01:50.000Z</time>
      </trkpt>
      <trkpt lat="47.27607" lon="-2.31495">
        <ele>5.4000000953674</ele>
        <time>2022-02-27T11:01:51.000Z</time>
      </trkpt>
      <trkpt lat="47.27604" lon="-2.31506">
        <ele>5</ele>
        <time>2022-02-27T11:01:52.000Z</time>
      </trkpt>
      <trkpt lat="47.27601" lon="-2.31517">
        <ele>4.4000000953674</ele>
        <time>2022-02-27T11:01:53.000Z</time>
      </trkpt>
      <trkpt lat="47.27589" lon="-2.3156">
        <ele>4.4000000953674</ele>
        <time>2022-02-27T11:01:57.000Z</time>
      </trkpt>
      <trkpt lat="47.2758" lon="-2.31579">
        <ele>4.4000000953674</ele>
        <time>2022-02-27T11:01:59.000Z</time>
      </trkpt>
      <trkpt lat="47.2757" lon="-2.31604">
        <ele>4.4000000953674</ele>
        <time>2022-02-27T11:02:02.000Z</time>
      </trkpt>
      <trkpt lat="47.27566" lon="-2.3162">
        <ele>4.4000000953674</ele>
        <time>2022-02-27T11:02:04.000Z</time>
      </trkpt>
      <trkpt lat="47.27555" lon="-2.31666">
        <ele>4.4000000953674</ele>
        <time>2022-02-27T11:02:10.000Z</time>
      </trkpt>
      <trkpt lat="47.27542" lon="-2.31716">
        <ele>4</ele>
        <time>2022-02-27T11:02:15.000Z</time>
      </trkpt>
      <trkpt lat="47.2754" lon="-2.31727">
        <ele>3.5999999046326</ele>
        <time>2022-02-27T11:02:16.000Z</time>
      </trkpt>
      <trkpt lat="47.27537" lon="-2.31738">
        <ele>3.2000000476837</ele>
        <time>2022-02-27T11:02:17.000Z</time>
      </trkpt>
      <trkpt lat="47.27535" lon="-2.3175">
        <ele>2.7999999523163</ele>
        <time>2022-02-27T11:02:18.000Z</time>
      </trkpt>
      <trkpt lat="47.27532" lon="-2.31761">
        <ele>2.4000000953674</ele>
        <time>2022-02-27T11:02:19.000Z</time>
      </trkpt>
      <trkpt lat="47.27523" lon="-2.31803">
        <ele>2.4000000953674</ele>
        <time>2022-02-27T11:02:23.000Z</time>
      </trkpt>
      <trkpt lat="47.27519" lon="-2.31813">
        <ele>2</ele>
        <time>2022-02-27T11:02:24.000Z</time>
      </trkpt>
      <trkpt lat="47.27516" lon="-2.31822">
        <ele>1.6000000238419</ele>
        <time>2022-02-27T11:02:25.000Z</time>
      </trkpt>
      <trkpt lat="47.27513" lon="-2.31831">
        <ele>1.2000000476837</ele>
        <time>2022-02-27T11:02:26.000Z</time>
      </trkpt>
      <trkpt lat="47.2751" lon="-2.31841">
        <ele>0.20000000298023</ele>
        <time>2022-02-27T11:02:27.000Z</time>
      </trkpt>
      <trkpt lat="47.27507" lon="-2.31852">
        <ele>0.20000000298023</ele>
        <time>2022-02-27T11:02:28.000Z</time>
      </trkpt>
      <trkpt lat="47.27484" lon="-2.31913">
        <ele>0.20000000298023</ele>
        <time>2022-02-27T11:02:34.000Z</time>
      </trkpt>
      <trkpt lat="47.27452" lon="-2.31986">
        <ele>0.20000000298023</ele>
        <time>2022-02-27T11:02:41.000Z</time>
      </trkpt>
      <trkpt lat="47.27444" lon="-2.32004">
        <ele>-0.20000000298023</ele>
        <time>2022-02-27T11:02:43.000Z</time>
      </trkpt>
      <trkpt lat="47.2744" lon="-2.32013">
        <ele>-0.60000002384186</ele>
        <time>2022-02-27T11:02:44.000Z</time>
      </trkpt>
      <trkpt lat="47.27437" lon="-2.32022">
        <ele>-1</ele>
        <time>2022-02-27T11:02:45.000Z</time>
      </trkpt>
      <trkpt lat="47.27433" lon="-2.3203">
        <ele>-1.3999999761581</ele>
        <time>2022-02-27T11:02:46.000Z</time>
      </trkpt>
      <trkpt lat="47.27429" lon="-2.32038">
        <ele>-1.7999999523163</ele>
        <time>2022-02-27T11:02:47.000Z</time>
      </trkpt>
      <trkpt lat="47.27419" lon="-2.32044">
        <ele>-1.7999999523163</ele>
        <time>2022-02-27T11:02:49.000Z</time>
      </trkpt>
      <trkpt lat="47.27402" lon="-2.32037">
        <ele>-1.7999999523163</ele>
        <time>2022-02-27T11:02:52.000Z</time>
      </trkpt>
      <trkpt lat="47.27393" lon="-2.32029">
        <ele>-1.7999999523163</ele>
        <time>2022-02-27T11:02:54.000Z</time>
      </trkpt>
      <trkpt lat="47.27384" lon="-2.32019">
        <ele>-1.7999999523163</ele>
        <time>2022-02-27T11:02:56.000Z</time>
      </trkpt>
      <trkpt lat="47.27377" lon="-2.32009">
        <ele>-1.7999999523163</ele>
        <time>2022-02-27T11:02:58.000Z</time>
      </trkpt>
      <trkpt lat="47.27373" lon="-2.32005">
        <ele>-1.7999999523163</ele>
        <time>2022-02-27T11:02:59.000Z</time>
      </trkpt>
      <trkpt lat="47.27352" lon="-2.31985">
        <ele>-1.7999999523163</ele>
        <time>2022-02-27T11:03:05.000Z</time>
      </trkpt>
      <trkpt lat="47.27349" lon="-2.31986">
        <ele>-1.7999999523163</ele>
        <time>2022-02-27T11:03:06.000Z</time>
      </trkpt>
      <trkpt lat="47.27348" lon="-2.31991">
        <ele>-1.7999999523163</ele>
        <time>2022-02-27T11:03:08.000Z</time>
      </trkpt>
      <trkpt lat="47.27353" lon="-2.32006">
        <ele>-1.7999999523163</ele>
        <time>2022-02-27T11:03:12.000Z</time>
      </trkpt>
      <trkpt lat="47.27354" lon="-2.3201">
        <ele>-1.7999999523163</ele>
        <time>2022-02-27T11:03:13.000Z</time>
      </trkpt>
      <trkpt lat="47.2736" lon="-2.32019">
        <ele>-1.7999999523163</ele>
        <time>2022-02-27T11:03:15.000Z</time>
      </trkpt>
      <trkpt lat="47.27367" lon="-2.32027">
        <ele>-1.7999999523163</ele>
        <time>2022-02-27T11:03:17.000Z</time>
      </trkpt>
      <trkpt lat="47.27391" lon="-2.32057">
        <ele>-1.7999999523163</ele>
        <time>2022-02-27T11:03:23.000Z</time>
      </trkpt>
      <trkpt lat="47.2741" lon="-2.32088">
        <ele>-1.7999999523163</ele>
        <time>2022-02-27T11:03:28.000Z</time>
      </trkpt>
      <trkpt lat="47.27412" lon="-2.3211">
        <ele>-1.7999999523163</ele>
        <time>2022-02-27T11:03:31.000Z</time>
      </trkpt>
      <trkpt lat="47.2741" lon="-2.32126">
        <ele>-1.7999999523163</ele>
        <time>2022-02-27T11:03:33.000Z</time>
      </trkpt>
      <trkpt lat="47.27405" lon="-2.32151">
        <ele>-1.7999999523163</ele>
        <time>2022-02-27T11:03:36.000Z</time>
      </trkpt>
      <trkpt lat="47.27392" lon="-2.32231">
        <ele>-1.7999999523163</ele>
        <time>2022-02-27T11:03:45.000Z</time>
      </trkpt>
      <trkpt lat="47.27385" lon="-2.32257">
        <ele>-1.7999999523163</ele>
        <time>2022-02-27T11:03:48.000Z</time>
      </trkpt>
      <trkpt lat="47.2738" lon="-2.32274">
        <ele>-1.7999999523163</ele>
        <time>2022-02-27T11:03:50.000Z</time>
      </trkpt>
      <trkpt lat="47.27373" lon="-2.32306">
        <ele>-1.3999999761581</ele>
        <time>2022-02-27T11:03:54.000Z</time>
      </trkpt>
      <trkpt lat="47.27371" lon="-2.32315">
        <ele>-0.80000001192093</ele>
        <time>2022-02-27T11:03:55.000Z</time>
      </trkpt>
      <trkpt lat="47.27369" lon="-2.32323">
        <ele>-0.40000000596046</ele>
        <time>2022-02-27T11:03:56.000Z</time>
      </trkpt>
      <trkpt lat="47.27367" lon="-2.32332">
        <ele>7.8</ele>
        <time>2022-02-27T11:03:57.000Z</time>
      </trkpt>
      <trkpt lat="47.27366" lon="-2.32341">
        <ele>0.40000000596046</ele>
        <time>2022-02-27T11:03:58.000Z</time>
      </trkpt>
      <trkpt lat="47.27358" lon="-2.32382">
        <ele>0.40000000596046</ele>
        <time>2022-02-27T11:04:02.000Z</time>
      </trkpt>
      <trkpt lat="47.27343" lon="-2.32436">
        <ele>0.40000000596046</ele>
        <time>2022-02-27T11:04:07.000Z</time>
      </trkpt>
      <trkpt lat="47.27339" lon="-2.32445">
        <ele>5.5</ele>
        <time>2022-02-27T11:04:08.000Z</time>
      </trkpt>
      <trkpt lat="47.27336" lon="-2.32454">
        <ele>-0.40000000596046</ele>
        <time>2022-02-27T11:04:09.000Z</time>
      </trkpt>
      <trkpt lat="47.27332" lon="-2.32462">
        <ele>-0.80000001192093</ele>
        <time>2022-02-27T11:04:10.000Z</time>
      </trkpt>
      <trkpt lat="47.27327" lon="-2.3247">
        <ele>-1.2000000476837</ele>
        <time>2022-02-27T11:04:11.000Z</time>
      </trkpt>
      <trkpt lat="47.27323" lon="-2.32478">
        <ele>-1.6000000238419</ele>
        <time>2022-02-27T11:04:12.000Z</time>
      </trkpt>
      <trkpt lat="47.27298" lon="-2.3252">
        <ele>-1.6000000238419</ele>
        <time>2022-02-27T11:04:18.000Z</time>
      </trkpt>
      <trkpt lat="47.27264" lon="-2.32565">
        <ele>-1.6000000238419</ele>
        <time>2022-02-27T11:04:25.000Z</time>
      </trkpt>
      <trkpt lat="47.27227" lon="-2.32604">
        <ele>-1.6000000238419</ele>
        <time>2022-02-27T11:04:32.000Z</time>
      </trkpt>
      <trkpt lat="47.27199" lon="-2.3263">
        <ele>-1.2000000476837</ele>
        <time>2022-02-27T11:04:37.000Z</time>
      </trkpt>
      <trkpt lat="47.27193" lon="-2.32635">
        <ele>-0.80000001192093</ele>
        <time>2022-02-27T11:04:38.000Z</time>
      </trkpt>
      <trkpt lat="47.27188" lon="-2.3264">
        <ele>-0.40000000596046</ele>
        <time>2022-02-27T11:04:39.000Z</time>
      </trkpt>
      <trkpt lat="47.27183" lon="-2.32645">
        <ele>7.7</ele>
        <time>2022-02-27T11:04:40.000Z</time>
      </trkpt>
      <trkpt lat="47.27177" lon="-2.3265">
        <ele>0.40000000596046</ele>
        <time>2022-02-27T11:04:41.000Z</time>
      </trkpt>
      <trkpt lat="47.27146" lon="-2.3268">
        <ele>0.40000000596046</ele>
        <time>2022-02-27T11:04:47.000Z</time>
      </trkpt>
      <trkpt lat="47.27134" lon="-2.32693">
        <ele>0.40000000596046</ele>
        <time>2022-02-27T11:04:50.000Z</time>
      </trkpt>
      <trkpt lat="47.2713" lon="-2.32704">
        <ele>0.40000000596046</ele>
        <time>2022-02-27T11:04:52.000Z</time>
      </trkpt>
      <trkpt lat="47.27118" lon="-2.32712">
        <ele>0.40000000596046</ele>
        <time>2022-02-27T11:04:55.000Z</time>
      </trkpt>
      <trkpt lat="47.27089" lon="-2.32739">
        <ele>0.40000000596046</ele>
        <time>2022-02-27T11:05:01.000Z</time>
      </trkpt>
      <trkpt lat="47.27051" lon="-2.32774">
        <ele>0.40000000596046</ele>
        <time>2022-02-27T11:05:08.000Z</time>
      </trkpt>
      <trkpt lat="47.27034" lon="-2.32789">
        <ele>4.7</ele>
        <time>2022-02-27T11:05:11.000Z</time>
      </trkpt>
      <trkpt lat="47.27028" lon="-2.32794">
        <ele>-0.40000000596046</ele>
        <time>2022-02-27T11:05:12.000Z</time>
      </trkpt>
      <trkpt lat="47.27023" lon="-2.328">
        <ele>-0.80000001192093</ele>
        <time>2022-02-27T11:05:13.000Z</time>
      </trkpt>
      <trkpt lat="47.27017" lon="-2.32805">
        <ele>-1.2000000476837</ele>
        <time>2022-02-27T11:05:14.000Z</time>
      </trkpt>
      <trkpt lat="47.27011" lon="-2.32811">
        <ele>-1.6000000238419</ele>
        <time>2022-02-27T11:05:15.000Z</time>
      </trkpt>
      <trkpt lat="47.27005" lon="-2.32816">
        <ele>-1.6000000238419</ele>
        <time>2022-02-27T11:05:16.000Z</time>
      </trkpt>
      <trkpt lat="47.26955" lon="-2.32863">
        <ele>-1.6000000238419</ele>
        <time>2022-02-27T11:05:26.000Z</time>
      </trkpt>
      <trkpt lat="47.26907" lon="-2.32906">
        <ele>-1.6000000238419</ele>
        <time>2022-02-27T11:05:35.000Z</time>
      </trkpt>
      <trkpt lat="47.26869" lon="-2.32942">
        <ele>-1.6000000238419</ele>
        <time>2022-02-27T11:05:42.000Z</time>
      </trkpt>
      <trkpt lat="47.2683" lon="-2.32981">
        <ele>-1.6000000238419</ele>
        <time>2022-02-27T11:05:50.000Z</time>
      </trkpt>
      <trkpt lat="47.2682" lon="-2.32991">
        <ele>-2</ele>
        <time>2022-02-27T11:05:52.000Z</time>
      </trkpt>
      <trkpt lat="47.26814" lon="-2.32996">
        <ele>-2.4000000953674</ele>
        <time>2022-02-27T11:05:53.000Z</time>
      </trkpt>
      <trkpt lat="47.26809" lon="-2.33001">
        <ele>-2.7999999523163</ele>
        <time>2022-02-27T11:05:54.000Z</time>
      </trkpt>
      <trkpt lat="47.26804" lon="-2.33006">
        <ele>-3.2000000476837</ele>
        <time>2022-02-27T11:05:55.000Z</time>
      </trkpt>
      <trkpt lat="47.26799" lon="-2.33011">
        <ele>-3.5999999046326</ele>
        <time>2022-02-27T11:05:56.000Z</time>
      </trkpt>
      <trkpt lat="47.26794" lon="-2.33015">
        <ele>-3.5999999046326</ele>
        <time>2022-02-27T11:05:57.000Z</time>
      </trkpt>
      <trkpt lat="47.26755" lon="-2.33053">
        <ele>-3.5999999046326</ele>
        <time>2022-02-27T11:06:05.000Z</time>
      </trkpt>
      <trkpt lat="47.26743" lon="-2.33063">
        <ele>-3.5999999046326</ele>
        <time>2022-02-27T11:06:09.000Z</time>
      </trkpt>
      <trkpt lat="47.26741" lon="-2.33063">
        <ele>-3.5999999046326</ele>
        <time>2022-02-27T11:06:11.000Z</time>
      </trkpt>
      <trkpt lat="47.26736" lon="-2.33061">
        <ele>-5.5999999046326</ele>
        <time>2022-02-27T11:06:28.000Z</time>
      </trkpt>
      <trkpt lat="47.26727" lon="-2.33067">
        <ele>-5.5999999046326</ele>
        <time>2022-02-27T11:06:32.000Z</time>
      </trkpt>
      <trkpt lat="47.26719" lon="-2.33072">
        <ele>-5.5999999046326</ele>
        <time>2022-02-27T11:06:38.000Z</time>
      </trkpt>
      <trkpt lat="47.26715" lon="-2.33074">
        <ele>-5.5999999046326</ele>
        <time>2022-02-27T11:06:43.000Z</time>
      </trkpt>
      <trkpt lat="47.26713" lon="-2.33076">
        <ele>-5.5999999046326</ele>
        <time>2022-02-27T11:08:06.000Z</time>
      </trkpt>
      <trkpt lat="47.26703" lon="-2.3309">
        <ele>-5.5999999046326</ele>
        <time>2022-02-27T11:08:12.000Z</time>
      </trkpt>
      <trkpt lat="47.26685" lon="-2.3311">
        <ele>-5.5999999046326</ele>
        <time>2022-02-27T11:08:18.000Z</time>
      </trkpt>
      <trkpt lat="47.26667" lon="-2.33125">
        <ele>-5.5999999046326</ele>
        <time>2022-02-27T11:08:23.000Z</time>
      </trkpt>
      <trkpt lat="47.2666" lon="-2.33131">
        <ele>-5.5999999046326</ele>
        <time>2022-02-27T11:08:25.000Z</time>
      </trkpt>
      <trkpt lat="47.26656" lon="-2.33135">
        <ele>-5.5999999046326</ele>
        <time>2022-02-27T11:08:26.000Z</time>
      </trkpt>
      <trkpt lat="47.26641" lon="-2.33145">
        <ele>-5.5999999046326</ele>
        <time>2022-02-27T11:08:30.000Z</time>
      </trkpt>
      <trkpt lat="47.26633" lon="-2.3315">
        <ele>-5.5999999046326</ele>
        <time>2022-02-27T11:08:32.000Z</time>
      </trkpt>
      <trkpt lat="47.26621" lon="-2.3315">
        <ele>-5.5999999046326</ele>
        <time>2022-02-27T11:08:35.000Z</time>
      </trkpt>
      <trkpt lat="47.26616" lon="-2.33149">
        <ele>-5.5999999046326</ele>
        <time>2022-02-27T11:08:36.000Z</time>
      </trkpt>
      <trkpt lat="47.26612" lon="-2.3315">
        <ele>-5.5999999046326</ele>
        <time>2022-02-27T11:08:37.000Z</time>
      </trkpt>
      <trkpt lat="47.26605" lon="-2.33158">
        <ele>-5.5999999046326</ele>
        <time>2022-02-27T11:08:39.000Z</time>
      </trkpt>
      <trkpt lat="47.26599" lon="-2.33169">
        <ele>-5.5999999046326</ele>
        <time>2022-02-27T11:08:41.000Z</time>
      </trkpt>
      <trkpt lat="47.26592" lon="-2.33187">
        <ele>-5.5999999046326</ele>
        <time>2022-02-27T11:08:44.000Z</time>
      </trkpt>
      <trkpt lat="47.26578" lon="-2.3321">
        <ele>-5.5999999046326</ele>
        <time>2022-02-27T11:08:49.000Z</time>
      </trkpt>
      <trkpt lat="47.26563" lon="-2.33219">
        <ele>-5.5999999046326</ele>
        <time>2022-02-27T11:08:52.000Z</time>
      </trkpt>
      <trkpt lat="47.26554" lon="-2.33224">
        <ele>-5.5999999046326</ele>
        <time>2022-02-27T11:08:54.000Z</time>
      </trkpt>
      <trkpt lat="47.26528" lon="-2.3324">
        <ele>-5.5999999046326</ele>
        <time>2022-02-27T11:09:00.000Z</time>
      </trkpt>
      <trkpt lat="47.26498" lon="-2.33262">
        <ele>-5.5999999046326</ele>
        <time>2022-02-27T11:09:08.000Z</time>
      </trkpt>
      <trkpt lat="47.26489" lon="-2.33278">
        <ele>-5.5999999046326</ele>
        <time>2022-02-27T11:09:12.000Z</time>
      </trkpt>
      <trkpt lat="47.26483" lon="-2.33289">
        <ele>-5.5999999046326</ele>
        <time>2022-02-27T11:09:16.000Z</time>
      </trkpt>
      <trkpt lat="47.26475" lon="-2.33306">
        <ele>-5.5999999046326</ele>
        <time>2022-02-27T11:09:21.000Z</time>
      </trkpt>
      <trkpt lat="47.26465" lon="-2.33309">
        <ele>-5.5999999046326</ele>
        <time>2022-02-27T11:09:24.000Z</time>
      </trkpt>
      <trkpt lat="47.26462" lon="-2.33312">
        <ele>-5.5999999046326</ele>
        <time>2022-02-27T11:09:25.000Z</time>
      </trkpt>
      <trkpt lat="47.26438" lon="-2.33332">
        <ele>-5.5999999046326</ele>
        <time>2022-02-27T11:09:31.000Z</time>
      </trkpt>
      <trkpt lat="47.26403" lon="-2.33357">
        <ele>-5.5999999046326</ele>
        <time>2022-02-27T11:09:39.000Z</time>
      </trkpt>
      <trkpt lat="47.2637" lon="-2.33377">
        <ele>-5.5999999046326</ele>
        <time>2022-02-27T11:09:46.000Z</time>
      </trkpt>
      <trkpt lat="47.26335" lon="-2.33394">
        <ele>-5.5999999046326</ele>
        <time>2022-02-27T11:09:53.000Z</time>
      </trkpt>
      <trkpt lat="47.26315" lon="-2.33408">
        <ele>-5.5999999046326</ele>
        <time>2022-02-27T11:09:57.000Z</time>
      </trkpt>
      <trkpt lat="47.26307" lon="-2.33415">
        <ele>-5.5999999046326</ele>
        <time>2022-02-27T11:09:59.000Z</time>
      </trkpt>
      <trkpt lat="47.26302" lon="-2.33417">
        <ele>-5.5999999046326</ele>
        <time>2022-02-27T11:10:00.000Z</time>
      </trkpt>
      <trkpt lat="47.26292" lon="-2.33419">
        <ele>-5.5999999046326</ele>
        <time>2022-02-27T11:10:02.000Z</time>
      </trkpt>
      <trkpt lat="47.26251" lon="-2.33428">
        <ele>-5.5999999046326</ele>
        <time>2022-02-27T11:10:10.000Z</time>
      </trkpt>
      <trkpt lat="47.26211" lon="-2.33436">
        <ele>-5.5999999046326</ele>
        <time>2022-02-27T11:10:17.000Z</time>
      </trkpt>
      <trkpt lat="47.2618" lon="-2.3344">
        <ele>-5.5999999046326</ele>
        <time>2022-02-27T11:10:23.000Z</time>
      </trkpt>
      <trkpt lat="47.26165" lon="-2.33438">
        <ele>-5.5999999046326</ele>
        <time>2022-02-27T11:10:26.000Z</time>
      </trkpt>
      <trkpt lat="47.26152" lon="-2.33433">
        <ele>-5.5999999046326</ele>
        <time>2022-02-27T11:10:29.000Z</time>
      </trkpt>
      <trkpt lat="47.26144" lon="-2.33428">
        <ele>-5.5999999046326</ele>
        <time>2022-02-27T11:10:31.000Z</time>
      </trkpt>
      <trkpt lat="47.26137" lon="-2.33433">
        <ele>-5.5999999046326</ele>
        <time>2022-02-27T11:10:33.000Z</time>
      </trkpt>
      <trkpt lat="47.26133" lon="-2.33443">
        <ele>-5.5999999046326</ele>
        <time>2022-02-27T11:10:37.000Z</time>
      </trkpt>
      <trkpt lat="47.26125" lon="-2.33462">
        <ele>-5.5999999046326</ele>
        <time>2022-02-27T11:10:41.000Z</time>
      </trkpt>
      <trkpt lat="47.26114" lon="-2.33488">
        <ele>-5.5999999046326</ele>
        <time>2022-02-27T11:10:45.000Z</time>
      </trkpt>
      <trkpt lat="47.26109" lon="-2.33489">
        <ele>-5.5999999046326</ele>
        <time>2022-02-27T11:10:46.000Z</time>
      </trkpt>
      <trkpt lat="47.26094" lon="-2.33485">
        <ele>-5.5999999046326</ele>
        <time>2022-02-27T11:10:49.000Z</time>
      </trkpt>
      <trkpt lat="47.26078" lon="-2.33478">
        <ele>-5.5999999046326</ele>
        <time>2022-02-27T11:10:53.000Z</time>
      </trkpt>
      <trkpt lat="47.26064" lon="-2.33479">
        <ele>-5.5999999046326</ele>
        <time>2022-02-27T11:10:56.000Z</time>
      </trkpt>
      <trkpt lat="47.26051" lon="-2.33476">
        <ele>-5.5999999046326</ele>
        <time>2022-02-27T11:10:59.000Z</time>
      </trkpt>
      <trkpt lat="47.2604" lon="-2.33468">
        <ele>-5.5999999046326</ele>
        <time>2022-02-27T11:11:02.000Z</time>
      </trkpt>
      <trkpt lat="47.26028" lon="-2.33479">
        <ele>-5.5999999046326</ele>
        <time>2022-02-27T11:11:05.000Z</time>
      </trkpt>
      <trkpt lat="47.26011" lon="-2.33484">
        <ele>-5.5999999046326</ele>
        <time>2022-02-27T11:11:08.000Z</time>
      </trkpt>
      <trkpt lat="47.26006" lon="-2.33486">
        <ele>-5.5999999046326</ele>
        <time>2022-02-27T11:11:09.000Z</time>
      </trkpt>
      <trkpt lat="47.25985" lon="-2.33494">
        <ele>-5.5999999046326</ele>
        <time>2022-02-27T11:11:13.000Z</time>
      </trkpt>
      <trkpt lat="47.25982" lon="-2.33499">
        <ele>-5.5999999046326</ele>
        <time>2022-02-27T11:11:14.000Z</time>
      </trkpt>
      <trkpt lat="47.25968" lon="-2.33503">
        <ele>-5.5999999046326</ele>
        <time>2022-02-27T11:11:17.000Z</time>
      </trkpt>
      <trkpt lat="47.25962" lon="-2.33502">
        <ele>-5.5999999046326</ele>
        <time>2022-02-27T11:11:19.000Z</time>
      </trkpt>
      <trkpt lat="47.25958" lon="-2.33502">
        <ele>-5.5999999046326</ele>
        <time>2022-02-27T11:11:21.000Z</time>
      </trkpt>
      <trkpt lat="47.25956" lon="-2.33503">
        <ele>-5.5999999046326</ele>
        <time>2022-02-27T11:11:22.000Z</time>
      </trkpt>
      <trkpt lat="47.25947" lon="-2.33512">
        <ele>-5.5999999046326</ele>
        <time>2022-02-27T11:11:25.000Z</time>
      </trkpt>
      <trkpt lat="47.25921" lon="-2.33533">
        <ele>-5.5999999046326</ele>
        <time>2022-02-27T11:11:32.000Z</time>
      </trkpt>
      <trkpt lat="47.25885" lon="-2.33565">
        <ele>-5.5999999046326</ele>
        <time>2022-02-27T11:11:41.000Z</time>
      </trkpt>
      <trkpt lat="47.25877" lon="-2.33572">
        <ele>-5.5999999046326</ele>
        <time>2022-02-27T11:11:43.000Z</time>
      </trkpt>
      <trkpt lat="47.25863" lon="-2.33574">
        <ele>-5.5999999046326</ele>
        <time>2022-02-27T11:11:46.000Z</time>
      </trkpt>
      <trkpt lat="47.25858" lon="-2.33574">
        <ele>-5.5999999046326</ele>
        <time>2022-02-27T11:11:47.000Z</time>
      </trkpt>
      <trkpt lat="47.25827" lon="-2.33576">
        <ele>-5.1999998092651</ele>
        <time>2022-02-27T11:11:53.000Z</time>
      </trkpt>
      <trkpt lat="47.25823" lon="-2.33576">
        <ele>-4.8000001907349</ele>
        <time>2022-02-27T11:11:54.000Z</time>
      </trkpt>
      <trkpt lat="47.25818" lon="-2.33577">
        <ele>-4.4000000953674</ele>
        <time>2022-02-27T11:11:55.000Z</time>
      </trkpt>
      <trkpt lat="47.25813" lon="-2.33577">
        <ele>-3.5999999046326</ele>
        <time>2022-02-27T11:11:56.000Z</time>
      </trkpt>
      <trkpt lat="47.25793" lon="-2.33578">
        <ele>-3.5999999046326</ele>
        <time>2022-02-27T11:12:00.000Z</time>
      </trkpt>
      <trkpt lat="47.25756" lon="-2.3358">
        <ele>-3.5999999046326</ele>
        <time>2022-02-27T11:12:07.000Z</time>
      </trkpt>
      <trkpt lat="47.25726" lon="-2.33583">
        <ele>-3.5999999046326</ele>
        <time>2022-02-27T11:12:13.000Z</time>
      </trkpt>
      <trkpt lat="47.25685" lon="-2.33583">
        <ele>-3.5999999046326</ele>
        <time>2022-02-27T11:12:20.000Z</time>
      </trkpt>
      <trkpt lat="47.2565" lon="-2.33571">
        <ele>-3.5999999046326</ele>
        <time>2022-02-27T11:12:26.000Z</time>
      </trkpt>
      <trkpt lat="47.25612" lon="-2.33546">
        <ele>-3.5999999046326</ele>
        <time>2022-02-27T11:12:33.000Z</time>
      </trkpt>
      <trkpt lat="47.25583" lon="-2.33517">
        <ele>-3.5999999046326</ele>
        <time>2022-02-27T11:12:39.000Z</time>
      </trkpt>
      <trkpt lat="47.25579" lon="-2.33512">
        <ele>-3.5999999046326</ele>
        <time>2022-02-27T11:12:40.000Z</time>
      </trkpt>
      <trkpt lat="47.25561" lon="-2.33482">
        <ele>-3.5999999046326</ele>
        <time>2022-02-27T11:12:45.000Z</time>
      </trkpt>
      <trkpt lat="47.25549" lon="-2.33454">
        <ele>-3.2000000476837</ele>
        <time>2022-02-27T11:12:49.000Z</time>
      </trkpt>
      <trkpt lat="47.25546" lon="-2.33446">
        <ele>-2.5999999046326</ele>
        <time>2022-02-27T11:12:50.000Z</time>
      </trkpt>
      <trkpt lat="47.25544" lon="-2.33439">
        <ele>-2.2000000476837</ele>
        <time>2022-02-27T11:12:51.000Z</time>
      </trkpt>
      <trkpt lat="47.25542" lon="-2.33431">
        <ele>-1.7999999523163</ele>
        <time>2022-02-27T11:12:52.000Z</time>
      </trkpt>
      <trkpt lat="47.25539" lon="-2.33423">
        <ele>-1.3999999761581</ele>
        <time>2022-02-27T11:12:53.000Z</time>
      </trkpt>
      <trkpt lat="47.2553" lon="-2.3338">
        <ele>-1.3999999761581</ele>
        <time>2022-02-27T11:12:58.000Z</time>
      </trkpt>
      <trkpt lat="47.25521" lon="-2.33319">
        <ele>-1.3999999761581</ele>
        <time>2022-02-27T11:13:05.000Z</time>
      </trkpt>
      <trkpt lat="47.25515" lon="-2.33268">
        <ele>-1.3999999761581</ele>
        <time>2022-02-27T11:13:11.000Z</time>
      </trkpt>
      <trkpt lat="47.25508" lon="-2.33209">
        <ele>-1.3999999761581</ele>
        <time>2022-02-27T11:13:18.000Z</time>
      </trkpt>
      <trkpt lat="47.25497" lon="-2.33127">
        <ele>-1.3999999761581</ele>
        <time>2022-02-27T11:13:28.000Z</time>
      </trkpt>
      <trkpt lat="47.25492" lon="-2.33096">
        <ele>-1.3999999761581</ele>
        <time>2022-02-27T11:13:33.000Z</time>
      </trkpt>
      <trkpt lat="47.25488" lon="-2.33093">
        <ele>-1.3999999761581</ele>
        <time>2022-02-27T11:13:34.000Z</time>
      </trkpt>
      <trkpt lat="47.25479" lon="-2.33095">
        <ele>-1.3999999761581</ele>
        <time>2022-02-27T11:13:36.000Z</time>
      </trkpt>
      <trkpt lat="47.25469" lon="-2.331">
        <ele>-1.3999999761581</ele>
        <time>2022-02-27T11:13:38.000Z</time>
      </trkpt>
      <trkpt lat="47.25454" lon="-2.33107">
        <ele>-1.3999999761581</ele>
        <time>2022-02-27T11:13:41.000Z</time>
      </trkpt>
      <trkpt lat="47.25417" lon="-2.33123">
        <ele>-1.3999999761581</ele>
        <time>2022-02-27T11:13:48.000Z</time>
      </trkpt>
      <trkpt lat="47.25402" lon="-2.33129">
        <ele>-1.3999999761581</ele>
        <time>2022-02-27T11:13:51.000Z</time>
      </trkpt>
      <trkpt lat="47.25389" lon="-2.33137">
        <ele>-1.3999999761581</ele>
        <time>2022-02-27T11:13:54.000Z</time>
      </trkpt>
      <trkpt lat="47.25385" lon="-2.33136">
        <ele>-1.3999999761581</ele>
        <time>2022-02-27T11:13:55.000Z</time>
      </trkpt>
      <trkpt lat="47.25379" lon="-2.33128">
        <ele>-1.3999999761581</ele>
        <time>2022-02-27T11:13:57.000Z</time>
      </trkpt>
      <trkpt lat="47.25372" lon="-2.33112">
        <ele>-1.3999999761581</ele>
        <time>2022-02-27T11:14:01.000Z</time>
      </trkpt>
      <trkpt lat="47.25371" lon="-2.33109">
        <ele>-1.3999999761581</ele>
        <time>2022-02-27T11:14:02.000Z</time>
      </trkpt>
      <trkpt lat="47.25366" lon="-2.33098">
        <ele>-1.3999999761581</ele>
        <time>2022-02-27T11:14:08.000Z</time>
      </trkpt>
      <trkpt lat="47.25365" lon="-2.33097">
        <ele>-1.3999999761581</ele>
        <time>2022-02-27T11:14:09.000Z</time>
      </trkpt>
      <trkpt lat="47.25364" lon="-2.33096">
        <ele>-1.3999999761581</ele>
        <time>2022-02-27T11:14:11.000Z</time>
      </trkpt>
      <trkpt lat="47.25366" lon="-2.33083">
        <ele>-3.4000000953674</ele>
        <time>2022-02-27T11:39:57.000Z</time>
      </trkpt>
      <trkpt lat="47.25364" lon="-2.3308">
        <ele>-3.4000000953674</ele>
        <time>2022-02-27T11:39:58.000Z</time>
      </trkpt>
      <trkpt lat="47.25357" lon="-2.33068">
        <ele>-3.4000000953674</ele>
        <time>2022-02-27T11:40:02.000Z</time>
      </trkpt>
      <trkpt lat="47.25344" lon="-2.33032">
        <ele>-3.4000000953674</ele>
        <time>2022-02-27T11:40:09.000Z</time>
      </trkpt>
      <trkpt lat="47.25327" lon="-2.32988">
        <ele>-3.4000000953674</ele>
        <time>2022-02-27T11:40:17.000Z</time>
      </trkpt>
      <trkpt lat="47.25313" lon="-2.32952">
        <ele>-3.4000000953674</ele>
        <time>2022-02-27T11:40:24.000Z</time>
      </trkpt>
      <trkpt lat="47.25309" lon="-2.32927">
        <ele>-3.4000000953674</ele>
        <time>2022-02-27T11:40:29.000Z</time>
      </trkpt>
      <trkpt lat="47.25316" lon="-2.32914">
        <ele>-3</ele>
        <time>2022-02-27T11:40:32.000Z</time>
      </trkpt>
      <trkpt lat="47.2532" lon="-2.3291">
        <ele>-2.5999999046326</ele>
        <time>2022-02-27T11:40:33.000Z</time>
      </trkpt>
      <trkpt lat="47.25324" lon="-2.32906">
        <ele>-2.2000000476837</ele>
        <time>2022-02-27T11:40:34.000Z</time>
      </trkpt>
      <trkpt lat="47.25328" lon="-2.32902">
        <ele>-1.7999999523163</ele>
        <time>2022-02-27T11:40:35.000Z</time>
      </trkpt>
      <trkpt lat="47.25332" lon="-2.32898">
        <ele>-1.3999999761581</ele>
        <time>2022-02-27T11:40:36.000Z</time>
      </trkpt>
      <trkpt lat="47.25349" lon="-2.32882">
        <ele>-1.3999999761581</ele>
        <time>2022-02-27T11:40:40.000Z</time>
      </trkpt>
      <trkpt lat="47.25377" lon="-2.32851">
        <ele>-1.3999999761581</ele>
        <time>2022-02-27T11:40:47.000Z</time>
      </trkpt>
      <trkpt lat="47.25403" lon="-2.32816">
        <ele>-1.3999999761581</ele>
        <time>2022-02-27T11:40:54.000Z</time>
      </trkpt>
      <trkpt lat="47.25419" lon="-2.32792">
        <ele>-1.3999999761581</ele>
        <time>2022-02-27T11:40:59.000Z</time>
      </trkpt>
      <trkpt lat="47.25424" lon="-2.32779">
        <ele>-1.3999999761581</ele>
        <time>2022-02-27T11:41:02.000Z</time>
      </trkpt>
      <trkpt lat="47.25425" lon="-2.32774">
        <ele>-1.3999999761581</ele>
        <time>2022-02-27T11:41:03.000Z</time>
      </trkpt>
      <trkpt lat="47.25433" lon="-2.32763">
        <ele>-1.3999999761581</ele>
        <time>2022-02-27T11:41:06.000Z</time>
      </trkpt>
      <trkpt lat="47.25444" lon="-2.32749">
        <ele>-1.3999999761581</ele>
        <time>2022-02-27T11:41:09.000Z</time>
      </trkpt>
      <trkpt lat="47.25448" lon="-2.32744">
        <ele>-1.3999999761581</ele>
        <time>2022-02-27T11:41:10.000Z</time>
      </trkpt>
      <trkpt lat="47.25463" lon="-2.32721">
        <ele>-1.3999999761581</ele>
        <time>2022-02-27T11:41:15.000Z</time>
      </trkpt>
      <trkpt lat="47.25481" lon="-2.32691">
        <ele>-1.3999999761581</ele>
        <time>2022-02-27T11:41:21.000Z</time>
      </trkpt>
      <trkpt lat="47.25483" lon="-2.32685">
        <ele>-1.3999999761581</ele>
        <time>2022-02-27T11:41:22.000Z</time>
      </trkpt>
      <trkpt lat="47.25485" lon="-2.32665">
        <ele>-1.3999999761581</ele>
        <time>2022-02-27T11:41:25.000Z</time>
      </trkpt>
      <trkpt lat="47.25485" lon="-2.32658">
        <ele>-1</ele>
        <time>2022-02-27T11:41:26.000Z</time>
      </trkpt>
      <trkpt lat="47.25484" lon="-2.32652">
        <ele>-0.60000002384186</ele>
        <time>2022-02-27T11:41:27.000Z</time>
      </trkpt>
      <trkpt lat="47.25484" lon="-2.32645">
        <ele>-0.20000000298023</ele>
        <time>2022-02-27T11:41:28.000Z</time>
      </trkpt>
      <trkpt lat="47.25483" lon="-2.32638">
        <ele>0.20000000298023</ele>
        <time>2022-02-27T11:41:29.000Z</time>
      </trkpt>
      <trkpt lat="47.25482" lon="-2.32632">
        <ele>0.60000002384186</ele>
        <time>2022-02-27T11:41:30.000Z</time>
      </trkpt>
      <trkpt lat="47.25478" lon="-2.326">
        <ele>0.60000002384186</ele>
        <time>2022-02-27T11:41:35.000Z</time>
      </trkpt>
      <trkpt lat="47.25478" lon="-2.32582">
        <ele>0.60000002384186</ele>
        <time>2022-02-27T11:41:38.000Z</time>
      </trkpt>
      <trkpt lat="47.25484" lon="-2.32565">
        <ele>0.60000002384186</ele>
        <time>2022-02-27T11:41:41.000Z</time>
      </trkpt>
      <trkpt lat="47.255" lon="-2.3254">
        <ele>0.60000002384186</ele>
        <time>2022-02-27T11:41:46.000Z</time>
      </trkpt>
      <trkpt lat="47.25528" lon="-2.32514">
        <ele>0.60000002384186</ele>
        <time>2022-02-27T11:41:52.000Z</time>
      </trkpt>
      <trkpt lat="47.25555" lon="-2.32488">
        <ele>0.20000000298023</ele>
        <time>2022-02-27T11:41:57.000Z</time>
      </trkpt>
      <trkpt lat="47.25561" lon="-2.32483">
        <ele>-0.60000002384186</ele>
        <time>2022-02-27T11:41:58.000Z</time>
      </trkpt>
      <trkpt lat="47.25567" lon="-2.32477">
        <ele>-1</ele>
        <time>2022-02-27T11:41:59.000Z</time>
      </trkpt>
      <trkpt lat="47.25573" lon="-2.32471">
        <ele>-1.6000000238419</ele>
        <time>2022-02-27T11:42:00.000Z</time>
      </trkpt>
      <trkpt lat="47.25596" lon="-2.32447">
        <ele>-2</ele>
        <time>2022-02-27T11:42:04.000Z</time>
      </trkpt>
      <trkpt lat="47.25602" lon="-2.3244">
        <ele>-2.4000000953674</ele>
        <time>2022-02-27T11:42:05.000Z</time>
      </trkpt>
      <trkpt lat="47.25608" lon="-2.32434">
        <ele>-2.7999999523163</ele>
        <time>2022-02-27T11:42:06.000Z</time>
      </trkpt>
      <trkpt lat="47.25614" lon="-2.32427">
        <ele>-3.2000000476837</ele>
        <time>2022-02-27T11:42:07.000Z</time>
      </trkpt>
      <trkpt lat="47.2562" lon="-2.3242">
        <ele>-3.5999999046326</ele>
        <time>2022-02-27T11:42:08.000Z</time>
      </trkpt>
      <trkpt lat="47.25632" lon="-2.32407">
        <ele>-4</ele>
        <time>2022-02-27T11:42:10.000Z</time>
      </trkpt>
      <trkpt lat="47.25639" lon="-2.32402">
        <ele>-4.4000000953674</ele>
        <time>2022-02-27T11:42:11.000Z</time>
      </trkpt>
      <trkpt lat="47.25644" lon="-2.32398">
        <ele>-4.8000001907349</ele>
        <time>2022-02-27T11:42:12.000Z</time>
      </trkpt>
      <trkpt lat="47.2565" lon="-2.32397">
        <ele>-5.4000000953674</ele>
        <time>2022-02-27T11:42:13.000Z</time>
      </trkpt>
      <trkpt lat="47.25656" lon="-2.32397">
        <ele>-5.8000001907349</ele>
        <time>2022-02-27T11:42:14.000Z</time>
      </trkpt>
      <trkpt lat="47.25662" lon="-2.32398">
        <ele>-5.8000001907349</ele>
        <time>2022-02-27T11:42:15.000Z</time>
      </trkpt>
      <trkpt lat="47.25675" lon="-2.32413">
        <ele>-5.8000001907349</ele>
        <time>2022-02-27T11:42:18.000Z</time>
      </trkpt>
      <trkpt lat="47.25691" lon="-2.32419">
        <ele>-5.8000001907349</ele>
        <time>2022-02-27T11:42:21.000Z</time>
      </trkpt>
      <trkpt lat="47.25704" lon="-2.32419">
        <ele>-5.8000001907349</ele>
        <time>2022-02-27T11:42:23.000Z</time>
      </trkpt>
      <trkpt lat="47.25716" lon="-2.3242">
        <ele>-5.8000001907349</ele>
        <time>2022-02-27T11:42:25.000Z</time>
      </trkpt>
      <trkpt lat="47.25754" lon="-2.32421">
        <ele>-5.8000001907349</ele>
        <time>2022-02-27T11:42:31.000Z</time>
      </trkpt>
      <trkpt lat="47.25773" lon="-2.32412">
        <ele>-5.8000001907349</ele>
        <time>2022-02-27T11:42:35.000Z</time>
      </trkpt>
      <trkpt lat="47.25786" lon="-2.32421">
        <ele>-5.8000001907349</ele>
        <time>2022-02-27T11:42:38.000Z</time>
      </trkpt>
      <trkpt lat="47.25801" lon="-2.32447">
        <ele>-5.8000001907349</ele>
        <time>2022-02-27T11:42:42.000Z</time>
      </trkpt>
      <trkpt lat="47.25824" lon="-2.32464">
        <ele>-5.8000001907349</ele>
        <time>2022-02-27T11:42:46.000Z</time>
      </trkpt>
      <trkpt lat="47.25859" lon="-2.32476">
        <ele>-5.8000001907349</ele>
        <time>2022-02-27T11:42:52.000Z</time>
      </trkpt>
      <trkpt lat="47.25864" lon="-2.32475">
        <ele>-5.8000001907349</ele>
        <time>2022-02-27T11:42:53.000Z</time>
      </trkpt>
      <trkpt lat="47.25887" lon="-2.32469">
        <ele>-5.8000001907349</ele>
        <time>2022-02-27T11:42:57.000Z</time>
      </trkpt>
      <trkpt lat="47.25893" lon="-2.32465">
        <ele>-5.8000001907349</ele>
        <time>2022-02-27T11:42:58.000Z</time>
      </trkpt>
      <trkpt lat="47.25907" lon="-2.32448">
        <ele>-5.8000001907349</ele>
        <time>2022-02-27T11:43:01.000Z</time>
      </trkpt>
      <trkpt lat="47.25925" lon="-2.32425">
        <ele>-5.8000001907349</ele>
        <time>2022-02-27T11:43:05.000Z</time>
      </trkpt>
      <trkpt lat="47.2593" lon="-2.32419">
        <ele>-6.1999998092651</ele>
        <time>2022-02-27T11:43:06.000Z</time>
      </trkpt>
      <trkpt lat="47.25935" lon="-2.32412">
        <ele>-6.5999999046326</ele>
        <time>2022-02-27T11:43:07.000Z</time>
      </trkpt>
      <trkpt lat="47.2594" lon="-2.32406">
        <ele>-7</ele>
        <time>2022-02-27T11:43:08.000Z</time>
      </trkpt>
      <trkpt lat="47.25944" lon="-2.324">
        <ele>-7.4000000953674</ele>
        <time>2022-02-27T11:43:09.000Z</time>
      </trkpt>
      <trkpt lat="47.25948" lon="-2.32394">
        <ele>-7.8000001907349</ele>
        <time>2022-02-27T11:43:10.000Z</time>
      </trkpt>
      <trkpt lat="47.25971" lon="-2.32366">
        <ele>-7.8000001907349</ele>
        <time>2022-02-27T11:43:15.000Z</time>
      </trkpt>
      <trkpt lat="47.26" lon="-2.32327">
        <ele>-7.8000001907349</ele>
        <time>2022-02-27T11:43:22.000Z</time>
      </trkpt>
      <trkpt lat="47.26037" lon="-2.32282">
        <ele>-7.8000001907349</ele>
        <time>2022-02-27T11:43:31.000Z</time>
      </trkpt>
      <trkpt lat="47.26064" lon="-2.32251">
        <ele>-7.8000001907349</ele>
        <time>2022-02-27T11:43:37.000Z</time>
      </trkpt>
      <trkpt lat="47.26087" lon="-2.3222">
        <ele>-7.8000001907349</ele>
        <time>2022-02-27T11:43:43.000Z</time>
      </trkpt>
      <trkpt lat="47.26106" lon="-2.32183">
        <ele>-7.8000001907349</ele>
        <time>2022-02-27T11:43:49.000Z</time>
      </trkpt>
      <trkpt lat="47.2612" lon="-2.32143">
        <ele>-7.8000001907349</ele>
        <time>2022-02-27T11:43:55.000Z</time>
      </trkpt>
      <trkpt lat="47.26136" lon="-2.32092">
        <ele>-7.8000001907349</ele>
        <time>2022-02-27T11:44:02.000Z</time>
      </trkpt>
      <trkpt lat="47.26152" lon="-2.32043">
        <ele>-7.8000001907349</ele>
        <time>2022-02-27T11:44:09.000Z</time>
      </trkpt>
      <trkpt lat="47.26154" lon="-2.32037">
        <ele>-7.8000001907349</ele>
        <time>2022-02-27T11:44:10.000Z</time>
      </trkpt>
      <trkpt lat="47.26159" lon="-2.32026">
        <ele>-7.8000001907349</ele>
        <time>2022-02-27T11:44:12.000Z</time>
      </trkpt>
      <trkpt lat="47.26166" lon="-2.3202">
        <ele>-7.8000001907349</ele>
        <time>2022-02-27T11:44:14.000Z</time>
      </trkpt>
      <trkpt lat="47.26181" lon="-2.32021">
        <ele>-7.8000001907349</ele>
        <time>2022-02-27T11:44:18.000Z</time>
      </trkpt>
      <trkpt lat="47.2619" lon="-2.32023">
        <ele>-7.8000001907349</ele>
        <time>2022-02-27T11:44:23.000Z</time>
      </trkpt>
      <trkpt lat="47.26193" lon="-2.32022">
        <ele>-7.8000001907349</ele>
        <time>2022-02-27T11:44:25.000Z</time>
      </trkpt>
      <trkpt lat="47.26195" lon="-2.32015">
        <ele>-7.8000001907349</ele>
        <time>2022-02-27T11:44:28.000Z</time>
      </trkpt>
      <trkpt lat="47.26196" lon="-2.32013">
        <ele>-7.8000001907349</ele>
        <time>2022-02-27T11:44:29.000Z</time>
      </trkpt>
      <trkpt lat="47.26198" lon="-2.32005">
        <ele>-7.8000001907349</ele>
        <time>2022-02-27T11:44:32.000Z</time>
      </trkpt>
      <trkpt lat="47.26202" lon="-2.32002">
        <ele>-7.8000001907349</ele>
        <time>2022-02-27T11:44:34.000Z</time>
      </trkpt>
      <trkpt lat="47.26215" lon="-2.31987">
        <ele>-7.8000001907349</ele>
        <time>2022-02-27T11:44:39.000Z</time>
      </trkpt>
      <trkpt lat="47.26225" lon="-2.31976">
        <ele>-7.8000001907349</ele>
        <time>2022-02-27T11:44:42.000Z</time>
      </trkpt>
      <trkpt lat="47.26231" lon="-2.3197">
        <ele>-7.8000001907349</ele>
        <time>2022-02-27T11:44:44.000Z</time>
      </trkpt>
      <trkpt lat="47.26243" lon="-2.31951">
        <ele>-7.8000001907349</ele>
        <time>2022-02-27T11:44:49.000Z</time>
      </trkpt>
      <trkpt lat="47.26257" lon="-2.31929">
        <ele>-7.8000001907349</ele>
        <time>2022-02-27T11:44:55.000Z</time>
      </trkpt>
      <trkpt lat="47.26274" lon="-2.31906">
        <ele>-7.8000001907349</ele>
        <time>2022-02-27T11:45:01.000Z</time>
      </trkpt>
      <trkpt lat="47.26279" lon="-2.31902">
        <ele>-7.8000001907349</ele>
        <time>2022-02-27T11:45:02.000Z</time>
      </trkpt>
      <trkpt lat="47.26289" lon="-2.31888">
        <ele>-7.8000001907349</ele>
        <time>2022-02-27T11:45:05.000Z</time>
      </trkpt>
      <trkpt lat="47.26291" lon="-2.31882">
        <ele>-7.8000001907349</ele>
        <time>2022-02-27T11:45:06.000Z</time>
      </trkpt>
      <trkpt lat="47.26295" lon="-2.3187">
        <ele>-7.8000001907349</ele>
        <time>2022-02-27T11:45:08.000Z</time>
      </trkpt>
      <trkpt lat="47.26304" lon="-2.3182">
        <ele>-7.8000001907349</ele>
        <time>2022-02-27T11:45:16.000Z</time>
      </trkpt>
      <trkpt lat="47.26305" lon="-2.31786">
        <ele>-7.8000001907349</ele>
        <time>2022-02-27T11:45:22.000Z</time>
      </trkpt>
      <trkpt lat="47.26302" lon="-2.3175">
        <ele>-7.8000001907349</ele>
        <time>2022-02-27T11:45:28.000Z</time>
      </trkpt>
      <trkpt lat="47.26301" lon="-2.31724">
        <ele>-7.8000001907349</ele>
        <time>2022-02-27T11:45:33.000Z</time>
      </trkpt>
      <trkpt lat="47.26303" lon="-2.3172">
        <ele>-7.8000001907349</ele>
        <time>2022-02-27T11:45:34.000Z</time>
      </trkpt>
      <trkpt lat="47.26311" lon="-2.31711">
        <ele>-7.8000001907349</ele>
        <time>2022-02-27T11:45:37.000Z</time>
      </trkpt>
      <trkpt lat="47.26323" lon="-2.31706">
        <ele>-7.8000001907349</ele>
        <time>2022-02-27T11:45:40.000Z</time>
      </trkpt>
      <trkpt lat="47.26329" lon="-2.317">
        <ele>-7.8000001907349</ele>
        <time>2022-02-27T11:45:42.000Z</time>
      </trkpt>
      <trkpt lat="47.2633" lon="-2.31694">
        <ele>-7.4000000953674</ele>
        <time>2022-02-27T11:45:43.000Z</time>
      </trkpt>
      <trkpt lat="47.26333" lon="-2.31689">
        <ele>-7</ele>
        <time>2022-02-27T11:45:44.000Z</time>
      </trkpt>
      <trkpt lat="47.26336" lon="-2.31687">
        <ele>-6.5999999046326</ele>
        <time>2022-02-27T11:45:45.000Z</time>
      </trkpt>
      <trkpt lat="47.2634" lon="-2.31686">
        <ele>-6.1999998092651</ele>
        <time>2022-02-27T11:45:46.000Z</time>
      </trkpt>
      <trkpt lat="47.26344" lon="-2.31684">
        <ele>-5.8000001907349</ele>
        <time>2022-02-27T11:45:47.000Z</time>
      </trkpt>
      <trkpt lat="47.26369" lon="-2.31671">
        <ele>-5.4000000953674</ele>
        <time>2022-02-27T11:45:54.000Z</time>
      </trkpt>
      <trkpt lat="47.26372" lon="-2.31669">
        <ele>-5</ele>
        <time>2022-02-27T11:45:55.000Z</time>
      </trkpt>
      <trkpt lat="47.26376" lon="-2.31668">
        <ele>-4.5999999046326</ele>
        <time>2022-02-27T11:45:56.000Z</time>
      </trkpt>
      <trkpt lat="47.26379" lon="-2.31666">
        <ele>-4.1999998092651</ele>
        <time>2022-02-27T11:45:57.000Z</time>
      </trkpt>
      <trkpt lat="47.26383" lon="-2.31664">
        <ele>-3.5999999046326</ele>
        <time>2022-02-27T11:45:58.000Z</time>
      </trkpt>
      <trkpt lat="47.26389" lon="-2.3166">
        <ele>-3.5999999046326</ele>
        <time>2022-02-27T11:46:00.000Z</time>
      </trkpt>
      <trkpt lat="47.26408" lon="-2.3165">
        <ele>-3.5999999046326</ele>
        <time>2022-02-27T11:46:06.000Z</time>
      </trkpt>
      <trkpt lat="47.2641" lon="-2.31646">
        <ele>-3.5999999046326</ele>
        <time>2022-02-27T11:46:07.000Z</time>
      </trkpt>
      <trkpt lat="47.26412" lon="-2.31638">
        <ele>-3.5999999046326</ele>
        <time>2022-02-27T11:46:09.000Z</time>
      </trkpt>
      <trkpt lat="47.26412" lon="-2.31613">
        <ele>-3.5999999046326</ele>
        <time>2022-02-27T11:46:14.000Z</time>
      </trkpt>
      <trkpt lat="47.26411" lon="-2.31573">
        <ele>-3.5999999046326</ele>
        <time>2022-02-27T11:46:22.000Z</time>
      </trkpt>
      <trkpt lat="47.26413" lon="-2.31556">
        <ele>-3.5999999046326</ele>
        <time>2022-02-27T11:46:26.000Z</time>
      </trkpt>
      <trkpt lat="47.26414" lon="-2.31553">
        <ele>-3.2000000476837</ele>
        <time>2022-02-27T11:46:27.000Z</time>
      </trkpt>
      <trkpt lat="47.26416" lon="-2.31552">
        <ele>-2.7999999523163</ele>
        <time>2022-02-27T11:46:28.000Z</time>
      </trkpt>
      <trkpt lat="47.26417" lon="-2.31552">
        <ele>-2.4000000953674</ele>
        <time>2022-02-27T11:46:29.000Z</time>
      </trkpt>
      <trkpt lat="47.26419" lon="-2.31553">
        <ele>-2</ele>
        <time>2022-02-27T11:46:30.000Z</time>
      </trkpt>
      <trkpt lat="47.2642" lon="-2.31553">
        <ele>-1.6000000238419</ele>
        <time>2022-02-27T11:46:31.000Z</time>
      </trkpt>
      <trkpt lat="47.2642" lon="-2.31554">
        <ele>-1.6000000238419</ele>
        <time>2022-02-27T11:46:33.000Z</time>
      </trkpt>
      <trkpt lat="47.26424" lon="-2.3155">
        <ele>-1.6000000238419</ele>
        <time>2022-02-27T11:46:49.000Z</time>
      </trkpt>
      <trkpt lat="47.26425" lon="-2.31549">
        <ele>-1.6000000238419</ele>
        <time>2022-02-27T11:46:50.000Z</time>
      </trkpt>
      <trkpt lat="47.2643" lon="-2.31551">
        <ele>-1.6000000238419</ele>
        <time>2022-02-27T11:46:55.000Z</time>
      </trkpt>
    </trkseg>
  </trk>
</gpx>